<?xml version="1.0" encoding="UTF-8"?>
<gpx version="1.1" creator="https://www.youtrack.es" xsi:schemaLocation="http://www.topografix.com/GPX/1/1 http://www.topografix.com/GPX/1/1/gpx.xsd http://www.garmin.com/xmlschemas/GpxExtensions/v3 http://www.garmin.com/xmlschemas/GpxExtensionsv3.xsd http://www.garmin.com/xmlschemas/TrackPointExtension/v1 http://www.garmin.com/xmlschemas/TrackPointExtensionv1.xsd" xmlns:gpxtpx="http://www.garmin.com/xmlschemas/TrackPointExtension/v1" xmlns:gpxx="http://www.garmin.com/xmlschemas/GpxExtensions/v3" xmlns:xsi="http://www.w3.org/2001/XMLSchema-instance">
  <metadata>
    <link href="https://www.youtrack.es">
      <text>YouTrack.es</text>
    </link>
    <time>2026-05-08T12:38:47Z</time>
  </metadata>
  <trk>
    <src>https://www.youtrack.es</src>
    <link href="https://www.youtrack.es/ruta/15267-gopoprobyem-https-www-google-com-">
      <text>YouTrack.es</text>
    </link>
    <trkseg>
      <trkpt lat="42.838584" lon="0.144052">
        <ele>2184.033</ele>
        <time>2020-06-29T07:30:38Z</time>
      </trkpt>
      <trkpt lat="42.838496" lon="0.144090">
        <ele>2187.023</ele>
        <time>2020-06-29T07:31:08Z</time>
      </trkpt>
      <trkpt lat="42.838578" lon="0.144018">
        <ele>2192.015</ele>
        <time>2020-06-29T07:31:43Z</time>
      </trkpt>
      <trkpt lat="42.838657" lon="0.143952">
        <ele>2193.008</ele>
        <time>2020-06-29T07:31:56Z</time>
      </trkpt>
      <trkpt lat="42.838748" lon="0.143946">
        <ele>2195.018</ele>
        <time>2020-06-29T07:32:20Z</time>
      </trkpt>
      <trkpt lat="42.838829" lon="0.143875">
        <ele>2194.085</ele>
        <time>2020-06-29T07:32:39Z</time>
      </trkpt>
      <trkpt lat="42.838889" lon="0.143778">
        <ele>2197.063</ele>
        <time>2020-06-29T07:32:50Z</time>
      </trkpt>
      <trkpt lat="42.838977" lon="0.143732">
        <ele>2195.016</ele>
        <time>2020-06-29T07:33:01Z</time>
      </trkpt>
      <trkpt lat="42.839012" lon="0.143613">
        <ele>2197.073</ele>
        <time>2020-06-29T07:33:09Z</time>
      </trkpt>
      <trkpt lat="42.839000" lon="0.143486">
        <ele>2198.073</ele>
        <time>2020-06-29T07:33:24Z</time>
      </trkpt>
      <trkpt lat="42.838943" lon="0.143384">
        <ele>2195.079</ele>
        <time>2020-06-29T07:33:33Z</time>
      </trkpt>
      <trkpt lat="42.838880" lon="0.143281">
        <ele>2197.092</ele>
        <time>2020-06-29T07:33:42Z</time>
      </trkpt>
      <trkpt lat="42.838818" lon="0.143191">
        <ele>2194.012</ele>
        <time>2020-06-29T07:33:52Z</time>
      </trkpt>
      <trkpt lat="42.838739" lon="0.143132">
        <ele>2193.032</ele>
        <time>2020-06-29T07:34:03Z</time>
      </trkpt>
      <trkpt lat="42.838644" lon="0.143127">
        <ele>2190.005</ele>
        <time>2020-06-29T07:34:14Z</time>
      </trkpt>
      <trkpt lat="42.838560" lon="0.143078">
        <ele>2191.008</ele>
        <time>2020-06-29T07:34:25Z</time>
      </trkpt>
      <trkpt lat="42.838487" lon="0.143003">
        <ele>2195.076</ele>
        <time>2020-06-29T07:34:40Z</time>
      </trkpt>
      <trkpt lat="42.838419" lon="0.142919">
        <ele>2194.093</ele>
        <time>2020-06-29T07:34:56Z</time>
      </trkpt>
      <trkpt lat="42.838352" lon="0.142832">
        <ele>2193.071</ele>
        <time>2020-06-29T07:35:10Z</time>
      </trkpt>
      <trkpt lat="42.838262" lon="0.142810">
        <ele>2191.044</ele>
        <time>2020-06-29T07:35:24Z</time>
      </trkpt>
      <trkpt lat="42.838223" lon="0.142699">
        <ele>2191.061</ele>
        <time>2020-06-29T07:36:09Z</time>
      </trkpt>
      <trkpt lat="42.838284" lon="0.142600">
        <ele>2190.021</ele>
        <time>2020-06-29T07:36:22Z</time>
      </trkpt>
      <trkpt lat="42.838375" lon="0.142571">
        <ele>2187.087</ele>
        <time>2020-06-29T07:36:34Z</time>
      </trkpt>
      <trkpt lat="42.838456" lon="0.142498">
        <ele>2191.060</ele>
        <time>2020-06-29T07:36:48Z</time>
      </trkpt>
      <trkpt lat="42.838526" lon="0.142577">
        <ele>2197.036</ele>
        <time>2020-06-29T07:37:32Z</time>
      </trkpt>
      <trkpt lat="42.838621" lon="0.142589">
        <ele>2198.017</ele>
        <time>2020-06-29T07:37:47Z</time>
      </trkpt>
      <trkpt lat="42.838695" lon="0.142515">
        <ele>2201.018</ele>
        <time>2020-06-29T07:38:27Z</time>
      </trkpt>
      <trkpt lat="42.838729" lon="0.142400">
        <ele>2204.008</ele>
        <time>2020-06-29T07:38:47Z</time>
      </trkpt>
      <trkpt lat="42.838714" lon="0.142279">
        <ele>2199.068</ele>
        <time>2020-06-29T07:39:40Z</time>
      </trkpt>
      <trkpt lat="42.838723" lon="0.142148">
        <ele>2198.025</ele>
        <time>2020-06-29T07:39:47Z</time>
      </trkpt>
      <trkpt lat="42.838749" lon="0.142025">
        <ele>2199.053</ele>
        <time>2020-06-29T07:39:56Z</time>
      </trkpt>
      <trkpt lat="42.838760" lon="0.141900">
        <ele>2198.096</ele>
        <time>2020-06-29T07:40:07Z</time>
      </trkpt>
      <trkpt lat="42.838768" lon="0.141775">
        <ele>2197.073</ele>
        <time>2020-06-29T07:40:19Z</time>
      </trkpt>
      <trkpt lat="42.838770" lon="0.141651">
        <ele>2196.043</ele>
        <time>2020-06-29T07:40:29Z</time>
      </trkpt>
      <trkpt lat="42.838762" lon="0.141522">
        <ele>2196.049</ele>
        <time>2020-06-29T07:40:38Z</time>
      </trkpt>
      <trkpt lat="42.838716" lon="0.141401">
        <ele>2195.012</ele>
        <time>2020-06-29T07:40:50Z</time>
      </trkpt>
      <trkpt lat="42.838660" lon="0.141283">
        <ele>2195.049</ele>
        <time>2020-06-29T07:41:02Z</time>
      </trkpt>
      <trkpt lat="42.838596" lon="0.141179">
        <ele>2196.002</ele>
        <time>2020-06-29T07:41:10Z</time>
      </trkpt>
      <trkpt lat="42.838521" lon="0.141090">
        <ele>2197.022</ele>
        <time>2020-06-29T07:41:23Z</time>
      </trkpt>
      <trkpt lat="42.838429" lon="0.141047">
        <ele>2196.008</ele>
        <time>2020-06-29T07:41:33Z</time>
      </trkpt>
      <trkpt lat="42.838345" lon="0.140988">
        <ele>2196.069</ele>
        <time>2020-06-29T07:41:44Z</time>
      </trkpt>
      <trkpt lat="42.838272" lon="0.140899">
        <ele>2197.066</ele>
        <time>2020-06-29T07:41:54Z</time>
      </trkpt>
      <trkpt lat="42.838216" lon="0.140802">
        <ele>2198.054</ele>
        <time>2020-06-29T07:42:03Z</time>
      </trkpt>
      <trkpt lat="42.838174" lon="0.140687">
        <ele>2198.047</ele>
        <time>2020-06-29T07:42:14Z</time>
      </trkpt>
      <trkpt lat="42.838126" lon="0.140572">
        <ele>2197.084</ele>
        <time>2020-06-29T07:42:22Z</time>
      </trkpt>
      <trkpt lat="42.838088" lon="0.140448">
        <ele>2197.054</ele>
        <time>2020-06-29T07:42:31Z</time>
      </trkpt>
      <trkpt lat="42.838044" lon="0.140340">
        <ele>2197.080</ele>
        <time>2020-06-29T07:42:40Z</time>
      </trkpt>
      <trkpt lat="42.838012" lon="0.140223">
        <ele>2197.023</ele>
        <time>2020-06-29T07:42:49Z</time>
      </trkpt>
      <trkpt lat="42.837970" lon="0.140106">
        <ele>2199.083</ele>
        <time>2020-06-29T07:42:59Z</time>
      </trkpt>
      <trkpt lat="42.837921" lon="0.139992">
        <ele>2199.025</ele>
        <time>2020-06-29T07:43:08Z</time>
      </trkpt>
      <trkpt lat="42.837833" lon="0.140024">
        <ele>2207.017</ele>
        <time>2020-06-29T07:46:28Z</time>
      </trkpt>
      <trkpt lat="42.837744" lon="0.139976">
        <ele>2209.008</ele>
        <time>2020-06-29T07:47:17Z</time>
      </trkpt>
      <trkpt lat="42.837694" lon="0.139862">
        <ele>2214.013</ele>
        <time>2020-06-29T07:47:45Z</time>
      </trkpt>
      <trkpt lat="42.837644" lon="0.139756">
        <ele>2210.040</ele>
        <time>2020-06-29T07:47:57Z</time>
      </trkpt>
      <trkpt lat="42.837708" lon="0.139668">
        <ele>2216.088</ele>
        <time>2020-06-29T07:48:11Z</time>
      </trkpt>
      <trkpt lat="42.837714" lon="0.139545">
        <ele>2215.051</ele>
        <time>2020-06-29T07:48:26Z</time>
      </trkpt>
      <trkpt lat="42.837679" lon="0.139424">
        <ele>2216.088</ele>
        <time>2020-06-29T07:48:39Z</time>
      </trkpt>
      <trkpt lat="42.837617" lon="0.139323">
        <ele>2216.048</ele>
        <time>2020-06-29T07:48:59Z</time>
      </trkpt>
      <trkpt lat="42.837585" lon="0.139208">
        <ele>2217.034</ele>
        <time>2020-06-29T07:49:18Z</time>
      </trkpt>
      <trkpt lat="42.837653" lon="0.139129">
        <ele>2223.047</ele>
        <time>2020-06-29T07:49:34Z</time>
      </trkpt>
      <trkpt lat="42.837569" lon="0.139197">
        <ele>2213.065</ele>
        <time>2020-06-29T07:50:47Z</time>
      </trkpt>
      <trkpt lat="42.837538" lon="0.139322">
        <ele>2211.068</ele>
        <time>2020-06-29T07:51:02Z</time>
      </trkpt>
      <trkpt lat="42.837510" lon="0.139439">
        <ele>2214.014</ele>
        <time>2020-06-29T07:51:11Z</time>
      </trkpt>
      <trkpt lat="42.837417" lon="0.139418">
        <ele>2221.008</ele>
        <time>2020-06-29T07:51:38Z</time>
      </trkpt>
      <trkpt lat="42.837348" lon="0.139506">
        <ele>2222.051</ele>
        <time>2020-06-29T07:51:56Z</time>
      </trkpt>
      <trkpt lat="42.837294" lon="0.139605">
        <ele>2226.038</ele>
        <time>2020-06-29T07:52:12Z</time>
      </trkpt>
      <trkpt lat="42.837200" lon="0.139601">
        <ele>2229.076</ele>
        <time>2020-06-29T07:52:40Z</time>
      </trkpt>
      <trkpt lat="42.837127" lon="0.139528">
        <ele>2230.069</ele>
        <time>2020-06-29T07:52:59Z</time>
      </trkpt>
      <trkpt lat="42.837046" lon="0.139471">
        <ele>2227.096</ele>
        <time>2020-06-29T07:53:16Z</time>
      </trkpt>
      <trkpt lat="42.836960" lon="0.139436">
        <ele>2234.056</ele>
        <time>2020-06-29T07:53:35Z</time>
      </trkpt>
      <trkpt lat="42.836868" lon="0.139449">
        <ele>2234.052</ele>
        <time>2020-06-29T07:54:04Z</time>
      </trkpt>
      <trkpt lat="42.836781" lon="0.139392">
        <ele>2237.095</ele>
        <time>2020-06-29T07:54:22Z</time>
      </trkpt>
      <trkpt lat="42.836717" lon="0.139303">
        <ele>2234.016</ele>
        <time>2020-06-29T07:54:39Z</time>
      </trkpt>
      <trkpt lat="42.836658" lon="0.139209">
        <ele>2243.076</ele>
        <time>2020-06-29T07:55:03Z</time>
      </trkpt>
      <trkpt lat="42.836615" lon="0.139095">
        <ele>2244.013</ele>
        <time>2020-06-29T07:55:22Z</time>
      </trkpt>
      <trkpt lat="42.836582" lon="0.138981">
        <ele>2252.008</ele>
        <time>2020-06-29T07:55:36Z</time>
      </trkpt>
      <trkpt lat="42.836490" lon="0.138986">
        <ele>2248.096</ele>
        <time>2020-06-29T07:55:51Z</time>
      </trkpt>
      <trkpt lat="42.836406" lon="0.138926">
        <ele>2244.013</ele>
        <time>2020-06-29T07:56:09Z</time>
      </trkpt>
      <trkpt lat="42.836372" lon="0.138809">
        <ele>2251.041</ele>
        <time>2020-06-29T07:56:27Z</time>
      </trkpt>
      <trkpt lat="42.836286" lon="0.138773">
        <ele>2253.054</ele>
        <time>2020-06-29T07:56:43Z</time>
      </trkpt>
      <trkpt lat="42.836203" lon="0.138711">
        <ele>2259.061</ele>
        <time>2020-06-29T07:57:03Z</time>
      </trkpt>
      <trkpt lat="42.836118" lon="0.138663">
        <ele>2260.031</ele>
        <time>2020-06-29T07:57:15Z</time>
      </trkpt>
      <trkpt lat="42.836058" lon="0.138570">
        <ele>2261.087</ele>
        <time>2020-06-29T07:57:34Z</time>
      </trkpt>
      <trkpt lat="42.835962" lon="0.138554">
        <ele>2263.060</ele>
        <time>2020-06-29T07:57:46Z</time>
      </trkpt>
      <trkpt lat="42.835872" lon="0.138522">
        <ele>2262.048</ele>
        <time>2020-06-29T07:58:01Z</time>
      </trkpt>
      <trkpt lat="42.835780" lon="0.138555">
        <ele>2261.061</ele>
        <time>2020-06-29T07:58:20Z</time>
      </trkpt>
      <trkpt lat="42.835718" lon="0.138457">
        <ele>2262.017</ele>
        <time>2020-06-29T07:58:34Z</time>
      </trkpt>
      <trkpt lat="42.835637" lon="0.138386">
        <ele>2266.008</ele>
        <time>2020-06-29T07:59:24Z</time>
      </trkpt>
      <trkpt lat="42.835599" lon="0.138275">
        <ele>2266.099</ele>
        <time>2020-06-29T07:59:45Z</time>
      </trkpt>
      <trkpt lat="42.835551" lon="0.138161">
        <ele>2268.076</ele>
        <time>2020-06-29T08:00:04Z</time>
      </trkpt>
      <trkpt lat="42.835538" lon="0.138040">
        <ele>2272.074</ele>
        <time>2020-06-29T08:00:27Z</time>
      </trkpt>
      <trkpt lat="42.835488" lon="0.137938">
        <ele>2277.037</ele>
        <time>2020-06-29T08:01:10Z</time>
      </trkpt>
      <trkpt lat="42.835469" lon="0.137815">
        <ele>2280.024</ele>
        <time>2020-06-29T08:01:47Z</time>
      </trkpt>
      <trkpt lat="42.835484" lon="0.137691">
        <ele>2286.024</ele>
        <time>2020-06-29T08:02:51Z</time>
      </trkpt>
      <trkpt lat="42.835471" lon="0.137567">
        <ele>2292.020</ele>
        <time>2020-06-29T08:03:21Z</time>
      </trkpt>
      <trkpt lat="42.835431" lon="0.137453">
        <ele>2291.083</ele>
        <time>2020-06-29T08:04:01Z</time>
      </trkpt>
      <trkpt lat="42.835381" lon="0.137346">
        <ele>2288.035</ele>
        <time>2020-06-29T08:04:25Z</time>
      </trkpt>
      <trkpt lat="42.835387" lon="0.137224">
        <ele>2298.086</ele>
        <time>2020-06-29T08:05:02Z</time>
      </trkpt>
      <trkpt lat="42.835383" lon="0.137101">
        <ele>2305.014</ele>
        <time>2020-06-29T08:06:01Z</time>
      </trkpt>
      <trkpt lat="42.835372" lon="0.136979">
        <ele>2310.008</ele>
        <time>2020-06-29T08:06:30Z</time>
      </trkpt>
      <trkpt lat="42.835449" lon="0.136908">
        <ele>2314.068</ele>
        <time>2020-06-29T08:06:46Z</time>
      </trkpt>
      <trkpt lat="42.835503" lon="0.136807">
        <ele>2314.035</ele>
        <time>2020-06-29T08:06:56Z</time>
      </trkpt>
      <trkpt lat="42.835519" lon="0.136679">
        <ele>2314.053</ele>
        <time>2020-06-29T08:07:15Z</time>
      </trkpt>
      <trkpt lat="42.835577" lon="0.136583">
        <ele>2312.026</ele>
        <time>2020-06-29T08:07:33Z</time>
      </trkpt>
      <trkpt lat="42.835650" lon="0.136505">
        <ele>2315.073</ele>
        <time>2020-06-29T08:07:49Z</time>
      </trkpt>
      <trkpt lat="42.835739" lon="0.136485">
        <ele>2313.063</ele>
        <time>2020-06-29T08:08:15Z</time>
      </trkpt>
      <trkpt lat="42.835769" lon="0.136369">
        <ele>2320.089</ele>
        <time>2020-06-29T08:08:44Z</time>
      </trkpt>
      <trkpt lat="42.835814" lon="0.136256">
        <ele>2324.022</ele>
        <time>2020-06-29T08:09:23Z</time>
      </trkpt>
      <trkpt lat="42.835865" lon="0.136147">
        <ele>2328.057</ele>
        <time>2020-06-29T08:09:45Z</time>
      </trkpt>
      <trkpt lat="42.835923" lon="0.136049">
        <ele>2329.000</ele>
        <time>2020-06-29T08:16:40Z</time>
      </trkpt>
      <trkpt lat="42.836013" lon="0.135999">
        <ele>2333.020</ele>
        <time>2020-06-29T08:17:29Z</time>
      </trkpt>
      <trkpt lat="42.836099" lon="0.135956">
        <ele>2344.008</ele>
        <time>2020-06-29T08:19:10Z</time>
      </trkpt>
      <trkpt lat="42.836174" lon="0.135886">
        <ele>2342.070</ele>
        <time>2020-06-29T08:19:36Z</time>
      </trkpt>
      <trkpt lat="42.836255" lon="0.135817">
        <ele>2355.027</ele>
        <time>2020-06-29T08:21:15Z</time>
      </trkpt>
      <trkpt lat="42.836317" lon="0.135728">
        <ele>2374.055</ele>
        <time>2020-06-29T08:21:51Z</time>
      </trkpt>
      <trkpt lat="42.836398" lon="0.135668">
        <ele>2372.018</ele>
        <time>2020-06-29T08:22:48Z</time>
      </trkpt>
      <trkpt lat="42.836452" lon="0.135557">
        <ele>2375.045</ele>
        <time>2020-06-29T08:23:38Z</time>
      </trkpt>
      <trkpt lat="42.836513" lon="0.135459">
        <ele>2372.085</ele>
        <time>2020-06-29T08:24:16Z</time>
      </trkpt>
      <trkpt lat="42.836581" lon="0.135372">
        <ele>2372.041</ele>
        <time>2020-06-29T08:24:49Z</time>
      </trkpt>
      <trkpt lat="42.836626" lon="0.135265">
        <ele>2380.054</ele>
        <time>2020-06-29T08:26:49Z</time>
      </trkpt>
      <trkpt lat="42.836720" lon="0.135271">
        <ele>2381.056</ele>
        <time>2020-06-29T08:27:33Z</time>
      </trkpt>
      <trkpt lat="42.836800" lon="0.135331">
        <ele>2382.059</ele>
        <time>2020-06-29T08:28:27Z</time>
      </trkpt>
      <trkpt lat="42.836878" lon="0.135269">
        <ele>2393.014</ele>
        <time>2020-06-29T08:29:37Z</time>
      </trkpt>
      <trkpt lat="42.836973" lon="0.135260">
        <ele>2398.008</ele>
        <time>2020-06-29T08:30:29Z</time>
      </trkpt>
      <trkpt lat="42.837063" lon="0.135273">
        <ele>2401.020</ele>
        <time>2020-06-29T08:30:55Z</time>
      </trkpt>
      <trkpt lat="42.837117" lon="0.135175">
        <ele>2406.057</ele>
        <time>2020-06-29T08:32:57Z</time>
      </trkpt>
      <trkpt lat="42.837128" lon="0.135048">
        <ele>2409.025</ele>
        <time>2020-06-29T08:33:35Z</time>
      </trkpt>
      <trkpt lat="42.837198" lon="0.134960">
        <ele>2411.068</ele>
        <time>2020-06-29T08:34:22Z</time>
      </trkpt>
      <trkpt lat="42.837290" lon="0.134955">
        <ele>2411.095</ele>
        <time>2020-06-29T08:34:36Z</time>
      </trkpt>
      <trkpt lat="42.837317" lon="0.134835">
        <ele>2417.085</ele>
        <time>2020-06-29T08:35:18Z</time>
      </trkpt>
      <trkpt lat="42.837275" lon="0.134726">
        <ele>2425.081</ele>
        <time>2020-06-29T08:36:49Z</time>
      </trkpt>
      <trkpt lat="42.837366" lon="0.134694">
        <ele>2429.024</ele>
        <time>2020-06-29T08:37:20Z</time>
      </trkpt>
      <trkpt lat="42.837455" lon="0.134657">
        <ele>2425.064</ele>
        <time>2020-06-29T08:37:42Z</time>
      </trkpt>
      <trkpt lat="42.837547" lon="0.134670">
        <ele>2428.006</ele>
        <time>2020-06-29T08:38:09Z</time>
      </trkpt>
      <trkpt lat="42.837638" lon="0.134633">
        <ele>2432.016</ele>
        <time>2020-06-29T08:38:52Z</time>
      </trkpt>
      <trkpt lat="42.837715" lon="0.134697">
        <ele>2435.008</ele>
        <time>2020-06-29T08:39:15Z</time>
      </trkpt>
      <trkpt lat="42.837804" lon="0.134717">
        <ele>2433.051</ele>
        <time>2020-06-29T08:40:35Z</time>
      </trkpt>
      <trkpt lat="42.837845" lon="0.134826">
        <ele>2438.028</ele>
        <time>2020-06-29T08:40:50Z</time>
      </trkpt>
      <trkpt lat="42.837920" lon="0.134757">
        <ele>2439.086</ele>
        <time>2020-06-29T08:41:10Z</time>
      </trkpt>
      <trkpt lat="42.838007" lon="0.134687">
        <ele>2437.089</ele>
        <time>2020-06-29T08:41:34Z</time>
      </trkpt>
      <trkpt lat="42.838094" lon="0.134653">
        <ele>2438.026</ele>
        <time>2020-06-29T08:41:58Z</time>
      </trkpt>
      <trkpt lat="42.838182" lon="0.134621">
        <ele>2448.046</ele>
        <time>2020-06-29T08:43:14Z</time>
      </trkpt>
      <trkpt lat="42.838238" lon="0.134524">
        <ele>2451.062</ele>
        <time>2020-06-29T08:43:52Z</time>
      </trkpt>
      <trkpt lat="42.838301" lon="0.134427">
        <ele>2454.055</ele>
        <time>2020-06-29T08:44:15Z</time>
      </trkpt>
      <trkpt lat="42.838393" lon="0.134394">
        <ele>2457.047</ele>
        <time>2020-06-29T08:44:48Z</time>
      </trkpt>
      <trkpt lat="42.838473" lon="0.134335">
        <ele>2460.029</ele>
        <time>2020-06-29T08:44:59Z</time>
      </trkpt>
      <trkpt lat="42.838566" lon="0.134326">
        <ele>2462.021</ele>
        <time>2020-06-29T08:45:18Z</time>
      </trkpt>
      <trkpt lat="42.838660" lon="0.134322">
        <ele>2462.008</ele>
        <time>2020-06-29T08:45:40Z</time>
      </trkpt>
      <trkpt lat="42.838721" lon="0.134229">
        <ele>2461.019</ele>
        <time>2020-06-29T08:46:08Z</time>
      </trkpt>
      <trkpt lat="42.838811" lon="0.134198">
        <ele>2459.096</ele>
        <time>2020-06-29T08:46:29Z</time>
      </trkpt>
      <trkpt lat="42.838815" lon="0.134070">
        <ele>2467.084</ele>
        <time>2020-06-29T08:46:57Z</time>
      </trkpt>
      <trkpt lat="42.838870" lon="0.133974">
        <ele>2477.057</ele>
        <time>2020-06-29T08:47:55Z</time>
      </trkpt>
      <trkpt lat="42.838804" lon="0.133890">
        <ele>2476.094</ele>
        <time>2020-06-29T08:48:51Z</time>
      </trkpt>
      <trkpt lat="42.838731" lon="0.133814">
        <ele>2479.044</ele>
        <time>2020-06-29T08:50:41Z</time>
      </trkpt>
      <trkpt lat="42.838814" lon="0.133764">
        <ele>2483.020</ele>
        <time>2020-06-29T08:51:21Z</time>
      </trkpt>
      <trkpt lat="42.838897" lon="0.133707">
        <ele>2488.083</ele>
        <time>2020-06-29T08:52:32Z</time>
      </trkpt>
      <trkpt lat="42.838938" lon="0.133595">
        <ele>2495.063</ele>
        <time>2020-06-29T08:53:38Z</time>
      </trkpt>
      <trkpt lat="42.838902" lon="0.133480">
        <ele>2503.044</ele>
        <time>2020-06-29T08:54:41Z</time>
      </trkpt>
      <trkpt lat="42.838910" lon="0.133357">
        <ele>2509.018</ele>
        <time>2020-06-29T08:55:27Z</time>
      </trkpt>
      <trkpt lat="42.838942" lon="0.133239">
        <ele>2513.008</ele>
        <time>2020-06-29T08:56:43Z</time>
      </trkpt>
      <trkpt lat="42.838896" lon="0.133347">
        <ele>2510.041</ele>
        <time>2020-06-29T08:59:01Z</time>
      </trkpt>
      <trkpt lat="42.838877" lon="0.133471">
        <ele>2501.098</ele>
        <time>2020-06-29T08:59:40Z</time>
      </trkpt>
      <trkpt lat="42.838963" lon="0.133518">
        <ele>2500.066</ele>
        <time>2020-06-29T09:00:01Z</time>
      </trkpt>
      <trkpt lat="42.839052" lon="0.133548">
        <ele>2497.069</ele>
        <time>2020-06-29T09:01:38Z</time>
      </trkpt>
      <trkpt lat="42.839135" lon="0.133489">
        <ele>2490.086</ele>
        <time>2020-06-29T09:02:38Z</time>
      </trkpt>
      <trkpt lat="42.839211" lon="0.133419">
        <ele>2493.016</ele>
        <time>2020-06-29T09:03:46Z</time>
      </trkpt>
      <trkpt lat="42.839271" lon="0.133325">
        <ele>2491.092</ele>
        <time>2020-06-29T09:04:16Z</time>
      </trkpt>
      <trkpt lat="42.839320" lon="0.133221">
        <ele>2494.035</ele>
        <time>2020-06-29T09:04:42Z</time>
      </trkpt>
      <trkpt lat="42.839299" lon="0.133100">
        <ele>2493.087</ele>
        <time>2020-06-29T09:05:23Z</time>
      </trkpt>
      <trkpt lat="42.839253" lon="0.132993">
        <ele>2492.042</ele>
        <time>2020-06-29T09:06:02Z</time>
      </trkpt>
      <trkpt lat="42.839294" lon="0.132880">
        <ele>2493.026</ele>
        <time>2020-06-29T09:06:58Z</time>
      </trkpt>
      <trkpt lat="42.839304" lon="0.132755">
        <ele>2498.008</ele>
        <time>2020-06-29T09:07:24Z</time>
      </trkpt>
      <trkpt lat="42.839328" lon="0.132634">
        <ele>2501.013</ele>
        <time>2020-06-29T09:08:04Z</time>
      </trkpt>
      <trkpt lat="42.839337" lon="0.132510">
        <ele>2505.070</ele>
        <time>2020-06-29T09:08:52Z</time>
      </trkpt>
      <trkpt lat="42.839311" lon="0.132384">
        <ele>2503.078</ele>
        <time>2020-06-29T09:09:24Z</time>
      </trkpt>
      <trkpt lat="42.839331" lon="0.132263">
        <ele>2507.071</ele>
        <time>2020-06-29T09:09:43Z</time>
      </trkpt>
      <trkpt lat="42.839291" lon="0.132153">
        <ele>2514.098</ele>
        <time>2020-06-29T09:10:42Z</time>
      </trkpt>
      <trkpt lat="42.839249" lon="0.132040">
        <ele>2513.038</ele>
        <time>2020-06-29T09:11:07Z</time>
      </trkpt>
      <trkpt lat="42.839200" lon="0.131935">
        <ele>2506.044</ele>
        <time>2020-06-29T09:12:27Z</time>
      </trkpt>
      <trkpt lat="42.839145" lon="0.131831">
        <ele>2505.087</ele>
        <time>2020-06-29T09:12:54Z</time>
      </trkpt>
      <trkpt lat="42.839143" lon="0.131707">
        <ele>2505.082</ele>
        <time>2020-06-29T09:13:04Z</time>
      </trkpt>
      <trkpt lat="42.839155" lon="0.131583">
        <ele>2506.043</ele>
        <time>2020-06-29T09:13:36Z</time>
      </trkpt>
      <trkpt lat="42.839135" lon="0.131462">
        <ele>2506.017</ele>
        <time>2020-06-29T09:14:04Z</time>
      </trkpt>
      <trkpt lat="42.839085" lon="0.131357">
        <ele>2509.008</ele>
        <time>2020-06-29T09:14:54Z</time>
      </trkpt>
      <trkpt lat="42.839016" lon="0.131265">
        <ele>2510.083</ele>
        <time>2020-06-29T09:15:34Z</time>
      </trkpt>
      <trkpt lat="42.838973" lon="0.131150">
        <ele>2513.090</ele>
        <time>2020-06-29T09:15:57Z</time>
      </trkpt>
      <trkpt lat="42.838884" lon="0.131110">
        <ele>2512.048</ele>
        <time>2020-06-29T09:16:33Z</time>
      </trkpt>
      <trkpt lat="42.838952" lon="0.131016">
        <ele>2511.051</ele>
        <time>2020-06-29T09:17:01Z</time>
      </trkpt>
      <trkpt lat="42.839027" lon="0.130941">
        <ele>2512.058</ele>
        <time>2020-06-29T09:17:14Z</time>
      </trkpt>
      <trkpt lat="42.839109" lon="0.130883">
        <ele>2510.058</ele>
        <time>2020-06-29T09:17:40Z</time>
      </trkpt>
      <trkpt lat="42.839197" lon="0.130843">
        <ele>2516.094</ele>
        <time>2020-06-29T09:17:51Z</time>
      </trkpt>
      <trkpt lat="42.839279" lon="0.130783">
        <ele>2517.017</ele>
        <time>2020-06-29T09:18:44Z</time>
      </trkpt>
      <trkpt lat="42.839312" lon="0.130663">
        <ele>2516.091</ele>
        <time>2020-06-29T09:19:13Z</time>
      </trkpt>
      <trkpt lat="42.839356" lon="0.130556">
        <ele>2520.081</ele>
        <time>2020-06-29T09:19:53Z</time>
      </trkpt>
      <trkpt lat="42.839375" lon="0.130436">
        <ele>2526.019</ele>
        <time>2020-06-29T09:20:42Z</time>
      </trkpt>
      <trkpt lat="42.839406" lon="0.130316">
        <ele>2528.008</ele>
        <time>2020-06-29T09:21:20Z</time>
      </trkpt>
      <trkpt lat="42.839466" lon="0.130223">
        <ele>2534.014</ele>
        <time>2020-06-29T09:21:45Z</time>
      </trkpt>
      <trkpt lat="42.839503" lon="0.130107">
        <ele>2537.081</ele>
        <time>2020-06-29T09:22:16Z</time>
      </trkpt>
      <trkpt lat="42.839502" lon="0.129978">
        <ele>2538.039</ele>
        <time>2020-06-29T09:22:51Z</time>
      </trkpt>
      <trkpt lat="42.839489" lon="0.129856">
        <ele>2540.012</ele>
        <time>2020-06-29T09:23:23Z</time>
      </trkpt>
      <trkpt lat="42.839466" lon="0.129736">
        <ele>2549.099</ele>
        <time>2020-06-29T09:24:14Z</time>
      </trkpt>
      <trkpt lat="42.839452" lon="0.129611">
        <ele>2545.029</ele>
        <time>2020-06-29T09:24:44Z</time>
      </trkpt>
      <trkpt lat="42.839415" lon="0.129499">
        <ele>2552.025</ele>
        <time>2020-06-29T09:25:19Z</time>
      </trkpt>
      <trkpt lat="42.839379" lon="0.129387">
        <ele>2558.068</ele>
        <time>2020-06-29T09:26:03Z</time>
      </trkpt>
      <trkpt lat="42.839409" lon="0.129268">
        <ele>2564.056</ele>
        <time>2020-06-29T09:26:32Z</time>
      </trkpt>
      <trkpt lat="42.839435" lon="0.129143">
        <ele>2567.059</ele>
        <time>2020-06-29T09:27:01Z</time>
      </trkpt>
      <trkpt lat="42.839473" lon="0.129028">
        <ele>2565.014</ele>
        <time>2020-06-29T09:27:28Z</time>
      </trkpt>
      <trkpt lat="42.839493" lon="0.128906">
        <ele>2569.008</ele>
        <time>2020-06-29T09:27:50Z</time>
      </trkpt>
      <trkpt lat="42.839519" lon="0.128788">
        <ele>2571.010</ele>
        <time>2020-06-29T09:28:09Z</time>
      </trkpt>
      <trkpt lat="42.839563" lon="0.128676">
        <ele>2570.047</ele>
        <time>2020-06-29T09:28:22Z</time>
      </trkpt>
      <trkpt lat="42.839589" lon="0.128553">
        <ele>2573.045</ele>
        <time>2020-06-29T09:28:49Z</time>
      </trkpt>
      <trkpt lat="42.839606" lon="0.128424">
        <ele>2570.018</ele>
        <time>2020-06-29T09:29:06Z</time>
      </trkpt>
      <trkpt lat="42.839638" lon="0.128307">
        <ele>2577.045</ele>
        <time>2020-06-29T09:29:22Z</time>
      </trkpt>
      <trkpt lat="42.839660" lon="0.128177">
        <ele>2578.015</ele>
        <time>2020-06-29T09:29:44Z</time>
      </trkpt>
      <trkpt lat="42.839664" lon="0.128047">
        <ele>2580.011</ele>
        <time>2020-06-29T09:30:02Z</time>
      </trkpt>
      <trkpt lat="42.839735" lon="0.127963">
        <ele>2574.024</ele>
        <time>2020-06-29T09:30:50Z</time>
      </trkpt>
      <trkpt lat="42.839777" lon="0.127846">
        <ele>2571.084</ele>
        <time>2020-06-29T09:31:03Z</time>
      </trkpt>
      <trkpt lat="42.839831" lon="0.127742">
        <ele>2571.007</ele>
        <time>2020-06-29T09:31:15Z</time>
      </trkpt>
      <trkpt lat="42.839888" lon="0.127636">
        <ele>2573.017</ele>
        <time>2020-06-29T09:31:26Z</time>
      </trkpt>
      <trkpt lat="42.839955" lon="0.127552">
        <ele>2574.008</ele>
        <time>2020-06-29T09:31:51Z</time>
      </trkpt>
      <trkpt lat="42.839987" lon="0.127434">
        <ele>2571.093</ele>
        <time>2020-06-29T09:32:13Z</time>
      </trkpt>
      <trkpt lat="42.840058" lon="0.127354">
        <ele>2571.040</ele>
        <time>2020-06-29T09:32:41Z</time>
      </trkpt>
      <trkpt lat="42.840122" lon="0.127259">
        <ele>2571.098</ele>
        <time>2020-06-29T09:32:57Z</time>
      </trkpt>
      <trkpt lat="42.840076" lon="0.127153">
        <ele>2565.051</ele>
        <time>2020-06-29T09:36:20Z</time>
      </trkpt>
      <trkpt lat="42.840128" lon="0.127050">
        <ele>2572.098</ele>
        <time>2020-06-29T09:49:06Z</time>
      </trkpt>
      <trkpt lat="42.840149" lon="0.126924">
        <ele>2571.058</ele>
        <time>2020-06-29T09:49:36Z</time>
      </trkpt>
      <trkpt lat="42.840168" lon="0.126799">
        <ele>2574.084</ele>
        <time>2020-06-29T09:50:14Z</time>
      </trkpt>
      <trkpt lat="42.840221" lon="0.126694">
        <ele>2582.067</ele>
        <time>2020-06-29T09:50:51Z</time>
      </trkpt>
      <trkpt lat="42.840264" lon="0.126582">
        <ele>2587.016</ele>
        <time>2020-06-29T09:51:14Z</time>
      </trkpt>
      <trkpt lat="42.840282" lon="0.126460">
        <ele>2586.076</ele>
        <time>2020-06-29T09:51:41Z</time>
      </trkpt>
      <trkpt lat="42.840311" lon="0.126341">
        <ele>2590.013</ele>
        <time>2020-06-29T09:51:59Z</time>
      </trkpt>
      <trkpt lat="42.840352" lon="0.126228">
        <ele>2590.008</ele>
        <time>2020-06-29T09:52:20Z</time>
      </trkpt>
      <trkpt lat="42.840390" lon="0.126109">
        <ele>2592.066</ele>
        <time>2020-06-29T09:52:37Z</time>
      </trkpt>
      <trkpt lat="42.840415" lon="0.125990">
        <ele>2592.073</ele>
        <time>2020-06-29T09:52:54Z</time>
      </trkpt>
      <trkpt lat="42.840460" lon="0.125884">
        <ele>2594.091</ele>
        <time>2020-06-29T09:53:07Z</time>
      </trkpt>
      <trkpt lat="42.840501" lon="0.125775">
        <ele>2597.054</ele>
        <time>2020-06-29T09:53:22Z</time>
      </trkpt>
      <trkpt lat="42.840549" lon="0.125665">
        <ele>2590.091</ele>
        <time>2020-06-29T09:54:06Z</time>
      </trkpt>
      <trkpt lat="42.840580" lon="0.125547">
        <ele>2592.091</ele>
        <time>2020-06-29T09:54:27Z</time>
      </trkpt>
      <trkpt lat="42.840602" lon="0.125423">
        <ele>2597.067</ele>
        <time>2020-06-29T09:55:00Z</time>
      </trkpt>
      <trkpt lat="42.840604" lon="0.125299">
        <ele>2597.050</ele>
        <time>2020-06-29T09:55:31Z</time>
      </trkpt>
      <trkpt lat="42.840620" lon="0.125173">
        <ele>2605.044</ele>
        <time>2020-06-29T09:56:35Z</time>
      </trkpt>
      <trkpt lat="42.840624" lon="0.125048">
        <ele>2607.005</ele>
        <time>2020-06-29T09:57:29Z</time>
      </trkpt>
      <trkpt lat="42.840597" lon="0.124928">
        <ele>2611.015</ele>
        <time>2020-06-29T09:57:59Z</time>
      </trkpt>
      <trkpt lat="42.840655" lon="0.124833">
        <ele>2623.008</ele>
        <time>2020-06-29T09:58:43Z</time>
      </trkpt>
      <trkpt lat="42.840603" lon="0.124728">
        <ele>2627.029</ele>
        <time>2020-06-29T09:59:23Z</time>
      </trkpt>
      <trkpt lat="42.840640" lon="0.124613">
        <ele>2633.036</ele>
        <time>2020-06-29T09:59:58Z</time>
      </trkpt>
      <trkpt lat="42.840671" lon="0.124497">
        <ele>2635.094</ele>
        <time>2020-06-29T10:00:30Z</time>
      </trkpt>
      <trkpt lat="42.840694" lon="0.124375">
        <ele>2637.057</ele>
        <time>2020-06-29T10:00:58Z</time>
      </trkpt>
      <trkpt lat="42.840717" lon="0.124255">
        <ele>2640.014</ele>
        <time>2020-06-29T10:01:24Z</time>
      </trkpt>
      <trkpt lat="42.840758" lon="0.124142">
        <ele>2645.014</ele>
        <time>2020-06-29T10:02:18Z</time>
      </trkpt>
      <trkpt lat="42.840790" lon="0.124023">
        <ele>2648.050</ele>
        <time>2020-06-29T10:02:44Z</time>
      </trkpt>
      <trkpt lat="42.840821" lon="0.123905">
        <ele>2652.023</ele>
        <time>2020-06-29T10:03:10Z</time>
      </trkpt>
      <trkpt lat="42.840878" lon="0.123808">
        <ele>2654.031</ele>
        <time>2020-06-29T10:03:37Z</time>
      </trkpt>
      <trkpt lat="42.840925" lon="0.123700">
        <ele>2660.061</ele>
        <time>2020-06-29T10:04:24Z</time>
      </trkpt>
      <trkpt lat="42.840964" lon="0.123589">
        <ele>2663.007</ele>
        <time>2020-06-29T10:04:44Z</time>
      </trkpt>
      <trkpt lat="42.840988" lon="0.123464">
        <ele>2665.008</ele>
        <time>2020-06-29T10:05:08Z</time>
      </trkpt>
      <trkpt lat="42.841012" lon="0.123346">
        <ele>2668.028</ele>
        <time>2020-06-29T10:05:26Z</time>
      </trkpt>
      <trkpt lat="42.841040" lon="0.123229">
        <ele>2672.085</ele>
        <time>2020-06-29T10:05:48Z</time>
      </trkpt>
      <trkpt lat="42.841042" lon="0.123106">
        <ele>2673.023</ele>
        <time>2020-06-29T10:06:04Z</time>
      </trkpt>
      <trkpt lat="42.841067" lon="0.122981">
        <ele>2675.026</ele>
        <time>2020-06-29T10:06:27Z</time>
      </trkpt>
      <trkpt lat="42.841056" lon="0.122858">
        <ele>2675.033</ele>
        <time>2020-06-29T10:06:51Z</time>
      </trkpt>
      <trkpt lat="42.841023" lon="0.122741">
        <ele>2677.053</ele>
        <time>2020-06-29T10:07:22Z</time>
      </trkpt>
      <trkpt lat="42.841045" lon="0.122618">
        <ele>2681.049</ele>
        <time>2020-06-29T10:07:50Z</time>
      </trkpt>
      <trkpt lat="42.841072" lon="0.122498">
        <ele>2685.082</ele>
        <time>2020-06-29T10:08:49Z</time>
      </trkpt>
      <trkpt lat="42.841101" lon="0.122381">
        <ele>2686.027</ele>
        <time>2020-06-29T10:09:39Z</time>
      </trkpt>
      <trkpt lat="42.841125" lon="0.122262">
        <ele>2688.068</ele>
        <time>2020-06-29T10:10:09Z</time>
      </trkpt>
      <trkpt lat="42.841147" lon="0.122142">
        <ele>2689.014</ele>
        <time>2020-06-29T10:10:39Z</time>
      </trkpt>
      <trkpt lat="42.841165" lon="0.122019">
        <ele>2690.008</ele>
        <time>2020-06-29T10:10:58Z</time>
      </trkpt>
      <trkpt lat="42.841189" lon="0.121898">
        <ele>2693.017</ele>
        <time>2020-06-29T10:11:21Z</time>
      </trkpt>
      <trkpt lat="42.841180" lon="0.121770">
        <ele>2695.034</ele>
        <time>2020-06-29T10:11:53Z</time>
      </trkpt>
      <trkpt lat="42.841176" lon="0.121645">
        <ele>2703.092</ele>
        <time>2020-06-29T10:12:27Z</time>
      </trkpt>
      <trkpt lat="42.841200" lon="0.121522">
        <ele>2708.075</ele>
        <time>2020-06-29T10:13:06Z</time>
      </trkpt>
      <trkpt lat="42.841230" lon="0.121406">
        <ele>2713.042</ele>
        <time>2020-06-29T10:13:49Z</time>
      </trkpt>
      <trkpt lat="42.841235" lon="0.121284">
        <ele>2712.062</ele>
        <time>2020-06-29T10:14:18Z</time>
      </trkpt>
      <trkpt lat="42.841238" lon="0.121156">
        <ele>2716.088</ele>
        <time>2020-06-29T10:14:38Z</time>
      </trkpt>
      <trkpt lat="42.841189" lon="0.121048">
        <ele>2714.011</ele>
        <time>2020-06-29T10:15:00Z</time>
      </trkpt>
      <trkpt lat="42.841137" lon="0.120944">
        <ele>2716.017</ele>
        <time>2020-06-29T10:15:20Z</time>
      </trkpt>
      <trkpt lat="42.841096" lon="0.120834">
        <ele>2720.087</ele>
        <time>2020-06-29T10:15:38Z</time>
      </trkpt>
      <trkpt lat="42.841078" lon="0.120713">
        <ele>2723.015</ele>
        <time>2020-06-29T10:16:02Z</time>
      </trkpt>
      <trkpt lat="42.841070" lon="0.120588">
        <ele>2725.008</ele>
        <time>2020-06-29T10:16:23Z</time>
      </trkpt>
      <trkpt lat="42.841024" lon="0.120478">
        <ele>2729.026</ele>
        <time>2020-06-29T10:18:23Z</time>
      </trkpt>
      <trkpt lat="42.841006" lon="0.120353">
        <ele>2728.023</ele>
        <time>2020-06-29T10:22:23Z</time>
      </trkpt>
      <trkpt lat="42.840951" lon="0.120255">
        <ele>2732.031</ele>
        <time>2020-06-29T10:22:44Z</time>
      </trkpt>
      <trkpt lat="42.840947" lon="0.120132">
        <ele>2731.054</ele>
        <time>2020-06-29T10:22:59Z</time>
      </trkpt>
      <trkpt lat="42.840897" lon="0.120026">
        <ele>2729.031</ele>
        <time>2020-06-29T10:23:23Z</time>
      </trkpt>
      <trkpt lat="42.840846" lon="0.119924">
        <ele>2729.031</ele>
        <time>2020-06-29T10:23:43Z</time>
      </trkpt>
      <trkpt lat="42.840775" lon="0.119839">
        <ele>2736.017</ele>
        <time>2020-06-29T10:24:07Z</time>
      </trkpt>
      <trkpt lat="42.840711" lon="0.119744">
        <ele>2737.050</ele>
        <time>2020-06-29T10:24:33Z</time>
      </trkpt>
      <trkpt lat="42.840630" lon="0.119688">
        <ele>2744.044</ele>
        <time>2020-06-29T10:25:07Z</time>
      </trkpt>
      <trkpt lat="42.840560" lon="0.119610">
        <ele>2743.005</ele>
        <time>2020-06-29T10:25:31Z</time>
      </trkpt>
      <trkpt lat="42.840486" lon="0.119533">
        <ele>2738.015</ele>
        <time>2020-06-29T10:25:59Z</time>
      </trkpt>
      <trkpt lat="42.840454" lon="0.119416">
        <ele>2753.008</ele>
        <time>2020-06-29T10:26:29Z</time>
      </trkpt>
      <trkpt lat="42.840418" lon="0.119303">
        <ele>2757.029</ele>
        <time>2020-06-29T10:26:51Z</time>
      </trkpt>
      <trkpt lat="42.840370" lon="0.119198">
        <ele>2761.076</ele>
        <time>2020-06-29T10:27:12Z</time>
      </trkpt>
      <trkpt lat="42.840389" lon="0.119071">
        <ele>2762.034</ele>
        <time>2020-06-29T10:27:44Z</time>
      </trkpt>
      <trkpt lat="42.840425" lon="0.118950">
        <ele>2760.057</ele>
        <time>2020-06-29T10:28:14Z</time>
      </trkpt>
      <trkpt lat="42.840496" lon="0.118864">
        <ele>2771.054</ele>
        <time>2020-06-29T10:28:50Z</time>
      </trkpt>
      <trkpt lat="42.840529" lon="0.118743">
        <ele>2770.054</ele>
        <time>2020-06-29T10:29:22Z</time>
      </trkpt>
      <trkpt lat="42.840543" lon="0.118619">
        <ele>2770.070</ele>
        <time>2020-06-29T10:29:40Z</time>
      </trkpt>
      <trkpt lat="42.840520" lon="0.118499">
        <ele>2771.063</ele>
        <time>2020-06-29T10:30:05Z</time>
      </trkpt>
      <trkpt lat="42.840493" lon="0.118377">
        <ele>2772.053</ele>
        <time>2020-06-29T10:30:28Z</time>
      </trkpt>
      <trkpt lat="42.840463" lon="0.118262">
        <ele>2777.004</ele>
        <time>2020-06-29T10:31:01Z</time>
      </trkpt>
      <trkpt lat="42.840433" lon="0.118147">
        <ele>2785.014</ele>
        <time>2020-06-29T10:32:00Z</time>
      </trkpt>
      <trkpt lat="42.840400" lon="0.118032">
        <ele>2784.008</ele>
        <time>2020-06-29T10:32:22Z</time>
      </trkpt>
      <trkpt lat="42.840398" lon="0.117905">
        <ele>2791.050</ele>
        <time>2020-06-29T10:32:43Z</time>
      </trkpt>
      <trkpt lat="42.840362" lon="0.117789">
        <ele>2794.067</ele>
        <time>2020-06-29T10:33:02Z</time>
      </trkpt>
      <trkpt lat="42.840345" lon="0.117664">
        <ele>2803.015</ele>
        <time>2020-06-29T10:33:38Z</time>
      </trkpt>
      <trkpt lat="42.840275" lon="0.117587">
        <ele>2799.078</ele>
        <time>2020-06-29T10:34:01Z</time>
      </trkpt>
      <trkpt lat="42.840346" lon="0.117507">
        <ele>2807.045</ele>
        <time>2020-06-29T10:34:17Z</time>
      </trkpt>
      <trkpt lat="42.840286" lon="0.117411">
        <ele>2803.015</ele>
        <time>2020-06-29T10:34:43Z</time>
      </trkpt>
      <trkpt lat="42.840275" lon="0.117286">
        <ele>2807.081</ele>
        <time>2020-06-29T10:35:02Z</time>
      </trkpt>
      <trkpt lat="42.840301" lon="0.117163">
        <ele>2809.034</ele>
        <time>2020-06-29T10:35:43Z</time>
      </trkpt>
      <trkpt lat="42.840284" lon="0.117036">
        <ele>2807.036</ele>
        <time>2020-06-29T10:42:02Z</time>
      </trkpt>
      <trkpt lat="42.840226" lon="0.116935">
        <ele>2805.017</ele>
        <time>2020-06-29T10:42:42Z</time>
      </trkpt>
      <trkpt lat="42.840156" lon="0.116855">
        <ele>2805.018</ele>
        <time>2020-06-29T10:43:01Z</time>
      </trkpt>
      <trkpt lat="42.840069" lon="0.116811">
        <ele>2806.008</ele>
        <time>2020-06-29T10:43:22Z</time>
      </trkpt>
      <trkpt lat="42.839981" lon="0.116772">
        <ele>2812.058</ele>
        <time>2020-06-29T10:43:48Z</time>
      </trkpt>
      <trkpt lat="42.839925" lon="0.116674">
        <ele>2816.035</ele>
        <time>2020-06-29T10:44:12Z</time>
      </trkpt>
      <trkpt lat="42.839844" lon="0.116619">
        <ele>2826.063</ele>
        <time>2020-06-29T10:44:38Z</time>
      </trkpt>
      <trkpt lat="42.839771" lon="0.116546">
        <ele>2830.016</ele>
        <time>2020-06-29T10:44:57Z</time>
      </trkpt>
      <trkpt lat="42.839698" lon="0.116468">
        <ele>2834.013</ele>
        <time>2020-06-29T10:45:41Z</time>
      </trkpt>
      <trkpt lat="42.839613" lon="0.116425">
        <ele>2841.033</ele>
        <time>2020-06-29T10:46:03Z</time>
      </trkpt>
      <trkpt lat="42.839559" lon="0.116316">
        <ele>2851.099</ele>
        <time>2020-06-29T10:46:55Z</time>
      </trkpt>
      <trkpt lat="42.839499" lon="0.116220">
        <ele>2858.032</ele>
        <time>2020-06-29T10:47:20Z</time>
      </trkpt>
      <trkpt lat="42.839436" lon="0.116128">
        <ele>2859.019</ele>
        <time>2020-06-29T10:47:31Z</time>
      </trkpt>
      <trkpt lat="42.839374" lon="0.116023">
        <ele>2855.009</ele>
        <time>2020-06-29T10:48:14Z</time>
      </trkpt>
      <trkpt lat="42.839342" lon="0.115905">
        <ele>2854.019</ele>
        <time>2020-06-29T10:48:33Z</time>
      </trkpt>
      <trkpt lat="42.839291" lon="0.115798">
        <ele>2864.008</ele>
        <time>2020-06-29T10:49:10Z</time>
      </trkpt>
      <trkpt lat="42.839231" lon="0.115706">
        <ele>2868.076</ele>
        <time>2020-06-29T10:49:56Z</time>
      </trkpt>
      <trkpt lat="42.839171" lon="0.115614">
        <ele>2873.093</ele>
        <time>2020-06-29T10:50:26Z</time>
      </trkpt>
      <trkpt lat="42.839116" lon="0.115517">
        <ele>2878.011</ele>
        <time>2020-06-29T10:51:27Z</time>
      </trkpt>
      <trkpt lat="42.839056" lon="0.115422">
        <ele>2889.034</ele>
        <time>2020-06-29T10:52:00Z</time>
      </trkpt>
      <trkpt lat="42.838981" lon="0.115346">
        <ele>2893.061</ele>
        <time>2020-06-29T10:52:19Z</time>
      </trkpt>
      <trkpt lat="42.838937" lon="0.115234">
        <ele>2898.061</ele>
        <time>2020-06-29T10:53:06Z</time>
      </trkpt>
      <trkpt lat="42.838894" lon="0.115124">
        <ele>2896.077</ele>
        <time>2020-06-29T10:53:35Z</time>
      </trkpt>
      <trkpt lat="42.838819" lon="0.115048">
        <ele>2894.020</ele>
        <time>2020-06-29T10:54:07Z</time>
      </trkpt>
      <trkpt lat="42.838770" lon="0.114936">
        <ele>2905.025</ele>
        <time>2020-06-29T10:54:55Z</time>
      </trkpt>
      <trkpt lat="42.838745" lon="0.114818">
        <ele>2905.026</ele>
        <time>2020-06-29T10:55:34Z</time>
      </trkpt>
      <trkpt lat="42.838654" lon="0.114786">
        <ele>2906.008</ele>
        <time>2020-06-29T10:56:01Z</time>
      </trkpt>
      <trkpt lat="42.838580" lon="0.114712">
        <ele>2914.008</ele>
        <time>2020-06-29T10:56:40Z</time>
      </trkpt>
      <trkpt lat="42.838509" lon="0.114626">
        <ele>2912.067</ele>
        <time>2020-06-29T10:57:11Z</time>
      </trkpt>
      <trkpt lat="42.838434" lon="0.114550">
        <ele>2914.044</ele>
        <time>2020-06-29T10:57:50Z</time>
      </trkpt>
      <trkpt lat="42.838414" lon="0.114425">
        <ele>2925.082</ele>
        <time>2020-06-29T10:58:43Z</time>
      </trkpt>
      <trkpt lat="42.838398" lon="0.114299">
        <ele>2931.095</ele>
        <time>2020-06-29T10:59:05Z</time>
      </trkpt>
      <trkpt lat="42.838349" lon="0.114196">
        <ele>2933.062</ele>
        <time>2020-06-29T10:59:44Z</time>
      </trkpt>
      <trkpt lat="42.838304" lon="0.114088">
        <ele>2940.022</ele>
        <time>2020-06-29T11:00:20Z</time>
      </trkpt>
      <trkpt lat="42.838261" lon="0.113979">
        <ele>2945.058</ele>
        <time>2020-06-29T11:00:59Z</time>
      </trkpt>
      <trkpt lat="42.838225" lon="0.113866">
        <ele>2951.061</ele>
        <time>2020-06-29T11:01:49Z</time>
      </trkpt>
      <trkpt lat="42.838200" lon="0.113748">
        <ele>2955.019</ele>
        <time>2020-06-29T11:02:31Z</time>
      </trkpt>
      <trkpt lat="42.838160" lon="0.113633">
        <ele>2959.009</ele>
        <time>2020-06-29T11:03:05Z</time>
      </trkpt>
      <trkpt lat="42.838108" lon="0.113532">
        <ele>2966.019</ele>
        <time>2020-06-29T11:04:12Z</time>
      </trkpt>
      <trkpt lat="42.838021" lon="0.113497">
        <ele>2973.008</ele>
        <time>2020-06-29T11:05:31Z</time>
      </trkpt>
      <trkpt lat="42.837937" lon="0.113453">
        <ele>2974.076</ele>
        <time>2020-06-29T11:06:55Z</time>
      </trkpt>
      <trkpt lat="42.837850" lon="0.113497">
        <ele>2972.053</ele>
        <time>2020-06-29T11:07:15Z</time>
      </trkpt>
      <trkpt lat="42.837762" lon="0.113545">
        <ele>2973.091</ele>
        <time>2020-06-29T11:07:41Z</time>
      </trkpt>
      <trkpt lat="42.837707" lon="0.113643">
        <ele>2980.094</ele>
        <time>2020-06-29T11:08:22Z</time>
      </trkpt>
      <trkpt lat="42.837658" lon="0.113749">
        <ele>2990.071</ele>
        <time>2020-06-29T11:09:16Z</time>
      </trkpt>
      <trkpt lat="42.837574" lon="0.113702">
        <ele>2987.011</ele>
        <time>2020-06-29T11:10:09Z</time>
      </trkpt>
      <trkpt lat="42.837484" lon="0.113713">
        <ele>2987.067</ele>
        <time>2020-06-29T11:10:57Z</time>
      </trkpt>
      <trkpt lat="42.837396" lon="0.113744">
        <ele>2983.050</ele>
        <time>2020-06-29T11:11:23Z</time>
      </trkpt>
      <trkpt lat="42.837343" lon="0.113845">
        <ele>2991.052</ele>
        <time>2020-06-29T11:12:07Z</time>
      </trkpt>
      <trkpt lat="42.837256" lon="0.113879">
        <ele>2994.053</ele>
        <time>2020-06-29T11:12:58Z</time>
      </trkpt>
      <trkpt lat="42.837201" lon="0.113980">
        <ele>3002.008</ele>
        <time>2020-06-29T11:13:28Z</time>
      </trkpt>
      <trkpt lat="42.837121" lon="0.114048">
        <ele>3004.008</ele>
        <time>2020-06-29T11:13:49Z</time>
      </trkpt>
      <trkpt lat="42.837060" lon="0.114138">
        <ele>3016.070</ele>
        <time>2020-06-29T11:14:30Z</time>
      </trkpt>
      <trkpt lat="42.836974" lon="0.114194">
        <ele>3018.027</ele>
        <time>2020-06-29T11:16:55Z</time>
      </trkpt>
      <trkpt lat="42.836898" lon="0.114263">
        <ele>3020.045</ele>
        <time>2020-06-29T11:17:20Z</time>
      </trkpt>
      <trkpt lat="42.836844" lon="0.114366">
        <ele>3024.088</ele>
        <time>2020-06-29T11:17:48Z</time>
      </trkpt>
      <trkpt lat="42.836793" lon="0.114471">
        <ele>3024.035</ele>
        <time>2020-06-29T11:18:05Z</time>
      </trkpt>
      <trkpt lat="42.836755" lon="0.114583">
        <ele>3026.015</ele>
        <time>2020-06-29T11:18:33Z</time>
      </trkpt>
      <trkpt lat="42.836691" lon="0.114670">
        <ele>3027.041</ele>
        <time>2020-06-29T11:18:54Z</time>
      </trkpt>
      <trkpt lat="42.836673" lon="0.114793">
        <ele>3033.044</ele>
        <time>2020-06-29T11:19:35Z</time>
      </trkpt>
      <trkpt lat="42.836698" lon="0.114928">
        <ele>3050.039</ele>
        <time>2020-06-29T11:21:47Z</time>
      </trkpt>
      <trkpt lat="42.836609" lon="0.114890">
        <ele>3050.001</ele>
        <time>2020-06-29T11:22:39Z</time>
      </trkpt>
      <trkpt lat="42.836518" lon="0.114897">
        <ele>3049.021</ele>
        <time>2020-06-29T11:23:36Z</time>
      </trkpt>
      <trkpt lat="42.836429" lon="0.114930">
        <ele>3053.008</ele>
        <time>2020-06-29T11:24:35Z</time>
      </trkpt>
      <trkpt lat="42.836351" lon="0.114992">
        <ele>3060.028</ele>
        <time>2020-06-29T11:26:41Z</time>
      </trkpt>
      <trkpt lat="42.836260" lon="0.114970">
        <ele>3062.065</ele>
        <time>2020-06-29T11:28:03Z</time>
      </trkpt>
      <trkpt lat="42.836170" lon="0.114944">
        <ele>3069.093</ele>
        <time>2020-06-29T11:31:23Z</time>
      </trkpt>
      <trkpt lat="42.836079" lon="0.114932">
        <ele>3075.036</ele>
        <time>2020-06-29T11:32:27Z</time>
      </trkpt>
      <trkpt lat="42.835998" lon="0.114877">
        <ele>3082.043</ele>
        <time>2020-06-29T11:33:50Z</time>
      </trkpt>
      <trkpt lat="42.835905" lon="0.114877">
        <ele>3093.033</ele>
        <time>2020-06-29T11:35:26Z</time>
      </trkpt>
      <trkpt lat="42.835812" lon="0.114858">
        <ele>3096.059</ele>
        <time>2020-06-29T11:36:40Z</time>
      </trkpt>
      <trkpt lat="42.835725" lon="0.114821">
        <ele>3104.022</ele>
        <time>2020-06-29T11:38:13Z</time>
      </trkpt>
      <trkpt lat="42.835639" lon="0.114779">
        <ele>3116.029</ele>
        <time>2020-06-29T11:40:32Z</time>
      </trkpt>
      <trkpt lat="42.835727" lon="0.114806">
        <ele>3131.000</ele>
        <time>2020-06-29T11:50:28Z</time>
      </trkpt>
      <trkpt lat="42.835637" lon="0.114786">
        <ele>3120.020</ele>
        <time>2020-06-29T11:56:11Z</time>
      </trkpt>
      <trkpt lat="42.835730" lon="0.114780">
        <ele>3123.008</ele>
        <time>2020-06-29T12:02:51Z</time>
      </trkpt>
      <trkpt lat="42.835680" lon="0.114883">
        <ele>3108.067</ele>
        <time>2020-06-29T12:16:09Z</time>
      </trkpt>
      <trkpt lat="42.835683" lon="0.115008">
        <ele>3107.054</ele>
        <time>2020-06-29T12:17:58Z</time>
      </trkpt>
      <trkpt lat="42.835684" lon="0.115137">
        <ele>3103.052</ele>
        <time>2020-06-29T12:19:05Z</time>
      </trkpt>
      <trkpt lat="42.835648" lon="0.115254">
        <ele>3106.075</ele>
        <time>2020-06-29T12:19:31Z</time>
      </trkpt>
      <trkpt lat="42.835603" lon="0.115379">
        <ele>3107.012</ele>
        <time>2020-06-29T12:21:56Z</time>
      </trkpt>
      <trkpt lat="42.835523" lon="0.115558">
        <ele>3129.032</ele>
        <time>2020-06-29T12:25:25Z</time>
      </trkpt>
      <trkpt lat="42.835554" lon="0.115441">
        <ele>3124.088</ele>
        <time>2020-06-29T12:26:10Z</time>
      </trkpt>
      <trkpt lat="42.835466" lon="0.115413">
        <ele>3117.071</ele>
        <time>2020-06-29T12:28:39Z</time>
      </trkpt>
      <trkpt lat="42.835381" lon="0.115369">
        <ele>3128.044</ele>
        <time>2020-06-29T12:31:25Z</time>
      </trkpt>
      <trkpt lat="42.835356" lon="0.115251">
        <ele>3132.005</ele>
        <time>2020-06-29T12:32:26Z</time>
      </trkpt>
      <trkpt lat="42.835384" lon="0.115129">
        <ele>3140.015</ele>
        <time>2020-06-29T12:33:56Z</time>
      </trkpt>
      <trkpt lat="42.835352" lon="0.115248">
        <ele>3136.008</ele>
        <time>2020-06-29T12:39:45Z</time>
      </trkpt>
      <trkpt lat="42.835392" lon="0.115358">
        <ele>3134.089</ele>
        <time>2020-06-29T12:41:15Z</time>
      </trkpt>
      <trkpt lat="42.835482" lon="0.115366">
        <ele>3120.016</ele>
        <time>2020-06-29T12:43:11Z</time>
      </trkpt>
      <trkpt lat="42.835550" lon="0.115451">
        <ele>3122.024</ele>
        <time>2020-06-29T12:50:53Z</time>
      </trkpt>
      <trkpt lat="42.835623" lon="0.115377">
        <ele>3117.057</ele>
        <time>2020-06-29T12:53:44Z</time>
      </trkpt>
      <trkpt lat="42.835673" lon="0.115275">
        <ele>3107.054</ele>
        <time>2020-06-29T12:56:23Z</time>
      </trkpt>
      <trkpt lat="42.835709" lon="0.115163">
        <ele>3100.014</ele>
        <time>2020-06-29T12:56:52Z</time>
      </trkpt>
      <trkpt lat="42.835738" lon="0.115044">
        <ele>3096.020</ele>
        <time>2020-06-29T12:57:50Z</time>
      </trkpt>
      <trkpt lat="42.835789" lon="0.114940">
        <ele>3096.063</ele>
        <time>2020-06-29T12:59:26Z</time>
      </trkpt>
      <trkpt lat="42.835882" lon="0.114939">
        <ele>3098.024</ele>
        <time>2020-06-29T13:02:43Z</time>
      </trkpt>
      <trkpt lat="42.835884" lon="0.114805">
        <ele>3086.004</ele>
        <time>2020-06-29T13:03:22Z</time>
      </trkpt>
      <trkpt lat="42.835953" lon="0.114884">
        <ele>3088.014</ele>
        <time>2020-06-29T13:05:50Z</time>
      </trkpt>
      <trkpt lat="42.836031" lon="0.114948">
        <ele>3089.008</ele>
        <time>2020-06-29T13:07:46Z</time>
      </trkpt>
      <trkpt lat="42.836116" lon="0.114990">
        <ele>3082.087</ele>
        <time>2020-06-29T13:10:45Z</time>
      </trkpt>
      <trkpt lat="42.836201" lon="0.115033">
        <ele>3077.064</ele>
        <time>2020-06-29T13:12:13Z</time>
      </trkpt>
      <trkpt lat="42.836292" lon="0.115068">
        <ele>3072.092</ele>
        <time>2020-06-29T13:13:08Z</time>
      </trkpt>
      <trkpt lat="42.836320" lon="0.114933">
        <ele>3051.035</ele>
        <time>2020-06-29T13:14:35Z</time>
      </trkpt>
      <trkpt lat="42.836372" lon="0.115034">
        <ele>3052.022</ele>
        <time>2020-06-29T13:15:12Z</time>
      </trkpt>
      <trkpt lat="42.836397" lon="0.114914">
        <ele>3044.022</ele>
        <time>2020-06-29T13:17:58Z</time>
      </trkpt>
      <trkpt lat="42.836485" lon="0.114879">
        <ele>3041.068</ele>
        <time>2020-06-29T13:18:52Z</time>
      </trkpt>
      <trkpt lat="42.836575" lon="0.114884">
        <ele>3034.081</ele>
        <time>2020-06-29T13:21:38Z</time>
      </trkpt>
      <trkpt lat="42.836642" lon="0.114794">
        <ele>3028.046</ele>
        <time>2020-06-29T13:22:54Z</time>
      </trkpt>
      <trkpt lat="42.836669" lon="0.114675">
        <ele>3023.088</ele>
        <time>2020-06-29T13:23:15Z</time>
      </trkpt>
      <trkpt lat="42.836707" lon="0.114551">
        <ele>3025.016</ele>
        <time>2020-06-29T13:23:23Z</time>
      </trkpt>
      <trkpt lat="42.836793" lon="0.114494">
        <ele>3018.008</ele>
        <time>2020-06-29T13:23:52Z</time>
      </trkpt>
      <trkpt lat="42.836857" lon="0.114394">
        <ele>3015.069</ele>
        <time>2020-06-29T13:24:14Z</time>
      </trkpt>
      <trkpt lat="42.836910" lon="0.114295">
        <ele>3014.076</ele>
        <time>2020-06-29T13:24:44Z</time>
      </trkpt>
      <trkpt lat="42.836939" lon="0.114172">
        <ele>3013.054</ele>
        <time>2020-06-29T13:25:34Z</time>
      </trkpt>
      <trkpt lat="42.837039" lon="0.114154">
        <ele>3007.077</ele>
        <time>2020-06-29T13:26:37Z</time>
      </trkpt>
      <trkpt lat="42.837125" lon="0.114095">
        <ele>3004.054</ele>
        <time>2020-06-29T13:26:48Z</time>
      </trkpt>
      <trkpt lat="42.837197" lon="0.114005">
        <ele>3003.024</ele>
        <time>2020-06-29T13:27:02Z</time>
      </trkpt>
      <trkpt lat="42.837273" lon="0.113934">
        <ele>2999.080</ele>
        <time>2020-06-29T13:27:20Z</time>
      </trkpt>
      <trkpt lat="42.837357" lon="0.113884">
        <ele>3004.033</ele>
        <time>2020-06-29T13:27:37Z</time>
      </trkpt>
      <trkpt lat="42.837444" lon="0.113845">
        <ele>3003.083</ele>
        <time>2020-06-29T13:28:00Z</time>
      </trkpt>
      <trkpt lat="42.837527" lon="0.113791">
        <ele>3006.025</ele>
        <time>2020-06-29T13:28:23Z</time>
      </trkpt>
      <trkpt lat="42.837606" lon="0.113730">
        <ele>3007.017</ele>
        <time>2020-06-29T13:28:45Z</time>
      </trkpt>
      <trkpt lat="42.837698" lon="0.113728">
        <ele>3000.008</ele>
        <time>2020-06-29T13:30:23Z</time>
      </trkpt>
      <trkpt lat="42.837789" lon="0.113718">
        <ele>2997.033</ele>
        <time>2020-06-29T13:31:06Z</time>
      </trkpt>
      <trkpt lat="42.837870" lon="0.113651">
        <ele>2999.010</ele>
        <time>2020-06-29T13:31:25Z</time>
      </trkpt>
      <trkpt lat="42.837954" lon="0.113602">
        <ele>3000.098</ele>
        <time>2020-06-29T13:31:41Z</time>
      </trkpt>
      <trkpt lat="42.837982" lon="0.113484">
        <ele>2985.011</ele>
        <time>2020-06-29T13:32:43Z</time>
      </trkpt>
      <trkpt lat="42.838072" lon="0.113488">
        <ele>2991.018</ele>
        <time>2020-06-29T13:33:23Z</time>
      </trkpt>
      <trkpt lat="42.838138" lon="0.113399">
        <ele>2979.048</ele>
        <time>2020-06-29T13:34:02Z</time>
      </trkpt>
      <trkpt lat="42.838229" lon="0.113375">
        <ele>2953.054</ele>
        <time>2020-06-29T13:35:03Z</time>
      </trkpt>
      <trkpt lat="42.838275" lon="0.113486">
        <ele>2950.057</ele>
        <time>2020-06-29T13:36:02Z</time>
      </trkpt>
      <trkpt lat="42.838311" lon="0.113599">
        <ele>2943.031</ele>
        <time>2020-06-29T13:36:14Z</time>
      </trkpt>
      <trkpt lat="42.838366" lon="0.113701">
        <ele>2946.061</ele>
        <time>2020-06-29T13:36:23Z</time>
      </trkpt>
      <trkpt lat="42.838390" lon="0.113828">
        <ele>2937.007</ele>
        <time>2020-06-29T13:36:35Z</time>
      </trkpt>
      <trkpt lat="42.838394" lon="0.113964">
        <ele>2930.008</ele>
        <time>2020-06-29T13:36:44Z</time>
      </trkpt>
      <trkpt lat="42.838414" lon="0.114089">
        <ele>2930.068</ele>
        <time>2020-06-29T13:36:54Z</time>
      </trkpt>
      <trkpt lat="42.838446" lon="0.114214">
        <ele>2925.055</ele>
        <time>2020-06-29T13:37:06Z</time>
      </trkpt>
      <trkpt lat="42.838442" lon="0.114347">
        <ele>2921.023</ele>
        <time>2020-06-29T13:37:17Z</time>
      </trkpt>
      <trkpt lat="42.838475" lon="0.114462">
        <ele>2912.036</ele>
        <time>2020-06-29T13:37:32Z</time>
      </trkpt>
      <trkpt lat="42.838517" lon="0.114577">
        <ele>2910.043</ele>
        <time>2020-06-29T13:37:44Z</time>
      </trkpt>
      <trkpt lat="42.838576" lon="0.114674">
        <ele>2899.013</ele>
        <time>2020-06-29T13:37:57Z</time>
      </trkpt>
      <trkpt lat="42.838633" lon="0.114772">
        <ele>2894.039</ele>
        <time>2020-06-29T13:38:13Z</time>
      </trkpt>
      <trkpt lat="42.838683" lon="0.114875">
        <ele>2891.062</ele>
        <time>2020-06-29T13:38:30Z</time>
      </trkpt>
      <trkpt lat="42.838721" lon="0.114993">
        <ele>2883.041</ele>
        <time>2020-06-29T13:38:44Z</time>
      </trkpt>
      <trkpt lat="42.838804" lon="0.115047">
        <ele>2868.081</ele>
        <time>2020-06-29T13:39:07Z</time>
      </trkpt>
      <trkpt lat="42.838844" lon="0.115167">
        <ele>2867.009</ele>
        <time>2020-06-29T13:39:21Z</time>
      </trkpt>
      <trkpt lat="42.838901" lon="0.115264">
        <ele>2861.008</ele>
        <time>2020-06-29T13:39:35Z</time>
      </trkpt>
      <trkpt lat="42.838949" lon="0.115372">
        <ele>2853.069</ele>
        <time>2020-06-29T13:39:49Z</time>
      </trkpt>
      <trkpt lat="42.838976" lon="0.115500">
        <ele>2854.066</ele>
        <time>2020-06-29T13:39:59Z</time>
      </trkpt>
      <trkpt lat="42.839045" lon="0.115602">
        <ele>2851.084</ele>
        <time>2020-06-29T13:40:15Z</time>
      </trkpt>
      <trkpt lat="42.839114" lon="0.115696">
        <ele>2849.087</ele>
        <time>2020-06-29T13:40:47Z</time>
      </trkpt>
      <trkpt lat="42.839188" lon="0.115782">
        <ele>2847.074</ele>
        <time>2020-06-29T13:40:57Z</time>
      </trkpt>
      <trkpt lat="42.839270" lon="0.115839">
        <ele>2841.054</ele>
        <time>2020-06-29T13:41:10Z</time>
      </trkpt>
      <trkpt lat="42.839335" lon="0.115938">
        <ele>2836.050</ele>
        <time>2020-06-29T13:41:24Z</time>
      </trkpt>
      <trkpt lat="42.839393" lon="0.116042">
        <ele>2834.023</ele>
        <time>2020-06-29T13:41:33Z</time>
      </trkpt>
      <trkpt lat="42.839430" lon="0.116160">
        <ele>2829.053</ele>
        <time>2020-06-29T13:41:45Z</time>
      </trkpt>
      <trkpt lat="42.839473" lon="0.116272">
        <ele>2827.004</ele>
        <time>2020-06-29T13:41:57Z</time>
      </trkpt>
      <trkpt lat="42.839552" lon="0.116337">
        <ele>2826.014</ele>
        <time>2020-06-29T13:42:08Z</time>
      </trkpt>
      <trkpt lat="42.839608" lon="0.116444">
        <ele>2824.008</ele>
        <time>2020-06-29T13:42:19Z</time>
      </trkpt>
      <trkpt lat="42.839682" lon="0.116524">
        <ele>2820.080</ele>
        <time>2020-06-29T13:42:27Z</time>
      </trkpt>
      <trkpt lat="42.839768" lon="0.116591">
        <ele>2818.097</ele>
        <time>2020-06-29T13:42:37Z</time>
      </trkpt>
      <trkpt lat="42.839834" lon="0.116681">
        <ele>2815.055</ele>
        <time>2020-06-29T13:42:47Z</time>
      </trkpt>
      <trkpt lat="42.839919" lon="0.116732">
        <ele>2815.058</ele>
        <time>2020-06-29T13:43:01Z</time>
      </trkpt>
      <trkpt lat="42.839989" lon="0.116816">
        <ele>2809.025</ele>
        <time>2020-06-29T13:43:11Z</time>
      </trkpt>
      <trkpt lat="42.840067" lon="0.116878">
        <ele>2809.015</ele>
        <time>2020-06-29T13:43:23Z</time>
      </trkpt>
      <trkpt lat="42.840139" lon="0.116956">
        <ele>2805.011</ele>
        <time>2020-06-29T13:43:35Z</time>
      </trkpt>
      <trkpt lat="42.840201" lon="0.117051">
        <ele>2801.064</ele>
        <time>2020-06-29T13:43:45Z</time>
      </trkpt>
      <trkpt lat="42.840258" lon="0.117150">
        <ele>2800.039</ele>
        <time>2020-06-29T13:43:57Z</time>
      </trkpt>
      <trkpt lat="42.840277" lon="0.117270">
        <ele>2803.001</ele>
        <time>2020-06-29T13:44:38Z</time>
      </trkpt>
      <trkpt lat="42.840357" lon="0.117328">
        <ele>2793.021</ele>
        <time>2020-06-29T13:44:54Z</time>
      </trkpt>
      <trkpt lat="42.840296" lon="0.117236">
        <ele>2796.008</ele>
        <time>2020-06-29T13:45:43Z</time>
      </trkpt>
      <trkpt lat="42.840379" lon="0.117125">
        <ele>2787.028</ele>
        <time>2020-06-29T14:15:42Z</time>
      </trkpt>
      <trkpt lat="42.840407" lon="0.117006">
        <ele>2798.045</ele>
        <time>2020-06-29T14:19:54Z</time>
      </trkpt>
      <trkpt lat="42.840487" lon="0.117062">
        <ele>2799.043</ele>
        <time>2020-06-29T14:20:10Z</time>
      </trkpt>
      <trkpt lat="42.840566" lon="0.117135">
        <ele>2794.086</ele>
        <time>2020-06-29T14:20:27Z</time>
      </trkpt>
      <trkpt lat="42.840664" lon="0.117140">
        <ele>2783.083</ele>
        <time>2020-06-29T14:20:55Z</time>
      </trkpt>
      <trkpt lat="42.840751" lon="0.117078">
        <ele>2782.073</ele>
        <time>2020-06-29T14:21:07Z</time>
      </trkpt>
      <trkpt lat="42.840844" lon="0.117056">
        <ele>2785.089</ele>
        <time>2020-06-29T14:21:20Z</time>
      </trkpt>
      <trkpt lat="42.840937" lon="0.117050">
        <ele>2784.062</ele>
        <time>2020-06-29T14:21:34Z</time>
      </trkpt>
      <trkpt lat="42.841013" lon="0.116965">
        <ele>2782.049</ele>
        <time>2020-06-29T14:21:56Z</time>
      </trkpt>
      <trkpt lat="42.841112" lon="0.116949">
        <ele>2785.002</ele>
        <time>2020-06-29T14:22:06Z</time>
      </trkpt>
      <trkpt lat="42.841185" lon="0.116859">
        <ele>2776.022</ele>
        <time>2020-06-29T14:22:34Z</time>
      </trkpt>
      <trkpt lat="42.841277" lon="0.116867">
        <ele>2777.008</ele>
        <time>2020-06-29T14:22:59Z</time>
      </trkpt>
      <trkpt lat="42.841371" lon="0.116873">
        <ele>2784.029</ele>
        <time>2020-06-29T14:23:53Z</time>
      </trkpt>
      <trkpt lat="42.841464" lon="0.116855">
        <ele>2780.026</ele>
        <time>2020-06-29T14:25:33Z</time>
      </trkpt>
      <trkpt lat="42.841554" lon="0.116850">
        <ele>2787.024</ele>
        <time>2020-06-29T14:27:20Z</time>
      </trkpt>
      <trkpt lat="42.841627" lon="0.116777">
        <ele>2795.087</ele>
        <time>2020-06-29T14:27:52Z</time>
      </trkpt>
      <trkpt lat="42.841629" lon="0.116653">
        <ele>2809.094</ele>
        <time>2020-06-29T14:30:10Z</time>
      </trkpt>
      <trkpt lat="42.841664" lon="0.116539">
        <ele>2809.024</ele>
        <time>2020-06-29T14:32:11Z</time>
      </trkpt>
      <trkpt lat="42.841691" lon="0.116422">
        <ele>2820.060</ele>
        <time>2020-06-29T14:34:08Z</time>
      </trkpt>
      <trkpt lat="42.841748" lon="0.116325">
        <ele>2829.013</ele>
        <time>2020-06-29T14:36:11Z</time>
      </trkpt>
      <trkpt lat="42.841789" lon="0.116206">
        <ele>2831.079</ele>
        <time>2020-06-29T14:37:36Z</time>
      </trkpt>
      <trkpt lat="42.841726" lon="0.116119">
        <ele>2840.005</ele>
        <time>2020-06-29T14:41:32Z</time>
      </trkpt>
      <trkpt lat="42.841786" lon="0.116211">
        <ele>2841.025</ele>
        <time>2020-06-29T14:54:01Z</time>
      </trkpt>
      <trkpt lat="42.841771" lon="0.116331">
        <ele>2830.008</ele>
        <time>2020-06-29T15:05:32Z</time>
      </trkpt>
      <trkpt lat="42.841730" lon="0.116492">
        <ele>2819.012</ele>
        <time>2020-06-29T15:06:54Z</time>
      </trkpt>
      <trkpt lat="42.841671" lon="0.116585">
        <ele>2818.019</ele>
        <time>2020-06-29T15:07:07Z</time>
      </trkpt>
      <trkpt lat="42.841615" lon="0.116693">
        <ele>2819.077</ele>
        <time>2020-06-29T15:07:37Z</time>
      </trkpt>
      <trkpt lat="42.841586" lon="0.116831">
        <ele>2815.060</ele>
        <time>2020-06-29T15:08:20Z</time>
      </trkpt>
      <trkpt lat="42.841515" lon="0.116913">
        <ele>2804.017</ele>
        <time>2020-06-29T15:09:56Z</time>
      </trkpt>
      <trkpt lat="42.841501" lon="0.117037">
        <ele>2797.077</ele>
        <time>2020-06-29T15:10:55Z</time>
      </trkpt>
      <trkpt lat="42.841496" lon="0.117165">
        <ele>2794.063</ele>
        <time>2020-06-29T15:11:55Z</time>
      </trkpt>
      <trkpt lat="42.841451" lon="0.117278">
        <ele>2787.026</ele>
        <time>2020-06-29T15:12:26Z</time>
      </trkpt>
      <trkpt lat="42.841433" lon="0.117408">
        <ele>2782.085</ele>
        <time>2020-06-29T15:12:39Z</time>
      </trkpt>
      <trkpt lat="42.841413" lon="0.117538">
        <ele>2782.089</ele>
        <time>2020-06-29T15:12:48Z</time>
      </trkpt>
      <trkpt lat="42.841385" lon="0.117654">
        <ele>2776.017</ele>
        <time>2020-06-29T15:13:22Z</time>
      </trkpt>
      <trkpt lat="42.841331" lon="0.117753">
        <ele>2773.008</ele>
        <time>2020-06-29T15:13:39Z</time>
      </trkpt>
      <trkpt lat="42.841251" lon="0.117820">
        <ele>2776.073</ele>
        <time>2020-06-29T15:18:37Z</time>
      </trkpt>
      <trkpt lat="42.841168" lon="0.117878">
        <ele>2778.050</ele>
        <time>2020-06-29T15:20:17Z</time>
      </trkpt>
      <trkpt lat="42.841081" lon="0.117920">
        <ele>2778.068</ele>
        <time>2020-06-29T15:20:33Z</time>
      </trkpt>
      <trkpt lat="42.840993" lon="0.117948">
        <ele>2783.081</ele>
        <time>2020-06-29T15:20:57Z</time>
      </trkpt>
      <trkpt lat="42.840911" lon="0.117882">
        <ele>2788.088</ele>
        <time>2020-06-29T15:22:27Z</time>
      </trkpt>
      <trkpt lat="42.840815" lon="0.117878">
        <ele>2783.078</ele>
        <time>2020-06-29T15:22:40Z</time>
      </trkpt>
      <trkpt lat="42.840722" lon="0.117899">
        <ele>2781.014</ele>
        <time>2020-06-29T15:22:55Z</time>
      </trkpt>
      <trkpt lat="42.840630" lon="0.117905">
        <ele>2778.087</ele>
        <time>2020-06-29T15:23:07Z</time>
      </trkpt>
      <trkpt lat="42.840560" lon="0.117989">
        <ele>2780.082</ele>
        <time>2020-06-29T15:23:21Z</time>
      </trkpt>
      <trkpt lat="42.840523" lon="0.118105">
        <ele>2781.043</ele>
        <time>2020-06-29T15:23:35Z</time>
      </trkpt>
      <trkpt lat="42.840509" lon="0.118229">
        <ele>2782.017</ele>
        <time>2020-06-29T15:24:20Z</time>
      </trkpt>
      <trkpt lat="42.840560" lon="0.118337">
        <ele>2778.008</ele>
        <time>2020-06-29T15:24:33Z</time>
      </trkpt>
      <trkpt lat="42.840605" lon="0.118446">
        <ele>2773.073</ele>
        <time>2020-06-29T15:24:43Z</time>
      </trkpt>
      <trkpt lat="42.840655" lon="0.118564">
        <ele>2771.060</ele>
        <time>2020-06-29T15:24:53Z</time>
      </trkpt>
      <trkpt lat="42.840690" lon="0.118682">
        <ele>2771.058</ele>
        <time>2020-06-29T15:25:08Z</time>
      </trkpt>
      <trkpt lat="42.840720" lon="0.118800">
        <ele>2768.081</ele>
        <time>2020-06-29T15:25:30Z</time>
      </trkpt>
      <trkpt lat="42.840639" lon="0.118856">
        <ele>2765.058</ele>
        <time>2020-06-29T15:25:47Z</time>
      </trkpt>
      <trkpt lat="42.840585" lon="0.118957">
        <ele>2762.028</ele>
        <time>2020-06-29T15:26:00Z</time>
      </trkpt>
      <trkpt lat="42.840505" lon="0.119022">
        <ele>2760.094</ele>
        <time>2020-06-29T15:26:13Z</time>
      </trkpt>
      <trkpt lat="42.840428" lon="0.119099">
        <ele>2757.097</ele>
        <time>2020-06-29T15:26:29Z</time>
      </trkpt>
      <trkpt lat="42.840439" lon="0.119224">
        <ele>2748.055</ele>
        <time>2020-06-29T15:26:54Z</time>
      </trkpt>
      <trkpt lat="42.840461" lon="0.119344">
        <ele>2751.007</ele>
        <time>2020-06-29T15:28:52Z</time>
      </trkpt>
      <trkpt lat="42.840526" lon="0.119434">
        <ele>2743.017</ele>
        <time>2020-06-29T15:29:12Z</time>
      </trkpt>
      <trkpt lat="42.840562" lon="0.119547">
        <ele>2744.008</ele>
        <time>2020-06-29T15:29:23Z</time>
      </trkpt>
      <trkpt lat="42.840603" lon="0.119657">
        <ele>2742.010</ele>
        <time>2020-06-29T15:29:36Z</time>
      </trkpt>
      <trkpt lat="42.840671" lon="0.119745">
        <ele>2736.037</ele>
        <time>2020-06-29T15:30:05Z</time>
      </trkpt>
      <trkpt lat="42.840730" lon="0.119840">
        <ele>2731.085</ele>
        <time>2020-06-29T15:30:25Z</time>
      </trkpt>
      <trkpt lat="42.840803" lon="0.119914">
        <ele>2731.058</ele>
        <time>2020-06-29T15:30:40Z</time>
      </trkpt>
      <trkpt lat="42.840848" lon="0.120028">
        <ele>2727.085</ele>
        <time>2020-06-29T15:30:54Z</time>
      </trkpt>
      <trkpt lat="42.840909" lon="0.120132">
        <ele>2728.025</ele>
        <time>2020-06-29T15:31:08Z</time>
      </trkpt>
      <trkpt lat="42.840919" lon="0.120258">
        <ele>2725.091</ele>
        <time>2020-06-29T15:31:20Z</time>
      </trkpt>
      <trkpt lat="42.840943" lon="0.120387">
        <ele>2723.074</ele>
        <time>2020-06-29T15:31:29Z</time>
      </trkpt>
      <trkpt lat="42.840947" lon="0.120520">
        <ele>2723.088</ele>
        <time>2020-06-29T15:31:39Z</time>
      </trkpt>
      <trkpt lat="42.840964" lon="0.120640">
        <ele>2721.024</ele>
        <time>2020-06-29T15:31:51Z</time>
      </trkpt>
      <trkpt lat="42.840982" lon="0.120770">
        <ele>2714.026</ele>
        <time>2020-06-29T15:32:10Z</time>
      </trkpt>
      <trkpt lat="42.841012" lon="0.120893">
        <ele>2713.008</ele>
        <time>2020-06-29T15:32:25Z</time>
      </trkpt>
      <trkpt lat="42.841065" lon="0.120992">
        <ele>2715.033</ele>
        <time>2020-06-29T15:33:49Z</time>
      </trkpt>
      <trkpt lat="42.841107" lon="0.121108">
        <ele>2713.090</ele>
        <time>2020-06-29T15:33:59Z</time>
      </trkpt>
      <trkpt lat="42.841144" lon="0.121226">
        <ele>2705.078</ele>
        <time>2020-06-29T15:34:24Z</time>
      </trkpt>
      <trkpt lat="42.841144" lon="0.121368">
        <ele>2704.041</ele>
        <time>2020-06-29T15:34:36Z</time>
      </trkpt>
      <trkpt lat="42.841114" lon="0.121489">
        <ele>2698.018</ele>
        <time>2020-06-29T15:34:59Z</time>
      </trkpt>
      <trkpt lat="42.841082" lon="0.121611">
        <ele>2698.078</ele>
        <time>2020-06-29T15:35:09Z</time>
      </trkpt>
      <trkpt lat="42.841070" lon="0.121741">
        <ele>2694.044</ele>
        <time>2020-06-29T15:35:20Z</time>
      </trkpt>
      <trkpt lat="42.841088" lon="0.121865">
        <ele>2690.087</ele>
        <time>2020-06-29T15:35:32Z</time>
      </trkpt>
      <trkpt lat="42.841067" lon="0.121994">
        <ele>2689.099</ele>
        <time>2020-06-29T15:35:40Z</time>
      </trkpt>
      <trkpt lat="42.841048" lon="0.122119">
        <ele>2686.007</ele>
        <time>2020-06-29T15:35:51Z</time>
      </trkpt>
      <trkpt lat="42.841037" lon="0.122246">
        <ele>2683.027</ele>
        <time>2020-06-29T15:36:03Z</time>
      </trkpt>
      <trkpt lat="42.841013" lon="0.122368">
        <ele>2678.008</ele>
        <time>2020-06-29T15:36:24Z</time>
      </trkpt>
      <trkpt lat="42.840996" lon="0.122500">
        <ele>2680.064</ele>
        <time>2020-06-29T15:36:33Z</time>
      </trkpt>
      <trkpt lat="42.840973" lon="0.122619">
        <ele>2677.031</ele>
        <time>2020-06-29T15:36:44Z</time>
      </trkpt>
      <trkpt lat="42.840955" lon="0.122748">
        <ele>2670.049</ele>
        <time>2020-06-29T15:36:59Z</time>
      </trkpt>
      <trkpt lat="42.840914" lon="0.122865">
        <ele>2666.042</ele>
        <time>2020-06-29T15:37:13Z</time>
      </trkpt>
      <trkpt lat="42.840896" lon="0.122986">
        <ele>2663.069</ele>
        <time>2020-06-29T15:37:31Z</time>
      </trkpt>
      <trkpt lat="42.840861" lon="0.123100">
        <ele>2658.059</ele>
        <time>2020-06-29T15:37:45Z</time>
      </trkpt>
      <trkpt lat="42.840846" lon="0.123222">
        <ele>2653.075</ele>
        <time>2020-06-29T15:37:55Z</time>
      </trkpt>
      <trkpt lat="42.840825" lon="0.123342">
        <ele>2651.028</ele>
        <time>2020-06-29T15:38:07Z</time>
      </trkpt>
      <trkpt lat="42.840804" lon="0.123475">
        <ele>2651.025</ele>
        <time>2020-06-29T15:38:17Z</time>
      </trkpt>
      <trkpt lat="42.840769" lon="0.123599">
        <ele>2652.026</ele>
        <time>2020-06-29T15:38:27Z</time>
      </trkpt>
      <trkpt lat="42.840757" lon="0.123720">
        <ele>2651.008</ele>
        <time>2020-06-29T15:38:44Z</time>
      </trkpt>
      <trkpt lat="42.840744" lon="0.123851">
        <ele>2649.008</ele>
        <time>2020-06-29T15:38:56Z</time>
      </trkpt>
      <trkpt lat="42.840727" lon="0.123974">
        <ele>2647.057</ele>
        <time>2020-06-29T15:39:07Z</time>
      </trkpt>
      <trkpt lat="42.840712" lon="0.124097">
        <ele>2648.084</ele>
        <time>2020-06-29T15:39:48Z</time>
      </trkpt>
      <trkpt lat="42.840671" lon="0.124213">
        <ele>2647.072</ele>
        <time>2020-06-29T15:40:09Z</time>
      </trkpt>
      <trkpt lat="42.840664" lon="0.124335">
        <ele>2643.085</ele>
        <time>2020-06-29T15:40:21Z</time>
      </trkpt>
      <trkpt lat="42.840650" lon="0.124463">
        <ele>2635.092</ele>
        <time>2020-06-29T15:40:39Z</time>
      </trkpt>
      <trkpt lat="42.840634" lon="0.124587">
        <ele>2632.052</ele>
        <time>2020-06-29T15:40:53Z</time>
      </trkpt>
      <trkpt lat="42.840580" lon="0.124692">
        <ele>2631.038</ele>
        <time>2020-06-29T15:41:44Z</time>
      </trkpt>
      <trkpt lat="42.840589" lon="0.124817">
        <ele>2621.061</ele>
        <time>2020-06-29T15:42:09Z</time>
      </trkpt>
      <trkpt lat="42.840579" lon="0.124944">
        <ele>2618.068</ele>
        <time>2020-06-29T15:42:38Z</time>
      </trkpt>
      <trkpt lat="42.840607" lon="0.125065">
        <ele>2613.042</ele>
        <time>2020-06-29T15:43:19Z</time>
      </trkpt>
      <trkpt lat="42.840577" lon="0.125182">
        <ele>2603.026</ele>
        <time>2020-06-29T15:43:48Z</time>
      </trkpt>
      <trkpt lat="42.840580" lon="0.125309">
        <ele>2596.008</ele>
        <time>2020-06-29T15:44:05Z</time>
      </trkpt>
      <trkpt lat="42.840575" lon="0.125447">
        <ele>2591.061</ele>
        <time>2020-06-29T15:44:20Z</time>
      </trkpt>
      <trkpt lat="42.840579" lon="0.125572">
        <ele>2595.088</ele>
        <time>2020-06-29T15:44:30Z</time>
      </trkpt>
      <trkpt lat="42.840564" lon="0.125695">
        <ele>2595.036</ele>
        <time>2020-06-29T15:44:49Z</time>
      </trkpt>
      <trkpt lat="42.840507" lon="0.125805">
        <ele>2591.019</ele>
        <time>2020-06-29T15:45:00Z</time>
      </trkpt>
      <trkpt lat="42.840454" lon="0.125918">
        <ele>2586.046</ele>
        <time>2020-06-29T15:45:15Z</time>
      </trkpt>
      <trkpt lat="42.840395" lon="0.126020">
        <ele>2584.096</ele>
        <time>2020-06-29T15:45:35Z</time>
      </trkpt>
      <trkpt lat="42.840378" lon="0.126154">
        <ele>2584.082</ele>
        <time>2020-06-29T15:45:48Z</time>
      </trkpt>
      <trkpt lat="42.840338" lon="0.126281">
        <ele>2585.065</ele>
        <time>2020-06-29T15:46:00Z</time>
      </trkpt>
      <trkpt lat="42.840318" lon="0.126401">
        <ele>2583.063</ele>
        <time>2020-06-29T15:46:10Z</time>
      </trkpt>
      <trkpt lat="42.840288" lon="0.126520">
        <ele>2582.044</ele>
        <time>2020-06-29T15:46:23Z</time>
      </trkpt>
      <trkpt lat="42.840249" lon="0.126635">
        <ele>2579.018</ele>
        <time>2020-06-29T15:46:37Z</time>
      </trkpt>
      <trkpt lat="42.840208" lon="0.126746">
        <ele>2573.008</ele>
        <time>2020-06-29T15:46:53Z</time>
      </trkpt>
      <trkpt lat="42.840171" lon="0.126858">
        <ele>2568.061</ele>
        <time>2020-06-29T15:47:09Z</time>
      </trkpt>
      <trkpt lat="42.840120" lon="0.126962">
        <ele>2566.018</ele>
        <time>2020-06-29T15:47:38Z</time>
      </trkpt>
      <trkpt lat="42.840092" lon="0.127079">
        <ele>2564.056</ele>
        <time>2020-06-29T15:59:40Z</time>
      </trkpt>
      <trkpt lat="42.840075" lon="0.127208">
        <ele>2564.099</ele>
        <time>2020-06-29T15:59:55Z</time>
      </trkpt>
      <trkpt lat="42.840048" lon="0.127325">
        <ele>2563.026</ele>
        <time>2020-06-29T16:00:48Z</time>
      </trkpt>
      <trkpt lat="42.839999" lon="0.127431">
        <ele>2564.016</ele>
        <time>2020-06-29T16:01:37Z</time>
      </trkpt>
      <trkpt lat="42.839959" lon="0.127547">
        <ele>2562.092</ele>
        <time>2020-06-29T16:01:52Z</time>
      </trkpt>
      <trkpt lat="42.839879" lon="0.127615">
        <ele>2559.075</ele>
        <time>2020-06-29T16:02:27Z</time>
      </trkpt>
      <trkpt lat="42.839820" lon="0.127715">
        <ele>2559.065</ele>
        <time>2020-06-29T16:02:41Z</time>
      </trkpt>
      <trkpt lat="42.839763" lon="0.127821">
        <ele>2563.068</ele>
        <time>2020-06-29T16:02:53Z</time>
      </trkpt>
      <trkpt lat="42.839729" lon="0.127940">
        <ele>2559.014</ele>
        <time>2020-06-29T16:03:05Z</time>
      </trkpt>
      <trkpt lat="42.839662" lon="0.128028">
        <ele>2562.008</ele>
        <time>2020-06-29T16:03:32Z</time>
      </trkpt>
      <trkpt lat="42.839654" lon="0.128156">
        <ele>2564.091</ele>
        <time>2020-06-29T16:03:45Z</time>
      </trkpt>
      <trkpt lat="42.839619" lon="0.128273">
        <ele>2561.048</ele>
        <time>2020-06-29T16:04:02Z</time>
      </trkpt>
      <trkpt lat="42.839579" lon="0.128389">
        <ele>2562.016</ele>
        <time>2020-06-29T16:04:13Z</time>
      </trkpt>
      <trkpt lat="42.839535" lon="0.128507">
        <ele>2564.049</ele>
        <time>2020-06-29T16:04:30Z</time>
      </trkpt>
      <trkpt lat="42.839515" lon="0.128628">
        <ele>2561.056</ele>
        <time>2020-06-29T16:04:43Z</time>
      </trkpt>
      <trkpt lat="42.839504" lon="0.128753">
        <ele>2561.016</ele>
        <time>2020-06-29T16:04:55Z</time>
      </trkpt>
      <trkpt lat="42.839472" lon="0.128873">
        <ele>2561.032</ele>
        <time>2020-06-29T16:05:09Z</time>
      </trkpt>
      <trkpt lat="42.839468" lon="0.129006">
        <ele>2560.095</ele>
        <time>2020-06-29T16:05:40Z</time>
      </trkpt>
      <trkpt lat="42.839445" lon="0.129130">
        <ele>2559.039</ele>
        <time>2020-06-29T16:05:53Z</time>
      </trkpt>
      <trkpt lat="42.839427" lon="0.129250">
        <ele>2560.001</ele>
        <time>2020-06-29T16:06:09Z</time>
      </trkpt>
      <trkpt lat="42.839371" lon="0.129346">
        <ele>2553.021</ele>
        <time>2020-06-29T16:06:45Z</time>
      </trkpt>
      <trkpt lat="42.839354" lon="0.129477">
        <ele>2552.008</ele>
        <time>2020-06-29T16:07:19Z</time>
      </trkpt>
      <trkpt lat="42.839371" lon="0.129600">
        <ele>2548.068</ele>
        <time>2020-06-29T16:07:48Z</time>
      </trkpt>
      <trkpt lat="42.839416" lon="0.129718">
        <ele>2543.075</ele>
        <time>2020-06-29T16:08:06Z</time>
      </trkpt>
      <trkpt lat="42.839441" lon="0.129837">
        <ele>2543.023</ele>
        <time>2020-06-29T16:08:24Z</time>
      </trkpt>
      <trkpt lat="42.839435" lon="0.129964">
        <ele>2538.046</ele>
        <time>2020-06-29T16:08:43Z</time>
      </trkpt>
      <trkpt lat="42.839420" lon="0.130085">
        <ele>2534.063</ele>
        <time>2020-06-29T16:08:59Z</time>
      </trkpt>
      <trkpt lat="42.839437" lon="0.130209">
        <ele>2526.063</ele>
        <time>2020-06-29T16:09:41Z</time>
      </trkpt>
      <trkpt lat="42.839399" lon="0.130321">
        <ele>2531.069</ele>
        <time>2020-06-29T16:09:59Z</time>
      </trkpt>
      <trkpt lat="42.839352" lon="0.130433">
        <ele>2524.022</ele>
        <time>2020-06-29T16:10:22Z</time>
      </trkpt>
      <trkpt lat="42.839322" lon="0.130550">
        <ele>2520.029</ele>
        <time>2020-06-29T16:10:39Z</time>
      </trkpt>
      <trkpt lat="42.839277" lon="0.130662">
        <ele>2518.000</ele>
        <time>2020-06-29T16:10:53Z</time>
      </trkpt>
      <trkpt lat="42.839249" lon="0.130784">
        <ele>2517.020</ele>
        <time>2020-06-29T16:11:06Z</time>
      </trkpt>
      <trkpt lat="42.839240" lon="0.130906">
        <ele>2512.008</ele>
        <time>2020-06-29T16:11:58Z</time>
      </trkpt>
      <trkpt lat="42.839190" lon="0.131009">
        <ele>2511.077</ele>
        <time>2020-06-29T16:12:32Z</time>
      </trkpt>
      <trkpt lat="42.839117" lon="0.131082">
        <ele>2508.074</ele>
        <time>2020-06-29T16:13:49Z</time>
      </trkpt>
      <trkpt lat="42.839124" lon="0.131209">
        <ele>2506.052</ele>
        <time>2020-06-29T16:14:29Z</time>
      </trkpt>
      <trkpt lat="42.839050" lon="0.131291">
        <ele>2500.075</ele>
        <time>2020-06-29T16:15:50Z</time>
      </trkpt>
      <trkpt lat="42.839069" lon="0.131412">
        <ele>2499.072</ele>
        <time>2020-06-29T16:16:07Z</time>
      </trkpt>
      <trkpt lat="42.839082" lon="0.131538">
        <ele>2499.052</ele>
        <time>2020-06-29T16:16:51Z</time>
      </trkpt>
      <trkpt lat="42.839095" lon="0.131660">
        <ele>2499.098</ele>
        <time>2020-06-29T16:17:21Z</time>
      </trkpt>
      <trkpt lat="42.839129" lon="0.131781">
        <ele>2501.021</ele>
        <time>2020-06-29T16:17:33Z</time>
      </trkpt>
      <trkpt lat="42.839171" lon="0.131889">
        <ele>2503.013</ele>
        <time>2020-06-29T16:17:54Z</time>
      </trkpt>
      <trkpt lat="42.839176" lon="0.132013">
        <ele>2506.043</ele>
        <time>2020-06-29T16:19:04Z</time>
      </trkpt>
      <trkpt lat="42.839207" lon="0.132138">
        <ele>2510.007</ele>
        <time>2020-06-29T16:20:40Z</time>
      </trkpt>
      <trkpt lat="42.839277" lon="0.132218">
        <ele>2508.008</ele>
        <time>2020-06-29T16:21:22Z</time>
      </trkpt>
      <trkpt lat="42.839304" lon="0.132335">
        <ele>2510.076</ele>
        <time>2020-06-29T16:21:47Z</time>
      </trkpt>
      <trkpt lat="42.839338" lon="0.132450">
        <ele>2504.023</ele>
        <time>2020-06-29T16:22:38Z</time>
      </trkpt>
      <trkpt lat="42.839331" lon="0.132576">
        <ele>2501.081</ele>
        <time>2020-06-29T16:23:23Z</time>
      </trkpt>
      <trkpt lat="42.839311" lon="0.132700">
        <ele>2503.034</ele>
        <time>2020-06-29T16:24:06Z</time>
      </trkpt>
      <trkpt lat="42.839285" lon="0.132821">
        <ele>2500.091</ele>
        <time>2020-06-29T16:24:34Z</time>
      </trkpt>
      <trkpt lat="42.839328" lon="0.132930">
        <ele>2498.081</ele>
        <time>2020-06-29T16:25:11Z</time>
      </trkpt>
      <trkpt lat="42.839264" lon="0.133018">
        <ele>2491.097</ele>
        <time>2020-06-29T16:25:37Z</time>
      </trkpt>
      <trkpt lat="42.839311" lon="0.133123">
        <ele>2497.080</ele>
        <time>2020-06-29T16:26:24Z</time>
      </trkpt>
      <trkpt lat="42.839291" lon="0.133247">
        <ele>2494.019</ele>
        <time>2020-06-29T16:26:54Z</time>
      </trkpt>
      <trkpt lat="42.839280" lon="0.133369">
        <ele>2490.009</ele>
        <time>2020-06-29T16:27:54Z</time>
      </trkpt>
      <trkpt lat="42.839258" lon="0.133490">
        <ele>2492.019</ele>
        <time>2020-06-29T16:28:36Z</time>
      </trkpt>
      <trkpt lat="42.839198" lon="0.133588">
        <ele>2490.008</ele>
        <time>2020-06-29T16:29:09Z</time>
      </trkpt>
      <trkpt lat="42.839133" lon="0.133681">
        <ele>2489.016</ele>
        <time>2020-06-29T16:29:46Z</time>
      </trkpt>
      <trkpt lat="42.839092" lon="0.133572">
        <ele>2495.083</ele>
        <time>2020-06-29T16:30:39Z</time>
      </trkpt>
      <trkpt lat="42.839005" lon="0.133527">
        <ele>2495.051</ele>
        <time>2020-06-29T16:31:42Z</time>
      </trkpt>
      <trkpt lat="42.838948" lon="0.133624">
        <ele>2495.044</ele>
        <time>2020-06-29T16:32:14Z</time>
      </trkpt>
      <trkpt lat="42.838894" lon="0.133723">
        <ele>2492.071</ele>
        <time>2020-06-29T16:33:32Z</time>
      </trkpt>
      <trkpt lat="42.838836" lon="0.133821">
        <ele>2487.011</ele>
        <time>2020-06-29T16:34:38Z</time>
      </trkpt>
      <trkpt lat="42.838814" lon="0.133948">
        <ele>2480.097</ele>
        <time>2020-06-29T16:35:30Z</time>
      </trkpt>
      <trkpt lat="42.838739" lon="0.134022">
        <ele>2475.020</ele>
        <time>2020-06-29T16:36:05Z</time>
      </trkpt>
      <trkpt lat="42.838708" lon="0.134136">
        <ele>2472.035</ele>
        <time>2020-06-29T16:36:32Z</time>
      </trkpt>
      <trkpt lat="42.838749" lon="0.134255">
        <ele>2473.086</ele>
        <time>2020-06-29T16:36:52Z</time>
      </trkpt>
      <trkpt lat="42.838676" lon="0.134329">
        <ele>2468.014</ele>
        <time>2020-06-29T16:38:50Z</time>
      </trkpt>
      <trkpt lat="42.838589" lon="0.134374">
        <ele>2464.008</ele>
        <time>2020-06-29T16:39:16Z</time>
      </trkpt>
      <trkpt lat="42.838499" lon="0.134398">
        <ele>2467.068</ele>
        <time>2020-06-29T16:39:28Z</time>
      </trkpt>
      <trkpt lat="42.838404" lon="0.134412">
        <ele>2463.015</ele>
        <time>2020-06-29T16:39:51Z</time>
      </trkpt>
      <trkpt lat="42.838326" lon="0.134474">
        <ele>2460.063</ele>
        <time>2020-06-29T16:40:14Z</time>
      </trkpt>
      <trkpt lat="42.838287" lon="0.134588">
        <ele>2457.096</ele>
        <time>2020-06-29T16:40:45Z</time>
      </trkpt>
      <trkpt lat="42.838228" lon="0.134681">
        <ele>2448.073</ele>
        <time>2020-06-29T16:42:01Z</time>
      </trkpt>
      <trkpt lat="42.838135" lon="0.134705">
        <ele>2444.043</ele>
        <time>2020-06-29T16:44:16Z</time>
      </trkpt>
      <trkpt lat="42.838042" lon="0.134704">
        <ele>2444.039</ele>
        <time>2020-06-29T16:44:52Z</time>
      </trkpt>
      <trkpt lat="42.837957" lon="0.134759">
        <ele>2437.042</ele>
        <time>2020-06-29T16:45:26Z</time>
      </trkpt>
      <trkpt lat="42.837865" lon="0.134742">
        <ele>2433.014</ele>
        <time>2020-06-29T16:45:45Z</time>
      </trkpt>
      <trkpt lat="42.837774" lon="0.134754">
        <ele>2433.054</ele>
        <time>2020-06-29T16:46:05Z</time>
      </trkpt>
      <trkpt lat="42.837698" lon="0.134685">
        <ele>2432.009</ele>
        <time>2020-06-29T16:46:18Z</time>
      </trkpt>
      <trkpt lat="42.837609" lon="0.134665">
        <ele>2432.008</ele>
        <time>2020-06-29T16:46:34Z</time>
      </trkpt>
      <trkpt lat="42.837524" lon="0.134704">
        <ele>2424.026</ele>
        <time>2020-06-29T16:47:05Z</time>
      </trkpt>
      <trkpt lat="42.837432" lon="0.134750">
        <ele>2416.093</ele>
        <time>2020-06-29T16:47:21Z</time>
      </trkpt>
      <trkpt lat="42.837341" lon="0.134745">
        <ele>2422.011</ele>
        <time>2020-06-29T16:47:45Z</time>
      </trkpt>
      <trkpt lat="42.837336" lon="0.134876">
        <ele>2432.034</ele>
        <time>2020-06-29T16:48:54Z</time>
      </trkpt>
      <trkpt lat="42.837319" lon="0.134997">
        <ele>2426.011</ele>
        <time>2020-06-29T16:49:10Z</time>
      </trkpt>
      <trkpt lat="42.837223" lon="0.134992">
        <ele>2416.011</ele>
        <time>2020-06-29T16:49:27Z</time>
      </trkpt>
      <trkpt lat="42.837140" lon="0.135042">
        <ele>2415.067</ele>
        <time>2020-06-29T16:50:07Z</time>
      </trkpt>
      <trkpt lat="42.837123" lon="0.135163">
        <ele>2411.060</ele>
        <time>2020-06-29T16:50:32Z</time>
      </trkpt>
      <trkpt lat="42.837112" lon="0.135287">
        <ele>2405.043</ele>
        <time>2020-06-29T16:51:26Z</time>
      </trkpt>
      <trkpt lat="42.837042" lon="0.135366">
        <ele>2400.064</ele>
        <time>2020-06-29T16:53:09Z</time>
      </trkpt>
      <trkpt lat="42.836963" lon="0.135432">
        <ele>2391.010</ele>
        <time>2020-06-29T16:53:58Z</time>
      </trkpt>
      <trkpt lat="42.836875" lon="0.135379">
        <ele>2390.008</ele>
        <time>2020-06-29T16:54:12Z</time>
      </trkpt>
      <trkpt lat="42.836792" lon="0.135327">
        <ele>2388.049</ele>
        <time>2020-06-29T16:56:05Z</time>
      </trkpt>
      <trkpt lat="42.836702" lon="0.135311">
        <ele>2386.056</ele>
        <time>2020-06-29T16:57:24Z</time>
      </trkpt>
      <trkpt lat="42.836626" lon="0.135377">
        <ele>2384.044</ele>
        <time>2020-06-29T16:59:00Z</time>
      </trkpt>
      <trkpt lat="42.836556" lon="0.135454">
        <ele>2380.027</ele>
        <time>2020-06-29T17:00:27Z</time>
      </trkpt>
      <trkpt lat="42.836485" lon="0.135535">
        <ele>2382.034</ele>
        <time>2020-06-29T17:01:09Z</time>
      </trkpt>
      <trkpt lat="42.836454" lon="0.135650">
        <ele>2380.024</ele>
        <time>2020-06-29T17:01:39Z</time>
      </trkpt>
      <trkpt lat="42.836436" lon="0.135773">
        <ele>2368.030</ele>
        <time>2020-06-29T17:02:45Z</time>
      </trkpt>
      <trkpt lat="42.836360" lon="0.135842">
        <ele>2356.073</ele>
        <time>2020-06-29T17:03:05Z</time>
      </trkpt>
      <trkpt lat="42.836268" lon="0.135831">
        <ele>2359.073</ele>
        <time>2020-06-29T17:03:54Z</time>
      </trkpt>
      <trkpt lat="42.836193" lon="0.135920">
        <ele>2358.085</ele>
        <time>2020-06-29T17:04:22Z</time>
      </trkpt>
      <trkpt lat="42.836101" lon="0.135927">
        <ele>2337.013</ele>
        <time>2020-06-29T17:07:30Z</time>
      </trkpt>
      <trkpt lat="42.836053" lon="0.136030">
        <ele>2335.008</ele>
        <time>2020-06-29T17:07:54Z</time>
      </trkpt>
      <trkpt lat="42.835965" lon="0.136061">
        <ele>2329.082</ele>
        <time>2020-06-29T17:08:08Z</time>
      </trkpt>
      <trkpt lat="42.835899" lon="0.136145">
        <ele>2325.029</ele>
        <time>2020-06-29T17:08:25Z</time>
      </trkpt>
      <trkpt lat="42.835895" lon="0.136270">
        <ele>2328.097</ele>
        <time>2020-06-29T17:08:51Z</time>
      </trkpt>
      <trkpt lat="42.835854" lon="0.136382">
        <ele>2336.060</ele>
        <time>2020-06-29T17:09:15Z</time>
      </trkpt>
      <trkpt lat="42.835813" lon="0.136491">
        <ele>2328.017</ele>
        <time>2020-06-29T17:09:42Z</time>
      </trkpt>
      <trkpt lat="42.835723" lon="0.136501">
        <ele>2322.097</ele>
        <time>2020-06-29T17:10:12Z</time>
      </trkpt>
      <trkpt lat="42.835633" lon="0.136539">
        <ele>2322.053</ele>
        <time>2020-06-29T17:10:23Z</time>
      </trkpt>
      <trkpt lat="42.835574" lon="0.136633">
        <ele>2314.046</ele>
        <time>2020-06-29T17:10:47Z</time>
      </trkpt>
      <trkpt lat="42.835517" lon="0.136739">
        <ele>2318.025</ele>
        <time>2020-06-29T17:10:56Z</time>
      </trkpt>
      <trkpt lat="42.835442" lon="0.136809">
        <ele>2324.026</ele>
        <time>2020-06-29T17:11:23Z</time>
      </trkpt>
      <trkpt lat="42.835378" lon="0.136895">
        <ele>2329.008</ele>
        <time>2020-06-29T17:13:38Z</time>
      </trkpt>
      <trkpt lat="42.835842" lon="0.138588">
        <ele>2263.028</ele>
        <time>2020-06-30T08:55:13Z</time>
      </trkpt>
      <trkpt lat="42.835910" lon="0.138503">
        <ele>2265.089</ele>
        <time>2020-06-30T08:57:06Z</time>
      </trkpt>
      <trkpt lat="42.835999" lon="0.138524">
        <ele>2262.017</ele>
        <time>2020-06-30T08:57:19Z</time>
      </trkpt>
      <trkpt lat="42.836070" lon="0.138612">
        <ele>2262.008</ele>
        <time>2020-06-30T08:57:27Z</time>
      </trkpt>
      <trkpt lat="42.836146" lon="0.138688">
        <ele>2262.087</ele>
        <time>2020-06-30T08:57:44Z</time>
      </trkpt>
      <trkpt lat="42.836227" lon="0.138741">
        <ele>2260.053</ele>
        <time>2020-06-30T08:57:55Z</time>
      </trkpt>
      <trkpt lat="42.836316" lon="0.138767">
        <ele>2260.061</ele>
        <time>2020-06-30T08:58:09Z</time>
      </trkpt>
      <trkpt lat="42.836384" lon="0.138853">
        <ele>2260.087</ele>
        <time>2020-06-30T08:58:23Z</time>
      </trkpt>
      <trkpt lat="42.836430" lon="0.138960">
        <ele>2255.010</ele>
        <time>2020-06-30T08:58:32Z</time>
      </trkpt>
      <trkpt lat="42.836517" lon="0.139013">
        <ele>2256.021</ele>
        <time>2020-06-30T08:58:47Z</time>
      </trkpt>
      <trkpt lat="42.836612" lon="0.139025">
        <ele>2255.069</ele>
        <time>2020-06-30T08:59:16Z</time>
      </trkpt>
      <trkpt lat="42.836637" lon="0.139150">
        <ele>2253.056</ele>
        <time>2020-06-30T08:59:26Z</time>
      </trkpt>
      <trkpt lat="42.836680" lon="0.139263">
        <ele>2250.055</ele>
        <time>2020-06-30T08:59:49Z</time>
      </trkpt>
      <trkpt lat="42.836744" lon="0.139362">
        <ele>2249.007</ele>
        <time>2020-06-30T09:00:03Z</time>
      </trkpt>
      <trkpt lat="42.836811" lon="0.139443">
        <ele>2243.017</ele>
        <time>2020-06-30T09:00:13Z</time>
      </trkpt>
      <trkpt lat="42.836908" lon="0.139470">
        <ele>2240.008</ele>
        <time>2020-06-30T09:00:28Z</time>
      </trkpt>
      <trkpt lat="42.836975" lon="0.139558">
        <ele>2236.050</ele>
        <time>2020-06-30T09:00:41Z</time>
      </trkpt>
      <trkpt lat="42.837069" lon="0.139580">
        <ele>2232.076</ele>
        <time>2020-06-30T09:01:02Z</time>
      </trkpt>
      <trkpt lat="42.837153" lon="0.139636">
        <ele>2228.014</ele>
        <time>2020-06-30T09:01:22Z</time>
      </trkpt>
      <trkpt lat="42.837245" lon="0.139622">
        <ele>2225.070</ele>
        <time>2020-06-30T09:01:36Z</time>
      </trkpt>
      <trkpt lat="42.837337" lon="0.139582">
        <ele>2226.023</ele>
        <time>2020-06-30T09:01:56Z</time>
      </trkpt>
      <trkpt lat="42.837429" lon="0.139551">
        <ele>2225.034</ele>
        <time>2020-06-30T09:02:10Z</time>
      </trkpt>
      <trkpt lat="42.837520" lon="0.139553">
        <ele>2221.062</ele>
        <time>2020-06-30T09:02:28Z</time>
      </trkpt>
      <trkpt lat="42.837610" lon="0.139573">
        <ele>2218.079</ele>
        <time>2020-06-30T09:03:28Z</time>
      </trkpt>
      <trkpt lat="42.837686" lon="0.139642">
        <ele>2214.033</ele>
        <time>2020-06-30T09:03:44Z</time>
      </trkpt>
      <trkpt lat="42.837699" lon="0.139766">
        <ele>2210.023</ele>
        <time>2020-06-30T09:03:53Z</time>
      </trkpt>
      <trkpt lat="42.837705" lon="0.139889">
        <ele>2212.015</ele>
        <time>2020-06-30T09:04:17Z</time>
      </trkpt>
      <trkpt lat="42.837739" lon="0.140010">
        <ele>2211.008</ele>
        <time>2020-06-30T09:04:47Z</time>
      </trkpt>
      <trkpt lat="42.837814" lon="0.140081">
        <ele>2207.018</ele>
        <time>2020-06-30T09:07:47Z</time>
      </trkpt>
      <trkpt lat="42.837881" lon="0.139997">
        <ele>2205.074</ele>
        <time>2020-06-30T09:07:57Z</time>
      </trkpt>
      <trkpt lat="42.837969" lon="0.140051">
        <ele>2205.012</ele>
        <time>2020-06-30T09:08:07Z</time>
      </trkpt>
      <trkpt lat="42.838007" lon="0.140167">
        <ele>2205.068</ele>
        <time>2020-06-30T09:08:16Z</time>
      </trkpt>
      <trkpt lat="42.838044" lon="0.140283">
        <ele>2204.051</ele>
        <time>2020-06-30T09:08:27Z</time>
      </trkpt>
      <trkpt lat="42.838100" lon="0.140391">
        <ele>2202.022</ele>
        <time>2020-06-30T09:08:35Z</time>
      </trkpt>
      <trkpt lat="42.838158" lon="0.140495">
        <ele>2201.080</ele>
        <time>2020-06-30T09:08:49Z</time>
      </trkpt>
      <trkpt lat="42.838179" lon="0.140623">
        <ele>2202.017</ele>
        <time>2020-06-30T09:08:58Z</time>
      </trkpt>
      <trkpt lat="42.838226" lon="0.140742">
        <ele>2202.055</ele>
        <time>2020-06-30T09:09:07Z</time>
      </trkpt>
      <trkpt lat="42.838271" lon="0.140848">
        <ele>2202.007</ele>
        <time>2020-06-30T09:09:17Z</time>
      </trkpt>
      <trkpt lat="42.838328" lon="0.140958">
        <ele>2203.017</ele>
        <time>2020-06-30T09:09:27Z</time>
      </trkpt>
      <trkpt lat="42.838390" lon="0.141049">
        <ele>2203.008</ele>
        <time>2020-06-30T09:09:35Z</time>
      </trkpt>
      <trkpt lat="42.838478" lon="0.141100">
        <ele>2203.010</ele>
        <time>2020-06-30T09:09:44Z</time>
      </trkpt>
      <trkpt lat="42.838563" lon="0.141166">
        <ele>2204.076</ele>
        <time>2020-06-30T09:09:54Z</time>
      </trkpt>
      <trkpt lat="42.838627" lon="0.141264">
        <ele>2205.094</ele>
        <time>2020-06-30T09:10:00Z</time>
      </trkpt>
      <trkpt lat="42.838694" lon="0.141359">
        <ele>2206.020</ele>
        <time>2020-06-30T09:10:13Z</time>
      </trkpt>
      <trkpt lat="42.838736" lon="0.141471">
        <ele>2205.073</ele>
        <time>2020-06-30T09:10:24Z</time>
      </trkpt>
      <trkpt lat="42.838773" lon="0.141588">
        <ele>2202.074</ele>
        <time>2020-06-30T09:10:35Z</time>
      </trkpt>
      <trkpt lat="42.838769" lon="0.141719">
        <ele>2202.082</ele>
        <time>2020-06-30T09:10:43Z</time>
      </trkpt>
      <trkpt lat="42.838755" lon="0.141841">
        <ele>2203.049</ele>
        <time>2020-06-30T09:10:53Z</time>
      </trkpt>
      <trkpt lat="42.838752" lon="0.141966">
        <ele>2204.092</ele>
        <time>2020-06-30T09:11:01Z</time>
      </trkpt>
      <trkpt lat="42.838749" lon="0.142088">
        <ele>2206.073</ele>
        <time>2020-06-30T09:11:17Z</time>
      </trkpt>
      <trkpt lat="42.838743" lon="0.142213">
        <ele>2205.020</ele>
        <time>2020-06-30T09:11:25Z</time>
      </trkpt>
      <trkpt lat="42.838739" lon="0.142347">
        <ele>2205.008</ele>
        <time>2020-06-30T09:11:36Z</time>
      </trkpt>
      <trkpt lat="42.838739" lon="0.142483">
        <ele>2206.084</ele>
        <time>2020-06-30T09:11:45Z</time>
      </trkpt>
      <trkpt lat="42.838732" lon="0.142614">
        <ele>2207.020</ele>
        <time>2020-06-30T09:11:52Z</time>
      </trkpt>
      <trkpt lat="42.838750" lon="0.142735">
        <ele>2206.048</ele>
        <time>2020-06-30T09:12:01Z</time>
      </trkpt>
      <trkpt lat="42.838785" lon="0.142864">
        <ele>2205.054</ele>
        <time>2020-06-30T09:12:14Z</time>
      </trkpt>
      <trkpt lat="42.838825" lon="0.142982">
        <ele>2204.047</ele>
        <time>2020-06-30T09:12:24Z</time>
      </trkpt>
      <trkpt lat="42.838885" lon="0.143091">
        <ele>2204.068</ele>
        <time>2020-06-30T09:12:34Z</time>
      </trkpt>
      <trkpt lat="42.838946" lon="0.143198">
        <ele>2203.066</ele>
        <time>2020-06-30T09:12:43Z</time>
      </trkpt>
      <trkpt lat="42.839002" lon="0.143300">
        <ele>2201.073</ele>
        <time>2020-06-30T09:12:51Z</time>
      </trkpt>
      <trkpt lat="42.839073" lon="0.143393">
        <ele>2200.079</ele>
        <time>2020-06-30T09:13:01Z</time>
      </trkpt>
      <trkpt lat="42.839139" lon="0.143503">
        <ele>2201.005</ele>
        <time>2020-06-30T09:13:09Z</time>
      </trkpt>
      <trkpt lat="42.839212" lon="0.143594">
        <ele>2201.025</ele>
        <time>2020-06-30T09:13:19Z</time>
      </trkpt>
      <trkpt lat="42.839120" lon="0.143566">
        <ele>2201.008</ele>
        <time>2020-06-30T09:13:48Z</time>
      </trkpt>
      <trkpt lat="42.839035" lon="0.143502">
        <ele>2200.032</ele>
        <time>2020-06-30T09:13:57Z</time>
      </trkpt>
      <trkpt lat="42.838967" lon="0.143413">
        <ele>2199.078</ele>
        <time>2020-06-30T09:14:06Z</time>
      </trkpt>
      <trkpt lat="42.838903" lon="0.143320">
        <ele>2199.066</ele>
        <time>2020-06-30T09:14:15Z</time>
      </trkpt>
      <trkpt lat="42.838826" lon="0.143237">
        <ele>2200.052</ele>
        <time>2020-06-30T09:14:24Z</time>
      </trkpt>
      <trkpt lat="42.838745" lon="0.143163">
        <ele>2198.035</ele>
        <time>2020-06-30T09:14:33Z</time>
      </trkpt>
      <trkpt lat="42.838656" lon="0.143134">
        <ele>2195.066</ele>
        <time>2020-06-30T09:14:41Z</time>
      </trkpt>
      <trkpt lat="42.838564" lon="0.143091">
        <ele>2193.024</ele>
        <time>2020-06-30T09:14:50Z</time>
      </trkpt>
      <trkpt lat="42.838480" lon="0.143044">
        <ele>2190.051</ele>
        <time>2020-06-30T09:15:02Z</time>
      </trkpt>
      <trkpt lat="42.838430" lon="0.142934">
        <ele>2193.047</ele>
        <time>2020-06-30T09:15:11Z</time>
      </trkpt>
      <trkpt lat="42.838363" lon="0.142851">
        <ele>2194.029</ele>
        <time>2020-06-30T09:15:21Z</time>
      </trkpt>
      <trkpt lat="42.838281" lon="0.142794">
        <ele>2188.021</ele>
        <time>2020-06-30T09:15:35Z</time>
      </trkpt>
      <trkpt lat="42.838215" lon="0.142709">
        <ele>2187.008</ele>
        <time>2020-06-30T09:15:52Z</time>
      </trkpt>
      <trkpt lat="42.838130" lon="0.142666">
        <ele>2188.089</ele>
        <time>2020-06-30T09:16:04Z</time>
      </trkpt>
      <trkpt lat="42.838035" lon="0.142671">
        <ele>2183.035</ele>
        <time>2020-06-30T09:16:14Z</time>
      </trkpt>
      <trkpt lat="42.837975" lon="0.142770">
        <ele>2184.073</ele>
        <time>2020-06-30T09:16:25Z</time>
      </trkpt>
      <trkpt lat="42.837900" lon="0.142838">
        <ele>2181.039</ele>
        <time>2020-06-30T09:16:37Z</time>
      </trkpt>
      <trkpt lat="42.837820" lon="0.142911">
        <ele>2177.022</ele>
        <time>2020-06-30T09:16:51Z</time>
      </trkpt>
      <trkpt lat="42.837765" lon="0.143012">
        <ele>2175.063</ele>
        <time>2020-06-30T09:17:02Z</time>
      </trkpt>
      <trkpt lat="42.837743" lon="0.143138">
        <ele>2176.061</ele>
        <time>2020-06-30T09:17:11Z</time>
      </trkpt>
      <trkpt lat="42.837769" lon="0.143267">
        <ele>2176.018</ele>
        <time>2020-06-30T09:17:21Z</time>
      </trkpt>
      <trkpt lat="42.837706" lon="0.143358">
        <ele>2175.095</ele>
        <time>2020-06-30T09:17:33Z</time>
      </trkpt>
      <trkpt lat="42.837628" lon="0.143430">
        <ele>2172.049</ele>
        <time>2020-06-30T09:17:42Z</time>
      </trkpt>
      <trkpt lat="42.837569" lon="0.143525">
        <ele>2171.023</ele>
        <time>2020-06-30T09:17:56Z</time>
      </trkpt>
      <trkpt lat="42.837563" lon="0.143663">
        <ele>2170.008</ele>
        <time>2020-06-30T09:18:06Z</time>
      </trkpt>
      <trkpt lat="42.837539" lon="0.143783">
        <ele>2169.034</ele>
        <time>2020-06-30T09:18:17Z</time>
      </trkpt>
      <trkpt lat="42.837473" lon="0.143871">
        <ele>2168.010</ele>
        <time>2020-06-30T09:18:34Z</time>
      </trkpt>
      <trkpt lat="42.837388" lon="0.143957">
        <ele>2165.028</ele>
        <time>2020-06-30T09:18:47Z</time>
      </trkpt>
      <trkpt lat="42.837341" lon="0.144063">
        <ele>2163.044</ele>
        <time>2020-06-30T09:18:58Z</time>
      </trkpt>
      <trkpt lat="42.837317" lon="0.144187">
        <ele>2162.017</ele>
        <time>2020-06-30T09:19:09Z</time>
      </trkpt>
      <trkpt lat="42.837328" lon="0.144312">
        <ele>2159.018</ele>
        <time>2020-06-30T09:19:22Z</time>
      </trkpt>
      <trkpt lat="42.837357" lon="0.144435">
        <ele>2157.036</ele>
        <time>2020-06-30T09:19:33Z</time>
      </trkpt>
      <trkpt lat="42.837275" lon="0.144486">
        <ele>2155.013</ele>
        <time>2020-06-30T09:19:48Z</time>
      </trkpt>
      <trkpt lat="42.837207" lon="0.144586">
        <ele>2154.083</ele>
        <time>2020-06-30T09:19:59Z</time>
      </trkpt>
      <trkpt lat="42.837140" lon="0.144682">
        <ele>2153.025</ele>
        <time>2020-06-30T09:20:10Z</time>
      </trkpt>
      <trkpt lat="42.837090" lon="0.144794">
        <ele>2150.017</ele>
        <time>2020-06-30T09:20:23Z</time>
      </trkpt>
      <trkpt lat="42.836996" lon="0.144813">
        <ele>2150.008</ele>
        <time>2020-06-30T09:20:32Z</time>
      </trkpt>
      <trkpt lat="42.836948" lon="0.144918">
        <ele>2148.073</ele>
        <time>2020-06-30T09:20:42Z</time>
      </trkpt>
      <trkpt lat="42.836897" lon="0.145032">
        <ele>2146.099</ele>
        <time>2020-06-30T09:20:55Z</time>
      </trkpt>
      <trkpt lat="42.836823" lon="0.145120">
        <ele>2145.027</ele>
        <time>2020-06-30T09:21:05Z</time>
      </trkpt>
      <trkpt lat="42.836773" lon="0.145233">
        <ele>2145.023</ele>
        <time>2020-06-30T09:21:14Z</time>
      </trkpt>
      <trkpt lat="42.836701" lon="0.145312">
        <ele>2143.066</ele>
        <time>2020-06-30T09:21:26Z</time>
      </trkpt>
      <trkpt lat="42.836611" lon="0.145322">
        <ele>2140.087</ele>
        <time>2020-06-30T09:21:38Z</time>
      </trkpt>
      <trkpt lat="42.836517" lon="0.145347">
        <ele>2139.035</ele>
        <time>2020-06-30T09:21:50Z</time>
      </trkpt>
      <trkpt lat="42.836427" lon="0.145386">
        <ele>2136.092</ele>
        <time>2020-06-30T09:22:04Z</time>
      </trkpt>
      <trkpt lat="42.836349" lon="0.145460">
        <ele>2136.039</ele>
        <time>2020-06-30T09:22:20Z</time>
      </trkpt>
      <trkpt lat="42.836368" lon="0.145581">
        <ele>2134.001</ele>
        <time>2020-06-30T09:22:30Z</time>
      </trkpt>
      <trkpt lat="42.836343" lon="0.145699">
        <ele>2135.021</ele>
        <time>2020-06-30T09:22:38Z</time>
      </trkpt>
      <trkpt lat="42.836291" lon="0.145809">
        <ele>2136.008</ele>
        <time>2020-06-30T09:22:47Z</time>
      </trkpt>
      <trkpt lat="42.836242" lon="0.145922">
        <ele>2133.078</ele>
        <time>2020-06-30T09:22:56Z</time>
      </trkpt>
      <trkpt lat="42.836161" lon="0.145977">
        <ele>2132.024</ele>
        <time>2020-06-30T09:23:09Z</time>
      </trkpt>
      <trkpt lat="42.836130" lon="0.146098">
        <ele>2133.012</ele>
        <time>2020-06-30T09:23:18Z</time>
      </trkpt>
      <trkpt lat="42.836097" lon="0.146215">
        <ele>2131.028</ele>
        <time>2020-06-30T09:23:27Z</time>
      </trkpt>
      <trkpt lat="42.836046" lon="0.146317">
        <ele>2131.051</ele>
        <time>2020-06-30T09:23:37Z</time>
      </trkpt>
      <trkpt lat="42.835992" lon="0.146419">
        <ele>2129.012</ele>
        <time>2020-06-30T09:23:46Z</time>
      </trkpt>
      <trkpt lat="42.835922" lon="0.146503">
        <ele>2130.050</ele>
        <time>2020-06-30T09:23:54Z</time>
      </trkpt>
      <trkpt lat="42.835862" lon="0.146602">
        <ele>2130.017</ele>
        <time>2020-06-30T09:24:17Z</time>
      </trkpt>
      <trkpt lat="42.835784" lon="0.146677">
        <ele>2128.057</ele>
        <time>2020-06-30T09:24:26Z</time>
      </trkpt>
      <trkpt lat="42.835726" lon="0.146775">
        <ele>2129.000</ele>
        <time>2020-06-30T09:24:35Z</time>
      </trkpt>
      <trkpt lat="42.835652" lon="0.146864">
        <ele>2129.020</ele>
        <time>2020-06-30T09:24:45Z</time>
      </trkpt>
      <trkpt lat="42.835576" lon="0.146933">
        <ele>2130.008</ele>
        <time>2020-06-30T09:24:57Z</time>
      </trkpt>
      <trkpt lat="42.835517" lon="0.147039">
        <ele>2129.010</ele>
        <time>2020-06-30T09:25:07Z</time>
      </trkpt>
      <trkpt lat="42.835441" lon="0.147112">
        <ele>2133.026</ele>
        <time>2020-06-30T09:25:18Z</time>
      </trkpt>
      <trkpt lat="42.835380" lon="0.147210">
        <ele>2130.044</ele>
        <time>2020-06-30T09:25:32Z</time>
      </trkpt>
      <trkpt lat="42.835330" lon="0.147313">
        <ele>2127.090</ele>
        <time>2020-06-30T09:25:43Z</time>
      </trkpt>
      <trkpt lat="42.835296" lon="0.147431">
        <ele>2128.013</ele>
        <time>2020-06-30T09:26:02Z</time>
      </trkpt>
      <trkpt lat="42.835230" lon="0.147524">
        <ele>2130.014</ele>
        <time>2020-06-30T09:26:13Z</time>
      </trkpt>
      <trkpt lat="42.835144" lon="0.147568">
        <ele>2130.012</ele>
        <time>2020-06-30T09:26:29Z</time>
      </trkpt>
      <trkpt lat="42.835067" lon="0.147643">
        <ele>2134.019</ele>
        <time>2020-06-30T09:26:41Z</time>
      </trkpt>
      <trkpt lat="42.834999" lon="0.147728">
        <ele>2135.067</ele>
        <time>2020-06-30T09:26:53Z</time>
      </trkpt>
      <trkpt lat="42.834917" lon="0.147779">
        <ele>2134.081</ele>
        <time>2020-06-30T09:27:07Z</time>
      </trkpt>
      <trkpt lat="42.834853" lon="0.147875">
        <ele>2133.019</ele>
        <time>2020-06-30T09:27:16Z</time>
      </trkpt>
      <trkpt lat="42.834773" lon="0.147938">
        <ele>2130.008</ele>
        <time>2020-06-30T09:27:26Z</time>
      </trkpt>
      <trkpt lat="42.834716" lon="0.148045">
        <ele>2129.021</ele>
        <time>2020-06-30T09:27:35Z</time>
      </trkpt>
      <trkpt lat="42.834644" lon="0.148117">
        <ele>2129.077</ele>
        <time>2020-06-30T09:27:45Z</time>
      </trkpt>
      <trkpt lat="42.834563" lon="0.148188">
        <ele>2130.025</ele>
        <time>2020-06-30T09:27:57Z</time>
      </trkpt>
      <trkpt lat="42.834487" lon="0.148268">
        <ele>2131.051</ele>
        <time>2020-06-30T09:28:08Z</time>
      </trkpt>
      <trkpt lat="42.834422" lon="0.148363">
        <ele>2131.014</ele>
        <time>2020-06-30T09:28:19Z</time>
      </trkpt>
      <trkpt lat="42.834335" lon="0.148428">
        <ele>2128.055</ele>
        <time>2020-06-30T09:28:30Z</time>
      </trkpt>
      <trkpt lat="42.834264" lon="0.148506">
        <ele>2132.093</ele>
        <time>2020-06-30T09:28:39Z</time>
      </trkpt>
      <trkpt lat="42.834208" lon="0.148612">
        <ele>2131.090</ele>
        <time>2020-06-30T09:28:48Z</time>
      </trkpt>
      <trkpt lat="42.834120" lon="0.148653">
        <ele>2128.099</ele>
        <time>2020-06-30T09:28:57Z</time>
      </trkpt>
      <trkpt lat="42.834033" lon="0.148698">
        <ele>2126.007</ele>
        <time>2020-06-30T09:29:07Z</time>
      </trkpt>
      <trkpt lat="42.833968" lon="0.148787">
        <ele>2124.027</ele>
        <time>2020-06-30T09:29:16Z</time>
      </trkpt>
      <trkpt lat="42.833910" lon="0.148884">
        <ele>2123.008</ele>
        <time>2020-06-30T09:29:27Z</time>
      </trkpt>
      <trkpt lat="42.833821" lon="0.148905">
        <ele>2121.084</ele>
        <time>2020-06-30T09:29:39Z</time>
      </trkpt>
      <trkpt lat="42.833753" lon="0.149002">
        <ele>2122.040</ele>
        <time>2020-06-30T09:29:52Z</time>
      </trkpt>
      <trkpt lat="42.833691" lon="0.149095">
        <ele>2122.088</ele>
        <time>2020-06-30T09:30:04Z</time>
      </trkpt>
      <trkpt lat="42.833651" lon="0.149207">
        <ele>2122.034</ele>
        <time>2020-06-30T09:30:25Z</time>
      </trkpt>
      <trkpt lat="42.833569" lon="0.149282">
        <ele>2122.017</ele>
        <time>2020-06-30T09:30:41Z</time>
      </trkpt>
      <trkpt lat="42.833511" lon="0.149385">
        <ele>2122.018</ele>
        <time>2020-06-30T09:30:51Z</time>
      </trkpt>
      <trkpt lat="42.833448" lon="0.149480">
        <ele>2119.056</ele>
        <time>2020-06-30T09:31:03Z</time>
      </trkpt>
      <trkpt lat="42.833373" lon="0.149559">
        <ele>2126.083</ele>
        <time>2020-06-30T09:31:13Z</time>
      </trkpt>
      <trkpt lat="42.833363" lon="0.149688">
        <ele>2119.059</ele>
        <time>2020-06-30T09:31:23Z</time>
      </trkpt>
      <trkpt lat="42.833313" lon="0.149795">
        <ele>2118.003</ele>
        <time>2020-06-30T09:31:32Z</time>
      </trkpt>
      <trkpt lat="42.833273" lon="0.149908">
        <ele>2113.023</ele>
        <time>2020-06-30T09:31:46Z</time>
      </trkpt>
      <trkpt lat="42.833211" lon="0.150005">
        <ele>2113.008</ele>
        <time>2020-06-30T09:31:59Z</time>
      </trkpt>
      <trkpt lat="42.833160" lon="0.150118">
        <ele>2110.060</ele>
        <time>2020-06-30T09:32:11Z</time>
      </trkpt>
      <trkpt lat="42.833099" lon="0.150215">
        <ele>2117.036</ele>
        <time>2020-06-30T09:32:22Z</time>
      </trkpt>
      <trkpt lat="42.833060" lon="0.150337">
        <ele>2123.014</ele>
        <time>2020-06-30T09:32:34Z</time>
      </trkpt>
      <trkpt lat="42.833055" lon="0.150467">
        <ele>2123.060</ele>
        <time>2020-06-30T09:32:45Z</time>
      </trkpt>
      <trkpt lat="42.833003" lon="0.150580">
        <ele>2124.053</ele>
        <time>2020-06-30T09:32:56Z</time>
      </trkpt>
      <trkpt lat="42.833027" lon="0.150701">
        <ele>2124.034</ele>
        <time>2020-06-30T09:33:05Z</time>
      </trkpt>
      <trkpt lat="42.833021" lon="0.150827">
        <ele>2125.052</ele>
        <time>2020-06-30T09:33:14Z</time>
      </trkpt>
      <trkpt lat="42.832986" lon="0.150950">
        <ele>2127.089</ele>
        <time>2020-06-30T09:33:28Z</time>
      </trkpt>
      <trkpt lat="42.832939" lon="0.151057">
        <ele>2129.066</ele>
        <time>2020-06-30T09:33:41Z</time>
      </trkpt>
      <trkpt lat="42.832898" lon="0.151167">
        <ele>2126.029</ele>
        <time>2020-06-30T09:33:51Z</time>
      </trkpt>
      <trkpt lat="42.832917" lon="0.151300">
        <ele>2127.021</ele>
        <time>2020-06-30T09:34:01Z</time>
      </trkpt>
      <trkpt lat="42.832931" lon="0.151421">
        <ele>2128.008</ele>
        <time>2020-06-30T09:34:11Z</time>
      </trkpt>
      <trkpt lat="42.832935" lon="0.151552">
        <ele>2132.021</ele>
        <time>2020-06-30T09:34:25Z</time>
      </trkpt>
      <trkpt lat="42.832960" lon="0.151677">
        <ele>2132.067</ele>
        <time>2020-06-30T09:34:37Z</time>
      </trkpt>
      <trkpt lat="42.832943" lon="0.151808">
        <ele>2132.065</ele>
        <time>2020-06-30T09:34:47Z</time>
      </trkpt>
      <trkpt lat="42.832922" lon="0.151935">
        <ele>2132.091</ele>
        <time>2020-06-30T09:35:03Z</time>
      </trkpt>
      <trkpt lat="42.832898" lon="0.152063">
        <ele>2130.044</ele>
        <time>2020-06-30T09:35:12Z</time>
      </trkpt>
      <trkpt lat="42.832961" lon="0.152156">
        <ele>2129.085</ele>
        <time>2020-06-30T09:35:23Z</time>
      </trkpt>
      <trkpt lat="42.833013" lon="0.152265">
        <ele>2128.013</ele>
        <time>2020-06-30T09:35:31Z</time>
      </trkpt>
      <trkpt lat="42.833070" lon="0.152379">
        <ele>2127.040</ele>
        <time>2020-06-30T09:35:42Z</time>
      </trkpt>
      <trkpt lat="42.833139" lon="0.152477">
        <ele>2126.069</ele>
        <time>2020-06-30T09:35:51Z</time>
      </trkpt>
      <trkpt lat="42.833225" lon="0.152533">
        <ele>2129.004</ele>
        <time>2020-06-30T09:36:02Z</time>
      </trkpt>
      <trkpt lat="42.833313" lon="0.152569">
        <ele>2133.024</ele>
        <time>2020-06-30T09:36:12Z</time>
      </trkpt>
      <trkpt lat="42.833395" lon="0.152634">
        <ele>2133.008</ele>
        <time>2020-06-30T09:36:22Z</time>
      </trkpt>
      <trkpt lat="42.833481" lon="0.152698">
        <ele>2135.071</ele>
        <time>2020-06-30T09:36:34Z</time>
      </trkpt>
      <trkpt lat="42.833553" lon="0.152785">
        <ele>2134.017</ele>
        <time>2020-06-30T09:36:47Z</time>
      </trkpt>
      <trkpt lat="42.833539" lon="0.152908">
        <ele>2133.055</ele>
        <time>2020-06-30T09:36:59Z</time>
      </trkpt>
      <trkpt lat="42.833538" lon="0.153043">
        <ele>2133.041</ele>
        <time>2020-06-30T09:37:10Z</time>
      </trkpt>
      <trkpt lat="42.833522" lon="0.153165">
        <ele>2134.034</ele>
        <time>2020-06-30T09:37:18Z</time>
      </trkpt>
      <trkpt lat="42.833549" lon="0.153286">
        <ele>2135.095</ele>
        <time>2020-06-30T09:37:31Z</time>
      </trkpt>
      <trkpt lat="42.833611" lon="0.153383">
        <ele>2133.033</ele>
        <time>2020-06-30T09:37:41Z</time>
      </trkpt>
      <trkpt lat="42.833648" lon="0.153507">
        <ele>2133.060</ele>
        <time>2020-06-30T09:37:52Z</time>
      </trkpt>
      <trkpt lat="42.833709" lon="0.153607">
        <ele>2135.022</ele>
        <time>2020-06-30T09:38:04Z</time>
      </trkpt>
      <trkpt lat="42.833744" lon="0.153733">
        <ele>2134.062</ele>
        <time>2020-06-30T09:38:16Z</time>
      </trkpt>
      <trkpt lat="42.833765" lon="0.153859">
        <ele>2132.008</ele>
        <time>2020-06-30T09:38:27Z</time>
      </trkpt>
      <trkpt lat="42.833837" lon="0.153953">
        <ele>2134.008</ele>
        <time>2020-06-30T09:38:37Z</time>
      </trkpt>
      <trkpt lat="42.833895" lon="0.154051">
        <ele>2135.057</ele>
        <time>2020-06-30T09:38:47Z</time>
      </trkpt>
      <trkpt lat="42.833961" lon="0.154142">
        <ele>2135.053</ele>
        <time>2020-06-30T09:38:59Z</time>
      </trkpt>
      <trkpt lat="42.833928" lon="0.154263">
        <ele>2136.011</ele>
        <time>2020-06-30T09:39:09Z</time>
      </trkpt>
      <trkpt lat="42.833943" lon="0.154391">
        <ele>2137.067</ele>
        <time>2020-06-30T09:39:20Z</time>
      </trkpt>
      <trkpt lat="42.833957" lon="0.154512">
        <ele>2139.090</ele>
        <time>2020-06-30T09:39:32Z</time>
      </trkpt>
      <trkpt lat="42.833904" lon="0.154624">
        <ele>2138.041</ele>
        <time>2020-06-30T09:39:42Z</time>
      </trkpt>
      <trkpt lat="42.833881" lon="0.154750">
        <ele>2135.059</ele>
        <time>2020-06-30T09:39:56Z</time>
      </trkpt>
      <trkpt lat="42.833878" lon="0.154878">
        <ele>2134.016</ele>
        <time>2020-06-30T09:40:07Z</time>
      </trkpt>
      <trkpt lat="42.833882" lon="0.155003">
        <ele>2136.017</ele>
        <time>2020-06-30T09:40:21Z</time>
      </trkpt>
      <trkpt lat="42.833889" lon="0.155129">
        <ele>2137.087</ele>
        <time>2020-06-30T09:40:33Z</time>
      </trkpt>
      <trkpt lat="42.833875" lon="0.155251">
        <ele>2137.015</ele>
        <time>2020-06-30T09:40:44Z</time>
      </trkpt>
      <trkpt lat="42.833886" lon="0.155374">
        <ele>2137.008</ele>
        <time>2020-06-30T09:40:56Z</time>
      </trkpt>
      <trkpt lat="42.833893" lon="0.155502">
        <ele>2138.086</ele>
        <time>2020-06-30T09:41:10Z</time>
      </trkpt>
      <trkpt lat="42.833884" lon="0.155628">
        <ele>2143.082</ele>
        <time>2020-06-30T09:41:26Z</time>
      </trkpt>
      <trkpt lat="42.833854" lon="0.155751">
        <ele>2144.060</ele>
        <time>2020-06-30T09:41:39Z</time>
      </trkpt>
      <trkpt lat="42.833843" lon="0.155878">
        <ele>2140.096</ele>
        <time>2020-06-30T09:41:49Z</time>
      </trkpt>
      <trkpt lat="42.833783" lon="0.155973">
        <ele>2139.019</ele>
        <time>2020-06-30T09:41:59Z</time>
      </trkpt>
      <trkpt lat="42.833733" lon="0.156081">
        <ele>2140.060</ele>
        <time>2020-06-30T09:42:08Z</time>
      </trkpt>
      <trkpt lat="42.833690" lon="0.156198">
        <ele>2140.078</ele>
        <time>2020-06-30T09:42:18Z</time>
      </trkpt>
      <trkpt lat="42.833656" lon="0.156316">
        <ele>2142.035</ele>
        <time>2020-06-30T09:42:25Z</time>
      </trkpt>
      <trkpt lat="42.833668" lon="0.156437">
        <ele>2142.018</ele>
        <time>2020-06-30T09:42:35Z</time>
      </trkpt>
      <trkpt lat="42.833690" lon="0.156567">
        <ele>2143.098</ele>
        <time>2020-06-30T09:42:46Z</time>
      </trkpt>
      <trkpt lat="42.833731" lon="0.156676">
        <ele>2143.017</ele>
        <time>2020-06-30T09:42:56Z</time>
      </trkpt>
      <trkpt lat="42.833762" lon="0.156792">
        <ele>2140.008</ele>
        <time>2020-06-30T09:43:07Z</time>
      </trkpt>
      <trkpt lat="42.833799" lon="0.156905">
        <ele>2139.026</ele>
        <time>2020-06-30T09:43:21Z</time>
      </trkpt>
      <trkpt lat="42.833850" lon="0.157017">
        <ele>2139.012</ele>
        <time>2020-06-30T09:43:31Z</time>
      </trkpt>
      <trkpt lat="42.833866" lon="0.157140">
        <ele>2139.020</ele>
        <time>2020-06-30T09:43:41Z</time>
      </trkpt>
      <trkpt lat="42.833880" lon="0.157271">
        <ele>2139.056</ele>
        <time>2020-06-30T09:43:49Z</time>
      </trkpt>
      <trkpt lat="42.833844" lon="0.157155">
        <ele>2139.079</ele>
        <time>2020-06-30T09:44:25Z</time>
      </trkpt>
      <trkpt lat="42.833766" lon="0.157076">
        <ele>2139.030</ele>
        <time>2020-06-30T09:44:38Z</time>
      </trkpt>
      <trkpt lat="42.833670" lon="0.157106">
        <ele>2139.098</ele>
        <time>2020-06-30T09:44:49Z</time>
      </trkpt>
      <trkpt lat="42.833576" lon="0.157130">
        <ele>2136.055</ele>
        <time>2020-06-30T09:45:01Z</time>
      </trkpt>
      <trkpt lat="42.833491" lon="0.157181">
        <ele>2131.062</ele>
        <time>2020-06-30T09:45:17Z</time>
      </trkpt>
      <trkpt lat="42.833491" lon="0.157304">
        <ele>2126.083</ele>
        <time>2020-06-30T09:45:31Z</time>
      </trkpt>
      <trkpt lat="42.833518" lon="0.157430">
        <ele>2126.011</ele>
        <time>2020-06-30T09:45:43Z</time>
      </trkpt>
      <trkpt lat="42.833481" lon="0.157549">
        <ele>2128.008</ele>
        <time>2020-06-30T09:45:53Z</time>
      </trkpt>
      <trkpt lat="42.833447" lon="0.157663">
        <ele>2129.051</ele>
        <time>2020-06-30T09:46:03Z</time>
      </trkpt>
      <trkpt lat="42.833392" lon="0.157761">
        <ele>2127.017</ele>
        <time>2020-06-30T09:46:13Z</time>
      </trkpt>
      <trkpt lat="42.833313" lon="0.157820">
        <ele>2127.055</ele>
        <time>2020-06-30T09:46:28Z</time>
      </trkpt>
      <trkpt lat="42.833264" lon="0.157924">
        <ele>2123.081</ele>
        <time>2020-06-30T09:46:39Z</time>
      </trkpt>
      <trkpt lat="42.833180" lon="0.157981">
        <ele>2123.074</ele>
        <time>2020-06-30T09:46:52Z</time>
      </trkpt>
      <trkpt lat="42.833099" lon="0.158038">
        <ele>2125.055</ele>
        <time>2020-06-30T09:47:04Z</time>
      </trkpt>
      <trkpt lat="42.833070" lon="0.158158">
        <ele>2123.073</ele>
        <time>2020-06-30T09:47:15Z</time>
      </trkpt>
      <trkpt lat="42.833054" lon="0.158279">
        <ele>2120.070</ele>
        <time>2020-06-30T09:53:45Z</time>
      </trkpt>
      <trkpt lat="42.832984" lon="0.158378">
        <ele>2120.018</ele>
        <time>2020-06-30T09:56:24Z</time>
      </trkpt>
      <trkpt lat="42.832913" lon="0.158461">
        <ele>2119.098</ele>
        <time>2020-06-30T09:56:34Z</time>
      </trkpt>
      <trkpt lat="42.832893" lon="0.158589">
        <ele>2118.017</ele>
        <time>2020-06-30T09:56:45Z</time>
      </trkpt>
      <trkpt lat="42.832881" lon="0.158720">
        <ele>2116.008</ele>
        <time>2020-06-30T09:56:57Z</time>
      </trkpt>
      <trkpt lat="42.832842" lon="0.158836">
        <ele>2118.066</ele>
        <time>2020-06-30T09:57:13Z</time>
      </trkpt>
      <trkpt lat="42.832793" lon="0.158945">
        <ele>2117.032</ele>
        <time>2020-06-30T09:57:25Z</time>
      </trkpt>
      <trkpt lat="42.832713" lon="0.159019">
        <ele>2113.070</ele>
        <time>2020-06-30T09:57:42Z</time>
      </trkpt>
      <trkpt lat="42.832627" lon="0.159064">
        <ele>2107.016</ele>
        <time>2020-06-30T09:58:03Z</time>
      </trkpt>
      <trkpt lat="42.832540" lon="0.159026">
        <ele>2103.069</ele>
        <time>2020-06-30T09:58:20Z</time>
      </trkpt>
      <trkpt lat="42.832464" lon="0.158957">
        <ele>2100.010</ele>
        <time>2020-06-30T09:58:43Z</time>
      </trkpt>
      <trkpt lat="42.832363" lon="0.158940">
        <ele>2096.068</ele>
        <time>2020-06-30T09:59:02Z</time>
      </trkpt>
      <trkpt lat="42.832273" lon="0.158922">
        <ele>2098.035</ele>
        <time>2020-06-30T09:59:12Z</time>
      </trkpt>
      <trkpt lat="42.832182" lon="0.158925">
        <ele>2095.085</ele>
        <time>2020-06-30T09:59:27Z</time>
      </trkpt>
      <trkpt lat="42.832083" lon="0.158934">
        <ele>2093.089</ele>
        <time>2020-06-30T09:59:40Z</time>
      </trkpt>
      <trkpt lat="42.832011" lon="0.159014">
        <ele>2091.017</ele>
        <time>2020-06-30T09:59:53Z</time>
      </trkpt>
      <trkpt lat="42.831981" lon="0.159134">
        <ele>2091.008</ele>
        <time>2020-06-30T09:59:59Z</time>
      </trkpt>
      <trkpt lat="42.831973" lon="0.159258">
        <ele>2088.013</ele>
        <time>2020-06-30T10:00:13Z</time>
      </trkpt>
      <trkpt lat="42.831922" lon="0.159366">
        <ele>2087.019</ele>
        <time>2020-06-30T10:00:27Z</time>
      </trkpt>
      <trkpt lat="42.831884" lon="0.159482">
        <ele>2082.067</ele>
        <time>2020-06-30T10:00:43Z</time>
      </trkpt>
      <trkpt lat="42.831865" lon="0.159614">
        <ele>2080.043</ele>
        <time>2020-06-30T10:00:55Z</time>
      </trkpt>
      <trkpt lat="42.831843" lon="0.159737">
        <ele>2079.066</ele>
        <time>2020-06-30T10:01:04Z</time>
      </trkpt>
      <trkpt lat="42.831836" lon="0.159861">
        <ele>2079.087</ele>
        <time>2020-06-30T10:01:13Z</time>
      </trkpt>
      <trkpt lat="42.831800" lon="0.159977">
        <ele>2075.055</ele>
        <time>2020-06-30T10:01:29Z</time>
      </trkpt>
      <trkpt lat="42.831708" lon="0.160018">
        <ele>2073.072</ele>
        <time>2020-06-30T10:01:43Z</time>
      </trkpt>
      <trkpt lat="42.831669" lon="0.160130">
        <ele>2073.026</ele>
        <time>2020-06-30T10:02:02Z</time>
      </trkpt>
      <trkpt lat="42.831582" lon="0.160062">
        <ele>2070.047</ele>
        <time>2020-06-30T10:02:23Z</time>
      </trkpt>
      <trkpt lat="42.831484" lon="0.160062">
        <ele>2070.011</ele>
        <time>2020-06-30T10:02:34Z</time>
      </trkpt>
      <trkpt lat="42.831395" lon="0.160101">
        <ele>2070.008</ele>
        <time>2020-06-30T10:02:44Z</time>
      </trkpt>
      <trkpt lat="42.831349" lon="0.160210">
        <ele>2063.027</ele>
        <time>2020-06-30T10:02:59Z</time>
      </trkpt>
      <trkpt lat="42.831342" lon="0.160353">
        <ele>2063.083</ele>
        <time>2020-06-30T10:03:09Z</time>
      </trkpt>
      <trkpt lat="42.831322" lon="0.160481">
        <ele>2065.051</ele>
        <time>2020-06-30T10:03:16Z</time>
      </trkpt>
      <trkpt lat="42.831300" lon="0.160613">
        <ele>2062.057</ele>
        <time>2020-06-30T10:03:28Z</time>
      </trkpt>
      <trkpt lat="42.831295" lon="0.160742">
        <ele>2058.070</ele>
        <time>2020-06-30T10:03:37Z</time>
      </trkpt>
      <trkpt lat="42.831340" lon="0.160855">
        <ele>2060.051</ele>
        <time>2020-06-30T10:03:48Z</time>
      </trkpt>
      <trkpt lat="42.831331" lon="0.160985">
        <ele>2061.019</ele>
        <time>2020-06-30T10:03:58Z</time>
      </trkpt>
      <trkpt lat="42.831300" lon="0.161114">
        <ele>2059.086</ele>
        <time>2020-06-30T10:04:09Z</time>
      </trkpt>
      <trkpt lat="42.831309" lon="0.161237">
        <ele>2056.033</ele>
        <time>2020-06-30T10:04:23Z</time>
      </trkpt>
      <trkpt lat="42.831249" lon="0.161344">
        <ele>2059.023</ele>
        <time>2020-06-30T10:04:38Z</time>
      </trkpt>
      <trkpt lat="42.831173" lon="0.161416">
        <ele>2059.015</ele>
        <time>2020-06-30T10:04:50Z</time>
      </trkpt>
      <trkpt lat="42.831099" lon="0.161491">
        <ele>2058.008</ele>
        <time>2020-06-30T10:05:04Z</time>
      </trkpt>
      <trkpt lat="42.831093" lon="0.161619">
        <ele>2053.098</ele>
        <time>2020-06-30T10:05:24Z</time>
      </trkpt>
      <trkpt lat="42.831075" lon="0.161740">
        <ele>2049.074</ele>
        <time>2020-06-30T10:05:34Z</time>
      </trkpt>
      <trkpt lat="42.831022" lon="0.161846">
        <ele>2046.042</ele>
        <time>2020-06-30T10:05:46Z</time>
      </trkpt>
      <trkpt lat="42.830970" lon="0.161950">
        <ele>2044.078</ele>
        <time>2020-06-30T10:05:56Z</time>
      </trkpt>
      <trkpt lat="42.830929" lon="0.162064">
        <ele>2043.021</ele>
        <time>2020-06-30T10:06:05Z</time>
      </trkpt>
      <trkpt lat="42.830880" lon="0.162174">
        <ele>2040.062</ele>
        <time>2020-06-30T10:06:13Z</time>
      </trkpt>
      <trkpt lat="42.830840" lon="0.162296">
        <ele>2042.060</ele>
        <time>2020-06-30T10:06:25Z</time>
      </trkpt>
      <trkpt lat="42.830826" lon="0.162426">
        <ele>2037.017</ele>
        <time>2020-06-30T10:06:35Z</time>
      </trkpt>
      <trkpt lat="42.830789" lon="0.162539">
        <ele>2036.066</ele>
        <time>2020-06-30T10:06:48Z</time>
      </trkpt>
      <trkpt lat="42.830752" lon="0.162653">
        <ele>2033.029</ele>
        <time>2020-06-30T10:07:01Z</time>
      </trkpt>
      <trkpt lat="42.830774" lon="0.162776">
        <ele>2032.021</ele>
        <time>2020-06-30T10:07:12Z</time>
      </trkpt>
      <trkpt lat="42.830778" lon="0.162898">
        <ele>2030.008</ele>
        <time>2020-06-30T10:07:23Z</time>
      </trkpt>
      <trkpt lat="42.830743" lon="0.163023">
        <ele>2027.081</ele>
        <time>2020-06-30T10:07:35Z</time>
      </trkpt>
      <trkpt lat="42.830739" lon="0.163150">
        <ele>2026.087</ele>
        <time>2020-06-30T10:07:44Z</time>
      </trkpt>
      <trkpt lat="42.830722" lon="0.163271">
        <ele>2025.045</ele>
        <time>2020-06-30T10:07:54Z</time>
      </trkpt>
      <trkpt lat="42.830635" lon="0.163239">
        <ele>2028.021</ele>
        <time>2020-06-30T10:08:17Z</time>
      </trkpt>
      <trkpt lat="42.830603" lon="0.163120">
        <ele>2027.034</ele>
        <time>2020-06-30T10:08:32Z</time>
      </trkpt>
      <trkpt lat="42.830568" lon="0.162999">
        <ele>2025.035</ele>
        <time>2020-06-30T10:08:44Z</time>
      </trkpt>
      <trkpt lat="42.830541" lon="0.162879">
        <ele>2024.073</ele>
        <time>2020-06-30T10:08:58Z</time>
      </trkpt>
      <trkpt lat="42.830494" lon="0.162768">
        <ele>2022.050</ele>
        <time>2020-06-30T10:09:09Z</time>
      </trkpt>
      <trkpt lat="42.830437" lon="0.162669">
        <ele>2017.015</ele>
        <time>2020-06-30T10:09:22Z</time>
      </trkpt>
      <trkpt lat="42.830388" lon="0.162556">
        <ele>2020.065</ele>
        <time>2020-06-30T10:09:33Z</time>
      </trkpt>
      <trkpt lat="42.830303" lon="0.162514">
        <ele>2013.011</ele>
        <time>2020-06-30T10:09:51Z</time>
      </trkpt>
      <trkpt lat="42.830262" lon="0.162630">
        <ele>2008.008</ele>
        <time>2020-06-30T10:10:10Z</time>
      </trkpt>
      <trkpt lat="42.830257" lon="0.162761">
        <ele>2007.056</ele>
        <time>2020-06-30T10:10:21Z</time>
      </trkpt>
      <trkpt lat="42.830237" lon="0.162883">
        <ele>2002.082</ele>
        <time>2020-06-30T10:10:34Z</time>
      </trkpt>
      <trkpt lat="42.830225" lon="0.163005">
        <ele>2001.060</ele>
        <time>2020-06-30T10:10:45Z</time>
      </trkpt>
      <trkpt lat="42.830152" lon="0.163092">
        <ele>1995.026</ele>
        <time>2020-06-30T10:11:00Z</time>
      </trkpt>
      <trkpt lat="42.830107" lon="0.163215">
        <ele>1993.019</ele>
        <time>2020-06-30T10:11:15Z</time>
      </trkpt>
      <trkpt lat="42.830106" lon="0.163350">
        <ele>1993.050</ele>
        <time>2020-06-30T10:11:26Z</time>
      </trkpt>
      <trkpt lat="42.830086" lon="0.163469">
        <ele>1994.048</ele>
        <time>2020-06-30T10:11:37Z</time>
      </trkpt>
      <trkpt lat="42.830056" lon="0.163597">
        <ele>1996.025</ele>
        <time>2020-06-30T10:11:48Z</time>
      </trkpt>
      <trkpt lat="42.830004" lon="0.163493">
        <ele>1990.046</ele>
        <time>2020-06-30T10:12:08Z</time>
      </trkpt>
      <trkpt lat="42.829944" lon="0.163399">
        <ele>1989.088</ele>
        <time>2020-06-30T10:12:19Z</time>
      </trkpt>
      <trkpt lat="42.829860" lon="0.163354">
        <ele>1985.016</ele>
        <time>2020-06-30T10:12:33Z</time>
      </trkpt>
      <trkpt lat="42.829773" lon="0.163399">
        <ele>1984.008</ele>
        <time>2020-06-30T10:12:49Z</time>
      </trkpt>
      <trkpt lat="42.829793" lon="0.163522">
        <ele>1978.099</ele>
        <time>2020-06-30T10:13:02Z</time>
      </trkpt>
      <trkpt lat="42.829807" lon="0.163653">
        <ele>1980.085</ele>
        <time>2020-06-30T10:13:12Z</time>
      </trkpt>
      <trkpt lat="42.829793" lon="0.163779">
        <ele>1978.053</ele>
        <time>2020-06-30T10:13:20Z</time>
      </trkpt>
      <trkpt lat="42.829801" lon="0.163911">
        <ele>1978.099</ele>
        <time>2020-06-30T10:13:29Z</time>
      </trkpt>
      <trkpt lat="42.829816" lon="0.164034">
        <ele>1978.072</ele>
        <time>2020-06-30T10:13:38Z</time>
      </trkpt>
      <trkpt lat="42.829813" lon="0.164175">
        <ele>1979.063</ele>
        <time>2020-06-30T10:13:51Z</time>
      </trkpt>
      <trkpt lat="42.829811" lon="0.164300">
        <ele>1978.041</ele>
        <time>2020-06-30T10:14:02Z</time>
      </trkpt>
      <trkpt lat="42.829787" lon="0.164432">
        <ele>1976.018</ele>
        <time>2020-06-30T10:14:12Z</time>
      </trkpt>
      <trkpt lat="42.829775" lon="0.164555">
        <ele>1970.013</ele>
        <time>2020-06-30T10:14:26Z</time>
      </trkpt>
      <trkpt lat="42.829730" lon="0.164444">
        <ele>1968.043</ele>
        <time>2020-06-30T10:14:46Z</time>
      </trkpt>
      <trkpt lat="42.829677" lon="0.164346">
        <ele>1964.007</ele>
        <time>2020-06-30T10:15:18Z</time>
      </trkpt>
      <trkpt lat="42.829606" lon="0.164262">
        <ele>1959.008</ele>
        <time>2020-06-30T10:15:31Z</time>
      </trkpt>
      <trkpt lat="42.829563" lon="0.164380">
        <ele>1950.086</ele>
        <time>2020-06-30T10:15:50Z</time>
      </trkpt>
      <trkpt lat="42.829524" lon="0.164505">
        <ele>1946.042</ele>
        <time>2020-06-30T10:16:06Z</time>
      </trkpt>
      <trkpt lat="42.829441" lon="0.164444">
        <ele>1941.070</ele>
        <time>2020-06-30T10:16:30Z</time>
      </trkpt>
      <trkpt lat="42.829360" lon="0.164378">
        <ele>1939.076</ele>
        <time>2020-06-30T10:16:42Z</time>
      </trkpt>
      <trkpt lat="42.829275" lon="0.164428">
        <ele>1936.089</ele>
        <time>2020-06-30T10:17:00Z</time>
      </trkpt>
      <trkpt lat="42.829307" lon="0.164549">
        <ele>1936.030</ele>
        <time>2020-06-30T10:17:13Z</time>
      </trkpt>
      <trkpt lat="42.829277" lon="0.164669">
        <ele>1939.048</ele>
        <time>2020-06-30T10:17:24Z</time>
      </trkpt>
      <trkpt lat="42.829291" lon="0.164800">
        <ele>1947.085</ele>
        <time>2020-06-30T10:17:34Z</time>
      </trkpt>
      <trkpt lat="42.829283" lon="0.164927">
        <ele>1947.053</ele>
        <time>2020-06-30T10:17:43Z</time>
      </trkpt>
      <trkpt lat="42.829290" lon="0.165061">
        <ele>1940.004</ele>
        <time>2020-06-30T10:17:55Z</time>
      </trkpt>
      <trkpt lat="42.829320" lon="0.165178">
        <ele>1934.014</ele>
        <time>2020-06-30T10:18:04Z</time>
      </trkpt>
      <trkpt lat="42.829336" lon="0.165305">
        <ele>1934.008</ele>
        <time>2020-06-30T10:18:14Z</time>
      </trkpt>
      <trkpt lat="42.829359" lon="0.165423">
        <ele>1934.070</ele>
        <time>2020-06-30T10:18:23Z</time>
      </trkpt>
      <trkpt lat="42.829390" lon="0.165547">
        <ele>1932.066</ele>
        <time>2020-06-30T10:18:30Z</time>
      </trkpt>
      <trkpt lat="42.829396" lon="0.165678">
        <ele>1933.074</ele>
        <time>2020-06-30T10:18:39Z</time>
      </trkpt>
      <trkpt lat="42.829411" lon="0.165810">
        <ele>1929.060</ele>
        <time>2020-06-30T10:18:46Z</time>
      </trkpt>
      <trkpt lat="42.829438" lon="0.165937">
        <ele>1931.073</ele>
        <time>2020-06-30T10:18:58Z</time>
      </trkpt>
      <trkpt lat="42.829405" lon="0.166067">
        <ele>1934.084</ele>
        <time>2020-06-30T10:20:11Z</time>
      </trkpt>
      <trkpt lat="42.829446" lon="0.166195">
        <ele>1928.042</ele>
        <time>2020-06-30T10:20:26Z</time>
      </trkpt>
      <trkpt lat="42.829468" lon="0.166334">
        <ele>1929.029</ele>
        <time>2020-06-30T10:20:34Z</time>
      </trkpt>
      <trkpt lat="42.829481" lon="0.166459">
        <ele>1922.039</ele>
        <time>2020-06-30T10:20:41Z</time>
      </trkpt>
      <trkpt lat="42.829501" lon="0.166586">
        <ele>1924.001</ele>
        <time>2020-06-30T10:20:50Z</time>
      </trkpt>
      <trkpt lat="42.829503" lon="0.166716">
        <ele>1928.021</ele>
        <time>2020-06-30T10:20:58Z</time>
      </trkpt>
      <trkpt lat="42.829542" lon="0.166832">
        <ele>1926.008</ele>
        <time>2020-06-30T10:21:10Z</time>
      </trkpt>
      <trkpt lat="42.829543" lon="0.166958">
        <ele>1927.048</ele>
        <time>2020-06-30T10:21:16Z</time>
      </trkpt>
      <trkpt lat="42.829584" lon="0.167070">
        <ele>1924.054</ele>
        <time>2020-06-30T10:21:30Z</time>
      </trkpt>
      <trkpt lat="42.829583" lon="0.167199">
        <ele>1925.082</ele>
        <time>2020-06-30T10:21:38Z</time>
      </trkpt>
      <trkpt lat="42.829578" lon="0.167327">
        <ele>1931.098</ele>
        <time>2020-06-30T10:21:43Z</time>
      </trkpt>
      <trkpt lat="42.829534" lon="0.167446">
        <ele>1933.011</ele>
        <time>2020-06-30T10:21:51Z</time>
      </trkpt>
      <trkpt lat="42.829494" lon="0.167558">
        <ele>1934.022</ele>
        <time>2020-06-30T10:22:00Z</time>
      </trkpt>
      <trkpt lat="42.829466" lon="0.167674">
        <ele>1931.020</ele>
        <time>2020-06-30T10:22:10Z</time>
      </trkpt>
      <trkpt lat="42.829454" lon="0.167807">
        <ele>1929.087</ele>
        <time>2020-06-30T10:22:17Z</time>
      </trkpt>
      <trkpt lat="42.829453" lon="0.167930">
        <ele>1923.081</ele>
        <time>2020-06-30T10:22:28Z</time>
      </trkpt>
      <trkpt lat="42.829424" lon="0.168058">
        <ele>1921.061</ele>
        <time>2020-06-30T10:22:39Z</time>
      </trkpt>
      <trkpt lat="42.829417" lon="0.168181">
        <ele>1916.017</ele>
        <time>2020-06-30T10:22:44Z</time>
      </trkpt>
      <trkpt lat="42.829390" lon="0.168314">
        <ele>1913.008</ele>
        <time>2020-06-30T10:22:52Z</time>
      </trkpt>
      <trkpt lat="42.829405" lon="0.168437">
        <ele>1921.063</ele>
        <time>2020-06-30T10:23:00Z</time>
      </trkpt>
      <trkpt lat="42.829416" lon="0.168569">
        <ele>1918.019</ele>
        <time>2020-06-30T10:23:09Z</time>
      </trkpt>
      <trkpt lat="42.829448" lon="0.168689">
        <ele>1916.037</ele>
        <time>2020-06-30T10:23:19Z</time>
      </trkpt>
      <trkpt lat="42.829436" lon="0.168824">
        <ele>1923.043</ele>
        <time>2020-06-30T10:23:29Z</time>
      </trkpt>
      <trkpt lat="42.829409" lon="0.168961">
        <ele>1919.086</ele>
        <time>2020-06-30T10:23:38Z</time>
      </trkpt>
      <trkpt lat="42.829362" lon="0.169074">
        <ele>1917.017</ele>
        <time>2020-06-30T10:23:46Z</time>
      </trkpt>
      <trkpt lat="42.829325" lon="0.169195">
        <ele>1919.065</ele>
        <time>2020-06-30T10:23:51Z</time>
      </trkpt>
      <trkpt lat="42.829328" lon="0.169325">
        <ele>1918.082</ele>
        <time>2020-06-30T10:24:02Z</time>
      </trkpt>
      <trkpt lat="42.829227" lon="0.169329">
        <ele>1920.054</ele>
        <time>2020-06-30T10:24:15Z</time>
      </trkpt>
      <trkpt lat="42.829132" lon="0.169347">
        <ele>1922.056</ele>
        <time>2020-06-30T10:24:21Z</time>
      </trkpt>
      <trkpt lat="42.829039" lon="0.169354">
        <ele>1922.011</ele>
        <time>2020-06-30T10:24:30Z</time>
      </trkpt>
      <trkpt lat="42.828944" lon="0.169389">
        <ele>1921.008</ele>
        <time>2020-06-30T10:25:12Z</time>
      </trkpt>
      <trkpt lat="42.828855" lon="0.169411">
        <ele>1922.030</ele>
        <time>2020-06-30T10:25:20Z</time>
      </trkpt>
      <trkpt lat="42.828786" lon="0.169490">
        <ele>1922.046</ele>
        <time>2020-06-30T10:25:31Z</time>
      </trkpt>
      <trkpt lat="42.828704" lon="0.169547">
        <ele>1915.044</ele>
        <time>2020-06-30T10:29:12Z</time>
      </trkpt>
      <trkpt lat="42.828620" lon="0.169595">
        <ele>1913.090</ele>
        <time>2020-06-30T10:29:25Z</time>
      </trkpt>
      <trkpt lat="42.828528" lon="0.169587">
        <ele>1914.033</ele>
        <time>2020-06-30T10:29:37Z</time>
      </trkpt>
      <trkpt lat="42.828445" lon="0.169533">
        <ele>1913.084</ele>
        <time>2020-06-30T10:29:48Z</time>
      </trkpt>
      <trkpt lat="42.828353" lon="0.169498">
        <ele>1915.042</ele>
        <time>2020-06-30T10:29:56Z</time>
      </trkpt>
      <trkpt lat="42.828261" lon="0.169482">
        <ele>1913.099</ele>
        <time>2020-06-30T10:30:04Z</time>
      </trkpt>
      <trkpt lat="42.828168" lon="0.169459">
        <ele>1913.086</ele>
        <time>2020-06-30T10:30:14Z</time>
      </trkpt>
      <trkpt lat="42.828075" lon="0.169431">
        <ele>1914.060</ele>
        <time>2020-06-30T10:30:22Z</time>
      </trkpt>
      <trkpt lat="42.827979" lon="0.169400">
        <ele>1913.026</ele>
        <time>2020-06-30T10:30:31Z</time>
      </trkpt>
      <trkpt lat="42.827888" lon="0.169393">
        <ele>1913.008</ele>
        <time>2020-06-30T10:30:39Z</time>
      </trkpt>
      <trkpt lat="42.827797" lon="0.169384">
        <ele>1911.043</ele>
        <time>2020-06-30T10:30:47Z</time>
      </trkpt>
      <trkpt lat="42.827703" lon="0.169393">
        <ele>1911.069</ele>
        <time>2020-06-30T10:30:57Z</time>
      </trkpt>
      <trkpt lat="42.827612" lon="0.169437">
        <ele>1911.017</ele>
        <time>2020-06-30T10:31:08Z</time>
      </trkpt>
      <trkpt lat="42.827543" lon="0.169526">
        <ele>1911.033</ele>
        <time>2020-06-30T10:35:07Z</time>
      </trkpt>
      <trkpt lat="42.827448" lon="0.169532">
        <ele>1912.066</ele>
        <time>2020-06-30T10:35:19Z</time>
      </trkpt>
      <trkpt lat="42.827401" lon="0.169646">
        <ele>1914.037</ele>
        <time>2020-06-30T10:35:30Z</time>
      </trkpt>
      <trkpt lat="42.827421" lon="0.169789">
        <ele>1917.075</ele>
        <time>2020-06-30T10:36:20Z</time>
      </trkpt>
      <trkpt lat="42.827411" lon="0.169917">
        <ele>1916.022</ele>
        <time>2020-06-30T10:36:32Z</time>
      </trkpt>
      <trkpt lat="42.827389" lon="0.170064">
        <ele>1917.011</ele>
        <time>2020-06-30T10:36:49Z</time>
      </trkpt>
      <trkpt lat="42.827385" lon="0.170187">
        <ele>1925.021</ele>
        <time>2020-06-30T10:37:35Z</time>
      </trkpt>
      <trkpt lat="42.827400" lon="0.170311">
        <ele>1930.003</ele>
        <time>2020-06-30T10:37:55Z</time>
      </trkpt>
      <trkpt lat="42.827297" lon="0.170294">
        <ele>1931.008</ele>
        <time>2020-06-30T10:38:50Z</time>
      </trkpt>
      <trkpt lat="42.827211" lon="0.170243">
        <ele>1937.096</ele>
        <time>2020-06-30T10:39:29Z</time>
      </trkpt>
      <trkpt lat="42.827125" lon="0.170178">
        <ele>1942.012</ele>
        <time>2020-06-30T10:39:39Z</time>
      </trkpt>
      <trkpt lat="42.827058" lon="0.170074">
        <ele>1943.030</ele>
        <time>2020-06-30T10:39:42Z</time>
      </trkpt>
      <trkpt lat="42.827100" lon="0.170216">
        <ele>1944.016</ele>
        <time>2020-06-30T10:39:49Z</time>
      </trkpt>
      <trkpt lat="42.827010" lon="0.170210">
        <ele>1950.029</ele>
        <time>2020-06-30T10:40:09Z</time>
      </trkpt>
      <trkpt lat="42.826925" lon="0.170255">
        <ele>1951.010</ele>
        <time>2020-06-30T10:40:32Z</time>
      </trkpt>
      <trkpt lat="42.826960" lon="0.170368">
        <ele>1953.058</ele>
        <time>2020-06-30T10:40:38Z</time>
      </trkpt>
      <trkpt lat="42.826971" lon="0.170490">
        <ele>1951.025</ele>
        <time>2020-06-30T10:41:53Z</time>
      </trkpt>
      <trkpt lat="42.826959" lon="0.170616">
        <ele>1960.023</ele>
        <time>2020-06-30T10:42:21Z</time>
      </trkpt>
      <trkpt lat="42.826964" lon="0.170747">
        <ele>1963.083</ele>
        <time>2020-06-30T10:42:30Z</time>
      </trkpt>
      <trkpt lat="42.826962" lon="0.170872">
        <ele>1959.011</ele>
        <time>2020-06-30T10:42:47Z</time>
      </trkpt>
      <trkpt lat="42.826929" lon="0.170994">
        <ele>1962.008</ele>
        <time>2020-06-30T10:42:58Z</time>
      </trkpt>
      <trkpt lat="42.826936" lon="0.171130">
        <ele>1965.057</ele>
        <time>2020-06-30T10:43:09Z</time>
      </trkpt>
      <trkpt lat="42.826939" lon="0.171254">
        <ele>1966.043</ele>
        <time>2020-06-30T10:43:20Z</time>
      </trkpt>
      <trkpt lat="42.826936" lon="0.171379">
        <ele>1963.041</ele>
        <time>2020-06-30T10:43:39Z</time>
      </trkpt>
      <trkpt lat="42.826981" lon="0.171506">
        <ele>1963.077</ele>
        <time>2020-06-30T10:43:49Z</time>
      </trkpt>
      <trkpt lat="42.827028" lon="0.171630">
        <ele>1965.030</ele>
        <time>2020-06-30T10:43:58Z</time>
      </trkpt>
      <trkpt lat="42.827064" lon="0.171757">
        <ele>1970.021</ele>
        <time>2020-06-30T10:44:19Z</time>
      </trkpt>
      <trkpt lat="42.827067" lon="0.171883">
        <ele>1972.079</ele>
        <time>2020-06-30T10:44:37Z</time>
      </trkpt>
      <trkpt lat="42.827088" lon="0.172006">
        <ele>1977.066</ele>
        <time>2020-06-30T10:44:48Z</time>
      </trkpt>
      <trkpt lat="42.827158" lon="0.172096">
        <ele>1981.015</ele>
        <time>2020-06-30T10:44:56Z</time>
      </trkpt>
      <trkpt lat="42.827199" lon="0.172205">
        <ele>1987.065</ele>
        <time>2020-06-30T10:45:31Z</time>
      </trkpt>
      <trkpt lat="42.827283" lon="0.172307">
        <ele>1987.011</ele>
        <time>2020-06-30T10:45:39Z</time>
      </trkpt>
      <trkpt lat="42.827345" lon="0.172410">
        <ele>1989.008</ele>
        <time>2020-06-30T10:46:02Z</time>
      </trkpt>
      <trkpt lat="42.827407" lon="0.172499">
        <ele>1990.026</ele>
        <time>2020-06-30T10:46:12Z</time>
      </trkpt>
      <trkpt lat="42.827338" lon="0.172582">
        <ele>1993.072</ele>
        <time>2020-06-30T10:46:51Z</time>
      </trkpt>
      <trkpt lat="42.827356" lon="0.172703">
        <ele>1987.090</ele>
        <time>2020-06-30T10:47:07Z</time>
      </trkpt>
      <trkpt lat="42.827368" lon="0.172825">
        <ele>1988.066</ele>
        <time>2020-06-30T10:47:22Z</time>
      </trkpt>
      <trkpt lat="42.827415" lon="0.172934">
        <ele>2003.099</ele>
        <time>2020-06-30T10:47:33Z</time>
      </trkpt>
      <trkpt lat="42.827461" lon="0.173048">
        <ele>1993.030</ele>
        <time>2020-06-30T10:48:01Z</time>
      </trkpt>
      <trkpt lat="42.827487" lon="0.173175">
        <ele>2009.028</ele>
        <time>2020-06-30T10:48:23Z</time>
      </trkpt>
      <trkpt lat="42.827397" lon="0.173200">
        <ele>2009.095</ele>
        <time>2020-06-30T10:49:02Z</time>
      </trkpt>
      <trkpt lat="42.827326" lon="0.173276">
        <ele>2012.059</ele>
        <time>2020-06-30T10:49:18Z</time>
      </trkpt>
      <trkpt lat="42.827281" lon="0.173383">
        <ele>2018.003</ele>
        <time>2020-06-30T10:49:52Z</time>
      </trkpt>
      <trkpt lat="42.827295" lon="0.173509">
        <ele>2024.023</ele>
        <time>2020-06-30T10:50:23Z</time>
      </trkpt>
      <trkpt lat="42.827291" lon="0.173632">
        <ele>2025.008</ele>
        <time>2020-06-30T10:50:35Z</time>
      </trkpt>
      <trkpt lat="42.827328" lon="0.173748">
        <ele>2028.070</ele>
        <time>2020-06-30T10:50:47Z</time>
      </trkpt>
      <trkpt lat="42.827358" lon="0.173872">
        <ele>2027.016</ele>
        <time>2020-06-30T10:50:57Z</time>
      </trkpt>
      <trkpt lat="42.827316" lon="0.173983">
        <ele>2026.054</ele>
        <time>2020-06-30T10:51:25Z</time>
      </trkpt>
      <trkpt lat="42.827351" lon="0.174110">
        <ele>2026.070</ele>
        <time>2020-06-30T10:51:31Z</time>
      </trkpt>
      <trkpt lat="42.827296" lon="0.174234">
        <ele>2033.063</ele>
        <time>2020-06-30T10:52:21Z</time>
      </trkpt>
      <trkpt lat="42.827323" lon="0.174356">
        <ele>2036.074</ele>
        <time>2020-06-30T10:52:43Z</time>
      </trkpt>
      <trkpt lat="42.827393" lon="0.174437">
        <ele>2039.092</ele>
        <time>2020-06-30T10:53:02Z</time>
      </trkpt>
      <trkpt lat="42.827451" lon="0.174537">
        <ele>2041.089</ele>
        <time>2020-06-30T10:53:13Z</time>
      </trkpt>
      <trkpt lat="42.827538" lon="0.174590">
        <ele>2040.068</ele>
        <time>2020-06-30T10:53:31Z</time>
      </trkpt>
      <trkpt lat="42.827629" lon="0.174629">
        <ele>2040.042</ele>
        <time>2020-06-30T10:53:43Z</time>
      </trkpt>
      <trkpt lat="42.827730" lon="0.174711">
        <ele>2041.026</ele>
        <time>2020-06-30T10:54:03Z</time>
      </trkpt>
      <trkpt lat="42.827822" lon="0.174711">
        <ele>2044.008</ele>
        <time>2020-06-30T10:54:11Z</time>
      </trkpt>
      <trkpt lat="42.827738" lon="0.174755">
        <ele>2048.021</ele>
        <time>2020-06-30T10:54:41Z</time>
      </trkpt>
      <trkpt lat="42.827692" lon="0.174863">
        <ele>2052.017</ele>
        <time>2020-06-30T10:55:11Z</time>
      </trkpt>
      <trkpt lat="42.827782" lon="0.174902">
        <ele>2049.055</ele>
        <time>2020-06-30T10:55:27Z</time>
      </trkpt>
      <trkpt lat="42.827809" lon="0.175022">
        <ele>2056.051</ele>
        <time>2020-06-30T10:55:47Z</time>
      </trkpt>
      <trkpt lat="42.827815" lon="0.175145">
        <ele>2055.064</ele>
        <time>2020-06-30T10:56:40Z</time>
      </trkpt>
      <trkpt lat="42.827803" lon="0.175267">
        <ele>2064.095</ele>
        <time>2020-06-30T10:57:19Z</time>
      </trkpt>
      <trkpt lat="42.827853" lon="0.175377">
        <ele>2065.013</ele>
        <time>2020-06-30T10:57:38Z</time>
      </trkpt>
      <trkpt lat="42.827829" lon="0.175503">
        <ele>2067.060</ele>
        <time>2020-06-30T10:58:48Z</time>
      </trkpt>
      <trkpt lat="42.827746" lon="0.175424">
        <ele>2077.035</ele>
        <time>2020-06-30T10:59:46Z</time>
      </trkpt>
      <trkpt lat="42.827664" lon="0.175369">
        <ele>2070.086</ele>
        <time>2020-06-30T11:00:35Z</time>
      </trkpt>
      <trkpt lat="42.827573" lon="0.175374">
        <ele>2082.014</ele>
        <time>2020-06-30T11:00:58Z</time>
      </trkpt>
      <trkpt lat="42.827536" lon="0.175494">
        <ele>2089.008</ele>
        <time>2020-06-30T11:01:35Z</time>
      </trkpt>
      <trkpt lat="42.827556" lon="0.175617">
        <ele>2082.068</ele>
        <time>2020-06-30T11:01:46Z</time>
      </trkpt>
      <trkpt lat="42.827622" lon="0.175709">
        <ele>2090.064</ele>
        <time>2020-06-30T11:02:01Z</time>
      </trkpt>
      <trkpt lat="42.827572" lon="0.175603">
        <ele>2091.022</ele>
        <time>2020-06-30T11:02:25Z</time>
      </trkpt>
      <trkpt lat="42.827589" lon="0.175725">
        <ele>2085.068</ele>
        <time>2020-06-30T11:02:35Z</time>
      </trkpt>
      <trkpt lat="42.827678" lon="0.175756">
        <ele>2095.051</ele>
        <time>2020-06-30T11:02:50Z</time>
      </trkpt>
      <trkpt lat="42.827695" lon="0.175885">
        <ele>2073.052</ele>
        <time>2020-06-30T11:02:59Z</time>
      </trkpt>
      <trkpt lat="42.827767" lon="0.175964">
        <ele>2094.010</ele>
        <time>2020-06-30T11:03:20Z</time>
      </trkpt>
      <trkpt lat="42.827767" lon="0.176088">
        <ele>2095.067</ele>
        <time>2020-06-30T11:03:41Z</time>
      </trkpt>
      <trkpt lat="42.827792" lon="0.176208">
        <ele>2107.047</ele>
        <time>2020-06-30T11:04:11Z</time>
      </trkpt>
      <trkpt lat="42.827818" lon="0.176336">
        <ele>2115.029</ele>
        <time>2020-06-30T11:04:30Z</time>
      </trkpt>
      <trkpt lat="42.827724" lon="0.176334">
        <ele>2120.021</ele>
        <time>2020-06-30T11:05:40Z</time>
      </trkpt>
      <trkpt lat="42.827629" lon="0.176285">
        <ele>2123.008</ele>
        <time>2020-06-30T11:06:04Z</time>
      </trkpt>
      <trkpt lat="42.827566" lon="0.176374">
        <ele>2121.029</ele>
        <time>2020-06-30T11:06:23Z</time>
      </trkpt>
      <trkpt lat="42.827513" lon="0.176474">
        <ele>2120.095</ele>
        <time>2020-06-30T11:07:02Z</time>
      </trkpt>
      <trkpt lat="42.827504" lon="0.176596">
        <ele>2122.063</ele>
        <time>2020-06-30T11:07:20Z</time>
      </trkpt>
      <trkpt lat="42.827435" lon="0.176509">
        <ele>2130.079</ele>
        <time>2020-06-30T11:08:15Z</time>
      </trkpt>
      <trkpt lat="42.827368" lon="0.176427">
        <ele>2142.052</ele>
        <time>2020-06-30T11:08:37Z</time>
      </trkpt>
      <trkpt lat="42.827290" lon="0.176492">
        <ele>2136.053</ele>
        <time>2020-06-30T11:09:04Z</time>
      </trkpt>
      <trkpt lat="42.827199" lon="0.176433">
        <ele>2149.041</ele>
        <time>2020-06-30T11:10:06Z</time>
      </trkpt>
      <trkpt lat="42.827108" lon="0.176448">
        <ele>2148.078</ele>
        <time>2020-06-30T11:10:31Z</time>
      </trkpt>
      <trkpt lat="42.827029" lon="0.176515">
        <ele>2155.019</ele>
        <time>2020-06-30T11:11:21Z</time>
      </trkpt>
      <trkpt lat="42.826948" lon="0.176456">
        <ele>2162.009</ele>
        <time>2020-06-30T11:11:39Z</time>
      </trkpt>
      <trkpt lat="42.826871" lon="0.176392">
        <ele>2164.019</ele>
        <time>2020-06-30T11:11:57Z</time>
      </trkpt>
      <trkpt lat="42.826817" lon="0.176494">
        <ele>2164.008</ele>
        <time>2020-06-30T11:12:27Z</time>
      </trkpt>
      <trkpt lat="42.826866" lon="0.176595">
        <ele>2168.066</ele>
        <time>2020-06-30T11:12:46Z</time>
      </trkpt>
      <trkpt lat="42.826910" lon="0.176709">
        <ele>2168.072</ele>
        <time>2020-06-30T11:12:56Z</time>
      </trkpt>
      <trkpt lat="42.826815" lon="0.176703">
        <ele>2173.010</ele>
        <time>2020-06-30T11:13:19Z</time>
      </trkpt>
      <trkpt lat="42.826748" lon="0.176786">
        <ele>2176.056</ele>
        <time>2020-06-30T11:13:35Z</time>
      </trkpt>
      <trkpt lat="42.826683" lon="0.176885">
        <ele>2177.019</ele>
        <time>2020-06-30T11:13:50Z</time>
      </trkpt>
      <trkpt lat="42.826659" lon="0.177012">
        <ele>2176.060</ele>
        <time>2020-06-30T11:14:23Z</time>
      </trkpt>
      <trkpt lat="42.826628" lon="0.177128">
        <ele>2174.028</ele>
        <time>2020-06-30T11:14:36Z</time>
      </trkpt>
      <trkpt lat="42.826577" lon="0.177237">
        <ele>2179.015</ele>
        <time>2020-06-30T11:14:49Z</time>
      </trkpt>
      <trkpt lat="42.826501" lon="0.177317">
        <ele>2184.091</ele>
        <time>2020-06-30T11:15:01Z</time>
      </trkpt>
      <trkpt lat="42.826569" lon="0.177407">
        <ele>2182.081</ele>
        <time>2020-06-30T11:17:08Z</time>
      </trkpt>
      <trkpt lat="42.826658" lon="0.177431">
        <ele>2182.019</ele>
        <time>2020-06-30T11:17:20Z</time>
      </trkpt>
      <trkpt lat="42.826735" lon="0.177495">
        <ele>2183.008</ele>
        <time>2020-06-30T11:17:36Z</time>
      </trkpt>
      <trkpt lat="42.826809" lon="0.177583">
        <ele>2187.084</ele>
        <time>2020-06-30T11:18:09Z</time>
      </trkpt>
      <trkpt lat="42.826814" lon="0.177707">
        <ele>2188.050</ele>
        <time>2020-06-30T11:18:18Z</time>
      </trkpt>
      <trkpt lat="42.826845" lon="0.177833">
        <ele>2188.038</ele>
        <time>2020-06-30T11:18:27Z</time>
      </trkpt>
      <trkpt lat="42.826910" lon="0.177925">
        <ele>2192.084</ele>
        <time>2020-06-30T11:18:40Z</time>
      </trkpt>
      <trkpt lat="42.826982" lon="0.178004">
        <ele>2197.047</ele>
        <time>2020-06-30T11:19:22Z</time>
      </trkpt>
      <trkpt lat="42.827041" lon="0.178098">
        <ele>2198.068</ele>
        <time>2020-06-30T11:19:38Z</time>
      </trkpt>
      <trkpt lat="42.827025" lon="0.178223">
        <ele>2202.066</ele>
        <time>2020-06-30T11:19:52Z</time>
      </trkpt>
      <trkpt lat="42.826962" lon="0.178324">
        <ele>2204.043</ele>
        <time>2020-06-30T11:20:06Z</time>
      </trkpt>
      <trkpt lat="42.826915" lon="0.178437">
        <ele>2208.084</ele>
        <time>2020-06-30T11:20:20Z</time>
      </trkpt>
      <trkpt lat="42.826911" lon="0.178562">
        <ele>2209.007</ele>
        <time>2020-06-30T11:20:32Z</time>
      </trkpt>
      <trkpt lat="42.826909" lon="0.178687">
        <ele>2210.017</ele>
        <time>2020-06-30T11:20:54Z</time>
      </trkpt>
      <trkpt lat="42.826957" lon="0.178794">
        <ele>2215.008</ele>
        <time>2020-06-30T11:21:17Z</time>
      </trkpt>
      <trkpt lat="42.826900" lon="0.178892">
        <ele>2219.023</ele>
        <time>2020-06-30T11:21:48Z</time>
      </trkpt>
      <trkpt lat="42.826869" lon="0.179008">
        <ele>2222.099</ele>
        <time>2020-06-30T11:22:09Z</time>
      </trkpt>
      <trkpt lat="42.826828" lon="0.179120">
        <ele>2224.047</ele>
        <time>2020-06-30T11:22:25Z</time>
      </trkpt>
      <trkpt lat="42.826850" lon="0.179243">
        <ele>2228.073</ele>
        <time>2020-06-30T11:22:43Z</time>
      </trkpt>
      <trkpt lat="42.826792" lon="0.179338">
        <ele>2230.076</ele>
        <time>2020-06-30T11:23:03Z</time>
      </trkpt>
      <trkpt lat="42.826834" lon="0.179449">
        <ele>2232.027</ele>
        <time>2020-06-30T11:23:19Z</time>
      </trkpt>
      <trkpt lat="42.826907" lon="0.179532">
        <ele>2238.035</ele>
        <time>2020-06-30T11:23:51Z</time>
      </trkpt>
      <trkpt lat="42.826954" lon="0.179640">
        <ele>2242.082</ele>
        <time>2020-06-30T11:24:33Z</time>
      </trkpt>
      <trkpt lat="42.826896" lon="0.179740">
        <ele>2248.072</ele>
        <time>2020-06-30T11:25:13Z</time>
      </trkpt>
      <trkpt lat="42.826929" lon="0.179856">
        <ele>2251.013</ele>
        <time>2020-06-30T11:25:53Z</time>
      </trkpt>
      <trkpt lat="42.826924" lon="0.179981">
        <ele>2255.014</ele>
        <time>2020-06-30T11:26:18Z</time>
      </trkpt>
      <trkpt lat="42.826918" lon="0.180108">
        <ele>2258.008</ele>
        <time>2020-06-30T11:26:43Z</time>
      </trkpt>
      <trkpt lat="42.826970" lon="0.180208">
        <ele>2260.012</ele>
        <time>2020-06-30T11:27:00Z</time>
      </trkpt>
      <trkpt lat="42.826966" lon="0.180332">
        <ele>2264.018</ele>
        <time>2020-06-30T11:27:25Z</time>
      </trkpt>
      <trkpt lat="42.826950" lon="0.180457">
        <ele>2266.086</ele>
        <time>2020-06-30T11:28:00Z</time>
      </trkpt>
      <trkpt lat="42.826979" lon="0.180576">
        <ele>2268.092</ele>
        <time>2020-06-30T11:28:20Z</time>
      </trkpt>
      <trkpt lat="42.827032" lon="0.180680">
        <ele>2269.015</ele>
        <time>2020-06-30T11:28:41Z</time>
      </trkpt>
      <trkpt lat="42.827091" lon="0.180773">
        <ele>2270.056</ele>
        <time>2020-06-30T11:28:56Z</time>
      </trkpt>
      <trkpt lat="42.827102" lon="0.180906">
        <ele>2268.034</ele>
        <time>2020-06-30T11:29:08Z</time>
      </trkpt>
      <trkpt lat="42.827119" lon="0.181030">
        <ele>2267.051</ele>
        <time>2020-06-30T11:29:16Z</time>
      </trkpt>
      <trkpt lat="42.827131" lon="0.181165">
        <ele>2267.015</ele>
        <time>2020-06-30T11:29:26Z</time>
      </trkpt>
      <trkpt lat="42.827155" lon="0.181284">
        <ele>2266.065</ele>
        <time>2020-06-30T11:29:35Z</time>
      </trkpt>
      <trkpt lat="42.827193" lon="0.181399">
        <ele>2266.011</ele>
        <time>2020-06-30T11:29:44Z</time>
      </trkpt>
      <trkpt lat="42.827236" lon="0.181513">
        <ele>2272.008</ele>
        <time>2020-06-30T11:30:25Z</time>
      </trkpt>
      <trkpt lat="42.827276" lon="0.181625">
        <ele>2274.096</ele>
        <time>2020-06-30T11:30:37Z</time>
      </trkpt>
      <trkpt lat="42.827339" lon="0.181715">
        <ele>2274.032</ele>
        <time>2020-06-30T11:30:50Z</time>
      </trkpt>
      <trkpt lat="42.827342" lon="0.181842">
        <ele>2276.070</ele>
        <time>2020-06-30T11:31:08Z</time>
      </trkpt>
      <trkpt lat="42.827272" lon="0.181929">
        <ele>2277.046</ele>
        <time>2020-06-30T11:31:21Z</time>
      </trkpt>
      <trkpt lat="42.827191" lon="0.181995">
        <ele>2278.089</ele>
        <time>2020-06-30T11:31:34Z</time>
      </trkpt>
      <trkpt lat="42.827127" lon="0.182088">
        <ele>2280.040</ele>
        <time>2020-06-30T11:31:46Z</time>
      </trkpt>
      <trkpt lat="42.827091" lon="0.182207">
        <ele>2283.038</ele>
        <time>2020-06-30T11:31:59Z</time>
      </trkpt>
      <trkpt lat="42.827062" lon="0.182328">
        <ele>2285.085</ele>
        <time>2020-06-30T11:32:11Z</time>
      </trkpt>
      <trkpt lat="42.827030" lon="0.182449">
        <ele>2287.083</ele>
        <time>2020-06-30T11:32:24Z</time>
      </trkpt>
      <trkpt lat="42.827015" lon="0.182576">
        <ele>2290.025</ele>
        <time>2020-06-30T11:32:36Z</time>
      </trkpt>
      <trkpt lat="42.826990" lon="0.182699">
        <ele>2291.017</ele>
        <time>2020-06-30T11:32:47Z</time>
      </trkpt>
      <trkpt lat="42.826954" lon="0.182819">
        <ele>2293.008</ele>
        <time>2020-06-30T11:32:58Z</time>
      </trkpt>
      <trkpt lat="42.826911" lon="0.182936">
        <ele>2296.063</ele>
        <time>2020-06-30T11:33:11Z</time>
      </trkpt>
      <trkpt lat="42.826863" lon="0.183044">
        <ele>2298.029</ele>
        <time>2020-06-30T11:33:25Z</time>
      </trkpt>
      <trkpt lat="42.826835" lon="0.183168">
        <ele>2301.047</ele>
        <time>2020-06-30T11:33:42Z</time>
      </trkpt>
      <trkpt lat="42.826805" lon="0.183289">
        <ele>2303.073</ele>
        <time>2020-06-30T11:33:57Z</time>
      </trkpt>
      <trkpt lat="42.826781" lon="0.183416">
        <ele>2304.066</ele>
        <time>2020-06-30T11:34:11Z</time>
      </trkpt>
      <trkpt lat="42.826781" lon="0.183540">
        <ele>2306.097</ele>
        <time>2020-06-30T11:34:23Z</time>
      </trkpt>
      <trkpt lat="42.826809" lon="0.183661">
        <ele>2307.055</ele>
        <time>2020-06-30T11:34:36Z</time>
      </trkpt>
      <trkpt lat="42.826777" lon="0.183778">
        <ele>2307.032</ele>
        <time>2020-06-30T11:36:50Z</time>
      </trkpt>
      <trkpt lat="42.826784" lon="0.183901">
        <ele>2305.097</ele>
        <time>2020-06-30T11:37:02Z</time>
      </trkpt>
      <trkpt lat="42.826819" lon="0.184016">
        <ele>2303.023</ele>
        <time>2020-06-30T11:37:12Z</time>
      </trkpt>
      <trkpt lat="42.826872" lon="0.184132">
        <ele>2301.025</ele>
        <time>2020-06-30T11:37:20Z</time>
      </trkpt>
      <trkpt lat="42.826942" lon="0.184221">
        <ele>2300.008</ele>
        <time>2020-06-30T11:37:30Z</time>
      </trkpt>
      <trkpt lat="42.827030" lon="0.184264">
        <ele>2300.024</ele>
        <time>2020-06-30T11:38:14Z</time>
      </trkpt>
      <trkpt lat="42.827100" lon="0.184349">
        <ele>2293.090</ele>
        <time>2020-06-30T11:38:58Z</time>
      </trkpt>
      <trkpt lat="42.827171" lon="0.184428">
        <ele>2289.038</ele>
        <time>2020-06-30T11:39:11Z</time>
      </trkpt>
      <trkpt lat="42.827238" lon="0.184513">
        <ele>2288.024</ele>
        <time>2020-06-30T11:39:28Z</time>
      </trkpt>
      <trkpt lat="42.827296" lon="0.184617">
        <ele>2283.057</ele>
        <time>2020-06-30T11:39:42Z</time>
      </trkpt>
      <trkpt lat="42.827334" lon="0.184730">
        <ele>2280.058</ele>
        <time>2020-06-30T11:39:56Z</time>
      </trkpt>
      <trkpt lat="42.827379" lon="0.184842">
        <ele>2277.056</ele>
        <time>2020-06-30T11:40:13Z</time>
      </trkpt>
      <trkpt lat="42.827426" lon="0.184951">
        <ele>2275.043</ele>
        <time>2020-06-30T11:40:30Z</time>
      </trkpt>
      <trkpt lat="42.827480" lon="0.185052">
        <ele>2272.073</ele>
        <time>2020-06-30T11:40:42Z</time>
      </trkpt>
      <trkpt lat="42.827538" lon="0.185149">
        <ele>2270.085</ele>
        <time>2020-06-30T11:40:55Z</time>
      </trkpt>
      <trkpt lat="42.827592" lon="0.185251">
        <ele>2268.013</ele>
        <time>2020-06-30T11:41:06Z</time>
      </trkpt>
      <trkpt lat="42.827602" lon="0.185376">
        <ele>2264.008</ele>
        <time>2020-06-30T11:41:19Z</time>
      </trkpt>
      <trkpt lat="42.827646" lon="0.185486">
        <ele>2261.092</ele>
        <time>2020-06-30T11:41:30Z</time>
      </trkpt>
      <trkpt lat="42.827689" lon="0.185600">
        <ele>2259.098</ele>
        <time>2020-06-30T11:41:41Z</time>
      </trkpt>
      <trkpt lat="42.827741" lon="0.185704">
        <ele>2258.036</ele>
        <time>2020-06-30T11:41:51Z</time>
      </trkpt>
      <trkpt lat="42.827791" lon="0.185815">
        <ele>2256.072</ele>
        <time>2020-06-30T11:42:02Z</time>
      </trkpt>
      <trkpt lat="42.827823" lon="0.185937">
        <ele>2250.095</ele>
        <time>2020-06-30T11:42:17Z</time>
      </trkpt>
      <trkpt lat="42.827852" lon="0.186058">
        <ele>2249.016</ele>
        <time>2020-06-30T11:42:30Z</time>
      </trkpt>
      <trkpt lat="42.827905" lon="0.186159">
        <ele>2246.074</ele>
        <time>2020-06-30T11:42:42Z</time>
      </trkpt>
      <trkpt lat="42.827961" lon="0.186256">
        <ele>2244.071</ele>
        <time>2020-06-30T11:42:55Z</time>
      </trkpt>
      <trkpt lat="42.827986" lon="0.186379">
        <ele>2242.082</ele>
        <time>2020-06-30T11:43:07Z</time>
      </trkpt>
      <trkpt lat="42.828037" lon="0.186480">
        <ele>2238.043</ele>
        <time>2020-06-30T11:43:20Z</time>
      </trkpt>
      <trkpt lat="42.828075" lon="0.186599">
        <ele>2234.017</ele>
        <time>2020-06-30T11:43:31Z</time>
      </trkpt>
      <trkpt lat="42.828065" lon="0.186729">
        <ele>2232.008</ele>
        <time>2020-06-30T11:43:42Z</time>
      </trkpt>
      <trkpt lat="42.828035" lon="0.186853">
        <ele>2230.023</ele>
        <time>2020-06-30T11:43:53Z</time>
      </trkpt>
      <trkpt lat="42.828066" lon="0.186970">
        <ele>2228.019</ele>
        <time>2020-06-30T11:44:04Z</time>
      </trkpt>
      <trkpt lat="42.828089" lon="0.187092">
        <ele>2227.067</ele>
        <time>2020-06-30T11:44:14Z</time>
      </trkpt>
      <trkpt lat="42.828126" lon="0.187213">
        <ele>2225.093</ele>
        <time>2020-06-30T11:44:25Z</time>
      </trkpt>
      <trkpt lat="42.828131" lon="0.187337">
        <ele>2224.086</ele>
        <time>2020-06-30T11:44:34Z</time>
      </trkpt>
      <trkpt lat="42.828102" lon="0.187464">
        <ele>2223.027</ele>
        <time>2020-06-30T11:44:43Z</time>
      </trkpt>
      <trkpt lat="42.828100" lon="0.187600">
        <ele>2220.015</ele>
        <time>2020-06-30T11:44:55Z</time>
      </trkpt>
      <trkpt lat="42.828085" lon="0.187730">
        <ele>2217.062</ele>
        <time>2020-06-30T11:45:06Z</time>
      </trkpt>
      <trkpt lat="42.828080" lon="0.187859">
        <ele>2216.069</ele>
        <time>2020-06-30T11:45:17Z</time>
      </trkpt>
      <trkpt lat="42.828082" lon="0.187981">
        <ele>2217.004</ele>
        <time>2020-06-30T11:45:26Z</time>
      </trkpt>
      <trkpt lat="42.828083" lon="0.188105">
        <ele>2216.024</ele>
        <time>2020-06-30T11:45:36Z</time>
      </trkpt>
      <trkpt lat="42.828070" lon="0.188227">
        <ele>2214.008</ele>
        <time>2020-06-30T11:45:46Z</time>
      </trkpt>
      <trkpt lat="42.828021" lon="0.188340">
        <ele>2213.051</ele>
        <time>2020-06-30T11:45:54Z</time>
      </trkpt>
      <trkpt lat="42.827987" lon="0.188463">
        <ele>2211.087</ele>
        <time>2020-06-30T11:46:04Z</time>
      </trkpt>
      <trkpt lat="42.827957" lon="0.188594">
        <ele>2210.015</ele>
        <time>2020-06-30T11:46:15Z</time>
      </trkpt>
      <trkpt lat="42.827932" lon="0.188715">
        <ele>2210.051</ele>
        <time>2020-06-30T11:46:24Z</time>
      </trkpt>
      <trkpt lat="42.827922" lon="0.188845">
        <ele>2209.024</ele>
        <time>2020-06-30T11:46:34Z</time>
      </trkpt>
      <trkpt lat="42.827939" lon="0.188975">
        <ele>2207.085</ele>
        <time>2020-06-30T11:46:50Z</time>
      </trkpt>
      <trkpt lat="42.828003" lon="0.189065">
        <ele>2204.073</ele>
        <time>2020-06-30T11:47:12Z</time>
      </trkpt>
      <trkpt lat="42.827994" lon="0.189191">
        <ele>2199.020</ele>
        <time>2020-06-30T11:47:30Z</time>
      </trkpt>
      <trkpt lat="42.827954" lon="0.189302">
        <ele>2197.099</ele>
        <time>2020-06-30T11:47:42Z</time>
      </trkpt>
      <trkpt lat="42.827990" lon="0.189422">
        <ele>2195.007</ele>
        <time>2020-06-30T11:47:57Z</time>
      </trkpt>
      <trkpt lat="42.828001" lon="0.189546">
        <ele>2195.027</ele>
        <time>2020-06-30T11:48:06Z</time>
      </trkpt>
      <trkpt lat="42.827987" lon="0.189675">
        <ele>2194.008</ele>
        <time>2020-06-30T11:48:15Z</time>
      </trkpt>
      <trkpt lat="42.827991" lon="0.189801">
        <ele>2190.014</ele>
        <time>2020-06-30T11:48:27Z</time>
      </trkpt>
      <trkpt lat="42.827972" lon="0.189921">
        <ele>2190.080</ele>
        <time>2020-06-30T11:48:38Z</time>
      </trkpt>
      <trkpt lat="42.827906" lon="0.190009">
        <ele>2188.098</ele>
        <time>2020-06-30T11:48:51Z</time>
      </trkpt>
      <trkpt lat="42.827926" lon="0.190133">
        <ele>2185.054</ele>
        <time>2020-06-30T11:49:10Z</time>
      </trkpt>
      <trkpt lat="42.827903" lon="0.190258">
        <ele>2180.097</ele>
        <time>2020-06-30T11:49:27Z</time>
      </trkpt>
      <trkpt lat="42.827902" lon="0.190386">
        <ele>2177.028</ele>
        <time>2020-06-30T11:49:43Z</time>
      </trkpt>
      <trkpt lat="42.827876" lon="0.190513">
        <ele>2172.026</ele>
        <time>2020-06-30T11:50:02Z</time>
      </trkpt>
      <trkpt lat="42.827823" lon="0.190614">
        <ele>2169.043</ele>
        <time>2020-06-30T11:50:17Z</time>
      </trkpt>
      <trkpt lat="42.827821" lon="0.190740">
        <ele>2166.098</ele>
        <time>2020-06-30T11:50:34Z</time>
      </trkpt>
      <trkpt lat="42.827831" lon="0.190866">
        <ele>2163.015</ele>
        <time>2020-06-30T11:50:51Z</time>
      </trkpt>
      <trkpt lat="42.827823" lon="0.190988">
        <ele>2160.026</ele>
        <time>2020-06-30T11:51:07Z</time>
      </trkpt>
      <trkpt lat="42.827756" lon="0.191074">
        <ele>2156.008</ele>
        <time>2020-06-30T11:51:30Z</time>
      </trkpt>
      <trkpt lat="42.827702" lon="0.191175">
        <ele>2149.014</ele>
        <time>2020-06-30T11:51:47Z</time>
      </trkpt>
      <trkpt lat="42.827747" lon="0.191289">
        <ele>2147.040</ele>
        <time>2020-06-30T11:52:00Z</time>
      </trkpt>
      <trkpt lat="42.827756" lon="0.191422">
        <ele>2143.018</ele>
        <time>2020-06-30T11:52:16Z</time>
      </trkpt>
      <trkpt lat="42.827753" lon="0.191550">
        <ele>2140.024</ele>
        <time>2020-06-30T11:52:30Z</time>
      </trkpt>
      <trkpt lat="42.827768" lon="0.191675">
        <ele>2140.067</ele>
        <time>2020-06-30T11:52:43Z</time>
      </trkpt>
      <trkpt lat="42.827746" lon="0.191799">
        <ele>2135.038</ele>
        <time>2020-06-30T11:52:55Z</time>
      </trkpt>
      <trkpt lat="42.827732" lon="0.191924">
        <ele>2133.056</ele>
        <time>2020-06-30T11:53:05Z</time>
      </trkpt>
      <trkpt lat="42.827765" lon="0.192046">
        <ele>2132.053</ele>
        <time>2020-06-30T11:53:14Z</time>
      </trkpt>
      <trkpt lat="42.827766" lon="0.192178">
        <ele>2128.064</ele>
        <time>2020-06-30T11:53:24Z</time>
      </trkpt>
      <trkpt lat="42.827763" lon="0.192304">
        <ele>2125.006</ele>
        <time>2020-06-30T11:53:34Z</time>
      </trkpt>
      <trkpt lat="42.827771" lon="0.192428">
        <ele>2124.016</ele>
        <time>2020-06-30T11:53:43Z</time>
      </trkpt>
      <trkpt lat="42.827765" lon="0.192563">
        <ele>2122.008</ele>
        <time>2020-06-30T11:53:54Z</time>
      </trkpt>
      <trkpt lat="42.827769" lon="0.192688">
        <ele>2121.011</ele>
        <time>2020-06-30T11:54:02Z</time>
      </trkpt>
      <trkpt lat="42.827799" lon="0.192805">
        <ele>2120.037</ele>
        <time>2020-06-30T11:54:11Z</time>
      </trkpt>
      <trkpt lat="42.827805" lon="0.192931">
        <ele>2119.085</ele>
        <time>2020-06-30T11:54:20Z</time>
      </trkpt>
      <trkpt lat="42.827818" lon="0.193055">
        <ele>2114.041</ele>
        <time>2020-06-30T11:54:37Z</time>
      </trkpt>
      <trkpt lat="42.827853" lon="0.193173">
        <ele>2112.054</ele>
        <time>2020-06-30T11:55:02Z</time>
      </trkpt>
      <trkpt lat="42.827906" lon="0.193272">
        <ele>2110.035</ele>
        <time>2020-06-30T11:55:15Z</time>
      </trkpt>
      <trkpt lat="42.827918" lon="0.193396">
        <ele>2109.073</ele>
        <time>2020-06-30T11:55:25Z</time>
      </trkpt>
      <trkpt lat="42.827960" lon="0.193505">
        <ele>2107.020</ele>
        <time>2020-06-30T11:55:39Z</time>
      </trkpt>
      <trkpt lat="42.828013" lon="0.193612">
        <ele>2103.017</ele>
        <time>2020-06-30T11:55:52Z</time>
      </trkpt>
      <trkpt lat="42.828044" lon="0.193729">
        <ele>2103.087</ele>
        <time>2020-06-30T11:56:09Z</time>
      </trkpt>
      <trkpt lat="42.828070" lon="0.193850">
        <ele>2099.015</ele>
        <time>2020-06-30T11:56:28Z</time>
      </trkpt>
      <trkpt lat="42.828159" lon="0.193884">
        <ele>2097.008</ele>
        <time>2020-06-30T11:56:59Z</time>
      </trkpt>
      <trkpt lat="42.828245" lon="0.193818">
        <ele>2092.056</ele>
        <time>2020-06-30T11:57:22Z</time>
      </trkpt>
      <trkpt lat="42.828326" lon="0.193747">
        <ele>2088.032</ele>
        <time>2020-06-30T11:57:44Z</time>
      </trkpt>
      <trkpt lat="42.828370" lon="0.193857">
        <ele>2086.040</ele>
        <time>2020-06-30T11:58:03Z</time>
      </trkpt>
      <trkpt lat="42.828427" lon="0.193962">
        <ele>2086.086</ele>
        <time>2020-06-30T11:58:23Z</time>
      </trkpt>
      <trkpt lat="42.828501" lon="0.194032">
        <ele>2074.099</ele>
        <time>2020-06-30T11:59:24Z</time>
      </trkpt>
      <trkpt lat="42.828593" lon="0.194061">
        <ele>2070.070</ele>
        <time>2020-06-30T12:00:09Z</time>
      </trkpt>
      <trkpt lat="42.828618" lon="0.194179">
        <ele>2066.098</ele>
        <time>2020-06-30T12:00:34Z</time>
      </trkpt>
      <trkpt lat="42.828658" lon="0.194291">
        <ele>2061.025</ele>
        <time>2020-06-30T12:00:59Z</time>
      </trkpt>
      <trkpt lat="42.828728" lon="0.194379">
        <ele>2055.077</ele>
        <time>2020-06-30T12:01:25Z</time>
      </trkpt>
      <trkpt lat="42.828819" lon="0.194347">
        <ele>2053.061</ele>
        <time>2020-06-30T12:01:47Z</time>
      </trkpt>
      <trkpt lat="42.828907" lon="0.194388">
        <ele>2048.027</ele>
        <time>2020-06-30T12:02:25Z</time>
      </trkpt>
      <trkpt lat="42.828991" lon="0.194333">
        <ele>2045.008</ele>
        <time>2020-06-30T12:02:47Z</time>
      </trkpt>
      <trkpt lat="42.829071" lon="0.194270">
        <ele>2043.092</ele>
        <time>2020-06-30T12:03:04Z</time>
      </trkpt>
      <trkpt lat="42.829142" lon="0.194186">
        <ele>2040.088</ele>
        <time>2020-06-30T12:03:28Z</time>
      </trkpt>
      <trkpt lat="42.829233" lon="0.194219">
        <ele>2037.046</ele>
        <time>2020-06-30T12:03:56Z</time>
      </trkpt>
      <trkpt lat="42.829310" lon="0.194155">
        <ele>2031.032</ele>
        <time>2020-06-30T12:04:18Z</time>
      </trkpt>
      <trkpt lat="42.829364" lon="0.194256">
        <ele>2021.025</ele>
        <time>2020-06-30T12:05:19Z</time>
      </trkpt>
      <trkpt lat="42.829454" lon="0.194213">
        <ele>2020.016</ele>
        <time>2020-06-30T12:05:44Z</time>
      </trkpt>
      <trkpt lat="42.829542" lon="0.194180">
        <ele>2013.094</ele>
        <time>2020-06-30T12:06:01Z</time>
      </trkpt>
      <trkpt lat="42.829634" lon="0.194198">
        <ele>2010.051</ele>
        <time>2020-06-30T12:06:26Z</time>
      </trkpt>
      <trkpt lat="42.829670" lon="0.194084">
        <ele>2012.026</ele>
        <time>2020-06-30T12:06:50Z</time>
      </trkpt>
      <trkpt lat="42.829760" lon="0.194105">
        <ele>2007.047</ele>
        <time>2020-06-30T12:13:31Z</time>
      </trkpt>
      <trkpt lat="42.829847" lon="0.194156">
        <ele>2000.011</ele>
        <time>2020-06-30T12:13:54Z</time>
      </trkpt>
      <trkpt lat="42.829927" lon="0.194225">
        <ele>1996.008</ele>
        <time>2020-06-30T12:14:14Z</time>
      </trkpt>
      <trkpt lat="42.830015" lon="0.194254">
        <ele>1992.087</ele>
        <time>2020-06-30T12:14:27Z</time>
      </trkpt>
      <trkpt lat="42.830106" lon="0.194283">
        <ele>1990.043</ele>
        <time>2020-06-30T12:14:38Z</time>
      </trkpt>
      <trkpt lat="42.830193" lon="0.194323">
        <ele>1987.071</ele>
        <time>2020-06-30T12:14:50Z</time>
      </trkpt>
      <trkpt lat="42.830279" lon="0.194386">
        <ele>1988.027</ele>
        <time>2020-06-30T12:15:04Z</time>
      </trkpt>
      <trkpt lat="42.830355" lon="0.194458">
        <ele>1991.030</ele>
        <time>2020-06-30T12:15:15Z</time>
      </trkpt>
      <trkpt lat="42.830443" lon="0.194488">
        <ele>1989.011</ele>
        <time>2020-06-30T12:15:28Z</time>
      </trkpt>
      <trkpt lat="42.830517" lon="0.194562">
        <ele>1982.089</ele>
        <time>2020-06-30T12:15:45Z</time>
      </trkpt>
      <trkpt lat="42.830549" lon="0.194682">
        <ele>1979.076</ele>
        <time>2020-06-30T12:16:04Z</time>
      </trkpt>
      <trkpt lat="42.830539" lon="0.194807">
        <ele>1975.076</ele>
        <time>2020-06-30T12:16:27Z</time>
      </trkpt>
      <trkpt lat="42.830584" lon="0.194915">
        <ele>1972.090</ele>
        <time>2020-06-30T12:16:41Z</time>
      </trkpt>
      <trkpt lat="42.830639" lon="0.195014">
        <ele>1971.019</ele>
        <time>2020-06-30T12:16:59Z</time>
      </trkpt>
      <trkpt lat="42.830720" lon="0.195070">
        <ele>1968.008</ele>
        <time>2020-06-30T12:17:16Z</time>
      </trkpt>
      <trkpt lat="42.830808" lon="0.195099">
        <ele>1967.072</ele>
        <time>2020-06-30T12:17:28Z</time>
      </trkpt>
      <trkpt lat="42.830857" lon="0.195209">
        <ele>1963.098</ele>
        <time>2020-06-30T12:17:42Z</time>
      </trkpt>
      <trkpt lat="42.830907" lon="0.195321">
        <ele>1959.036</ele>
        <time>2020-06-30T12:17:52Z</time>
      </trkpt>
      <trkpt lat="42.830963" lon="0.195432">
        <ele>1955.062</ele>
        <time>2020-06-30T12:18:01Z</time>
      </trkpt>
      <trkpt lat="42.831007" lon="0.195542">
        <ele>1954.035</ele>
        <time>2020-06-30T12:18:12Z</time>
      </trkpt>
      <trkpt lat="42.831052" lon="0.195655">
        <ele>1950.096</ele>
        <time>2020-06-30T12:18:35Z</time>
      </trkpt>
      <trkpt lat="42.831136" lon="0.195726">
        <ele>1946.014</ele>
        <time>2020-06-30T12:18:51Z</time>
      </trkpt>
      <trkpt lat="42.831218" lon="0.195786">
        <ele>1944.041</ele>
        <time>2020-06-30T12:19:10Z</time>
      </trkpt>
      <trkpt lat="42.831303" lon="0.195830">
        <ele>1942.041</ele>
        <time>2020-06-30T12:19:47Z</time>
      </trkpt>
      <trkpt lat="42.831393" lon="0.195804">
        <ele>1938.081</ele>
        <time>2020-06-30T12:20:04Z</time>
      </trkpt>
      <trkpt lat="42.831490" lon="0.195794">
        <ele>1936.009</ele>
        <time>2020-06-30T12:20:21Z</time>
      </trkpt>
      <trkpt lat="42.831580" lon="0.195808">
        <ele>1933.008</ele>
        <time>2020-06-30T12:20:43Z</time>
      </trkpt>
      <trkpt lat="42.831597" lon="0.195933">
        <ele>1927.079</ele>
        <time>2020-06-30T12:21:28Z</time>
      </trkpt>
      <trkpt lat="42.831668" lon="0.196010">
        <ele>1920.085</ele>
        <time>2020-06-30T12:21:50Z</time>
      </trkpt>
      <trkpt lat="42.831759" lon="0.196041">
        <ele>1913.033</ele>
        <time>2020-06-30T12:22:18Z</time>
      </trkpt>
      <trkpt lat="42.831751" lon="0.196164">
        <ele>1910.089</ele>
        <time>2020-06-30T12:22:45Z</time>
      </trkpt>
      <trkpt lat="42.831688" lon="0.196262">
        <ele>1905.022</ele>
        <time>2020-06-30T12:23:02Z</time>
      </trkpt>
      <trkpt lat="42.831651" lon="0.196377">
        <ele>1904.043</ele>
        <time>2020-06-30T12:23:14Z</time>
      </trkpt>
      <trkpt lat="42.831639" lon="0.196507">
        <ele>1900.041</ele>
        <time>2020-06-30T12:23:44Z</time>
      </trkpt>
      <trkpt lat="42.831581" lon="0.196601">
        <ele>1901.028</ele>
        <time>2020-06-30T12:23:53Z</time>
      </trkpt>
      <trkpt lat="42.831550" lon="0.196716">
        <ele>1898.092</ele>
        <time>2020-06-30T12:24:06Z</time>
      </trkpt>
      <trkpt lat="42.831503" lon="0.196821">
        <ele>1896.073</ele>
        <time>2020-06-30T12:24:21Z</time>
      </trkpt>
      <trkpt lat="42.831584" lon="0.196892">
        <ele>1895.020</ele>
        <time>2020-06-30T12:24:47Z</time>
      </trkpt>
      <trkpt lat="42.831658" lon="0.196975">
        <ele>1888.008</ele>
        <time>2020-06-30T12:25:04Z</time>
      </trkpt>
      <trkpt lat="42.831725" lon="0.197061">
        <ele>1882.064</ele>
        <time>2020-06-30T12:25:18Z</time>
      </trkpt>
      <trkpt lat="42.831816" lon="0.197048">
        <ele>1880.050</ele>
        <time>2020-06-30T12:25:28Z</time>
      </trkpt>
      <trkpt lat="42.831911" lon="0.197059">
        <ele>1878.018</ele>
        <time>2020-06-30T12:25:37Z</time>
      </trkpt>
      <trkpt lat="42.832000" lon="0.197098">
        <ele>1880.074</ele>
        <time>2020-06-30T12:25:46Z</time>
      </trkpt>
      <trkpt lat="42.832089" lon="0.197125">
        <ele>1875.047</ele>
        <time>2020-06-30T12:25:57Z</time>
      </trkpt>
      <trkpt lat="42.832191" lon="0.197140">
        <ele>1876.048</ele>
        <time>2020-06-30T12:26:04Z</time>
      </trkpt>
      <trkpt lat="42.832285" lon="0.197161">
        <ele>1873.016</ele>
        <time>2020-06-30T12:26:12Z</time>
      </trkpt>
      <trkpt lat="42.832285" lon="0.197161">
        <ele>1873.033</ele>
        <time>2020-06-30T12:26:13Z</time>
      </trkpt>
      <trkpt lat="42.832380" lon="0.197240">
        <ele>1873.074</ele>
        <time>2020-06-30T12:26:16Z</time>
      </trkpt>
      <trkpt lat="42.832453" lon="0.197167">
        <ele>1875.056</ele>
        <time>2020-06-30T12:26:28Z</time>
      </trkpt>
      <trkpt lat="42.832542" lon="0.197130">
        <ele>1876.021</ele>
        <time>2020-06-30T12:26:37Z</time>
      </trkpt>
      <trkpt lat="42.832635" lon="0.197119">
        <ele>1879.008</ele>
        <time>2020-06-30T12:26:49Z</time>
      </trkpt>
      <trkpt lat="42.832728" lon="0.197106">
        <ele>1876.022</ele>
        <time>2020-06-30T12:26:59Z</time>
      </trkpt>
      <trkpt lat="42.832814" lon="0.197063">
        <ele>1877.018</ele>
        <time>2020-06-30T12:27:06Z</time>
      </trkpt>
      <trkpt lat="42.832814" lon="0.197063">
        <ele>1877.076</ele>
        <time>2020-06-30T12:27:07Z</time>
      </trkpt>
      <trkpt lat="42.832912" lon="0.196990">
        <ele>1876.042</ele>
        <time>2020-06-30T12:27:17Z</time>
      </trkpt>
      <trkpt lat="42.833004" lon="0.196979">
        <ele>1875.075</ele>
        <time>2020-06-30T12:28:41Z</time>
      </trkpt>
      <trkpt lat="42.833093" lon="0.196955">
        <ele>1876.036</ele>
        <time>2020-06-30T12:28:50Z</time>
      </trkpt>
      <trkpt lat="42.833183" lon="0.196910">
        <ele>1877.094</ele>
        <time>2020-06-30T12:28:59Z</time>
      </trkpt>
      <trkpt lat="42.833264" lon="0.196848">
        <ele>1875.031</ele>
        <time>2020-06-30T12:29:08Z</time>
      </trkpt>
      <trkpt lat="42.833346" lon="0.196784">
        <ele>1873.059</ele>
        <time>2020-06-30T12:29:18Z</time>
      </trkpt>
      <trkpt lat="42.833433" lon="0.196728">
        <ele>1875.003</ele>
        <time>2020-06-30T12:29:28Z</time>
      </trkpt>
      <trkpt lat="42.833526" lon="0.196727">
        <ele>1876.023</ele>
        <time>2020-06-30T12:29:37Z</time>
      </trkpt>
      <trkpt lat="42.833620" lon="0.196749">
        <ele>1877.008</ele>
        <time>2020-06-30T12:29:45Z</time>
      </trkpt>
      <trkpt lat="42.833709" lon="0.196800">
        <ele>1877.060</ele>
        <time>2020-06-30T12:29:53Z</time>
      </trkpt>
      <trkpt lat="42.833788" lon="0.196734">
        <ele>1878.056</ele>
        <time>2020-06-30T12:30:06Z</time>
      </trkpt>
      <trkpt lat="42.833887" lon="0.196740">
        <ele>1881.014</ele>
        <time>2020-06-30T12:30:18Z</time>
      </trkpt>
      <trkpt lat="42.833975" lon="0.196674">
        <ele>1878.050</ele>
        <time>2020-06-30T12:30:29Z</time>
      </trkpt>
      <trkpt lat="42.834064" lon="0.196623">
        <ele>1879.023</ele>
        <time>2020-06-30T12:30:37Z</time>
      </trkpt>
      <trkpt lat="42.834141" lon="0.196554">
        <ele>1879.074</ele>
        <time>2020-06-30T12:30:46Z</time>
      </trkpt>
      <trkpt lat="42.834221" lon="0.196485">
        <ele>1880.092</ele>
        <time>2020-06-30T12:30:55Z</time>
      </trkpt>
      <trkpt lat="42.834307" lon="0.196429">
        <ele>1881.019</ele>
        <time>2020-06-30T12:31:05Z</time>
      </trkpt>
      <trkpt lat="42.834307" lon="0.196429">
        <ele>1881.097</ele>
        <time>2020-06-30T12:31:05Z</time>
      </trkpt>
      <trkpt lat="42.834407" lon="0.196404">
        <ele>1879.023</ele>
        <time>2020-06-30T12:31:16Z</time>
      </trkpt>
      <trkpt lat="42.834495" lon="0.196354">
        <ele>1878.025</ele>
        <time>2020-06-30T12:31:25Z</time>
      </trkpt>
      <trkpt lat="42.834591" lon="0.196324">
        <ele>1879.008</ele>
        <time>2020-06-30T12:31:33Z</time>
      </trkpt>
      <trkpt lat="42.834684" lon="0.196344">
        <ele>1878.084</ele>
        <time>2020-06-30T12:31:43Z</time>
      </trkpt>
      <trkpt lat="42.834777" lon="0.196350">
        <ele>1878.090</ele>
        <time>2020-06-30T12:31:51Z</time>
      </trkpt>
      <trkpt lat="42.834850" lon="0.196426">
        <ele>1877.058</ele>
        <time>2020-06-30T12:32:04Z</time>
      </trkpt>
      <trkpt lat="42.834935" lon="0.196466">
        <ele>1876.054</ele>
        <time>2020-06-30T12:32:17Z</time>
      </trkpt>
      <trkpt lat="42.835032" lon="0.196449">
        <ele>1876.077</ele>
        <time>2020-06-30T12:32:27Z</time>
      </trkpt>
      <trkpt lat="42.835122" lon="0.196445">
        <ele>1876.068</ele>
        <time>2020-06-30T12:32:37Z</time>
      </trkpt>
      <trkpt lat="42.835222" lon="0.196478">
        <ele>1875.076</ele>
        <time>2020-06-30T12:32:46Z</time>
      </trkpt>
      <trkpt lat="42.835315" lon="0.196505">
        <ele>1872.033</ele>
        <time>2020-06-30T12:32:55Z</time>
      </trkpt>
      <trkpt lat="42.835412" lon="0.196507">
        <ele>1871.099</ele>
        <time>2020-06-30T12:33:03Z</time>
      </trkpt>
      <trkpt lat="42.835505" lon="0.196502">
        <ele>1873.007</ele>
        <time>2020-06-30T12:33:11Z</time>
      </trkpt>
      <trkpt lat="42.835597" lon="0.196503">
        <ele>1875.027</ele>
        <time>2020-06-30T12:33:19Z</time>
      </trkpt>
      <trkpt lat="42.835690" lon="0.196484">
        <ele>1875.008</ele>
        <time>2020-06-30T12:33:28Z</time>
      </trkpt>
      <trkpt lat="42.835790" lon="0.196453">
        <ele>1876.064</ele>
        <time>2020-06-30T12:33:39Z</time>
      </trkpt>
      <trkpt lat="42.835878" lon="0.196420">
        <ele>1876.080</ele>
        <time>2020-06-30T12:33:46Z</time>
      </trkpt>
      <trkpt lat="42.835968" lon="0.196456">
        <ele>1876.028</ele>
        <time>2020-06-30T12:33:54Z</time>
      </trkpt>
      <trkpt lat="42.836059" lon="0.196492">
        <ele>1873.044</ele>
        <time>2020-06-30T12:34:02Z</time>
      </trkpt>
      <trkpt lat="42.836138" lon="0.196569">
        <ele>1873.057</ele>
        <time>2020-06-30T12:34:12Z</time>
      </trkpt>
      <trkpt lat="42.836208" lon="0.196669">
        <ele>1874.028</ele>
        <time>2020-06-30T12:34:20Z</time>
      </trkpt>
      <trkpt lat="42.836306" lon="0.196643">
        <ele>1872.076</ele>
        <time>2020-06-30T12:34:31Z</time>
      </trkpt>
      <trkpt lat="42.836377" lon="0.196546">
        <ele>1871.063</ele>
        <time>2020-06-30T12:34:40Z</time>
      </trkpt>
      <trkpt lat="42.836447" lon="0.196463">
        <ele>1876.053</ele>
        <time>2020-06-30T12:34:48Z</time>
      </trkpt>
      <trkpt lat="42.836548" lon="0.196433">
        <ele>1878.004</ele>
        <time>2020-06-30T12:34:56Z</time>
      </trkpt>
      <trkpt lat="42.836646" lon="0.196454">
        <ele>1880.014</ele>
        <time>2020-06-30T12:35:03Z</time>
      </trkpt>
      <trkpt lat="42.836739" lon="0.196471">
        <ele>1879.008</ele>
        <time>2020-06-30T12:35:13Z</time>
      </trkpt>
      <trkpt lat="42.836829" lon="0.196466">
        <ele>1878.070</ele>
        <time>2020-06-30T12:35:21Z</time>
      </trkpt>
      <trkpt lat="42.836922" lon="0.196429">
        <ele>1873.026</ele>
        <time>2020-06-30T12:35:34Z</time>
      </trkpt>
      <trkpt lat="42.837025" lon="0.196399">
        <ele>1875.064</ele>
        <time>2020-06-30T12:35:47Z</time>
      </trkpt>
      <trkpt lat="42.837126" lon="0.196379">
        <ele>1873.030</ele>
        <time>2020-06-30T12:35:58Z</time>
      </trkpt>
      <trkpt lat="42.837216" lon="0.196358">
        <ele>1876.073</ele>
        <time>2020-06-30T12:36:06Z</time>
      </trkpt>
      <trkpt lat="42.837308" lon="0.196367">
        <ele>1880.084</ele>
        <time>2020-06-30T12:36:13Z</time>
      </trkpt>
      <trkpt lat="42.837404" lon="0.196388">
        <ele>1880.022</ele>
        <time>2020-06-30T12:36:20Z</time>
      </trkpt>
      <trkpt lat="42.837497" lon="0.196396">
        <ele>1876.059</ele>
        <time>2020-06-30T12:36:27Z</time>
      </trkpt>
      <trkpt lat="42.837586" lon="0.196374">
        <ele>1878.083</ele>
        <time>2020-06-30T12:36:38Z</time>
      </trkpt>
      <trkpt lat="42.837675" lon="0.196355">
        <ele>1877.025</ele>
        <time>2020-06-30T12:36:46Z</time>
      </trkpt>
      <trkpt lat="42.837768" lon="0.196344">
        <ele>1876.017</ele>
        <time>2020-06-30T12:36:55Z</time>
      </trkpt>
      <trkpt lat="42.837867" lon="0.196356">
        <ele>1873.008</ele>
        <time>2020-06-30T12:37:04Z</time>
      </trkpt>
      <trkpt lat="42.837960" lon="0.196329">
        <ele>1874.093</ele>
        <time>2020-06-30T12:37:14Z</time>
      </trkpt>
      <trkpt lat="42.838038" lon="0.196266">
        <ele>1874.049</ele>
        <time>2020-06-30T12:37:23Z</time>
      </trkpt>
      <trkpt lat="42.838122" lon="0.196217">
        <ele>1870.077</ele>
        <time>2020-06-30T12:37:32Z</time>
      </trkpt>
      <trkpt lat="42.838210" lon="0.196159">
        <ele>1874.023</ele>
        <time>2020-06-30T12:37:41Z</time>
      </trkpt>
      <trkpt lat="42.838311" lon="0.196160">
        <ele>1877.076</ele>
        <time>2020-06-30T12:37:52Z</time>
      </trkpt>
      <trkpt lat="42.838400" lon="0.196127">
        <ele>1874.027</ele>
        <time>2020-06-30T12:38:00Z</time>
      </trkpt>
      <trkpt lat="42.838490" lon="0.196094">
        <ele>1876.065</ele>
        <time>2020-06-30T12:38:09Z</time>
      </trkpt>
      <trkpt lat="42.838589" lon="0.196092">
        <ele>1878.042</ele>
        <time>2020-06-30T12:38:20Z</time>
      </trkpt>
      <trkpt lat="42.838679" lon="0.196039">
        <ele>1876.041</ele>
        <time>2020-06-30T12:38:28Z</time>
      </trkpt>
      <trkpt lat="42.838772" lon="0.196004">
        <ele>1876.081</ele>
        <time>2020-06-30T12:38:36Z</time>
      </trkpt>
      <trkpt lat="42.838871" lon="0.195971">
        <ele>1874.009</ele>
        <time>2020-06-30T12:38:44Z</time>
      </trkpt>
      <trkpt lat="42.838968" lon="0.195944">
        <ele>1873.008</ele>
        <time>2020-06-30T12:38:53Z</time>
      </trkpt>
      <trkpt lat="42.839068" lon="0.195955">
        <ele>1873.099</ele>
        <time>2020-06-30T12:39:02Z</time>
      </trkpt>
      <trkpt lat="42.839185" lon="0.195957">
        <ele>1871.045</ele>
        <time>2020-06-30T12:39:11Z</time>
      </trkpt>
      <trkpt lat="42.839279" lon="0.195950">
        <ele>1873.033</ele>
        <time>2020-06-30T12:39:20Z</time>
      </trkpt>
      <trkpt lat="42.839369" lon="0.195903">
        <ele>1871.049</ele>
        <time>2020-06-30T12:39:43Z</time>
      </trkpt>
      <trkpt lat="42.839459" lon="0.195875">
        <ele>1874.032</ele>
        <time>2020-06-30T12:40:06Z</time>
      </trkpt>
      <trkpt lat="42.839557" lon="0.195876">
        <ele>1879.063</ele>
        <time>2020-06-30T12:40:16Z</time>
      </trkpt>
      <trkpt lat="42.839658" lon="0.195859">
        <ele>1881.051</ele>
        <time>2020-06-30T12:40:27Z</time>
      </trkpt>
      <trkpt lat="42.839751" lon="0.195906">
        <ele>1883.088</ele>
        <time>2020-06-30T12:40:40Z</time>
      </trkpt>
      <trkpt lat="42.839833" lon="0.195974">
        <ele>1881.089</ele>
        <time>2020-06-30T12:40:51Z</time>
      </trkpt>
      <trkpt lat="42.839906" lon="0.196057">
        <ele>1884.006</ele>
        <time>2020-06-30T12:40:59Z</time>
      </trkpt>
      <trkpt lat="42.839969" lon="0.196159">
        <ele>1882.026</ele>
        <time>2020-06-30T12:41:09Z</time>
      </trkpt>
      <trkpt lat="42.839979" lon="0.196286">
        <ele>1881.008</ele>
        <time>2020-06-30T12:41:19Z</time>
      </trkpt>
      <trkpt lat="42.839970" lon="0.196418">
        <ele>1880.033</ele>
        <time>2020-06-30T12:41:28Z</time>
      </trkpt>
      <trkpt lat="42.839942" lon="0.196540">
        <ele>1880.019</ele>
        <time>2020-06-30T12:41:37Z</time>
      </trkpt>
      <trkpt lat="42.839966" lon="0.196664">
        <ele>1881.057</ele>
        <time>2020-06-30T12:41:49Z</time>
      </trkpt>
      <trkpt lat="42.840052" lon="0.196711">
        <ele>1880.043</ele>
        <time>2020-06-30T12:42:01Z</time>
      </trkpt>
      <trkpt lat="42.840132" lon="0.196771">
        <ele>1881.066</ele>
        <time>2020-06-30T12:42:10Z</time>
      </trkpt>
      <trkpt lat="42.840072" lon="0.196869">
        <ele>1876.047</ele>
        <time>2020-06-30T12:45:01Z</time>
      </trkpt>
      <trkpt lat="42.839990" lon="0.196936">
        <ele>1875.015</ele>
        <time>2020-06-30T12:45:13Z</time>
      </trkpt>
      <trkpt lat="42.839904" lon="0.196987">
        <ele>1874.042</ele>
        <time>2020-06-30T12:45:24Z</time>
      </trkpt>
      <trkpt lat="42.839821" lon="0.197044">
        <ele>1874.032</ele>
        <time>2020-06-30T12:45:32Z</time>
      </trkpt>
      <trkpt lat="42.839739" lon="0.197120">
        <ele>1873.092</ele>
        <time>2020-06-30T12:45:43Z</time>
      </trkpt>
      <trkpt lat="42.839723" lon="0.197241">
        <ele>1872.011</ele>
        <time>2020-06-30T12:45:59Z</time>
      </trkpt>
      <trkpt lat="42.839717" lon="0.197372">
        <ele>1871.008</ele>
        <time>2020-06-30T12:46:06Z</time>
      </trkpt>
      <trkpt lat="42.839708" lon="0.197494">
        <ele>1871.048</ele>
        <time>2020-06-30T12:46:14Z</time>
      </trkpt>
      <trkpt lat="42.839653" lon="0.197598">
        <ele>1870.074</ele>
        <time>2020-06-30T12:46:24Z</time>
      </trkpt>
      <trkpt lat="42.839577" lon="0.197680">
        <ele>1872.022</ele>
        <time>2020-06-30T12:47:21Z</time>
      </trkpt>
      <trkpt lat="42.839501" lon="0.197755">
        <ele>1869.038</ele>
        <time>2020-06-30T12:47:32Z</time>
      </trkpt>
      <trkpt lat="42.839435" lon="0.197841">
        <ele>1868.051</ele>
        <time>2020-06-30T12:47:41Z</time>
      </trkpt>
      <trkpt lat="42.839365" lon="0.197928">
        <ele>1868.072</ele>
        <time>2020-06-30T12:47:51Z</time>
      </trkpt>
      <trkpt lat="42.839303" lon="0.198023">
        <ele>1870.030</ele>
        <time>2020-06-30T12:48:00Z</time>
      </trkpt>
      <trkpt lat="42.839269" lon="0.198148">
        <ele>1871.037</ele>
        <time>2020-06-30T12:48:11Z</time>
      </trkpt>
      <trkpt lat="42.839185" lon="0.198207">
        <ele>1872.062</ele>
        <time>2020-06-30T12:48:23Z</time>
      </trkpt>
      <trkpt lat="42.839110" lon="0.198135">
        <ele>1868.083</ele>
        <time>2020-06-30T12:49:08Z</time>
      </trkpt>
      <trkpt lat="42.839067" lon="0.198027">
        <ele>1866.011</ele>
        <time>2020-06-30T13:39:42Z</time>
      </trkpt>
      <trkpt lat="42.839149" lon="0.198078">
        <ele>1861.008</ele>
        <time>2020-06-30T13:42:59Z</time>
      </trkpt>
      <trkpt lat="42.839115" lon="0.198193">
        <ele>1873.021</ele>
        <time>2020-06-30T13:51:32Z</time>
      </trkpt>
      <trkpt lat="42.839201" lon="0.198243">
        <ele>1878.027</ele>
        <time>2020-06-30T13:56:27Z</time>
      </trkpt>
      <trkpt lat="42.839264" lon="0.198154">
        <ele>1876.085</ele>
        <time>2020-06-30T13:56:36Z</time>
      </trkpt>
      <trkpt lat="42.839317" lon="0.198053">
        <ele>1876.051</ele>
        <time>2020-06-30T13:56:45Z</time>
      </trkpt>
      <trkpt lat="42.839381" lon="0.197961">
        <ele>1876.034</ele>
        <time>2020-06-30T13:56:55Z</time>
      </trkpt>
      <trkpt lat="42.839440" lon="0.197864">
        <ele>1879.045</ele>
        <time>2020-06-30T13:57:08Z</time>
      </trkpt>
      <trkpt lat="42.839512" lon="0.197784">
        <ele>1877.013</ele>
        <time>2020-06-30T13:57:19Z</time>
      </trkpt>
      <trkpt lat="42.839586" lon="0.197705">
        <ele>1874.040</ele>
        <time>2020-06-30T13:57:59Z</time>
      </trkpt>
      <trkpt lat="42.839678" lon="0.197715">
        <ele>1872.036</ele>
        <time>2020-06-30T14:00:44Z</time>
      </trkpt>
      <trkpt lat="42.839769" lon="0.197750">
        <ele>1874.017</ele>
        <time>2020-06-30T14:01:07Z</time>
      </trkpt>
      <trkpt lat="42.839724" lon="0.197857">
        <ele>1873.018</ele>
        <time>2020-06-30T14:01:34Z</time>
      </trkpt>
      <trkpt lat="42.839713" lon="0.197985">
        <ele>1876.008</ele>
        <time>2020-06-30T14:01:48Z</time>
      </trkpt>
      <trkpt lat="42.839766" lon="0.198090">
        <ele>1876.068</ele>
        <time>2020-06-30T14:02:00Z</time>
      </trkpt>
      <trkpt lat="42.839832" lon="0.198176">
        <ele>1879.094</ele>
        <time>2020-06-30T14:02:13Z</time>
      </trkpt>
      <trkpt lat="42.839904" lon="0.198267">
        <ele>1881.092</ele>
        <time>2020-06-30T14:02:26Z</time>
      </trkpt>
      <trkpt lat="42.839956" lon="0.198368">
        <ele>1882.088</ele>
        <time>2020-06-30T14:02:39Z</time>
      </trkpt>
      <trkpt lat="42.840019" lon="0.198473">
        <ele>1882.071</ele>
        <time>2020-06-30T14:02:50Z</time>
      </trkpt>
      <trkpt lat="42.840060" lon="0.198588">
        <ele>1883.042</ele>
        <time>2020-06-30T14:03:02Z</time>
      </trkpt>
      <trkpt lat="42.840056" lon="0.198715">
        <ele>1887.010</ele>
        <time>2020-06-30T14:03:17Z</time>
      </trkpt>
      <trkpt lat="42.840040" lon="0.198842">
        <ele>1887.027</ele>
        <time>2020-06-30T14:03:31Z</time>
      </trkpt>
      <trkpt lat="42.840110" lon="0.198927">
        <ele>1887.087</ele>
        <time>2020-06-30T14:09:42Z</time>
      </trkpt>
      <trkpt lat="42.840090" lon="0.199056">
        <ele>1882.042</ele>
        <time>2020-06-30T14:10:40Z</time>
      </trkpt>
      <trkpt lat="42.840141" lon="0.199168">
        <ele>1875.026</ele>
        <time>2020-06-30T14:10:52Z</time>
      </trkpt>
      <trkpt lat="42.840233" lon="0.199218">
        <ele>1876.008</ele>
        <time>2020-06-30T14:11:13Z</time>
      </trkpt>
      <trkpt lat="42.840260" lon="0.199336">
        <ele>1884.053</ele>
        <time>2020-06-30T14:11:29Z</time>
      </trkpt>
      <trkpt lat="42.840310" lon="0.199448">
        <ele>1888.039</ele>
        <time>2020-06-30T14:11:46Z</time>
      </trkpt>
      <trkpt lat="42.840338" lon="0.199567">
        <ele>1891.037</ele>
        <time>2020-06-30T14:12:02Z</time>
      </trkpt>
      <trkpt lat="42.840394" lon="0.199674">
        <ele>1897.023</ele>
        <time>2020-06-30T14:12:55Z</time>
      </trkpt>
      <trkpt lat="42.840475" lon="0.199745">
        <ele>1897.096</ele>
        <time>2020-06-30T14:13:10Z</time>
      </trkpt>
      <trkpt lat="42.840545" lon="0.199827">
        <ele>1903.087</ele>
        <time>2020-06-30T14:13:25Z</time>
      </trkpt>
      <trkpt lat="42.840622" lon="0.199895">
        <ele>1906.095</ele>
        <time>2020-06-30T14:13:42Z</time>
      </trkpt>
      <trkpt lat="42.840588" lon="0.200010">
        <ele>1912.012</ele>
        <time>2020-06-30T14:14:15Z</time>
      </trkpt>
      <trkpt lat="42.840517" lon="0.200087">
        <ele>1918.043</ele>
        <time>2020-06-30T14:14:40Z</time>
      </trkpt>
      <trkpt lat="42.840470" lon="0.200193">
        <ele>1919.064</ele>
        <time>2020-06-30T14:14:58Z</time>
      </trkpt>
      <trkpt lat="42.840435" lon="0.200308">
        <ele>1926.010</ele>
        <time>2020-06-30T14:15:17Z</time>
      </trkpt>
      <trkpt lat="42.840388" lon="0.200413">
        <ele>1930.008</ele>
        <time>2020-06-30T14:15:29Z</time>
      </trkpt>
      <trkpt lat="42.840321" lon="0.200497">
        <ele>1931.099</ele>
        <time>2020-06-30T14:15:46Z</time>
      </trkpt>
      <trkpt lat="42.840307" lon="0.200623">
        <ele>1932.065</ele>
        <time>2020-06-30T14:16:03Z</time>
      </trkpt>
      <trkpt lat="42.840264" lon="0.200735">
        <ele>1932.093</ele>
        <time>2020-06-30T14:16:19Z</time>
      </trkpt>
      <trkpt lat="42.840193" lon="0.200815">
        <ele>1933.099</ele>
        <time>2020-06-30T14:16:33Z</time>
      </trkpt>
      <trkpt lat="42.840102" lon="0.200849">
        <ele>1933.072</ele>
        <time>2020-06-30T14:16:46Z</time>
      </trkpt>
      <trkpt lat="42.840021" lon="0.200909">
        <ele>1934.063</ele>
        <time>2020-06-30T14:17:00Z</time>
      </trkpt>
      <trkpt lat="42.839937" lon="0.200966">
        <ele>1936.031</ele>
        <time>2020-06-30T14:17:12Z</time>
      </trkpt>
      <trkpt lat="42.839851" lon="0.201021">
        <ele>1943.068</ele>
        <time>2020-06-30T14:17:24Z</time>
      </trkpt>
      <trkpt lat="42.839782" lon="0.201109">
        <ele>1942.016</ele>
        <time>2020-06-30T14:17:41Z</time>
      </trkpt>
      <trkpt lat="42.839709" lon="0.201182">
        <ele>1943.076</ele>
        <time>2020-06-30T14:17:51Z</time>
      </trkpt>
      <trkpt lat="42.839644" lon="0.201272">
        <ele>1945.013</ele>
        <time>2020-06-30T14:18:01Z</time>
      </trkpt>
      <trkpt lat="42.839554" lon="0.201321">
        <ele>1946.008</ele>
        <time>2020-06-30T14:18:11Z</time>
      </trkpt>
      <trkpt lat="42.839459" lon="0.201366">
        <ele>1947.056</ele>
        <time>2020-06-30T14:18:20Z</time>
      </trkpt>
      <trkpt lat="42.839384" lon="0.201436">
        <ele>1949.032</ele>
        <time>2020-06-30T14:18:29Z</time>
      </trkpt>
      <trkpt lat="42.839336" lon="0.201540">
        <ele>1950.020</ele>
        <time>2020-06-30T14:18:43Z</time>
      </trkpt>
      <trkpt lat="42.839271" lon="0.201626">
        <ele>1953.036</ele>
        <time>2020-06-30T14:18:54Z</time>
      </trkpt>
      <trkpt lat="42.839192" lon="0.201700">
        <ele>1962.089</ele>
        <time>2020-06-30T14:19:12Z</time>
      </trkpt>
      <trkpt lat="42.839101" lon="0.201715">
        <ele>1968.030</ele>
        <time>2020-06-30T14:19:22Z</time>
      </trkpt>
      <trkpt lat="42.839027" lon="0.201811">
        <ele>1967.048</ele>
        <time>2020-06-30T14:19:32Z</time>
      </trkpt>
      <trkpt lat="42.838990" lon="0.201927">
        <ele>1962.095</ele>
        <time>2020-06-30T14:19:42Z</time>
      </trkpt>
      <trkpt lat="42.838929" lon="0.202025">
        <ele>1966.022</ele>
        <time>2020-06-30T14:19:55Z</time>
      </trkpt>
      <trkpt lat="42.838852" lon="0.202102">
        <ele>1965.062</ele>
        <time>2020-06-30T14:20:12Z</time>
      </trkpt>
      <trkpt lat="42.838749" lon="0.202120">
        <ele>1969.008</ele>
        <time>2020-06-30T14:20:20Z</time>
      </trkpt>
      <trkpt lat="42.838663" lon="0.202170">
        <ele>1966.008</ele>
        <time>2020-06-30T14:20:32Z</time>
      </trkpt>
      <trkpt lat="42.838590" lon="0.202257">
        <ele>1967.077</ele>
        <time>2020-06-30T14:20:46Z</time>
      </trkpt>
      <trkpt lat="42.838531" lon="0.202351">
        <ele>1963.013</ele>
        <time>2020-06-30T14:20:59Z</time>
      </trkpt>
      <trkpt lat="42.838440" lon="0.202399">
        <ele>1967.021</ele>
        <time>2020-06-30T14:21:10Z</time>
      </trkpt>
      <trkpt lat="42.838359" lon="0.202468">
        <ele>1967.037</ele>
        <time>2020-06-30T14:21:21Z</time>
      </trkpt>
      <trkpt lat="42.838271" lon="0.202529">
        <ele>1968.020</ele>
        <time>2020-06-30T14:21:34Z</time>
      </trkpt>
      <trkpt lat="42.838188" lon="0.202581">
        <ele>1973.051</ele>
        <time>2020-06-30T14:21:45Z</time>
      </trkpt>
      <trkpt lat="42.838105" lon="0.202634">
        <ele>1975.059</ele>
        <time>2020-06-30T14:21:56Z</time>
      </trkpt>
      <trkpt lat="42.838018" lon="0.202667">
        <ele>1980.086</ele>
        <time>2020-06-30T14:22:10Z</time>
      </trkpt>
      <trkpt lat="42.837971" lon="0.202779">
        <ele>1978.011</ele>
        <time>2020-06-30T14:22:23Z</time>
      </trkpt>
      <trkpt lat="42.837882" lon="0.202826">
        <ele>1980.021</ele>
        <time>2020-06-30T14:22:32Z</time>
      </trkpt>
      <trkpt lat="42.837795" lon="0.202877">
        <ele>1983.003</ele>
        <time>2020-06-30T14:22:45Z</time>
      </trkpt>
      <trkpt lat="42.837709" lon="0.202941">
        <ele>1982.008</ele>
        <time>2020-06-30T14:22:59Z</time>
      </trkpt>
      <trkpt lat="42.837617" lon="0.202953">
        <ele>1987.046</ele>
        <time>2020-06-30T14:23:21Z</time>
      </trkpt>
      <trkpt lat="42.837539" lon="0.203022">
        <ele>1991.022</ele>
        <time>2020-06-30T14:23:38Z</time>
      </trkpt>
      <trkpt lat="42.837475" lon="0.203119">
        <ele>1989.060</ele>
        <time>2020-06-30T14:23:54Z</time>
      </trkpt>
      <trkpt lat="42.837396" lon="0.203184">
        <ele>1990.036</ele>
        <time>2020-06-30T14:24:04Z</time>
      </trkpt>
      <trkpt lat="42.837316" lon="0.203248">
        <ele>1989.089</ele>
        <time>2020-06-30T14:24:14Z</time>
      </trkpt>
      <trkpt lat="42.837248" lon="0.203341">
        <ele>1992.070</ele>
        <time>2020-06-30T14:24:27Z</time>
      </trkpt>
      <trkpt lat="42.837168" lon="0.203401">
        <ele>1996.088</ele>
        <time>2020-06-30T14:24:39Z</time>
      </trkpt>
      <trkpt lat="42.837083" lon="0.203463">
        <ele>1999.015</ele>
        <time>2020-06-30T14:24:51Z</time>
      </trkpt>
      <trkpt lat="42.837007" lon="0.203548">
        <ele>1997.069</ele>
        <time>2020-06-30T14:25:02Z</time>
      </trkpt>
      <trkpt lat="42.836931" lon="0.203616">
        <ele>2000.004</ele>
        <time>2020-06-30T14:25:11Z</time>
      </trkpt>
      <trkpt lat="42.836880" lon="0.203728">
        <ele>1997.024</ele>
        <time>2020-06-30T14:25:21Z</time>
      </trkpt>
      <trkpt lat="42.836799" lon="0.203789">
        <ele>2003.008</ele>
        <time>2020-06-30T14:25:35Z</time>
      </trkpt>
      <trkpt lat="42.836716" lon="0.203846">
        <ele>2001.081</ele>
        <time>2020-06-30T14:25:43Z</time>
      </trkpt>
      <trkpt lat="42.836658" lon="0.203946">
        <ele>2001.077</ele>
        <time>2020-06-30T14:25:53Z</time>
      </trkpt>
      <trkpt lat="42.836630" lon="0.204062">
        <ele>2003.045</ele>
        <time>2020-06-30T14:26:13Z</time>
      </trkpt>
      <trkpt lat="42.836649" lon="0.204183">
        <ele>2011.071</ele>
        <time>2020-06-30T14:26:39Z</time>
      </trkpt>
      <trkpt lat="42.836745" lon="0.204199">
        <ele>2008.094</ele>
        <time>2020-06-30T14:26:57Z</time>
      </trkpt>
      <trkpt lat="42.836835" lon="0.204234">
        <ele>2014.065</ele>
        <time>2020-06-30T14:27:33Z</time>
      </trkpt>
      <trkpt lat="42.836931" lon="0.204231">
        <ele>2019.083</ele>
        <time>2020-06-30T14:27:46Z</time>
      </trkpt>
      <trkpt lat="42.837009" lon="0.204163">
        <ele>2023.070</ele>
        <time>2020-06-30T14:28:06Z</time>
      </trkpt>
      <trkpt lat="42.837099" lon="0.204175">
        <ele>2023.042</ele>
        <time>2020-06-30T14:28:25Z</time>
      </trkpt>
      <trkpt lat="42.837190" lon="0.204202">
        <ele>2023.022</ele>
        <time>2020-06-30T14:28:48Z</time>
      </trkpt>
      <trkpt lat="42.837283" lon="0.204163">
        <ele>2029.014</ele>
        <time>2020-06-30T14:29:03Z</time>
      </trkpt>
      <trkpt lat="42.837360" lon="0.204098">
        <ele>2030.008</ele>
        <time>2020-06-30T14:29:18Z</time>
      </trkpt>
      <trkpt lat="42.837455" lon="0.204093">
        <ele>2030.069</ele>
        <time>2020-06-30T14:29:31Z</time>
      </trkpt>
      <trkpt lat="42.837544" lon="0.204061">
        <ele>2026.035</ele>
        <time>2020-06-30T14:29:46Z</time>
      </trkpt>
      <trkpt lat="42.837634" lon="0.204078">
        <ele>2032.073</ele>
        <time>2020-06-30T14:30:01Z</time>
      </trkpt>
      <trkpt lat="42.837718" lon="0.204121">
        <ele>2029.039</ele>
        <time>2020-06-30T14:30:11Z</time>
      </trkpt>
      <trkpt lat="42.837802" lon="0.204183">
        <ele>2029.072</ele>
        <time>2020-06-30T14:30:20Z</time>
      </trkpt>
      <trkpt lat="42.837890" lon="0.204207">
        <ele>2035.033</ele>
        <time>2020-06-30T14:30:33Z</time>
      </trkpt>
      <trkpt lat="42.837987" lon="0.204181">
        <ele>2036.011</ele>
        <time>2020-06-30T14:31:03Z</time>
      </trkpt>
      <trkpt lat="42.838079" lon="0.204215">
        <ele>2035.018</ele>
        <time>2020-06-30T14:31:18Z</time>
      </trkpt>
      <trkpt lat="42.838174" lon="0.204239">
        <ele>2043.037</ele>
        <time>2020-06-30T14:31:35Z</time>
      </trkpt>
      <trkpt lat="42.838248" lon="0.204314">
        <ele>2049.049</ele>
        <time>2020-06-30T14:32:00Z</time>
      </trkpt>
      <trkpt lat="42.838335" lon="0.204244">
        <ele>2046.013</ele>
        <time>2020-06-30T14:32:18Z</time>
      </trkpt>
      <trkpt lat="42.838427" lon="0.204205">
        <ele>2045.008</ele>
        <time>2020-06-30T14:32:28Z</time>
      </trkpt>
      <trkpt lat="42.838516" lon="0.204180">
        <ele>2042.048</ele>
        <time>2020-06-30T14:32:40Z</time>
      </trkpt>
      <trkpt lat="42.838606" lon="0.204196">
        <ele>2041.074</ele>
        <time>2020-06-30T14:32:51Z</time>
      </trkpt>
      <trkpt lat="42.838703" lon="0.204228">
        <ele>2047.022</ele>
        <time>2020-06-30T14:33:08Z</time>
      </trkpt>
      <trkpt lat="42.838785" lon="0.204176">
        <ele>2052.048</ele>
        <time>2020-06-30T14:33:18Z</time>
      </trkpt>
      <trkpt lat="42.838886" lon="0.204192">
        <ele>2054.031</ele>
        <time>2020-06-30T14:33:31Z</time>
      </trkpt>
      <trkpt lat="42.838982" lon="0.204204">
        <ele>2054.072</ele>
        <time>2020-06-30T14:33:49Z</time>
      </trkpt>
      <trkpt lat="42.839075" lon="0.204192">
        <ele>2054.030</ele>
        <time>2020-06-30T14:34:02Z</time>
      </trkpt>
      <trkpt lat="42.839165" lon="0.204172">
        <ele>2061.027</ele>
        <time>2020-06-30T14:34:18Z</time>
      </trkpt>
      <trkpt lat="42.839258" lon="0.204184">
        <ele>2067.044</ele>
        <time>2020-06-30T14:34:30Z</time>
      </trkpt>
      <trkpt lat="42.839344" lon="0.204221">
        <ele>2063.005</ele>
        <time>2020-06-30T14:34:45Z</time>
      </trkpt>
      <trkpt lat="42.839420" lon="0.204291">
        <ele>2070.015</ele>
        <time>2020-06-30T14:35:22Z</time>
      </trkpt>
      <trkpt lat="42.839513" lon="0.204304">
        <ele>2070.008</ele>
        <time>2020-06-30T14:35:44Z</time>
      </trkpt>
      <trkpt lat="42.839600" lon="0.204341">
        <ele>2072.089</ele>
        <time>2020-06-30T14:35:57Z</time>
      </trkpt>
      <trkpt lat="42.839692" lon="0.204356">
        <ele>2079.035</ele>
        <time>2020-06-30T14:36:10Z</time>
      </trkpt>
      <trkpt lat="42.839770" lon="0.204427">
        <ele>2079.083</ele>
        <time>2020-06-30T14:36:20Z</time>
      </trkpt>
      <trkpt lat="42.839862" lon="0.204385">
        <ele>2071.089</ele>
        <time>2020-06-30T14:36:33Z</time>
      </trkpt>
      <trkpt lat="42.839958" lon="0.204383">
        <ele>2074.022</ele>
        <time>2020-06-30T14:36:46Z</time>
      </trkpt>
      <trkpt lat="42.840054" lon="0.204398">
        <ele>2077.013</ele>
        <time>2020-06-30T14:36:57Z</time>
      </trkpt>
      <trkpt lat="42.840150" lon="0.204375">
        <ele>2074.061</ele>
        <time>2020-06-30T14:37:13Z</time>
      </trkpt>
      <trkpt lat="42.840243" lon="0.204382">
        <ele>2076.028</ele>
        <time>2020-06-30T14:37:26Z</time>
      </trkpt>
      <trkpt lat="42.840334" lon="0.204401">
        <ele>2081.063</ele>
        <time>2020-06-30T14:37:38Z</time>
      </trkpt>
      <trkpt lat="42.840428" lon="0.204445">
        <ele>2083.044</ele>
        <time>2020-06-30T14:37:54Z</time>
      </trkpt>
      <trkpt lat="42.840519" lon="0.204489">
        <ele>2085.018</ele>
        <time>2020-06-30T14:38:05Z</time>
      </trkpt>
      <trkpt lat="42.840598" lon="0.204565">
        <ele>2087.008</ele>
        <time>2020-06-30T14:38:18Z</time>
      </trkpt>
      <trkpt lat="42.840680" lon="0.204626">
        <ele>2087.071</ele>
        <time>2020-06-30T14:38:27Z</time>
      </trkpt>
      <trkpt lat="42.840766" lon="0.204672">
        <ele>2088.087</ele>
        <time>2020-06-30T14:38:38Z</time>
      </trkpt>
      <trkpt lat="42.840857" lon="0.204714">
        <ele>2087.025</ele>
        <time>2020-06-30T14:38:48Z</time>
      </trkpt>
      <trkpt lat="42.840927" lon="0.204800">
        <ele>2091.011</ele>
        <time>2020-06-30T14:38:58Z</time>
      </trkpt>
      <trkpt lat="42.840994" lon="0.204897">
        <ele>2096.044</ele>
        <time>2020-06-30T14:39:12Z</time>
      </trkpt>
      <trkpt lat="42.841028" lon="0.205012">
        <ele>2099.075</ele>
        <time>2020-06-30T14:39:21Z</time>
      </trkpt>
      <trkpt lat="42.841065" lon="0.205130">
        <ele>2096.043</ele>
        <time>2020-06-30T14:39:30Z</time>
      </trkpt>
      <trkpt lat="42.841118" lon="0.205232">
        <ele>2099.070</ele>
        <time>2020-06-30T14:39:43Z</time>
      </trkpt>
      <trkpt lat="42.841161" lon="0.205345">
        <ele>2098.029</ele>
        <time>2020-06-30T14:39:54Z</time>
      </trkpt>
      <trkpt lat="42.841202" lon="0.205468">
        <ele>2098.000</ele>
        <time>2020-06-30T14:40:05Z</time>
      </trkpt>
      <trkpt lat="42.841251" lon="0.205584">
        <ele>2098.020</ele>
        <time>2020-06-30T14:40:14Z</time>
      </trkpt>
      <trkpt lat="42.841289" lon="0.205706">
        <ele>2097.008</ele>
        <time>2020-06-30T14:40:24Z</time>
      </trkpt>
      <trkpt lat="42.841319" lon="0.205826">
        <ele>2101.067</ele>
        <time>2020-06-30T14:40:33Z</time>
      </trkpt>
      <trkpt lat="42.841368" lon="0.205929">
        <ele>2104.013</ele>
        <time>2020-06-30T14:40:43Z</time>
      </trkpt>
      <trkpt lat="42.841382" lon="0.206052">
        <ele>2108.051</ele>
        <time>2020-06-30T14:40:54Z</time>
      </trkpt>
      <trkpt lat="42.841421" lon="0.206168">
        <ele>2112.067</ele>
        <time>2020-06-30T14:41:06Z</time>
      </trkpt>
      <trkpt lat="42.841482" lon="0.206261">
        <ele>2112.040</ele>
        <time>2020-06-30T14:41:23Z</time>
      </trkpt>
      <trkpt lat="42.841525" lon="0.206369">
        <ele>2117.031</ele>
        <time>2020-06-30T14:41:38Z</time>
      </trkpt>
      <trkpt lat="42.841594" lon="0.206449">
        <ele>2120.019</ele>
        <time>2020-06-30T14:41:58Z</time>
      </trkpt>
      <trkpt lat="42.841666" lon="0.206530">
        <ele>2116.046</ele>
        <time>2020-06-30T14:42:17Z</time>
      </trkpt>
      <trkpt lat="42.841720" lon="0.206634">
        <ele>2118.099</ele>
        <time>2020-06-30T14:42:32Z</time>
      </trkpt>
      <trkpt lat="42.841726" lon="0.206768">
        <ele>2125.007</ele>
        <time>2020-06-30T14:42:50Z</time>
      </trkpt>
      <trkpt lat="42.841763" lon="0.206884">
        <ele>2125.027</ele>
        <time>2020-06-30T14:43:07Z</time>
      </trkpt>
      <trkpt lat="42.841819" lon="0.207007">
        <ele>2124.008</ele>
        <time>2020-06-30T14:43:19Z</time>
      </trkpt>
      <trkpt lat="42.841856" lon="0.207127">
        <ele>2131.024</ele>
        <time>2020-06-30T14:43:38Z</time>
      </trkpt>
      <trkpt lat="42.841920" lon="0.207216">
        <ele>2135.070</ele>
        <time>2020-06-30T14:43:54Z</time>
      </trkpt>
      <trkpt lat="42.841966" lon="0.207323">
        <ele>2137.068</ele>
        <time>2020-06-30T14:44:15Z</time>
      </trkpt>
      <trkpt lat="42.842015" lon="0.207436">
        <ele>2137.024</ele>
        <time>2020-06-30T14:44:27Z</time>
      </trkpt>
      <trkpt lat="42.842061" lon="0.207552">
        <ele>2139.047</ele>
        <time>2020-06-30T14:44:43Z</time>
      </trkpt>
      <trkpt lat="42.842114" lon="0.207659">
        <ele>2145.018</ele>
        <time>2020-06-30T14:45:01Z</time>
      </trkpt>
      <trkpt lat="42.842193" lon="0.207729">
        <ele>2140.066</ele>
        <time>2020-06-30T14:45:31Z</time>
      </trkpt>
      <trkpt lat="42.842246" lon="0.207829">
        <ele>2145.093</ele>
        <time>2020-06-30T14:45:46Z</time>
      </trkpt>
      <trkpt lat="42.842286" lon="0.207942">
        <ele>2149.026</ele>
        <time>2020-06-30T14:46:01Z</time>
      </trkpt>
      <trkpt lat="42.842339" lon="0.208044">
        <ele>2154.047</ele>
        <time>2020-06-30T14:46:18Z</time>
      </trkpt>
      <trkpt lat="42.842404" lon="0.208128">
        <ele>2156.011</ele>
        <time>2020-06-30T14:46:40Z</time>
      </trkpt>
      <trkpt lat="42.842458" lon="0.208232">
        <ele>2161.008</ele>
        <time>2020-06-30T14:47:00Z</time>
      </trkpt>
      <trkpt lat="42.842542" lon="0.208286">
        <ele>2162.097</ele>
        <time>2020-06-30T14:47:19Z</time>
      </trkpt>
      <trkpt lat="42.842601" lon="0.208393">
        <ele>2163.093</ele>
        <time>2020-06-30T14:47:36Z</time>
      </trkpt>
      <trkpt lat="42.842691" lon="0.208400">
        <ele>2160.091</ele>
        <time>2020-06-30T14:48:00Z</time>
      </trkpt>
      <trkpt lat="42.842783" lon="0.208426">
        <ele>2165.037</ele>
        <time>2020-06-30T14:48:14Z</time>
      </trkpt>
      <trkpt lat="42.842876" lon="0.208437">
        <ele>2163.080</ele>
        <time>2020-06-30T14:48:23Z</time>
      </trkpt>
      <trkpt lat="42.842974" lon="0.208441">
        <ele>2161.011</ele>
        <time>2020-06-30T14:48:32Z</time>
      </trkpt>
      <trkpt lat="42.843071" lon="0.208450">
        <ele>2159.019</ele>
        <time>2020-06-30T14:48:41Z</time>
      </trkpt>
      <trkpt lat="42.843160" lon="0.208476">
        <ele>2161.086</ele>
        <time>2020-06-30T14:48:52Z</time>
      </trkpt>
      <trkpt lat="42.843249" lon="0.208443">
        <ele>2167.039</ele>
        <time>2020-06-30T14:49:02Z</time>
      </trkpt>
      <trkpt lat="42.843345" lon="0.208444">
        <ele>2171.001</ele>
        <time>2020-06-30T14:49:19Z</time>
      </trkpt>
      <trkpt lat="42.843441" lon="0.208421">
        <ele>2172.021</ele>
        <time>2020-06-30T14:49:39Z</time>
      </trkpt>
      <trkpt lat="42.843535" lon="0.208416">
        <ele>2177.008</ele>
        <time>2020-06-30T14:50:00Z</time>
      </trkpt>
      <trkpt lat="42.843630" lon="0.208441">
        <ele>2179.068</ele>
        <time>2020-06-30T14:50:14Z</time>
      </trkpt>
      <trkpt lat="42.843720" lon="0.208470">
        <ele>2182.014</ele>
        <time>2020-06-30T14:50:36Z</time>
      </trkpt>
      <trkpt lat="42.843805" lon="0.208423">
        <ele>2177.052</ele>
        <time>2020-06-30T14:50:52Z</time>
      </trkpt>
      <trkpt lat="42.843896" lon="0.208409">
        <ele>2178.058</ele>
        <time>2020-06-30T14:51:11Z</time>
      </trkpt>
      <trkpt lat="42.843969" lon="0.208485">
        <ele>2178.061</ele>
        <time>2020-06-30T14:51:21Z</time>
      </trkpt>
      <trkpt lat="42.844051" lon="0.208436">
        <ele>2185.082</ele>
        <time>2020-06-30T14:51:32Z</time>
      </trkpt>
      <trkpt lat="42.844125" lon="0.208352">
        <ele>2187.060</ele>
        <time>2020-06-30T14:51:49Z</time>
      </trkpt>
      <trkpt lat="42.844200" lon="0.208281">
        <ele>2189.087</ele>
        <time>2020-06-30T14:51:57Z</time>
      </trkpt>
      <trkpt lat="42.844270" lon="0.208201">
        <ele>2192.011</ele>
        <time>2020-06-30T14:52:14Z</time>
      </trkpt>
      <trkpt lat="42.844334" lon="0.208100">
        <ele>2191.021</ele>
        <time>2020-06-30T14:52:27Z</time>
      </trkpt>
      <trkpt lat="42.844421" lon="0.208039">
        <ele>2195.003</ele>
        <time>2020-06-30T14:52:38Z</time>
      </trkpt>
      <trkpt lat="42.844500" lon="0.207956">
        <ele>2194.008</ele>
        <time>2020-06-30T14:52:48Z</time>
      </trkpt>
      <trkpt lat="42.844575" lon="0.207883">
        <ele>2194.096</ele>
        <time>2020-06-30T14:53:04Z</time>
      </trkpt>
      <trkpt lat="42.844664" lon="0.207823">
        <ele>2196.072</ele>
        <time>2020-06-30T14:53:16Z</time>
      </trkpt>
      <trkpt lat="42.844756" lon="0.207831">
        <ele>2198.060</ele>
        <time>2020-06-30T14:53:28Z</time>
      </trkpt>
      <trkpt lat="42.844844" lon="0.207791">
        <ele>2191.016</ele>
        <time>2020-06-30T14:53:37Z</time>
      </trkpt>
      <trkpt lat="42.844942" lon="0.207756">
        <ele>2195.059</ele>
        <time>2020-06-30T14:53:47Z</time>
      </trkpt>
      <trkpt lat="42.845036" lon="0.207760">
        <ele>2193.040</ele>
        <time>2020-06-30T14:53:55Z</time>
      </trkpt>
      <trkpt lat="42.845114" lon="0.207839">
        <ele>2193.068</ele>
        <time>2020-06-30T14:54:06Z</time>
      </trkpt>
      <trkpt lat="42.845196" lon="0.207909">
        <ele>2192.065</ele>
        <time>2020-06-30T14:54:16Z</time>
      </trkpt>
      <trkpt lat="42.845277" lon="0.207961">
        <ele>2193.037</ele>
        <time>2020-06-30T14:54:28Z</time>
      </trkpt>
      <trkpt lat="42.845362" lon="0.208023">
        <ele>2193.049</ele>
        <time>2020-06-30T14:54:41Z</time>
      </trkpt>
      <trkpt lat="42.845446" lon="0.208092">
        <ele>2196.013</ele>
        <time>2020-06-30T14:54:54Z</time>
      </trkpt>
      <trkpt lat="42.845493" lon="0.208204">
        <ele>2191.008</ele>
        <time>2020-06-30T14:55:06Z</time>
      </trkpt>
      <trkpt lat="42.845529" lon="0.208327">
        <ele>2195.028</ele>
        <time>2020-06-30T14:55:19Z</time>
      </trkpt>
      <trkpt lat="42.845517" lon="0.208457">
        <ele>2196.054</ele>
        <time>2020-06-30T14:55:35Z</time>
      </trkpt>
      <trkpt lat="42.845483" lon="0.208585">
        <ele>2195.012</ele>
        <time>2020-06-30T14:55:47Z</time>
      </trkpt>
      <trkpt lat="42.845542" lon="0.208695">
        <ele>2191.048</ele>
        <time>2020-06-30T14:56:00Z</time>
      </trkpt>
      <trkpt lat="42.845582" lon="0.208813">
        <ele>2197.021</ele>
        <time>2020-06-30T14:56:09Z</time>
      </trkpt>
      <trkpt lat="42.845669" lon="0.208853">
        <ele>2193.082</ele>
        <time>2020-06-30T14:56:27Z</time>
      </trkpt>
      <trkpt lat="42.845748" lon="0.208916">
        <ele>2193.080</ele>
        <time>2020-06-30T14:56:43Z</time>
      </trkpt>
      <trkpt lat="42.845827" lon="0.208978">
        <ele>2194.037</ele>
        <time>2020-06-30T14:56:54Z</time>
      </trkpt>
      <trkpt lat="42.845918" lon="0.209028">
        <ele>2193.045</ele>
        <time>2020-06-30T14:57:02Z</time>
      </trkpt>
      <trkpt lat="42.846003" lon="0.209075">
        <ele>2193.047</ele>
        <time>2020-06-30T14:57:11Z</time>
      </trkpt>
      <trkpt lat="42.846058" lon="0.209176">
        <ele>2198.011</ele>
        <time>2020-06-30T14:57:27Z</time>
      </trkpt>
      <trkpt lat="42.846139" lon="0.209268">
        <ele>2201.008</ele>
        <time>2020-06-30T14:57:40Z</time>
      </trkpt>
      <trkpt lat="42.846230" lon="0.209315">
        <ele>2203.079</ele>
        <time>2020-06-30T14:57:48Z</time>
      </trkpt>
      <trkpt lat="42.846321" lon="0.209355">
        <ele>2203.015</ele>
        <time>2020-06-30T14:58:00Z</time>
      </trkpt>
      <trkpt lat="42.846416" lon="0.209388">
        <ele>2197.063</ele>
        <time>2020-06-30T14:58:10Z</time>
      </trkpt>
      <trkpt lat="42.846514" lon="0.209425">
        <ele>2203.089</ele>
        <time>2020-06-30T14:58:20Z</time>
      </trkpt>
      <trkpt lat="42.846595" lon="0.209496">
        <ele>2201.062</ele>
        <time>2020-06-30T14:58:31Z</time>
      </trkpt>
      <trkpt lat="42.846670" lon="0.209577">
        <ele>2201.073</ele>
        <time>2020-06-30T14:58:45Z</time>
      </trkpt>
      <trkpt lat="42.846754" lon="0.209646">
        <ele>2202.051</ele>
        <time>2020-06-30T14:58:58Z</time>
      </trkpt>
      <trkpt lat="42.846829" lon="0.209716">
        <ele>2209.098</ele>
        <time>2020-06-30T14:59:09Z</time>
      </trkpt>
      <trkpt lat="42.846856" lon="0.209836">
        <ele>2213.074</ele>
        <time>2020-06-30T14:59:30Z</time>
      </trkpt>
      <trkpt lat="42.846896" lon="0.209948">
        <ele>2215.056</ele>
        <time>2020-06-30T14:59:42Z</time>
      </trkpt>
      <trkpt lat="42.846928" lon="0.210065">
        <ele>2216.021</ele>
        <time>2020-06-30T14:59:54Z</time>
      </trkpt>
      <trkpt lat="42.846947" lon="0.210196">
        <ele>2216.008</ele>
        <time>2020-06-30T15:00:10Z</time>
      </trkpt>
      <trkpt lat="42.847008" lon="0.210295">
        <ele>2217.012</ele>
        <time>2020-06-30T15:00:24Z</time>
      </trkpt>
      <trkpt lat="42.847063" lon="0.210398">
        <ele>2219.078</ele>
        <time>2020-06-30T15:00:43Z</time>
      </trkpt>
      <trkpt lat="42.847115" lon="0.210505">
        <ele>2219.036</ele>
        <time>2020-06-30T15:00:57Z</time>
      </trkpt>
      <trkpt lat="42.847129" lon="0.210633">
        <ele>2216.092</ele>
        <time>2020-06-30T15:01:14Z</time>
      </trkpt>
      <trkpt lat="42.847133" lon="0.210755">
        <ele>2214.045</ele>
        <time>2020-06-30T15:01:35Z</time>
      </trkpt>
      <trkpt lat="42.847195" lon="0.210852">
        <ele>2217.096</ele>
        <time>2020-06-30T15:01:45Z</time>
      </trkpt>
      <trkpt lat="42.847209" lon="0.210974">
        <ele>2218.084</ele>
        <time>2020-06-30T15:01:59Z</time>
      </trkpt>
      <trkpt lat="42.847250" lon="0.211087">
        <ele>2221.021</ele>
        <time>2020-06-30T15:02:19Z</time>
      </trkpt>
      <trkpt lat="42.847243" lon="0.211210">
        <ele>2225.022</ele>
        <time>2020-06-30T15:02:35Z</time>
      </trkpt>
      <trkpt lat="42.847250" lon="0.211341">
        <ele>2224.062</ele>
        <time>2020-06-30T15:02:55Z</time>
      </trkpt>
      <trkpt lat="42.847289" lon="0.211457">
        <ele>2229.008</ele>
        <time>2020-06-30T15:03:09Z</time>
      </trkpt>
      <trkpt lat="42.847269" lon="0.211582">
        <ele>2236.008</ele>
        <time>2020-06-30T15:03:25Z</time>
      </trkpt>
      <trkpt lat="42.847239" lon="0.211706">
        <ele>2238.017</ele>
        <time>2020-06-30T15:03:41Z</time>
      </trkpt>
      <trkpt lat="42.847187" lon="0.211811">
        <ele>2238.013</ele>
        <time>2020-06-30T15:03:55Z</time>
      </trkpt>
      <trkpt lat="42.847155" lon="0.211927">
        <ele>2237.021</ele>
        <time>2020-06-30T15:04:08Z</time>
      </trkpt>
      <trkpt lat="42.847121" lon="0.212055">
        <ele>2239.017</ele>
        <time>2020-06-30T15:04:42Z</time>
      </trkpt>
      <trkpt lat="42.847092" lon="0.212175">
        <ele>2244.070</ele>
        <time>2020-06-30T15:04:58Z</time>
      </trkpt>
      <trkpt lat="42.847115" lon="0.212300">
        <ele>2242.011</ele>
        <time>2020-06-30T15:05:10Z</time>
      </trkpt>
      <trkpt lat="42.847129" lon="0.212426">
        <ele>2243.069</ele>
        <time>2020-06-30T15:05:21Z</time>
      </trkpt>
      <trkpt lat="42.847186" lon="0.212527">
        <ele>2246.076</ele>
        <time>2020-06-30T15:05:34Z</time>
      </trkpt>
      <trkpt lat="42.847218" lon="0.212649">
        <ele>2251.032</ele>
        <time>2020-06-30T15:05:46Z</time>
      </trkpt>
      <trkpt lat="42.847262" lon="0.212757">
        <ele>2253.092</ele>
        <time>2020-06-30T15:06:07Z</time>
      </trkpt>
      <trkpt lat="42.847315" lon="0.212863">
        <ele>2260.011</ele>
        <time>2020-06-30T15:06:22Z</time>
      </trkpt>
      <trkpt lat="42.847395" lon="0.212936">
        <ele>2259.008</ele>
        <time>2020-06-30T15:06:36Z</time>
      </trkpt>
      <trkpt lat="42.847482" lon="0.212999">
        <ele>2260.088</ele>
        <time>2020-06-30T15:06:50Z</time>
      </trkpt>
      <trkpt lat="42.847550" lon="0.213084">
        <ele>2260.014</ele>
        <time>2020-06-30T15:06:58Z</time>
      </trkpt>
      <trkpt lat="42.847619" lon="0.213176">
        <ele>2258.032</ele>
        <time>2020-06-30T15:07:07Z</time>
      </trkpt>
      <trkpt lat="42.847685" lon="0.213281">
        <ele>2256.028</ele>
        <time>2020-06-30T15:07:15Z</time>
      </trkpt>
      <trkpt lat="42.847744" lon="0.213374">
        <ele>2257.011</ele>
        <time>2020-06-30T15:07:23Z</time>
      </trkpt>
      <trkpt lat="42.847819" lon="0.213454">
        <ele>2260.012</ele>
        <time>2020-06-30T15:07:33Z</time>
      </trkpt>
      <trkpt lat="42.847911" lon="0.213415">
        <ele>2254.090</ele>
        <time>2020-06-30T15:07:53Z</time>
      </trkpt>
      <trkpt lat="42.848001" lon="0.213367">
        <ele>2254.077</ele>
        <time>2020-06-30T15:08:01Z</time>
      </trkpt>
      <trkpt lat="42.848080" lon="0.213298">
        <ele>2254.061</ele>
        <time>2020-06-30T15:08:11Z</time>
      </trkpt>
      <trkpt lat="42.848166" lon="0.213222">
        <ele>2254.021</ele>
        <time>2020-06-30T15:08:19Z</time>
      </trkpt>
      <trkpt lat="42.848240" lon="0.213144">
        <ele>2255.013</ele>
        <time>2020-06-30T15:08:29Z</time>
      </trkpt>
      <trkpt lat="42.848317" lon="0.213069">
        <ele>2257.008</ele>
        <time>2020-06-30T15:08:40Z</time>
      </trkpt>
      <trkpt lat="42.848404" lon="0.213005">
        <ele>2259.091</ele>
        <time>2020-06-30T15:08:48Z</time>
      </trkpt>
      <trkpt lat="42.848492" lon="0.212944">
        <ele>2258.057</ele>
        <time>2020-06-30T15:08:56Z</time>
      </trkpt>
      <trkpt lat="42.848584" lon="0.212890">
        <ele>2259.045</ele>
        <time>2020-06-30T15:09:04Z</time>
      </trkpt>
      <trkpt lat="42.848656" lon="0.212810">
        <ele>2261.061</ele>
        <time>2020-06-30T15:09:18Z</time>
      </trkpt>
      <trkpt lat="42.848721" lon="0.212721">
        <ele>2260.064</ele>
        <time>2020-06-30T15:09:32Z</time>
      </trkpt>
      <trkpt lat="42.848799" lon="0.212655">
        <ele>2260.095</ele>
        <time>2020-06-30T15:09:52Z</time>
      </trkpt>
      <trkpt lat="42.848888" lon="0.212597">
        <ele>2263.093</ele>
        <time>2020-06-30T15:10:02Z</time>
      </trkpt>
      <trkpt lat="42.848972" lon="0.212544">
        <ele>2263.080</ele>
        <time>2020-06-30T15:10:13Z</time>
      </trkpt>
      <trkpt lat="42.849064" lon="0.212548">
        <ele>2266.068</ele>
        <time>2020-06-30T15:10:28Z</time>
      </trkpt>
      <trkpt lat="42.849155" lon="0.212533">
        <ele>2266.042</ele>
        <time>2020-06-30T15:10:39Z</time>
      </trkpt>
      <trkpt lat="42.849252" lon="0.212531">
        <ele>2264.026</ele>
        <time>2020-06-30T15:10:49Z</time>
      </trkpt>
      <trkpt lat="42.849343" lon="0.212538">
        <ele>2267.008</ele>
        <time>2020-06-30T15:10:57Z</time>
      </trkpt>
      <trkpt lat="42.849439" lon="0.212565">
        <ele>2269.021</ele>
        <time>2020-06-30T15:11:07Z</time>
      </trkpt>
      <trkpt lat="42.849525" lon="0.212609">
        <ele>2274.067</ele>
        <time>2020-06-30T15:11:17Z</time>
      </trkpt>
      <trkpt lat="42.849612" lon="0.212664">
        <ele>2279.055</ele>
        <time>2020-06-30T15:11:28Z</time>
      </trkpt>
      <trkpt lat="42.849699" lon="0.212692">
        <ele>2276.051</ele>
        <time>2020-06-30T15:11:36Z</time>
      </trkpt>
      <trkpt lat="42.849793" lon="0.212656">
        <ele>2274.024</ele>
        <time>2020-06-30T15:11:47Z</time>
      </trkpt>
      <trkpt lat="42.849874" lon="0.212599">
        <ele>2275.055</ele>
        <time>2020-06-30T15:11:57Z</time>
      </trkpt>
      <trkpt lat="42.849965" lon="0.212547">
        <ele>2270.043</ele>
        <time>2020-06-30T15:12:06Z</time>
      </trkpt>
      <trkpt lat="42.850032" lon="0.212467">
        <ele>2267.030</ele>
        <time>2020-06-30T15:12:13Z</time>
      </trkpt>
      <trkpt lat="42.850109" lon="0.212378">
        <ele>2265.066</ele>
        <time>2020-06-30T15:12:31Z</time>
      </trkpt>
      <trkpt lat="42.850202" lon="0.212330">
        <ele>2266.029</ele>
        <time>2020-06-30T15:12:51Z</time>
      </trkpt>
      <trkpt lat="42.850280" lon="0.212267">
        <ele>2266.021</ele>
        <time>2020-06-30T15:12:58Z</time>
      </trkpt>
      <trkpt lat="42.850366" lon="0.212209">
        <ele>2268.008</ele>
        <time>2020-06-30T15:13:08Z</time>
      </trkpt>
      <trkpt lat="42.850447" lon="0.212138">
        <ele>2271.091</ele>
        <time>2020-06-30T15:13:15Z</time>
      </trkpt>
      <trkpt lat="42.850542" lon="0.212105">
        <ele>2271.067</ele>
        <time>2020-06-30T15:13:23Z</time>
      </trkpt>
      <trkpt lat="42.850628" lon="0.212057">
        <ele>2268.095</ele>
        <time>2020-06-30T15:13:32Z</time>
      </trkpt>
      <trkpt lat="42.850724" lon="0.212004">
        <ele>2269.091</ele>
        <time>2020-06-30T15:13:42Z</time>
      </trkpt>
      <trkpt lat="42.850813" lon="0.211984">
        <ele>2265.034</ele>
        <time>2020-06-30T15:13:59Z</time>
      </trkpt>
      <trkpt lat="42.850911" lon="0.211968">
        <ele>2264.015</ele>
        <time>2020-06-30T15:14:08Z</time>
      </trkpt>
      <trkpt lat="42.851000" lon="0.211939">
        <ele>2265.043</ele>
        <time>2020-06-30T15:14:17Z</time>
      </trkpt>
      <trkpt lat="42.851092" lon="0.211926">
        <ele>2264.060</ele>
        <time>2020-06-30T15:14:27Z</time>
      </trkpt>
      <trkpt lat="42.851158" lon="0.211832">
        <ele>2264.059</ele>
        <time>2020-06-30T15:14:42Z</time>
      </trkpt>
      <trkpt lat="42.851198" lon="0.211719">
        <ele>2264.003</ele>
        <time>2020-06-30T15:14:50Z</time>
      </trkpt>
      <trkpt lat="42.851262" lon="0.211618">
        <ele>2266.023</ele>
        <time>2020-06-30T15:14:58Z</time>
      </trkpt>
      <trkpt lat="42.851315" lon="0.211512">
        <ele>2258.008</ele>
        <time>2020-06-30T15:15:09Z</time>
      </trkpt>
      <trkpt lat="42.851406" lon="0.211483">
        <ele>2259.070</ele>
        <time>2020-06-30T15:15:19Z</time>
      </trkpt>
      <trkpt lat="42.851510" lon="0.211477">
        <ele>2260.076</ele>
        <time>2020-06-30T15:15:29Z</time>
      </trkpt>
      <trkpt lat="42.851602" lon="0.211440">
        <ele>2260.044</ele>
        <time>2020-06-30T15:15:36Z</time>
      </trkpt>
      <trkpt lat="42.851688" lon="0.211369">
        <ele>2266.060</ele>
        <time>2020-06-30T15:15:46Z</time>
      </trkpt>
      <trkpt lat="42.851770" lon="0.211315">
        <ele>2266.013</ele>
        <time>2020-06-30T15:15:56Z</time>
      </trkpt>
      <trkpt lat="42.851860" lon="0.211314">
        <ele>2267.074</ele>
        <time>2020-06-30T15:16:06Z</time>
      </trkpt>
      <trkpt lat="42.851960" lon="0.211336">
        <ele>2271.012</ele>
        <time>2020-06-30T15:16:14Z</time>
      </trkpt>
      <trkpt lat="42.852054" lon="0.211336">
        <ele>2277.049</ele>
        <time>2020-06-30T15:16:26Z</time>
      </trkpt>
      <trkpt lat="42.852146" lon="0.211305">
        <ele>2274.033</ele>
        <time>2020-06-30T15:16:35Z</time>
      </trkpt>
      <trkpt lat="42.852226" lon="0.211248">
        <ele>2277.023</ele>
        <time>2020-06-30T15:16:43Z</time>
      </trkpt>
      <trkpt lat="42.852309" lon="0.211179">
        <ele>2277.015</ele>
        <time>2020-06-30T15:16:52Z</time>
      </trkpt>
      <trkpt lat="42.852392" lon="0.211120">
        <ele>2277.008</ele>
        <time>2020-06-30T15:17:08Z</time>
      </trkpt>
      <trkpt lat="42.852460" lon="0.211026">
        <ele>2282.058</ele>
        <time>2020-06-30T15:17:29Z</time>
      </trkpt>
      <trkpt lat="42.852540" lon="0.210965">
        <ele>2280.044</ele>
        <time>2020-06-30T15:17:40Z</time>
      </trkpt>
      <trkpt lat="42.852623" lon="0.211020">
        <ele>2284.032</ele>
        <time>2020-06-30T15:18:23Z</time>
      </trkpt>
      <trkpt lat="42.852683" lon="0.210928">
        <ele>2283.038</ele>
        <time>2020-06-30T15:18:32Z</time>
      </trkpt>
      <trkpt lat="42.852771" lon="0.210897">
        <ele>2292.051</ele>
        <time>2020-06-30T15:19:30Z</time>
      </trkpt>
      <trkpt lat="42.852811" lon="0.210783">
        <ele>2296.032</ele>
        <time>2020-06-30T15:19:58Z</time>
      </trkpt>
      <trkpt lat="42.852898" lon="0.210742">
        <ele>2297.020</ele>
        <time>2020-06-30T15:20:09Z</time>
      </trkpt>
      <trkpt lat="42.852974" lon="0.210677">
        <ele>2301.067</ele>
        <time>2020-06-30T15:20:20Z</time>
      </trkpt>
      <trkpt lat="42.853006" lon="0.210559">
        <ele>2301.046</ele>
        <time>2020-06-30T15:20:34Z</time>
      </trkpt>
      <trkpt lat="42.853036" lon="0.210435">
        <ele>2303.088</ele>
        <time>2020-06-30T15:20:47Z</time>
      </trkpt>
      <trkpt lat="42.853108" lon="0.210361">
        <ele>2302.016</ele>
        <time>2020-06-30T15:20:58Z</time>
      </trkpt>
      <trkpt lat="42.853211" lon="0.210325">
        <ele>2295.008</ele>
        <time>2020-06-30T15:21:20Z</time>
      </trkpt>
      <trkpt lat="42.853233" lon="0.210206">
        <ele>2298.099</ele>
        <time>2020-06-30T15:21:31Z</time>
      </trkpt>
      <trkpt lat="42.853275" lon="0.210091">
        <ele>2297.075</ele>
        <time>2020-06-30T15:21:41Z</time>
      </trkpt>
      <trkpt lat="42.853311" lon="0.209971">
        <ele>2298.033</ele>
        <time>2020-06-30T15:21:50Z</time>
      </trkpt>
      <trkpt lat="42.853315" lon="0.209839">
        <ele>2296.069</ele>
        <time>2020-06-30T15:22:00Z</time>
      </trkpt>
      <trkpt lat="42.853376" lon="0.209745">
        <ele>2296.052</ele>
        <time>2020-06-30T15:22:24Z</time>
      </trkpt>
      <trkpt lat="42.853410" lon="0.209627">
        <ele>2288.093</ele>
        <time>2020-06-30T15:23:13Z</time>
      </trkpt>
      <trkpt lat="42.853335" lon="0.209556">
        <ele>2291.011</ele>
        <time>2020-06-30T15:23:37Z</time>
      </trkpt>
      <trkpt lat="42.853246" lon="0.209580">
        <ele>2293.098</ele>
        <time>2020-06-30T15:24:14Z</time>
      </trkpt>
      <trkpt lat="42.853321" lon="0.209651">
        <ele>2298.039</ele>
        <time>2020-06-30T15:25:18Z</time>
      </trkpt>
      <trkpt lat="42.853394" lon="0.209570">
        <ele>2298.001</ele>
        <time>2020-06-30T15:33:15Z</time>
      </trkpt>
      <trkpt lat="42.853303" lon="0.209600">
        <ele>2301.021</ele>
        <time>2020-06-30T15:33:27Z</time>
      </trkpt>
      <trkpt lat="42.853215" lon="0.209649">
        <ele>2302.008</ele>
        <time>2020-06-30T15:33:39Z</time>
      </trkpt>
      <trkpt lat="42.853321" lon="0.209701">
        <ele>2291.088</ele>
        <time>2020-06-30T15:43:43Z</time>
      </trkpt>
      <trkpt lat="42.853248" lon="0.209624">
        <ele>2304.034</ele>
        <time>2020-06-30T15:43:44Z</time>
      </trkpt>
      <trkpt lat="42.853235" lon="0.209759">
        <ele>2291.072</ele>
        <time>2020-06-30T15:43:51Z</time>
      </trkpt>
      <trkpt lat="42.853262" lon="0.209639">
        <ele>2302.038</ele>
        <time>2020-06-30T15:57:33Z</time>
      </trkpt>
      <trkpt lat="42.853353" lon="0.209618">
        <ele>2297.011</ele>
        <time>2020-06-30T15:58:27Z</time>
      </trkpt>
      <trkpt lat="42.853441" lon="0.209667">
        <ele>2294.022</ele>
        <time>2020-06-30T15:58:41Z</time>
      </trkpt>
      <trkpt lat="42.853527" lon="0.209715">
        <ele>2293.080</ele>
        <time>2020-06-30T15:59:16Z</time>
      </trkpt>
      <trkpt lat="42.853622" lon="0.209739">
        <ele>2294.067</ele>
        <time>2020-06-30T15:59:28Z</time>
      </trkpt>
      <trkpt lat="42.853713" lon="0.209722">
        <ele>2295.044</ele>
        <time>2020-06-30T15:59:46Z</time>
      </trkpt>
      <trkpt lat="42.853803" lon="0.209746">
        <ele>2295.005</ele>
        <time>2020-06-30T15:59:58Z</time>
      </trkpt>
      <trkpt lat="42.853893" lon="0.209783">
        <ele>2296.015</ele>
        <time>2020-06-30T16:00:10Z</time>
      </trkpt>
      <trkpt lat="42.853981" lon="0.209819">
        <ele>2298.008</ele>
        <time>2020-06-30T16:00:20Z</time>
      </trkpt>
      <trkpt lat="42.854073" lon="0.209841">
        <ele>2298.019</ele>
        <time>2020-06-30T16:00:34Z</time>
      </trkpt>
      <trkpt lat="42.854161" lon="0.209875">
        <ele>2300.095</ele>
        <time>2020-06-30T16:00:45Z</time>
      </trkpt>
      <trkpt lat="42.854255" lon="0.209898">
        <ele>2300.073</ele>
        <time>2020-06-30T16:00:56Z</time>
      </trkpt>
      <trkpt lat="42.854346" lon="0.209876">
        <ele>2300.039</ele>
        <time>2020-06-30T16:01:06Z</time>
      </trkpt>
      <trkpt lat="42.854438" lon="0.209843">
        <ele>2300.082</ele>
        <time>2020-06-30T16:01:19Z</time>
      </trkpt>
      <trkpt lat="42.854528" lon="0.209871">
        <ele>2300.083</ele>
        <time>2020-06-30T16:01:32Z</time>
      </trkpt>
      <trkpt lat="42.854626" lon="0.209856">
        <ele>2300.041</ele>
        <time>2020-06-30T16:01:44Z</time>
      </trkpt>
      <trkpt lat="42.854706" lon="0.209788">
        <ele>2299.018</ele>
        <time>2020-06-30T16:01:54Z</time>
      </trkpt>
      <trkpt lat="42.854787" lon="0.209724">
        <ele>2300.052</ele>
        <time>2020-06-30T16:02:04Z</time>
      </trkpt>
      <trkpt lat="42.854876" lon="0.209691">
        <ele>2304.053</ele>
        <time>2020-06-30T16:02:26Z</time>
      </trkpt>
      <trkpt lat="42.854959" lon="0.209629">
        <ele>2304.008</ele>
        <time>2020-06-30T16:02:39Z</time>
      </trkpt>
      <trkpt lat="42.855050" lon="0.209598">
        <ele>2305.008</ele>
        <time>2020-06-30T16:02:52Z</time>
      </trkpt>
      <trkpt lat="42.855132" lon="0.209531">
        <ele>2304.010</ele>
        <time>2020-06-30T16:03:03Z</time>
      </trkpt>
      <trkpt lat="42.855225" lon="0.209529">
        <ele>2307.046</ele>
        <time>2020-06-30T16:03:16Z</time>
      </trkpt>
      <trkpt lat="42.855316" lon="0.209519">
        <ele>2304.034</ele>
        <time>2020-06-30T16:04:34Z</time>
      </trkpt>
      <trkpt lat="42.855410" lon="0.209507">
        <ele>2308.040</ele>
        <time>2020-06-30T16:04:49Z</time>
      </trkpt>
      <trkpt lat="42.855499" lon="0.209483">
        <ele>2306.093</ele>
        <time>2020-06-30T16:05:25Z</time>
      </trkpt>
      <trkpt lat="42.855521" lon="0.209358">
        <ele>2305.074</ele>
        <time>2020-06-30T16:05:52Z</time>
      </trkpt>
      <trkpt lat="42.855560" lon="0.209246">
        <ele>2307.012</ele>
        <time>2020-06-30T16:06:05Z</time>
      </trkpt>
      <trkpt lat="42.855630" lon="0.209167">
        <ele>2305.079</ele>
        <time>2020-06-30T16:06:28Z</time>
      </trkpt>
      <trkpt lat="42.855679" lon="0.209058">
        <ele>2308.056</ele>
        <time>2020-06-30T16:06:41Z</time>
      </trkpt>
      <trkpt lat="42.855736" lon="0.208960">
        <ele>2313.059</ele>
        <time>2020-06-30T16:06:53Z</time>
      </trkpt>
      <trkpt lat="42.855797" lon="0.208868">
        <ele>2324.014</ele>
        <time>2020-06-30T16:07:12Z</time>
      </trkpt>
      <trkpt lat="42.855847" lon="0.208763">
        <ele>2323.008</ele>
        <time>2020-06-30T16:07:25Z</time>
      </trkpt>
      <trkpt lat="42.855918" lon="0.208680">
        <ele>2330.030</ele>
        <time>2020-06-30T16:07:45Z</time>
      </trkpt>
      <trkpt lat="42.855950" lon="0.208548">
        <ele>2325.076</ele>
        <time>2020-06-30T16:07:56Z</time>
      </trkpt>
      <trkpt lat="42.855953" lon="0.208422">
        <ele>2319.054</ele>
        <time>2020-06-30T16:08:20Z</time>
      </trkpt>
      <trkpt lat="42.855918" lon="0.208307">
        <ele>2320.040</ele>
        <time>2020-06-30T16:08:32Z</time>
      </trkpt>
      <trkpt lat="42.855916" lon="0.208183">
        <ele>2325.053</ele>
        <time>2020-06-30T16:08:46Z</time>
      </trkpt>
      <trkpt lat="42.855934" lon="0.208051">
        <ele>2325.014</ele>
        <time>2020-06-30T16:08:57Z</time>
      </trkpt>
      <trkpt lat="42.855960" lon="0.207930">
        <ele>2320.062</ele>
        <time>2020-06-30T16:09:11Z</time>
      </trkpt>
      <trkpt lat="42.856045" lon="0.207871">
        <ele>2317.049</ele>
        <time>2020-06-30T16:09:20Z</time>
      </trkpt>
      <trkpt lat="42.856098" lon="0.207771">
        <ele>2314.037</ele>
        <time>2020-06-30T16:09:31Z</time>
      </trkpt>
      <trkpt lat="42.856180" lon="0.207690">
        <ele>2317.049</ele>
        <time>2020-06-30T16:09:52Z</time>
      </trkpt>
      <trkpt lat="42.856220" lon="0.207580">
        <ele>2323.013</ele>
        <time>2020-06-30T16:10:02Z</time>
      </trkpt>
      <trkpt lat="42.856288" lon="0.207496">
        <ele>2330.008</ele>
        <time>2020-06-30T16:10:45Z</time>
      </trkpt>
      <trkpt lat="42.856328" lon="0.207384">
        <ele>2336.018</ele>
        <time>2020-06-30T16:11:12Z</time>
      </trkpt>
      <trkpt lat="42.856401" lon="0.207310">
        <ele>2337.034</ele>
        <time>2020-06-30T16:11:27Z</time>
      </trkpt>
      <trkpt lat="42.856489" lon="0.207274">
        <ele>2341.042</ele>
        <time>2020-06-30T16:11:36Z</time>
      </trkpt>
      <trkpt lat="42.856580" lon="0.207231">
        <ele>2344.098</ele>
        <time>2020-06-30T16:11:49Z</time>
      </trkpt>
      <trkpt lat="42.856672" lon="0.207241">
        <ele>2345.091</ele>
        <time>2020-06-30T16:12:01Z</time>
      </trkpt>
      <trkpt lat="42.856733" lon="0.207333">
        <ele>2345.082</ele>
        <time>2020-06-30T16:12:30Z</time>
      </trkpt>
      <trkpt lat="42.856791" lon="0.207431">
        <ele>2345.020</ele>
        <time>2020-06-30T16:12:41Z</time>
      </trkpt>
      <trkpt lat="42.856868" lon="0.207502">
        <ele>2343.047</ele>
        <time>2020-06-30T16:12:53Z</time>
      </trkpt>
      <trkpt lat="42.856960" lon="0.207521">
        <ele>2347.069</ele>
        <time>2020-06-30T16:13:10Z</time>
      </trkpt>
      <trkpt lat="42.857037" lon="0.207450">
        <ele>2346.004</ele>
        <time>2020-06-30T16:13:22Z</time>
      </trkpt>
      <trkpt lat="42.857120" lon="0.207399">
        <ele>2348.024</ele>
        <time>2020-06-30T16:13:31Z</time>
      </trkpt>
      <trkpt lat="42.857175" lon="0.207293">
        <ele>2349.008</ele>
        <time>2020-06-30T16:13:47Z</time>
      </trkpt>
      <trkpt lat="42.857263" lon="0.207343">
        <ele>2352.031</ele>
        <time>2020-06-30T16:14:03Z</time>
      </trkpt>
      <trkpt lat="42.857353" lon="0.207377">
        <ele>2352.027</ele>
        <time>2020-06-30T16:14:36Z</time>
      </trkpt>
      <trkpt lat="42.857419" lon="0.207470">
        <ele>2358.095</ele>
        <time>2020-06-30T16:14:53Z</time>
      </trkpt>
      <trkpt lat="42.857480" lon="0.207562">
        <ele>2358.051</ele>
        <time>2020-06-30T16:15:06Z</time>
      </trkpt>
      <trkpt lat="42.857572" lon="0.207513">
        <ele>2357.064</ele>
        <time>2020-06-30T16:15:17Z</time>
      </trkpt>
      <trkpt lat="42.857642" lon="0.207430">
        <ele>2356.015</ele>
        <time>2020-06-30T16:15:27Z</time>
      </trkpt>
      <trkpt lat="42.857727" lon="0.207475">
        <ele>2360.073</ele>
        <time>2020-06-30T16:15:40Z</time>
      </trkpt>
      <trkpt lat="42.857811" lon="0.207521">
        <ele>2362.010</ele>
        <time>2020-06-30T16:15:56Z</time>
      </trkpt>
      <trkpt lat="42.857906" lon="0.207500">
        <ele>2361.055</ele>
        <time>2020-06-30T16:16:06Z</time>
      </trkpt>
      <trkpt lat="42.857999" lon="0.207492">
        <ele>2369.007</ele>
        <time>2020-06-30T16:16:23Z</time>
      </trkpt>
      <trkpt lat="42.858070" lon="0.207413">
        <ele>2366.017</ele>
        <time>2020-06-30T16:16:33Z</time>
      </trkpt>
      <trkpt lat="42.858160" lon="0.207387">
        <ele>2371.008</ele>
        <time>2020-06-30T16:16:48Z</time>
      </trkpt>
      <trkpt lat="42.858253" lon="0.207420">
        <ele>2369.060</ele>
        <time>2020-06-30T16:17:05Z</time>
      </trkpt>
      <trkpt lat="42.858338" lon="0.207483">
        <ele>2366.076</ele>
        <time>2020-06-30T16:17:17Z</time>
      </trkpt>
      <trkpt lat="42.858435" lon="0.207473">
        <ele>2364.044</ele>
        <time>2020-06-30T16:17:27Z</time>
      </trkpt>
      <trkpt lat="42.858534" lon="0.207461">
        <ele>2365.030</ele>
        <time>2020-06-30T16:17:39Z</time>
      </trkpt>
      <trkpt lat="42.858618" lon="0.207517">
        <ele>2364.073</ele>
        <time>2020-06-30T16:17:53Z</time>
      </trkpt>
      <trkpt lat="42.858696" lon="0.207593">
        <ele>2362.094</ele>
        <time>2020-06-30T16:18:04Z</time>
      </trkpt>
      <trkpt lat="42.858779" lon="0.207668">
        <ele>2369.092</ele>
        <time>2020-06-30T16:18:15Z</time>
      </trkpt>
      <trkpt lat="42.858859" lon="0.207599">
        <ele>2367.079</ele>
        <time>2020-06-30T16:18:28Z</time>
      </trkpt>
      <trkpt lat="42.858954" lon="0.207570">
        <ele>2374.073</ele>
        <time>2020-06-30T16:18:44Z</time>
      </trkpt>
      <trkpt lat="42.859052" lon="0.207587">
        <ele>2376.085</ele>
        <time>2020-06-30T16:18:58Z</time>
      </trkpt>
      <trkpt lat="42.859147" lon="0.207575">
        <ele>2379.013</ele>
        <time>2020-06-30T16:19:11Z</time>
      </trkpt>
      <trkpt lat="42.859204" lon="0.207476">
        <ele>2377.008</ele>
        <time>2020-06-30T16:19:22Z</time>
      </trkpt>
      <trkpt lat="42.859280" lon="0.207396">
        <ele>2375.032</ele>
        <time>2020-06-30T16:19:33Z</time>
      </trkpt>
      <trkpt lat="42.859310" lon="0.207280">
        <ele>2374.088</ele>
        <time>2020-06-30T16:19:48Z</time>
      </trkpt>
      <trkpt lat="42.859344" lon="0.207161">
        <ele>2384.026</ele>
        <time>2020-06-30T16:20:15Z</time>
      </trkpt>
      <trkpt lat="42.859422" lon="0.207065">
        <ele>2380.062</ele>
        <time>2020-06-30T16:20:24Z</time>
      </trkpt>
      <trkpt lat="42.859515" lon="0.207012">
        <ele>2381.015</ele>
        <time>2020-06-30T16:20:32Z</time>
      </trkpt>
      <trkpt lat="42.859607" lon="0.206984">
        <ele>2381.086</ele>
        <time>2020-06-30T16:20:42Z</time>
      </trkpt>
      <trkpt lat="42.859703" lon="0.207000">
        <ele>2383.034</ele>
        <time>2020-06-30T16:20:57Z</time>
      </trkpt>
      <trkpt lat="42.859754" lon="0.206896">
        <ele>2390.031</ele>
        <time>2020-06-30T16:21:17Z</time>
      </trkpt>
      <trkpt lat="42.859826" lon="0.206814">
        <ele>2384.019</ele>
        <time>2020-06-30T16:21:32Z</time>
      </trkpt>
      <trkpt lat="42.859914" lon="0.206779">
        <ele>2381.009</ele>
        <time>2020-06-30T16:21:44Z</time>
      </trkpt>
      <trkpt lat="42.860013" lon="0.206793">
        <ele>2388.019</ele>
        <time>2020-06-30T16:21:55Z</time>
      </trkpt>
      <trkpt lat="42.860093" lon="0.206858">
        <ele>2389.008</ele>
        <time>2020-06-30T16:22:03Z</time>
      </trkpt>
      <trkpt lat="42.860169" lon="0.206931">
        <ele>2391.076</ele>
        <time>2020-06-30T16:22:14Z</time>
      </trkpt>
      <trkpt lat="42.860259" lon="0.206966">
        <ele>2391.012</ele>
        <time>2020-06-30T16:22:27Z</time>
      </trkpt>
      <trkpt lat="42.860347" lon="0.206917">
        <ele>2387.060</ele>
        <time>2020-06-30T16:22:37Z</time>
      </trkpt>
      <trkpt lat="42.860418" lon="0.206826">
        <ele>2391.086</ele>
        <time>2020-06-30T16:22:50Z</time>
      </trkpt>
      <trkpt lat="42.860510" lon="0.206829">
        <ele>2398.099</ele>
        <time>2020-06-30T16:23:49Z</time>
      </trkpt>
      <trkpt lat="42.860597" lon="0.206868">
        <ele>2398.090</ele>
        <time>2020-06-30T16:24:14Z</time>
      </trkpt>
      <trkpt lat="42.860690" lon="0.206862">
        <ele>2400.038</ele>
        <time>2020-06-30T16:24:30Z</time>
      </trkpt>
      <trkpt lat="42.860764" lon="0.206933">
        <ele>2402.095</ele>
        <time>2020-06-30T16:24:48Z</time>
      </trkpt>
      <trkpt lat="42.860857" lon="0.206933">
        <ele>2406.019</ele>
        <time>2020-06-30T16:25:25Z</time>
      </trkpt>
      <trkpt lat="42.860931" lon="0.207003">
        <ele>2408.009</ele>
        <time>2020-06-30T16:26:01Z</time>
      </trkpt>
      <trkpt lat="42.861021" lon="0.207008">
        <ele>2412.019</ele>
        <time>2020-06-30T16:26:28Z</time>
      </trkpt>
      <trkpt lat="42.861058" lon="0.206895">
        <ele>2416.008</ele>
        <time>2020-06-30T16:26:55Z</time>
      </trkpt>
      <trkpt lat="42.861071" lon="0.206763">
        <ele>2423.096</ele>
        <time>2020-06-30T16:27:27Z</time>
      </trkpt>
      <trkpt lat="42.861129" lon="0.206660">
        <ele>2424.032</ele>
        <time>2020-06-30T16:27:57Z</time>
      </trkpt>
      <trkpt lat="42.861109" lon="0.206530">
        <ele>2426.040</ele>
        <time>2020-06-30T16:28:13Z</time>
      </trkpt>
      <trkpt lat="42.861166" lon="0.206435">
        <ele>2429.096</ele>
        <time>2020-06-30T16:29:05Z</time>
      </trkpt>
      <trkpt lat="42.861248" lon="0.206492">
        <ele>2433.089</ele>
        <time>2020-06-30T16:29:48Z</time>
      </trkpt>
      <trkpt lat="42.861334" lon="0.206534">
        <ele>2437.060</ele>
        <time>2020-06-30T16:30:15Z</time>
      </trkpt>
      <trkpt lat="42.861423" lon="0.206577">
        <ele>2440.028</ele>
        <time>2020-06-30T16:30:38Z</time>
      </trkpt>
      <trkpt lat="42.861486" lon="0.206676">
        <ele>2449.045</ele>
        <time>2020-06-30T16:30:51Z</time>
      </trkpt>
      <trkpt lat="42.861558" lon="0.206759">
        <ele>2449.068</ele>
        <time>2020-06-30T16:31:08Z</time>
      </trkpt>
      <trkpt lat="42.861635" lon="0.206838">
        <ele>2455.042</ele>
        <time>2020-06-30T16:31:24Z</time>
      </trkpt>
      <trkpt lat="42.861716" lon="0.206897">
        <ele>2454.026</ele>
        <time>2020-06-30T16:31:37Z</time>
      </trkpt>
      <trkpt lat="42.861791" lon="0.206978">
        <ele>2454.008</ele>
        <time>2020-06-30T16:31:53Z</time>
      </trkpt>
      <trkpt lat="42.861886" lon="0.206979">
        <ele>2455.021</ele>
        <time>2020-06-30T16:32:11Z</time>
      </trkpt>
      <trkpt lat="42.861979" lon="0.206959">
        <ele>2456.077</ele>
        <time>2020-06-30T16:32:34Z</time>
      </trkpt>
      <trkpt lat="42.862080" lon="0.206941">
        <ele>2452.015</ele>
        <time>2020-06-30T16:32:58Z</time>
      </trkpt>
      <trkpt lat="42.862171" lon="0.206971">
        <ele>2448.011</ele>
        <time>2020-06-30T16:33:06Z</time>
      </trkpt>
      <trkpt lat="42.862261" lon="0.206959">
        <ele>2449.034</ele>
        <time>2020-06-30T16:33:16Z</time>
      </trkpt>
      <trkpt lat="42.862350" lon="0.206997">
        <ele>2450.065</ele>
        <time>2020-06-30T16:33:32Z</time>
      </trkpt>
      <trkpt lat="42.862441" lon="0.207023">
        <ele>2452.013</ele>
        <time>2020-06-30T16:33:48Z</time>
      </trkpt>
      <trkpt lat="42.862519" lon="0.207086">
        <ele>2451.030</ele>
        <time>2020-06-30T16:33:58Z</time>
      </trkpt>
      <trkpt lat="42.862613" lon="0.207088">
        <ele>2449.072</ele>
        <time>2020-06-30T16:34:16Z</time>
      </trkpt>
      <trkpt lat="42.862697" lon="0.207145">
        <ele>2457.013</ele>
        <time>2020-06-30T16:34:41Z</time>
      </trkpt>
      <trkpt lat="42.862772" lon="0.207215">
        <ele>2463.014</ele>
        <time>2020-06-30T16:34:58Z</time>
      </trkpt>
      <trkpt lat="42.862860" lon="0.207257">
        <ele>2466.008</ele>
        <time>2020-06-30T16:35:11Z</time>
      </trkpt>
      <trkpt lat="42.862952" lon="0.207242">
        <ele>2464.092</ele>
        <time>2020-06-30T16:35:27Z</time>
      </trkpt>
      <trkpt lat="42.863043" lon="0.207241">
        <ele>2466.058</ele>
        <time>2020-06-30T16:35:45Z</time>
      </trkpt>
      <trkpt lat="42.863128" lon="0.207164">
        <ele>2462.066</ele>
        <time>2020-06-30T16:35:56Z</time>
      </trkpt>
      <trkpt lat="42.863219" lon="0.207157">
        <ele>2463.062</ele>
        <time>2020-06-30T16:36:07Z</time>
      </trkpt>
      <trkpt lat="42.863290" lon="0.207246">
        <ele>2462.065</ele>
        <time>2020-06-30T16:36:25Z</time>
      </trkpt>
      <trkpt lat="42.863386" lon="0.207255">
        <ele>2461.076</ele>
        <time>2020-06-30T16:36:36Z</time>
      </trkpt>
      <trkpt lat="42.863483" lon="0.207264">
        <ele>2462.014</ele>
        <time>2020-06-30T16:36:50Z</time>
      </trkpt>
      <trkpt lat="42.863561" lon="0.207204">
        <ele>2462.091</ele>
        <time>2020-06-30T16:36:59Z</time>
      </trkpt>
      <trkpt lat="42.863628" lon="0.207120">
        <ele>2462.028</ele>
        <time>2020-06-30T16:37:09Z</time>
      </trkpt>
      <trkpt lat="42.863710" lon="0.207060">
        <ele>2460.089</ele>
        <time>2020-06-30T16:37:17Z</time>
      </trkpt>
      <trkpt lat="42.863797" lon="0.207002">
        <ele>2463.017</ele>
        <time>2020-06-30T16:37:27Z</time>
      </trkpt>
      <trkpt lat="42.863889" lon="0.207042">
        <ele>2464.008</ele>
        <time>2020-06-30T16:37:41Z</time>
      </trkpt>
      <trkpt lat="42.863988" lon="0.207029">
        <ele>2464.067</ele>
        <time>2020-06-30T16:37:53Z</time>
      </trkpt>
      <trkpt lat="42.864086" lon="0.206998">
        <ele>2462.073</ele>
        <time>2020-06-30T16:38:02Z</time>
      </trkpt>
      <trkpt lat="42.864179" lon="0.207022">
        <ele>2467.061</ele>
        <time>2020-06-30T16:38:15Z</time>
      </trkpt>
      <trkpt lat="42.864271" lon="0.207011">
        <ele>2470.047</ele>
        <time>2020-06-30T16:38:26Z</time>
      </trkpt>
      <trkpt lat="42.864363" lon="0.207054">
        <ele>2472.090</ele>
        <time>2020-06-30T16:38:43Z</time>
      </trkpt>
      <trkpt lat="42.864454" lon="0.207095">
        <ele>2474.041</ele>
        <time>2020-06-30T16:38:54Z</time>
      </trkpt>
      <trkpt lat="42.864549" lon="0.207093">
        <ele>2475.049</ele>
        <time>2020-06-30T16:39:04Z</time>
      </trkpt>
      <trkpt lat="42.864639" lon="0.207051">
        <ele>2474.056</ele>
        <time>2020-06-30T16:39:15Z</time>
      </trkpt>
      <trkpt lat="42.864740" lon="0.207058">
        <ele>2476.093</ele>
        <time>2020-06-30T16:39:25Z</time>
      </trkpt>
      <trkpt lat="42.864833" lon="0.207045">
        <ele>2474.065</ele>
        <time>2020-06-30T16:39:33Z</time>
      </trkpt>
      <trkpt lat="42.864902" lon="0.206953">
        <ele>2474.021</ele>
        <time>2020-06-30T16:39:49Z</time>
      </trkpt>
      <trkpt lat="42.864993" lon="0.206902">
        <ele>2474.008</ele>
        <time>2020-06-30T16:40:03Z</time>
      </trkpt>
      <trkpt lat="42.865079" lon="0.206855">
        <ele>2474.064</ele>
        <time>2020-06-30T16:40:19Z</time>
      </trkpt>
      <trkpt lat="42.865159" lon="0.206777">
        <ele>2470.020</ele>
        <time>2020-06-30T16:40:38Z</time>
      </trkpt>
      <trkpt lat="42.865250" lon="0.206727">
        <ele>2468.038</ele>
        <time>2020-06-30T16:40:51Z</time>
      </trkpt>
      <trkpt lat="42.865325" lon="0.206658">
        <ele>2463.094</ele>
        <time>2020-06-30T16:41:03Z</time>
      </trkpt>
      <trkpt lat="42.865409" lon="0.206607">
        <ele>2464.047</ele>
        <time>2020-06-30T16:41:10Z</time>
      </trkpt>
      <trkpt lat="42.865492" lon="0.206555">
        <ele>2468.038</ele>
        <time>2020-06-30T16:41:21Z</time>
      </trkpt>
      <trkpt lat="42.865584" lon="0.206542">
        <ele>2470.046</ele>
        <time>2020-06-30T16:41:37Z</time>
      </trkpt>
      <trkpt lat="42.865675" lon="0.206559">
        <ele>2467.033</ele>
        <time>2020-06-30T16:42:01Z</time>
      </trkpt>
      <trkpt lat="42.865768" lon="0.206602">
        <ele>2473.091</ele>
        <time>2020-06-30T16:42:36Z</time>
      </trkpt>
      <trkpt lat="42.865850" lon="0.206657">
        <ele>2474.081</ele>
        <time>2020-06-30T16:42:54Z</time>
      </trkpt>
      <trkpt lat="42.865948" lon="0.206655">
        <ele>2477.019</ele>
        <time>2020-06-30T16:43:09Z</time>
      </trkpt>
      <trkpt lat="42.866021" lon="0.206737">
        <ele>2486.008</ele>
        <time>2020-06-30T16:43:49Z</time>
      </trkpt>
      <trkpt lat="42.866130" lon="0.206784">
        <ele>2486.074</ele>
        <time>2020-06-30T16:44:26Z</time>
      </trkpt>
      <trkpt lat="42.866208" lon="0.206845">
        <ele>2490.090</ele>
        <time>2020-06-30T16:45:35Z</time>
      </trkpt>
      <trkpt lat="42.866270" lon="0.206934">
        <ele>2493.038</ele>
        <time>2020-06-30T16:46:06Z</time>
      </trkpt>
      <trkpt lat="42.866349" lon="0.206998">
        <ele>2488.064</ele>
        <time>2020-06-30T16:46:22Z</time>
      </trkpt>
      <trkpt lat="42.866419" lon="0.206919">
        <ele>2500.057</ele>
        <time>2020-06-30T16:46:59Z</time>
      </trkpt>
      <trkpt lat="42.866514" lon="0.206909">
        <ele>2500.088</ele>
        <time>2020-06-30T16:47:26Z</time>
      </trkpt>
      <trkpt lat="42.866595" lon="0.206841">
        <ele>2497.076</ele>
        <time>2020-06-30T16:47:44Z</time>
      </trkpt>
      <trkpt lat="42.866674" lon="0.206769">
        <ele>2504.023</ele>
        <time>2020-06-30T16:48:36Z</time>
      </trkpt>
      <trkpt lat="42.866726" lon="0.206668">
        <ele>2509.094</ele>
        <time>2020-06-30T16:48:56Z</time>
      </trkpt>
      <trkpt lat="42.866803" lon="0.206734">
        <ele>2529.057</ele>
        <time>2020-06-30T16:49:59Z</time>
      </trkpt>
      <trkpt lat="42.866844" lon="0.206620">
        <ele>2540.022</ele>
        <time>2020-06-30T16:50:53Z</time>
      </trkpt>
      <trkpt lat="42.866895" lon="0.206517">
        <ele>2544.008</ele>
        <time>2020-06-30T16:51:24Z</time>
      </trkpt>
      <trkpt lat="42.866923" lon="0.206399">
        <ele>2553.084</ele>
        <time>2020-06-30T16:51:53Z</time>
      </trkpt>
      <trkpt lat="42.867006" lon="0.206452">
        <ele>2558.040</ele>
        <time>2020-06-30T16:52:28Z</time>
      </trkpt>
      <trkpt lat="42.867099" lon="0.206463">
        <ele>2561.048</ele>
        <time>2020-06-30T16:52:54Z</time>
      </trkpt>
      <trkpt lat="42.867188" lon="0.206434">
        <ele>2576.024</ele>
        <time>2020-06-30T16:55:20Z</time>
      </trkpt>
      <trkpt lat="42.867230" lon="0.206551">
        <ele>2561.097</ele>
        <time>2020-06-30T17:02:34Z</time>
      </trkpt>
      <trkpt lat="42.867237" lon="0.206685">
        <ele>2559.078</ele>
        <time>2020-06-30T17:02:47Z</time>
      </trkpt>
      <trkpt lat="42.867219" lon="0.206558">
        <ele>2565.086</ele>
        <time>2020-06-30T17:03:35Z</time>
      </trkpt>
      <trkpt lat="42.867153" lon="0.206471">
        <ele>2563.063</ele>
        <time>2020-06-30T17:03:48Z</time>
      </trkpt>
      <trkpt lat="42.867218" lon="0.206561">
        <ele>2565.084</ele>
        <time>2020-06-30T17:04:20Z</time>
      </trkpt>
      <trkpt lat="42.867223" lon="0.206687">
        <ele>2562.007</ele>
        <time>2020-06-30T17:04:30Z</time>
      </trkpt>
      <trkpt lat="42.867242" lon="0.206808">
        <ele>2564.017</ele>
        <time>2020-06-30T17:04:47Z</time>
      </trkpt>
      <trkpt lat="42.867282" lon="0.206923">
        <ele>2561.008</ele>
        <time>2020-06-30T17:05:21Z</time>
      </trkpt>
      <trkpt lat="42.867372" lon="0.206957">
        <ele>2555.083</ele>
        <time>2020-06-30T17:05:37Z</time>
      </trkpt>
      <trkpt lat="42.867459" lon="0.207000">
        <ele>2550.099</ele>
        <time>2020-06-30T17:06:05Z</time>
      </trkpt>
      <trkpt lat="42.867555" lon="0.207014">
        <ele>2543.057</ele>
        <time>2020-06-30T17:06:16Z</time>
      </trkpt>
      <trkpt lat="42.867641" lon="0.207060">
        <ele>2537.063</ele>
        <time>2020-06-30T17:06:27Z</time>
      </trkpt>
      <trkpt lat="42.867734" lon="0.207058">
        <ele>2535.076</ele>
        <time>2020-06-30T17:06:41Z</time>
      </trkpt>
      <trkpt lat="42.867824" lon="0.207068">
        <ele>2532.057</ele>
        <time>2020-06-30T17:06:54Z</time>
      </trkpt>
      <trkpt lat="42.867913" lon="0.207110">
        <ele>2532.085</ele>
        <time>2020-06-30T17:07:07Z</time>
      </trkpt>
      <trkpt lat="42.868002" lon="0.207157">
        <ele>2525.072</ele>
        <time>2020-06-30T17:07:21Z</time>
      </trkpt>
      <trkpt lat="42.868088" lon="0.207225">
        <ele>2523.044</ele>
        <time>2020-06-30T17:07:30Z</time>
      </trkpt>
      <trkpt lat="42.868161" lon="0.207297">
        <ele>2516.005</ele>
        <time>2020-06-30T17:07:46Z</time>
      </trkpt>
      <trkpt lat="42.868249" lon="0.207239">
        <ele>2517.015</ele>
        <time>2020-06-30T17:08:01Z</time>
      </trkpt>
      <trkpt lat="42.868311" lon="0.207142">
        <ele>2514.008</ele>
        <time>2020-06-30T17:08:10Z</time>
      </trkpt>
      <trkpt lat="42.868400" lon="0.207176">
        <ele>2516.089</ele>
        <time>2020-06-30T17:08:20Z</time>
      </trkpt>
      <trkpt lat="42.868495" lon="0.207207">
        <ele>2515.025</ele>
        <time>2020-06-30T17:08:38Z</time>
      </trkpt>
      <trkpt lat="42.868564" lon="0.207122">
        <ele>2518.043</ele>
        <time>2020-06-30T17:09:00Z</time>
      </trkpt>
      <trkpt lat="42.868654" lon="0.207153">
        <ele>2513.089</ele>
        <time>2020-06-30T17:09:25Z</time>
      </trkpt>
      <trkpt lat="42.868739" lon="0.207095">
        <ele>2516.062</ele>
        <time>2020-06-30T17:09:49Z</time>
      </trkpt>
      <trkpt lat="42.868817" lon="0.207022">
        <ele>2505.023</ele>
        <time>2020-06-30T17:10:03Z</time>
      </trkpt>
      <trkpt lat="42.868871" lon="0.206913">
        <ele>2505.061</ele>
        <time>2020-06-30T17:10:17Z</time>
      </trkpt>
      <trkpt lat="42.868905" lon="0.206796">
        <ele>2502.028</ele>
        <time>2020-06-30T17:10:30Z</time>
      </trkpt>
      <trkpt lat="42.868996" lon="0.206816">
        <ele>2493.091</ele>
        <time>2020-06-30T17:10:47Z</time>
      </trkpt>
      <trkpt lat="42.869088" lon="0.206815">
        <ele>2486.081</ele>
        <time>2020-06-30T17:11:05Z</time>
      </trkpt>
      <trkpt lat="42.869182" lon="0.206846">
        <ele>2479.019</ele>
        <time>2020-06-30T17:11:22Z</time>
      </trkpt>
      <trkpt lat="42.869278" lon="0.206856">
        <ele>2474.008</ele>
        <time>2020-06-30T17:11:35Z</time>
      </trkpt>
      <trkpt lat="42.869342" lon="0.206944">
        <ele>2475.024</ele>
        <time>2020-06-30T17:11:48Z</time>
      </trkpt>
      <trkpt lat="42.869414" lon="0.207022">
        <ele>2472.010</ele>
        <time>2020-06-30T17:11:59Z</time>
      </trkpt>
      <trkpt lat="42.869498" lon="0.207086">
        <ele>2473.068</ele>
        <time>2020-06-30T17:12:09Z</time>
      </trkpt>
      <trkpt lat="42.869583" lon="0.207034">
        <ele>2470.034</ele>
        <time>2020-06-30T17:12:19Z</time>
      </trkpt>
      <trkpt lat="42.869687" lon="0.207015">
        <ele>2469.027</ele>
        <time>2020-06-30T17:12:30Z</time>
      </trkpt>
      <trkpt lat="42.869742" lon="0.206917">
        <ele>2469.058</ele>
        <time>2020-06-30T17:12:37Z</time>
      </trkpt>
      <trkpt lat="42.869801" lon="0.206806">
        <ele>2470.016</ele>
        <time>2020-06-30T17:12:45Z</time>
      </trkpt>
      <trkpt lat="42.869857" lon="0.206705">
        <ele>2472.073</ele>
        <time>2020-06-30T17:12:54Z</time>
      </trkpt>
      <trkpt lat="42.869926" lon="0.206622">
        <ele>2469.063</ele>
        <time>2020-06-30T17:13:07Z</time>
      </trkpt>
      <trkpt lat="42.870016" lon="0.206570">
        <ele>2471.044</ele>
        <time>2020-06-30T17:13:17Z</time>
      </trkpt>
      <trkpt lat="42.870056" lon="0.206458">
        <ele>2470.018</ele>
        <time>2020-06-30T17:13:28Z</time>
      </trkpt>
      <trkpt lat="42.870101" lon="0.206348">
        <ele>2467.008</ele>
        <time>2020-06-30T17:13:38Z</time>
      </trkpt>
      <trkpt lat="42.870182" lon="0.206294">
        <ele>2470.071</ele>
        <time>2020-06-30T17:13:51Z</time>
      </trkpt>
      <trkpt lat="42.870272" lon="0.206227">
        <ele>2466.047</ele>
        <time>2020-06-30T17:15:02Z</time>
      </trkpt>
      <trkpt lat="42.870295" lon="0.206097">
        <ele>2468.095</ele>
        <time>2020-06-30T17:15:12Z</time>
      </trkpt>
      <trkpt lat="42.870292" lon="0.205970">
        <ele>2468.061</ele>
        <time>2020-06-30T17:15:27Z</time>
      </trkpt>
      <trkpt lat="42.870360" lon="0.205889">
        <ele>2463.044</ele>
        <time>2020-06-30T17:15:35Z</time>
      </trkpt>
      <trkpt lat="42.870453" lon="0.205841">
        <ele>2468.015</ele>
        <time>2020-06-30T17:15:44Z</time>
      </trkpt>
      <trkpt lat="42.870548" lon="0.205798">
        <ele>2469.023</ele>
        <time>2020-06-30T17:15:59Z</time>
      </trkpt>
      <trkpt lat="42.870630" lon="0.205745">
        <ele>2464.090</ele>
        <time>2020-06-30T17:16:11Z</time>
      </trkpt>
      <trkpt lat="42.870713" lon="0.205672">
        <ele>2468.032</ele>
        <time>2020-06-30T17:16:42Z</time>
      </trkpt>
      <trkpt lat="42.870791" lon="0.205611">
        <ele>2469.092</ele>
        <time>2020-06-30T17:16:49Z</time>
      </trkpt>
      <trkpt lat="42.870851" lon="0.205509">
        <ele>2470.011</ele>
        <time>2020-06-30T17:17:02Z</time>
      </trkpt>
      <trkpt lat="42.870945" lon="0.205525">
        <ele>2470.008</ele>
        <time>2020-06-30T17:17:10Z</time>
      </trkpt>
      <trkpt lat="42.871035" lon="0.205465">
        <ele>2472.038</ele>
        <time>2020-06-30T17:17:18Z</time>
      </trkpt>
      <trkpt lat="42.871120" lon="0.205416">
        <ele>2470.084</ele>
        <time>2020-06-30T17:17:24Z</time>
      </trkpt>
      <trkpt lat="42.871216" lon="0.205395">
        <ele>2478.052</ele>
        <time>2020-06-30T17:17:31Z</time>
      </trkpt>
      <trkpt lat="42.871313" lon="0.205431">
        <ele>2476.058</ele>
        <time>2020-06-30T17:17:39Z</time>
      </trkpt>
      <trkpt lat="42.871412" lon="0.205412">
        <ele>2476.031</ele>
        <time>2020-06-30T17:17:47Z</time>
      </trkpt>
      <trkpt lat="42.871495" lon="0.205348">
        <ele>2477.092</ele>
        <time>2020-06-30T17:17:55Z</time>
      </trkpt>
      <trkpt lat="42.871583" lon="0.205311">
        <ele>2477.080</ele>
        <time>2020-06-30T17:18:04Z</time>
      </trkpt>
      <trkpt lat="42.871660" lon="0.205383">
        <ele>2475.047</ele>
        <time>2020-06-30T17:18:13Z</time>
      </trkpt>
      <trkpt lat="42.871728" lon="0.205474">
        <ele>2475.062</ele>
        <time>2020-06-30T17:18:21Z</time>
      </trkpt>
      <trkpt lat="42.871826" lon="0.205487">
        <ele>2473.083</ele>
        <time>2020-06-30T17:18:31Z</time>
      </trkpt>
      <trkpt lat="42.871910" lon="0.205431">
        <ele>2471.011</ele>
        <time>2020-06-30T17:18:39Z</time>
      </trkpt>
      <trkpt lat="42.871992" lon="0.205342">
        <ele>2470.008</ele>
        <time>2020-06-30T17:18:48Z</time>
      </trkpt>
      <trkpt lat="42.872085" lon="0.205298">
        <ele>2471.051</ele>
        <time>2020-06-30T17:18:57Z</time>
      </trkpt>
      <trkpt lat="42.872177" lon="0.205314">
        <ele>2471.047</ele>
        <time>2020-06-30T17:19:05Z</time>
      </trkpt>
      <trkpt lat="42.872268" lon="0.205247">
        <ele>2465.055</ele>
        <time>2020-06-30T17:19:13Z</time>
      </trkpt>
      <trkpt lat="42.872358" lon="0.205306">
        <ele>2464.091</ele>
        <time>2020-06-30T17:19:24Z</time>
      </trkpt>
      <trkpt lat="42.872452" lon="0.205350">
        <ele>2466.034</ele>
        <time>2020-06-30T17:19:33Z</time>
      </trkpt>
      <trkpt lat="42.872544" lon="0.205378">
        <ele>2466.055</ele>
        <time>2020-06-30T17:19:42Z</time>
      </trkpt>
      <trkpt lat="42.872624" lon="0.205437">
        <ele>2465.023</ele>
        <time>2020-06-30T17:19:53Z</time>
      </trkpt>
      <trkpt lat="42.872713" lon="0.205462">
        <ele>2460.050</ele>
        <time>2020-06-30T17:20:26Z</time>
      </trkpt>
      <trkpt lat="42.872787" lon="0.205390">
        <ele>2460.071</ele>
        <time>2020-06-30T17:20:40Z</time>
      </trkpt>
      <trkpt lat="42.872881" lon="0.205380">
        <ele>2461.041</ele>
        <time>2020-06-30T17:20:57Z</time>
      </trkpt>
      <trkpt lat="42.872864" lon="0.205255">
        <ele>2457.015</ele>
        <time>2020-06-30T17:21:19Z</time>
      </trkpt>
      <trkpt lat="42.872840" lon="0.205132">
        <ele>2455.008</ele>
        <time>2020-06-30T17:21:41Z</time>
      </trkpt>
      <trkpt lat="42.872909" lon="0.205052">
        <ele>2457.042</ele>
        <time>2020-06-30T17:21:55Z</time>
      </trkpt>
      <trkpt lat="42.872999" lon="0.204999">
        <ele>2451.088</ele>
        <time>2020-06-30T17:22:15Z</time>
      </trkpt>
      <trkpt lat="42.873049" lon="0.205111">
        <ele>2449.066</ele>
        <time>2020-06-30T17:22:33Z</time>
      </trkpt>
      <trkpt lat="42.873114" lon="0.205198">
        <ele>2446.092</ele>
        <time>2020-06-30T17:22:45Z</time>
      </trkpt>
      <trkpt lat="42.873140" lon="0.205319">
        <ele>2446.085</ele>
        <time>2020-06-30T17:23:00Z</time>
      </trkpt>
      <trkpt lat="42.873207" lon="0.205411">
        <ele>2442.096</ele>
        <time>2020-06-30T17:23:19Z</time>
      </trkpt>
      <trkpt lat="42.873271" lon="0.205511">
        <ele>2441.074</ele>
        <time>2020-06-30T17:23:33Z</time>
      </trkpt>
      <trkpt lat="42.873348" lon="0.205440">
        <ele>2441.041</ele>
        <time>2020-06-30T17:23:43Z</time>
      </trkpt>
      <trkpt lat="42.873429" lon="0.205382">
        <ele>2434.041</ele>
        <time>2020-06-30T17:24:05Z</time>
      </trkpt>
      <trkpt lat="42.873514" lon="0.205334">
        <ele>2431.081</ele>
        <time>2020-06-30T17:24:27Z</time>
      </trkpt>
      <trkpt lat="42.873602" lon="0.205306">
        <ele>2432.009</ele>
        <time>2020-06-30T17:24:36Z</time>
      </trkpt>
      <trkpt lat="42.873659" lon="0.205415">
        <ele>2432.008</ele>
        <time>2020-06-30T17:24:44Z</time>
      </trkpt>
      <trkpt lat="42.873732" lon="0.205488">
        <ele>2430.059</ele>
        <time>2020-06-30T17:24:56Z</time>
      </trkpt>
      <trkpt lat="42.873820" lon="0.205543">
        <ele>2426.025</ele>
        <time>2020-06-30T17:25:06Z</time>
      </trkpt>
      <trkpt lat="42.873909" lon="0.205585">
        <ele>2429.013</ele>
        <time>2020-06-30T17:25:16Z</time>
      </trkpt>
      <trkpt lat="42.873996" lon="0.205535">
        <ele>2422.069</ele>
        <time>2020-06-30T17:25:50Z</time>
      </trkpt>
      <trkpt lat="42.874078" lon="0.205467">
        <ele>2424.012</ele>
        <time>2020-06-30T17:26:10Z</time>
      </trkpt>
      <trkpt lat="42.874168" lon="0.205452">
        <ele>2419.083</ele>
        <time>2020-06-30T17:26:27Z</time>
      </trkpt>
      <trkpt lat="42.874191" lon="0.205329">
        <ele>2413.051</ele>
        <time>2020-06-30T17:26:45Z</time>
      </trkpt>
      <trkpt lat="42.874237" lon="0.205205">
        <ele>2411.078</ele>
        <time>2020-06-30T17:26:57Z</time>
      </trkpt>
      <trkpt lat="42.874323" lon="0.205145">
        <ele>2415.098</ele>
        <time>2020-06-30T17:27:08Z</time>
      </trkpt>
      <trkpt lat="42.874421" lon="0.205145">
        <ele>2409.015</ele>
        <time>2020-06-30T17:27:17Z</time>
      </trkpt>
      <trkpt lat="42.874511" lon="0.205143">
        <ele>2407.026</ele>
        <time>2020-06-30T17:27:30Z</time>
      </trkpt>
      <trkpt lat="42.874449" lon="0.205232">
        <ele>2403.008</ele>
        <time>2020-06-30T17:27:47Z</time>
      </trkpt>
      <trkpt lat="42.874517" lon="0.205322">
        <ele>2396.094</ele>
        <time>2020-06-30T17:28:05Z</time>
      </trkpt>
      <trkpt lat="42.874605" lon="0.205367">
        <ele>2397.040</ele>
        <time>2020-06-30T17:28:14Z</time>
      </trkpt>
      <trkpt lat="42.874673" lon="0.205462">
        <ele>2399.028</ele>
        <time>2020-06-30T17:28:25Z</time>
      </trkpt>
      <trkpt lat="42.874744" lon="0.205547">
        <ele>2399.044</ele>
        <time>2020-06-30T17:28:35Z</time>
      </trkpt>
      <trkpt lat="42.874841" lon="0.205569">
        <ele>2397.067</ele>
        <time>2020-06-30T17:28:44Z</time>
      </trkpt>
      <trkpt lat="42.874934" lon="0.205585">
        <ele>2396.068</ele>
        <time>2020-06-30T17:28:54Z</time>
      </trkpt>
      <trkpt lat="42.875020" lon="0.205622">
        <ele>2399.076</ele>
        <time>2020-06-30T17:29:10Z</time>
      </trkpt>
      <trkpt lat="42.875111" lon="0.205598">
        <ele>2393.033</ele>
        <time>2020-06-30T17:29:32Z</time>
      </trkpt>
      <trkpt lat="42.875202" lon="0.205564">
        <ele>2395.059</ele>
        <time>2020-06-30T17:29:46Z</time>
      </trkpt>
      <trkpt lat="42.875298" lon="0.205543">
        <ele>2397.003</ele>
        <time>2020-06-30T17:29:56Z</time>
      </trkpt>
      <trkpt lat="42.875378" lon="0.205482">
        <ele>2398.023</ele>
        <time>2020-06-30T17:30:07Z</time>
      </trkpt>
      <trkpt lat="42.875466" lon="0.205420">
        <ele>2399.008</ele>
        <time>2020-06-30T17:30:14Z</time>
      </trkpt>
      <trkpt lat="42.875553" lon="0.205383">
        <ele>2395.020</ele>
        <time>2020-06-30T17:30:26Z</time>
      </trkpt>
      <trkpt lat="42.875642" lon="0.205414">
        <ele>2395.046</ele>
        <time>2020-06-30T17:30:38Z</time>
      </trkpt>
      <trkpt lat="42.875727" lon="0.205476">
        <ele>2394.024</ele>
        <time>2020-06-30T17:30:48Z</time>
      </trkpt>
      <trkpt lat="42.875815" lon="0.205542">
        <ele>2393.080</ele>
        <time>2020-06-30T17:30:59Z</time>
      </trkpt>
      <trkpt lat="42.875883" lon="0.205634">
        <ele>2392.043</ele>
        <time>2020-06-30T17:31:12Z</time>
      </trkpt>
      <trkpt lat="42.875954" lon="0.205725">
        <ele>2389.024</ele>
        <time>2020-06-30T17:31:25Z</time>
      </trkpt>
      <trkpt lat="42.876033" lon="0.205796">
        <ele>2388.082</ele>
        <time>2020-06-30T17:31:33Z</time>
      </trkpt>
      <trkpt lat="42.876064" lon="0.205912">
        <ele>2384.079</ele>
        <time>2020-06-30T17:31:43Z</time>
      </trkpt>
      <trkpt lat="42.876152" lon="0.205957">
        <ele>2381.034</ele>
        <time>2020-06-30T17:31:56Z</time>
      </trkpt>
      <trkpt lat="42.876243" lon="0.205930">
        <ele>2382.055</ele>
        <time>2020-06-30T17:32:09Z</time>
      </trkpt>
      <trkpt lat="42.876337" lon="0.205933">
        <ele>2381.010</ele>
        <time>2020-06-30T17:32:25Z</time>
      </trkpt>
      <trkpt lat="42.876430" lon="0.205912">
        <ele>2381.008</ele>
        <time>2020-06-30T17:32:35Z</time>
      </trkpt>
      <trkpt lat="42.876519" lon="0.205868">
        <ele>2381.078</ele>
        <time>2020-06-30T17:32:45Z</time>
      </trkpt>
      <trkpt lat="42.876579" lon="0.205773">
        <ele>2376.034</ele>
        <time>2020-06-30T17:33:02Z</time>
      </trkpt>
      <trkpt lat="42.876661" lon="0.205712">
        <ele>2379.022</ele>
        <time>2020-06-30T17:33:15Z</time>
      </trkpt>
      <trkpt lat="42.876746" lon="0.205669">
        <ele>2378.098</ele>
        <time>2020-06-30T17:33:25Z</time>
      </trkpt>
      <trkpt lat="42.876832" lon="0.205629">
        <ele>2376.061</ele>
        <time>2020-06-30T17:33:48Z</time>
      </trkpt>
      <trkpt lat="42.876903" lon="0.205541">
        <ele>2370.042</ele>
        <time>2020-06-30T17:35:01Z</time>
      </trkpt>
      <trkpt lat="42.876939" lon="0.205420">
        <ele>2368.030</ele>
        <time>2020-06-30T17:35:19Z</time>
      </trkpt>
      <trkpt lat="42.876999" lon="0.205326">
        <ele>2368.017</ele>
        <time>2020-06-30T17:35:29Z</time>
      </trkpt>
      <trkpt lat="42.877073" lon="0.205248">
        <ele>2360.023</ele>
        <time>2020-06-30T17:35:40Z</time>
      </trkpt>
      <trkpt lat="42.877145" lon="0.205156">
        <ele>2357.083</ele>
        <time>2020-06-30T17:35:50Z</time>
      </trkpt>
      <trkpt lat="42.877228" lon="0.205102">
        <ele>2357.011</ele>
        <time>2020-06-30T17:36:03Z</time>
      </trkpt>
      <trkpt lat="42.877332" lon="0.205085">
        <ele>2355.008</ele>
        <time>2020-06-30T17:36:14Z</time>
      </trkpt>
      <trkpt lat="42.877428" lon="0.205064">
        <ele>2355.097</ele>
        <time>2020-06-30T17:36:23Z</time>
      </trkpt>
      <trkpt lat="42.877504" lon="0.204987">
        <ele>2353.013</ele>
        <time>2020-06-30T17:36:33Z</time>
      </trkpt>
      <trkpt lat="42.877566" lon="0.204881">
        <ele>2348.041</ele>
        <time>2020-06-30T17:36:45Z</time>
      </trkpt>
      <trkpt lat="42.877622" lon="0.204778">
        <ele>2346.087</ele>
        <time>2020-06-30T17:36:58Z</time>
      </trkpt>
      <trkpt lat="42.877703" lon="0.204710">
        <ele>2346.020</ele>
        <time>2020-06-30T17:37:07Z</time>
      </trkpt>
      <trkpt lat="42.877788" lon="0.204662">
        <ele>2344.091</ele>
        <time>2020-06-30T17:37:16Z</time>
      </trkpt>
      <trkpt lat="42.877876" lon="0.204621">
        <ele>2347.029</ele>
        <time>2020-06-30T17:37:25Z</time>
      </trkpt>
      <trkpt lat="42.877968" lon="0.204620">
        <ele>2347.066</ele>
        <time>2020-06-30T17:37:32Z</time>
      </trkpt>
      <trkpt lat="42.878054" lon="0.204583">
        <ele>2344.071</ele>
        <time>2020-06-30T17:38:02Z</time>
      </trkpt>
      <trkpt lat="42.878128" lon="0.204506">
        <ele>2337.041</ele>
        <time>2020-06-30T17:38:28Z</time>
      </trkpt>
      <trkpt lat="42.878210" lon="0.204433">
        <ele>2331.015</ele>
        <time>2020-06-30T17:38:44Z</time>
      </trkpt>
      <trkpt lat="42.878305" lon="0.204414">
        <ele>2325.008</ele>
        <time>2020-06-30T17:39:04Z</time>
      </trkpt>
      <trkpt lat="42.878387" lon="0.204344">
        <ele>2327.052</ele>
        <time>2020-06-30T17:39:13Z</time>
      </trkpt>
      <trkpt lat="42.878467" lon="0.204283">
        <ele>2324.088</ele>
        <time>2020-06-30T17:39:22Z</time>
      </trkpt>
      <trkpt lat="42.878523" lon="0.204187">
        <ele>2325.056</ele>
        <time>2020-06-30T17:39:31Z</time>
      </trkpt>
      <trkpt lat="42.878603" lon="0.204117">
        <ele>2325.082</ele>
        <time>2020-06-30T17:39:40Z</time>
      </trkpt>
      <trkpt lat="42.878695" lon="0.204070">
        <ele>2325.055</ele>
        <time>2020-06-30T17:39:50Z</time>
      </trkpt>
      <trkpt lat="42.878792" lon="0.204042">
        <ele>2327.046</ele>
        <time>2020-06-30T17:39:58Z</time>
      </trkpt>
      <trkpt lat="42.878884" lon="0.204029">
        <ele>2329.044</ele>
        <time>2020-06-30T17:40:24Z</time>
      </trkpt>
      <trkpt lat="42.878947" lon="0.204119">
        <ele>2326.051</ele>
        <time>2020-06-30T17:40:48Z</time>
      </trkpt>
      <trkpt lat="42.879035" lon="0.204077">
        <ele>2324.017</ele>
        <time>2020-06-30T17:41:04Z</time>
      </trkpt>
      <trkpt lat="42.879117" lon="0.204019">
        <ele>2319.087</ele>
        <time>2020-06-30T17:41:23Z</time>
      </trkpt>
      <trkpt lat="42.879117" lon="0.204147">
        <ele>2313.015</ele>
        <time>2020-06-30T17:41:51Z</time>
      </trkpt>
      <trkpt lat="42.879183" lon="0.204233">
        <ele>2317.008</ele>
        <time>2020-06-30T17:42:06Z</time>
      </trkpt>
      <trkpt lat="42.879252" lon="0.204314">
        <ele>2304.026</ele>
        <time>2020-06-30T17:42:32Z</time>
      </trkpt>
      <trkpt lat="42.879340" lon="0.204354">
        <ele>2306.062</ele>
        <time>2020-06-30T17:42:44Z</time>
      </trkpt>
      <trkpt lat="42.879347" lon="0.204481">
        <ele>2306.090</ele>
        <time>2020-06-30T17:43:01Z</time>
      </trkpt>
      <trkpt lat="42.879376" lon="0.204605">
        <ele>2309.096</ele>
        <time>2020-06-30T17:43:16Z</time>
      </trkpt>
      <trkpt lat="42.879431" lon="0.204714">
        <ele>2304.039</ele>
        <time>2020-06-30T17:43:31Z</time>
      </trkpt>
      <trkpt lat="42.879443" lon="0.204842">
        <ele>2304.040</ele>
        <time>2020-06-30T17:43:45Z</time>
      </trkpt>
      <trkpt lat="42.879431" lon="0.204968">
        <ele>2301.078</ele>
        <time>2020-06-30T17:43:58Z</time>
      </trkpt>
      <trkpt lat="42.879504" lon="0.205046">
        <ele>2298.045</ele>
        <time>2020-06-30T17:44:11Z</time>
      </trkpt>
      <trkpt lat="42.879538" lon="0.205165">
        <ele>2300.049</ele>
        <time>2020-06-30T17:44:30Z</time>
      </trkpt>
      <trkpt lat="42.879580" lon="0.205286">
        <ele>2298.002</ele>
        <time>2020-06-30T17:44:42Z</time>
      </trkpt>
      <trkpt lat="42.879621" lon="0.205404">
        <ele>2295.022</ele>
        <time>2020-06-30T17:45:01Z</time>
      </trkpt>
      <trkpt lat="42.879648" lon="0.205530">
        <ele>2292.008</ele>
        <time>2020-06-30T17:45:10Z</time>
      </trkpt>
      <trkpt lat="42.879702" lon="0.205631">
        <ele>2294.039</ele>
        <time>2020-06-30T17:45:22Z</time>
      </trkpt>
      <trkpt lat="42.879779" lon="0.205700">
        <ele>2292.055</ele>
        <time>2020-06-30T17:45:33Z</time>
      </trkpt>
      <trkpt lat="42.879873" lon="0.205700">
        <ele>2290.033</ele>
        <time>2020-06-30T17:45:45Z</time>
      </trkpt>
      <trkpt lat="42.879960" lon="0.205666">
        <ele>2288.059</ele>
        <time>2020-06-30T17:45:58Z</time>
      </trkpt>
      <trkpt lat="42.880053" lon="0.205707">
        <ele>2289.072</ele>
        <time>2020-06-30T17:46:11Z</time>
      </trkpt>
      <trkpt lat="42.880148" lon="0.205749">
        <ele>2285.093</ele>
        <time>2020-06-30T17:46:27Z</time>
      </trkpt>
      <trkpt lat="42.880237" lon="0.205703">
        <ele>2287.081</ele>
        <time>2020-06-30T17:46:41Z</time>
      </trkpt>
      <trkpt lat="42.880340" lon="0.205708">
        <ele>2284.088</ele>
        <time>2020-06-30T17:46:53Z</time>
      </trkpt>
      <trkpt lat="42.880427" lon="0.205674">
        <ele>2287.083</ele>
        <time>2020-06-30T17:47:04Z</time>
      </trkpt>
      <trkpt lat="42.880522" lon="0.205649">
        <ele>2289.025</ele>
        <time>2020-06-30T17:47:20Z</time>
      </trkpt>
      <trkpt lat="42.880611" lon="0.205680">
        <ele>2288.017</ele>
        <time>2020-06-30T17:47:31Z</time>
      </trkpt>
      <trkpt lat="42.880699" lon="0.205716">
        <ele>2286.008</ele>
        <time>2020-06-30T17:47:43Z</time>
      </trkpt>
      <trkpt lat="42.880795" lon="0.205745">
        <ele>2283.073</ele>
        <time>2020-06-30T17:48:05Z</time>
      </trkpt>
      <trkpt lat="42.880889" lon="0.205739">
        <ele>2282.059</ele>
        <time>2020-06-30T17:48:25Z</time>
      </trkpt>
      <trkpt lat="42.880970" lon="0.205680">
        <ele>2281.087</ele>
        <time>2020-06-30T17:48:37Z</time>
      </trkpt>
      <trkpt lat="42.881045" lon="0.205611">
        <ele>2273.053</ele>
        <time>2020-06-30T17:48:52Z</time>
      </trkpt>
      <trkpt lat="42.881119" lon="0.205518">
        <ele>2276.026</ele>
        <time>2020-06-30T17:49:05Z</time>
      </trkpt>
      <trkpt lat="42.881200" lon="0.205462">
        <ele>2273.017</ele>
        <time>2020-06-30T17:49:19Z</time>
      </trkpt>
      <trkpt lat="42.881292" lon="0.205414">
        <ele>2273.035</ele>
        <time>2020-06-30T17:49:36Z</time>
      </trkpt>
      <trkpt lat="42.881382" lon="0.205378">
        <ele>2275.022</ele>
        <time>2020-06-30T17:49:49Z</time>
      </trkpt>
      <trkpt lat="42.881472" lon="0.205406">
        <ele>2278.052</ele>
        <time>2020-06-30T17:50:15Z</time>
      </trkpt>
      <trkpt lat="42.881495" lon="0.205674">
        <ele>2278.022</ele>
        <time>2020-07-01T07:00:00Z</time>
      </trkpt>
      <trkpt lat="42.881481" lon="0.205535">
        <ele>2270.062</ele>
        <time>2020-07-01T07:00:20Z</time>
      </trkpt>
      <trkpt lat="42.881434" lon="0.205430">
        <ele>2263.008</ele>
        <time>2020-07-01T07:00:41Z</time>
      </trkpt>
      <trkpt lat="42.881343" lon="0.205416">
        <ele>2258.008</ele>
        <time>2020-07-01T07:00:56Z</time>
      </trkpt>
      <trkpt lat="42.881245" lon="0.205393">
        <ele>2264.027</ele>
        <time>2020-07-01T07:01:22Z</time>
      </trkpt>
      <trkpt lat="42.881154" lon="0.205426">
        <ele>2266.044</ele>
        <time>2020-07-01T07:01:39Z</time>
      </trkpt>
      <trkpt lat="42.881127" lon="0.205552">
        <ele>2270.022</ele>
        <time>2020-07-01T07:01:53Z</time>
      </trkpt>
      <trkpt lat="42.881036" lon="0.205577">
        <ele>2269.015</ele>
        <time>2020-07-01T07:02:04Z</time>
      </trkpt>
      <trkpt lat="42.880979" lon="0.205677">
        <ele>2273.092</ele>
        <time>2020-07-01T07:02:20Z</time>
      </trkpt>
      <trkpt lat="42.880891" lon="0.205717">
        <ele>2273.072</ele>
        <time>2020-07-01T07:02:34Z</time>
      </trkpt>
      <trkpt lat="42.880795" lon="0.205726">
        <ele>2275.080</ele>
        <time>2020-07-01T07:02:51Z</time>
      </trkpt>
      <trkpt lat="42.880706" lon="0.205680">
        <ele>2277.024</ele>
        <time>2020-07-01T07:03:07Z</time>
      </trkpt>
      <trkpt lat="42.880618" lon="0.205636">
        <ele>2277.012</ele>
        <time>2020-07-01T07:03:19Z</time>
      </trkpt>
      <trkpt lat="42.880520" lon="0.205622">
        <ele>2282.032</ele>
        <time>2020-07-01T07:03:39Z</time>
      </trkpt>
      <trkpt lat="42.880437" lon="0.205678">
        <ele>2286.005</ele>
        <time>2020-07-01T07:03:59Z</time>
      </trkpt>
      <trkpt lat="42.880344" lon="0.205699">
        <ele>2283.008</ele>
        <time>2020-07-01T07:04:09Z</time>
      </trkpt>
      <trkpt lat="42.880254" lon="0.205746">
        <ele>2284.026</ele>
        <time>2020-07-01T07:04:22Z</time>
      </trkpt>
      <trkpt lat="42.880160" lon="0.205742">
        <ele>2284.063</ele>
        <time>2020-07-01T07:04:33Z</time>
      </trkpt>
      <trkpt lat="42.880078" lon="0.205677">
        <ele>2286.021</ele>
        <time>2020-07-01T07:04:52Z</time>
      </trkpt>
      <trkpt lat="42.879985" lon="0.205670">
        <ele>2286.014</ele>
        <time>2020-07-01T07:05:07Z</time>
      </trkpt>
      <trkpt lat="42.879888" lon="0.205672">
        <ele>2286.011</ele>
        <time>2020-07-01T07:05:27Z</time>
      </trkpt>
      <trkpt lat="42.879796" lon="0.205697">
        <ele>2285.071</ele>
        <time>2020-07-01T07:05:51Z</time>
      </trkpt>
      <trkpt lat="42.879730" lon="0.205608">
        <ele>2284.019</ele>
        <time>2020-07-01T07:06:07Z</time>
      </trkpt>
      <trkpt lat="42.879678" lon="0.205500">
        <ele>2279.013</ele>
        <time>2020-07-01T07:06:20Z</time>
      </trkpt>
      <trkpt lat="42.879661" lon="0.205378">
        <ele>2290.024</ele>
        <time>2020-07-01T07:06:34Z</time>
      </trkpt>
      <trkpt lat="42.879631" lon="0.205258">
        <ele>2296.004</ele>
        <time>2020-07-01T07:07:04Z</time>
      </trkpt>
      <trkpt lat="42.879592" lon="0.205139">
        <ele>2294.014</ele>
        <time>2020-07-01T07:07:16Z</time>
      </trkpt>
      <trkpt lat="42.879549" lon="0.205025">
        <ele>2293.008</ele>
        <time>2020-07-01T07:07:31Z</time>
      </trkpt>
      <trkpt lat="42.879465" lon="0.204963">
        <ele>2297.077</ele>
        <time>2020-07-01T07:08:12Z</time>
      </trkpt>
      <trkpt lat="42.879390" lon="0.204878">
        <ele>2290.054</ele>
        <time>2020-07-01T07:15:08Z</time>
      </trkpt>
      <trkpt lat="42.879382" lon="0.204752">
        <ele>2294.032</ele>
        <time>2020-07-01T07:15:45Z</time>
      </trkpt>
      <trkpt lat="42.879370" lon="0.204627">
        <ele>2300.065</ele>
        <time>2020-07-01T07:16:17Z</time>
      </trkpt>
      <trkpt lat="42.879343" lon="0.204502">
        <ele>2302.022</ele>
        <time>2020-07-01T07:16:33Z</time>
      </trkpt>
      <trkpt lat="42.879294" lon="0.204384">
        <ele>2300.082</ele>
        <time>2020-07-01T07:16:48Z</time>
      </trkpt>
      <trkpt lat="42.879260" lon="0.204267">
        <ele>2307.060</ele>
        <time>2020-07-01T07:17:18Z</time>
      </trkpt>
      <trkpt lat="42.879168" lon="0.204255">
        <ele>2305.064</ele>
        <time>2020-07-01T07:17:46Z</time>
      </trkpt>
      <trkpt lat="42.879131" lon="0.204133">
        <ele>2311.073</ele>
        <time>2020-07-01T07:18:08Z</time>
      </trkpt>
      <trkpt lat="42.879187" lon="0.204036">
        <ele>2322.085</ele>
        <time>2020-07-01T07:18:21Z</time>
      </trkpt>
      <trkpt lat="42.879122" lon="0.204124">
        <ele>2320.013</ele>
        <time>2020-07-01T07:18:39Z</time>
      </trkpt>
      <trkpt lat="42.879027" lon="0.204144">
        <ele>2322.008</ele>
        <time>2020-07-01T07:18:53Z</time>
      </trkpt>
      <trkpt lat="42.878966" lon="0.204044">
        <ele>2322.042</ele>
        <time>2020-07-01T07:19:11Z</time>
      </trkpt>
      <trkpt lat="42.878875" lon="0.204018">
        <ele>2319.039</ele>
        <time>2020-07-01T07:19:25Z</time>
      </trkpt>
      <trkpt lat="42.878785" lon="0.204032">
        <ele>2317.067</ele>
        <time>2020-07-01T07:19:33Z</time>
      </trkpt>
      <trkpt lat="42.878690" lon="0.204045">
        <ele>2316.030</ele>
        <time>2020-07-01T07:19:42Z</time>
      </trkpt>
      <trkpt lat="42.878596" lon="0.204086">
        <ele>2316.037</ele>
        <time>2020-07-01T07:19:54Z</time>
      </trkpt>
      <trkpt lat="42.878516" lon="0.204142">
        <ele>2316.027</ele>
        <time>2020-07-01T07:20:03Z</time>
      </trkpt>
      <trkpt lat="42.878469" lon="0.204249">
        <ele>2313.055</ele>
        <time>2020-07-01T07:20:15Z</time>
      </trkpt>
      <trkpt lat="42.878393" lon="0.204320">
        <ele>2307.099</ele>
        <time>2020-07-01T07:20:25Z</time>
      </trkpt>
      <trkpt lat="42.878325" lon="0.204403">
        <ele>2311.082</ele>
        <time>2020-07-01T07:20:41Z</time>
      </trkpt>
      <trkpt lat="42.878259" lon="0.204488">
        <ele>2322.043</ele>
        <time>2020-07-01T07:21:01Z</time>
      </trkpt>
      <trkpt lat="42.878181" lon="0.204428">
        <ele>2323.017</ele>
        <time>2020-07-01T07:21:19Z</time>
      </trkpt>
      <trkpt lat="42.878108" lon="0.204504">
        <ele>2332.008</ele>
        <time>2020-07-01T07:22:07Z</time>
      </trkpt>
      <trkpt lat="42.878024" lon="0.204554">
        <ele>2332.013</ele>
        <time>2020-07-01T07:22:23Z</time>
      </trkpt>
      <trkpt lat="42.877924" lon="0.204570">
        <ele>2331.060</ele>
        <time>2020-07-01T07:22:38Z</time>
      </trkpt>
      <trkpt lat="42.877834" lon="0.204594">
        <ele>2325.088</ele>
        <time>2020-07-01T07:22:46Z</time>
      </trkpt>
      <trkpt lat="42.877743" lon="0.204641">
        <ele>2321.091</ele>
        <time>2020-07-01T07:22:53Z</time>
      </trkpt>
      <trkpt lat="42.877666" lon="0.204711">
        <ele>2324.028</ele>
        <time>2020-07-01T07:23:04Z</time>
      </trkpt>
      <trkpt lat="42.877591" lon="0.204785">
        <ele>2322.068</ele>
        <time>2020-07-01T07:23:17Z</time>
      </trkpt>
      <trkpt lat="42.877557" lon="0.204905">
        <ele>2327.036</ele>
        <time>2020-07-01T07:23:35Z</time>
      </trkpt>
      <trkpt lat="42.877486" lon="0.204981">
        <ele>2328.040</ele>
        <time>2020-07-01T07:23:49Z</time>
      </trkpt>
      <trkpt lat="42.877418" lon="0.205066">
        <ele>2332.083</ele>
        <time>2020-07-01T07:24:02Z</time>
      </trkpt>
      <trkpt lat="42.877327" lon="0.205038">
        <ele>2337.025</ele>
        <time>2020-07-01T07:24:20Z</time>
      </trkpt>
      <trkpt lat="42.877237" lon="0.205060">
        <ele>2343.017</ele>
        <time>2020-07-01T07:24:34Z</time>
      </trkpt>
      <trkpt lat="42.877195" lon="0.205170">
        <ele>2341.008</ele>
        <time>2020-07-01T07:24:48Z</time>
      </trkpt>
      <trkpt lat="42.877124" lon="0.205247">
        <ele>2344.013</ele>
        <time>2020-07-01T07:25:05Z</time>
      </trkpt>
      <trkpt lat="42.877059" lon="0.205339">
        <ele>2346.020</ele>
        <time>2020-07-01T07:25:25Z</time>
      </trkpt>
      <trkpt lat="42.876997" lon="0.205429">
        <ele>2348.028</ele>
        <time>2020-07-01T07:25:56Z</time>
      </trkpt>
      <trkpt lat="42.876933" lon="0.205529">
        <ele>2348.021</ele>
        <time>2020-07-01T07:26:26Z</time>
      </trkpt>
      <trkpt lat="42.876847" lon="0.205571">
        <ele>2358.088</ele>
        <time>2020-07-01T07:27:00Z</time>
      </trkpt>
      <trkpt lat="42.876792" lon="0.205671">
        <ele>2357.028</ele>
        <time>2020-07-01T07:27:20Z</time>
      </trkpt>
      <trkpt lat="42.876693" lon="0.205681">
        <ele>2358.076</ele>
        <time>2020-07-01T07:27:30Z</time>
      </trkpt>
      <trkpt lat="42.876613" lon="0.205743">
        <ele>2356.050</ele>
        <time>2020-07-01T07:27:46Z</time>
      </trkpt>
      <trkpt lat="42.876529" lon="0.205798">
        <ele>2363.048</ele>
        <time>2020-07-01T07:28:22Z</time>
      </trkpt>
      <trkpt lat="42.876440" lon="0.205843">
        <ele>2368.061</ele>
        <time>2020-07-01T07:28:33Z</time>
      </trkpt>
      <trkpt lat="42.876358" lon="0.205896">
        <ele>2366.017</ele>
        <time>2020-07-01T07:28:47Z</time>
      </trkpt>
      <trkpt lat="42.876264" lon="0.205903">
        <ele>2374.008</ele>
        <time>2020-07-01T07:29:05Z</time>
      </trkpt>
      <trkpt lat="42.876170" lon="0.205917">
        <ele>2373.059</ele>
        <time>2020-07-01T07:29:23Z</time>
      </trkpt>
      <trkpt lat="42.876080" lon="0.205944">
        <ele>2375.096</ele>
        <time>2020-07-01T07:29:43Z</time>
      </trkpt>
      <trkpt lat="42.876015" lon="0.205850">
        <ele>2379.054</ele>
        <time>2020-07-01T07:30:01Z</time>
      </trkpt>
      <trkpt lat="42.875961" lon="0.205747">
        <ele>2380.097</ele>
        <time>2020-07-01T07:30:19Z</time>
      </trkpt>
      <trkpt lat="42.875902" lon="0.205644">
        <ele>2383.094</ele>
        <time>2020-07-01T07:30:31Z</time>
      </trkpt>
      <trkpt lat="42.875852" lon="0.205538">
        <ele>2384.084</ele>
        <time>2020-07-01T07:30:45Z</time>
      </trkpt>
      <trkpt lat="42.875768" lon="0.205490">
        <ele>2384.042</ele>
        <time>2020-07-01T07:31:00Z</time>
      </trkpt>
      <trkpt lat="42.875674" lon="0.205454">
        <ele>2383.056</ele>
        <time>2020-07-01T07:31:12Z</time>
      </trkpt>
      <trkpt lat="42.875608" lon="0.205370">
        <ele>2383.039</ele>
        <time>2020-07-01T07:31:27Z</time>
      </trkpt>
      <trkpt lat="42.875537" lon="0.205290">
        <ele>2386.001</ele>
        <time>2020-07-01T07:31:39Z</time>
      </trkpt>
      <trkpt lat="42.875461" lon="0.205369">
        <ele>2385.021</ele>
        <time>2020-07-01T07:31:50Z</time>
      </trkpt>
      <trkpt lat="42.875378" lon="0.205420">
        <ele>2383.008</ele>
        <time>2020-07-01T07:32:00Z</time>
      </trkpt>
      <trkpt lat="42.875298" lon="0.205481">
        <ele>2382.028</ele>
        <time>2020-07-01T07:32:13Z</time>
      </trkpt>
      <trkpt lat="42.875216" lon="0.205537">
        <ele>2383.015</ele>
        <time>2020-07-01T07:33:02Z</time>
      </trkpt>
      <trkpt lat="42.875123" lon="0.205531">
        <ele>2381.043</ele>
        <time>2020-07-01T07:33:17Z</time>
      </trkpt>
      <trkpt lat="42.875038" lon="0.205583">
        <ele>2381.046</ele>
        <time>2020-07-01T07:33:33Z</time>
      </trkpt>
      <trkpt lat="42.874945" lon="0.205554">
        <ele>2382.063</ele>
        <time>2020-07-01T07:33:48Z</time>
      </trkpt>
      <trkpt lat="42.874854" lon="0.205508">
        <ele>2383.093</ele>
        <time>2020-07-01T07:34:02Z</time>
      </trkpt>
      <trkpt lat="42.874759" lon="0.205469">
        <ele>2383.081</ele>
        <time>2020-07-01T07:34:15Z</time>
      </trkpt>
      <trkpt lat="42.874686" lon="0.205390">
        <ele>2382.055</ele>
        <time>2020-07-01T07:34:31Z</time>
      </trkpt>
      <trkpt lat="42.874623" lon="0.205291">
        <ele>2387.071</ele>
        <time>2020-07-01T07:35:10Z</time>
      </trkpt>
      <trkpt lat="42.874530" lon="0.205272">
        <ele>2386.041</ele>
        <time>2020-07-01T07:35:22Z</time>
      </trkpt>
      <trkpt lat="42.874449" lon="0.205215">
        <ele>2390.015</ele>
        <time>2020-07-01T07:35:42Z</time>
      </trkpt>
      <trkpt lat="42.874507" lon="0.205110">
        <ele>2393.008</ele>
        <time>2020-07-01T07:35:59Z</time>
      </trkpt>
      <trkpt lat="42.874415" lon="0.205090">
        <ele>2398.052</ele>
        <time>2020-07-01T07:36:38Z</time>
      </trkpt>
      <trkpt lat="42.874323" lon="0.205084">
        <ele>2398.049</ele>
        <time>2020-07-01T07:36:54Z</time>
      </trkpt>
      <trkpt lat="42.874255" lon="0.205166">
        <ele>2397.087</ele>
        <time>2020-07-01T07:37:12Z</time>
      </trkpt>
      <trkpt lat="42.874227" lon="0.205290">
        <ele>2398.040</ele>
        <time>2020-07-01T07:37:26Z</time>
      </trkpt>
      <trkpt lat="42.874166" lon="0.205386">
        <ele>2404.037</ele>
        <time>2020-07-01T07:39:38Z</time>
      </trkpt>
      <trkpt lat="42.874092" lon="0.205454">
        <ele>2410.057</ele>
        <time>2020-07-01T07:40:17Z</time>
      </trkpt>
      <trkpt lat="42.874003" lon="0.205478">
        <ele>2414.095</ele>
        <time>2020-07-01T07:40:50Z</time>
      </trkpt>
      <trkpt lat="42.873920" lon="0.205530">
        <ele>2419.069</ele>
        <time>2020-07-01T07:41:03Z</time>
      </trkpt>
      <trkpt lat="42.873834" lon="0.205566">
        <ele>2417.038</ele>
        <time>2020-07-01T07:41:12Z</time>
      </trkpt>
      <trkpt lat="42.873742" lon="0.205567">
        <ele>2418.070</ele>
        <time>2020-07-01T07:41:22Z</time>
      </trkpt>
      <trkpt lat="42.873650" lon="0.205602">
        <ele>2418.017</ele>
        <time>2020-07-01T07:41:35Z</time>
      </trkpt>
      <trkpt lat="42.873600" lon="0.205492">
        <ele>2421.008</ele>
        <time>2020-07-01T07:41:48Z</time>
      </trkpt>
      <trkpt lat="42.873536" lon="0.205391">
        <ele>2426.018</ele>
        <time>2020-07-01T07:42:13Z</time>
      </trkpt>
      <trkpt lat="42.873449" lon="0.205345">
        <ele>2422.085</ele>
        <time>2020-07-01T07:42:23Z</time>
      </trkpt>
      <trkpt lat="42.873360" lon="0.205395">
        <ele>2419.043</ele>
        <time>2020-07-01T07:42:37Z</time>
      </trkpt>
      <trkpt lat="42.873287" lon="0.205468">
        <ele>2420.046</ele>
        <time>2020-07-01T07:42:50Z</time>
      </trkpt>
      <trkpt lat="42.873202" lon="0.205422">
        <ele>2426.073</ele>
        <time>2020-07-01T07:43:26Z</time>
      </trkpt>
      <trkpt lat="42.873152" lon="0.205319">
        <ele>2436.053</ele>
        <time>2020-07-01T07:44:50Z</time>
      </trkpt>
      <trkpt lat="42.873160" lon="0.205197">
        <ele>2437.021</ele>
        <time>2020-07-01T07:45:06Z</time>
      </trkpt>
      <trkpt lat="42.873078" lon="0.205122">
        <ele>2439.045</ele>
        <time>2020-07-01T07:45:24Z</time>
      </trkpt>
      <trkpt lat="42.873022" lon="0.205021">
        <ele>2441.055</ele>
        <time>2020-07-01T07:45:34Z</time>
      </trkpt>
      <trkpt lat="42.872922" lon="0.205021">
        <ele>2442.007</ele>
        <time>2020-07-01T07:46:43Z</time>
      </trkpt>
      <trkpt lat="42.872879" lon="0.205134">
        <ele>2441.017</ele>
        <time>2020-07-01T07:47:03Z</time>
      </trkpt>
      <trkpt lat="42.872934" lon="0.205235">
        <ele>2449.008</ele>
        <time>2020-07-01T07:47:20Z</time>
      </trkpt>
      <trkpt lat="42.872865" lon="0.205324">
        <ele>2451.040</ele>
        <time>2020-07-01T07:47:46Z</time>
      </trkpt>
      <trkpt lat="42.872807" lon="0.205427">
        <ele>2460.077</ele>
        <time>2020-07-01T07:48:28Z</time>
      </trkpt>
      <trkpt lat="42.872736" lon="0.205512">
        <ele>2456.015</ele>
        <time>2020-07-01T07:48:42Z</time>
      </trkpt>
      <trkpt lat="42.872650" lon="0.205474">
        <ele>2455.068</ele>
        <time>2020-07-01T07:48:54Z</time>
      </trkpt>
      <trkpt lat="42.872572" lon="0.205398">
        <ele>2456.035</ele>
        <time>2020-07-01T07:49:05Z</time>
      </trkpt>
      <trkpt lat="42.872482" lon="0.205344">
        <ele>2451.045</ele>
        <time>2020-07-01T07:49:14Z</time>
      </trkpt>
      <trkpt lat="42.872389" lon="0.205354">
        <ele>2447.093</ele>
        <time>2020-07-01T07:49:25Z</time>
      </trkpt>
      <trkpt lat="42.872308" lon="0.205296">
        <ele>2449.017</ele>
        <time>2020-07-01T07:49:36Z</time>
      </trkpt>
      <trkpt lat="42.872241" lon="0.205203">
        <ele>2450.099</ele>
        <time>2020-07-01T07:49:44Z</time>
      </trkpt>
      <trkpt lat="42.872152" lon="0.205242">
        <ele>2448.007</ele>
        <time>2020-07-01T07:49:57Z</time>
      </trkpt>
      <trkpt lat="42.872063" lon="0.205264">
        <ele>2450.027</ele>
        <time>2020-07-01T07:50:07Z</time>
      </trkpt>
      <trkpt lat="42.871966" lon="0.205304">
        <ele>2450.008</ele>
        <time>2020-07-01T07:50:16Z</time>
      </trkpt>
      <trkpt lat="42.871881" lon="0.205354">
        <ele>2451.034</ele>
        <time>2020-07-01T07:50:27Z</time>
      </trkpt>
      <trkpt lat="42.871793" lon="0.205399">
        <ele>2458.011</ele>
        <time>2020-07-01T07:50:39Z</time>
      </trkpt>
      <trkpt lat="42.871706" lon="0.205345">
        <ele>2464.079</ele>
        <time>2020-07-01T07:50:51Z</time>
      </trkpt>
      <trkpt lat="42.871630" lon="0.205267">
        <ele>2465.032</ele>
        <time>2020-07-01T07:51:03Z</time>
      </trkpt>
      <trkpt lat="42.871533" lon="0.205271">
        <ele>2462.059</ele>
        <time>2020-07-01T07:51:24Z</time>
      </trkpt>
      <trkpt lat="42.871441" lon="0.205329">
        <ele>2461.029</ele>
        <time>2020-07-01T07:51:33Z</time>
      </trkpt>
      <trkpt lat="42.871359" lon="0.205408">
        <ele>2460.067</ele>
        <time>2020-07-01T07:51:43Z</time>
      </trkpt>
      <trkpt lat="42.871268" lon="0.205408">
        <ele>2458.091</ele>
        <time>2020-07-01T07:51:52Z</time>
      </trkpt>
      <trkpt lat="42.871175" lon="0.205396">
        <ele>2458.029</ele>
        <time>2020-07-01T07:52:00Z</time>
      </trkpt>
      <trkpt lat="42.871080" lon="0.205375">
        <ele>2456.000</ele>
        <time>2020-07-01T07:52:10Z</time>
      </trkpt>
      <trkpt lat="42.870990" lon="0.205410">
        <ele>2462.020</ele>
        <time>2020-07-01T07:52:21Z</time>
      </trkpt>
      <trkpt lat="42.870898" lon="0.205424">
        <ele>2465.008</ele>
        <time>2020-07-01T07:52:34Z</time>
      </trkpt>
      <trkpt lat="42.870820" lon="0.205515">
        <ele>2462.067</ele>
        <time>2020-07-01T07:52:58Z</time>
      </trkpt>
      <trkpt lat="42.870759" lon="0.205606">
        <ele>2460.094</ele>
        <time>2020-07-01T07:53:05Z</time>
      </trkpt>
      <trkpt lat="42.870698" lon="0.205707">
        <ele>2458.012</ele>
        <time>2020-07-01T07:53:18Z</time>
      </trkpt>
      <trkpt lat="42.870625" lon="0.205789">
        <ele>2449.035</ele>
        <time>2020-07-01T07:53:50Z</time>
      </trkpt>
      <trkpt lat="42.870534" lon="0.205793">
        <ele>2449.032</ele>
        <time>2020-07-01T07:54:31Z</time>
      </trkpt>
      <trkpt lat="42.870434" lon="0.205811">
        <ele>2451.052</ele>
        <time>2020-07-01T07:55:08Z</time>
      </trkpt>
      <trkpt lat="42.870347" lon="0.205859">
        <ele>2451.030</ele>
        <time>2020-07-01T07:55:22Z</time>
      </trkpt>
      <trkpt lat="42.870312" lon="0.205974">
        <ele>2455.084</ele>
        <time>2020-07-01T07:55:37Z</time>
      </trkpt>
      <trkpt lat="42.870336" lon="0.206100">
        <ele>2460.012</ele>
        <time>2020-07-01T07:55:54Z</time>
      </trkpt>
      <trkpt lat="42.870274" lon="0.206191">
        <ele>2464.032</ele>
        <time>2020-07-01T07:56:06Z</time>
      </trkpt>
      <trkpt lat="42.870197" lon="0.206268">
        <ele>2462.005</ele>
        <time>2020-07-01T07:56:16Z</time>
      </trkpt>
      <trkpt lat="42.870138" lon="0.206362">
        <ele>2455.008</ele>
        <time>2020-07-01T07:56:27Z</time>
      </trkpt>
      <trkpt lat="42.870071" lon="0.206455">
        <ele>2460.076</ele>
        <time>2020-07-01T07:56:52Z</time>
      </trkpt>
      <trkpt lat="42.869995" lon="0.206573">
        <ele>2458.083</ele>
        <time>2020-07-01T07:57:01Z</time>
      </trkpt>
      <trkpt lat="42.869915" lon="0.206639">
        <ele>2455.071</ele>
        <time>2020-07-01T07:57:14Z</time>
      </trkpt>
      <trkpt lat="42.869833" lon="0.206697">
        <ele>2453.094</ele>
        <time>2020-07-01T07:57:27Z</time>
      </trkpt>
      <trkpt lat="42.869783" lon="0.206806">
        <ele>2453.061</ele>
        <time>2020-07-01T07:57:41Z</time>
      </trkpt>
      <trkpt lat="42.869731" lon="0.206915">
        <ele>2453.091</ele>
        <time>2020-07-01T07:57:53Z</time>
      </trkpt>
      <trkpt lat="42.869670" lon="0.207008">
        <ele>2451.029</ele>
        <time>2020-07-01T07:58:03Z</time>
      </trkpt>
      <trkpt lat="42.869583" lon="0.207049">
        <ele>2454.053</ele>
        <time>2020-07-01T07:58:17Z</time>
      </trkpt>
      <trkpt lat="42.869492" lon="0.207064">
        <ele>2456.043</ele>
        <time>2020-07-01T07:58:30Z</time>
      </trkpt>
      <trkpt lat="42.869413" lon="0.206998">
        <ele>2460.064</ele>
        <time>2020-07-01T07:58:44Z</time>
      </trkpt>
      <trkpt lat="42.869353" lon="0.206905">
        <ele>2462.010</ele>
        <time>2020-07-01T07:59:06Z</time>
      </trkpt>
      <trkpt lat="42.869271" lon="0.206846">
        <ele>2470.008</ele>
        <time>2020-07-01T07:59:44Z</time>
      </trkpt>
      <trkpt lat="42.869180" lon="0.206838">
        <ele>2473.059</ele>
        <time>2020-07-01T08:00:03Z</time>
      </trkpt>
      <trkpt lat="42.869092" lon="0.206810">
        <ele>2471.046</ele>
        <time>2020-07-01T08:00:20Z</time>
      </trkpt>
      <trkpt lat="42.869003" lon="0.206771">
        <ele>2481.024</ele>
        <time>2020-07-01T08:01:15Z</time>
      </trkpt>
      <trkpt lat="42.868924" lon="0.206711">
        <ele>2483.057</ele>
        <time>2020-07-01T08:01:42Z</time>
      </trkpt>
      <trkpt lat="42.868882" lon="0.206824">
        <ele>2482.034</ele>
        <time>2020-07-01T08:02:01Z</time>
      </trkpt>
      <trkpt lat="42.868831" lon="0.206928">
        <ele>2485.044</ele>
        <time>2020-07-01T08:02:21Z</time>
      </trkpt>
      <trkpt lat="42.868774" lon="0.207028">
        <ele>2488.052</ele>
        <time>2020-07-01T08:02:41Z</time>
      </trkpt>
      <trkpt lat="42.868695" lon="0.207090">
        <ele>2494.026</ele>
        <time>2020-07-01T08:03:12Z</time>
      </trkpt>
      <trkpt lat="42.868615" lon="0.207148">
        <ele>2499.019</ele>
        <time>2020-07-01T08:03:52Z</time>
      </trkpt>
      <trkpt lat="42.868561" lon="0.207048">
        <ele>2502.009</ele>
        <time>2020-07-01T08:04:09Z</time>
      </trkpt>
      <trkpt lat="42.868483" lon="0.207112">
        <ele>2505.019</ele>
        <time>2020-07-01T08:04:51Z</time>
      </trkpt>
      <trkpt lat="42.868396" lon="0.207166">
        <ele>2511.008</ele>
        <time>2020-07-01T08:11:49Z</time>
      </trkpt>
      <trkpt lat="42.868293" lon="0.207142">
        <ele>2513.056</ele>
        <time>2020-07-01T08:12:00Z</time>
      </trkpt>
      <trkpt lat="42.868255" lon="0.207255">
        <ele>2517.013</ele>
        <time>2020-07-01T08:12:21Z</time>
      </trkpt>
      <trkpt lat="42.868165" lon="0.207241">
        <ele>2520.061</ele>
        <time>2020-07-01T08:12:59Z</time>
      </trkpt>
      <trkpt lat="42.868075" lon="0.207217">
        <ele>2520.024</ele>
        <time>2020-07-01T08:13:09Z</time>
      </trkpt>
      <trkpt lat="42.867995" lon="0.207150">
        <ele>2520.011</ele>
        <time>2020-07-01T08:13:20Z</time>
      </trkpt>
      <trkpt lat="42.867912" lon="0.207080">
        <ele>2521.031</ele>
        <time>2020-07-01T08:13:29Z</time>
      </trkpt>
      <trkpt lat="42.867835" lon="0.207015">
        <ele>2517.079</ele>
        <time>2020-07-01T08:13:45Z</time>
      </trkpt>
      <trkpt lat="42.867746" lon="0.207049">
        <ele>2520.013</ele>
        <time>2020-07-01T08:14:21Z</time>
      </trkpt>
      <trkpt lat="42.867660" lon="0.206998">
        <ele>2519.032</ele>
        <time>2020-07-01T08:14:41Z</time>
      </trkpt>
      <trkpt lat="42.867569" lon="0.206994">
        <ele>2525.092</ele>
        <time>2020-07-01T08:15:07Z</time>
      </trkpt>
      <trkpt lat="42.867480" lon="0.206967">
        <ele>2531.011</ele>
        <time>2020-07-01T08:15:33Z</time>
      </trkpt>
      <trkpt lat="42.867391" lon="0.206951">
        <ele>2537.008</ele>
        <time>2020-07-01T08:16:13Z</time>
      </trkpt>
      <trkpt lat="42.867316" lon="0.206882">
        <ele>2543.068</ele>
        <time>2020-07-01T08:16:37Z</time>
      </trkpt>
      <trkpt lat="42.867241" lon="0.206814">
        <ele>2552.035</ele>
        <time>2020-07-01T08:17:45Z</time>
      </trkpt>
      <trkpt lat="42.867262" lon="0.206695">
        <ele>2558.063</ele>
        <time>2020-07-01T08:18:07Z</time>
      </trkpt>
      <trkpt lat="42.867265" lon="0.206563">
        <ele>2557.056</ele>
        <time>2020-07-01T08:18:14Z</time>
      </trkpt>
      <trkpt lat="42.867205" lon="0.206461">
        <ele>2557.033</ele>
        <time>2020-07-01T08:18:24Z</time>
      </trkpt>
      <trkpt lat="42.867182" lon="0.206334">
        <ele>2562.023</ele>
        <time>2020-07-01T08:18:45Z</time>
      </trkpt>
      <trkpt lat="42.867179" lon="0.206208">
        <ele>2563.071</ele>
        <time>2020-07-01T08:19:18Z</time>
      </trkpt>
      <trkpt lat="42.867160" lon="0.206086">
        <ele>2561.065</ele>
        <time>2020-07-01T08:19:34Z</time>
      </trkpt>
      <trkpt lat="42.867207" lon="0.205964">
        <ele>2566.061</ele>
        <time>2020-07-01T08:19:55Z</time>
      </trkpt>
      <trkpt lat="42.867144" lon="0.205867">
        <ele>2571.021</ele>
        <time>2020-07-01T08:26:21Z</time>
      </trkpt>
      <trkpt lat="42.867161" lon="0.205741">
        <ele>2571.013</ele>
        <time>2020-07-01T08:27:17Z</time>
      </trkpt>
      <trkpt lat="42.867110" lon="0.205625">
        <ele>2574.008</ele>
        <time>2020-07-01T08:27:28Z</time>
      </trkpt>
      <trkpt lat="42.867075" lon="0.205510">
        <ele>2572.091</ele>
        <time>2020-07-01T08:27:38Z</time>
      </trkpt>
      <trkpt lat="42.867065" lon="0.205382">
        <ele>2579.038</ele>
        <time>2020-07-01T08:27:50Z</time>
      </trkpt>
      <trkpt lat="42.867033" lon="0.205266">
        <ele>2582.086</ele>
        <time>2020-07-01T08:28:04Z</time>
      </trkpt>
      <trkpt lat="42.867014" lon="0.205143">
        <ele>2583.089</ele>
        <time>2020-07-01T08:28:21Z</time>
      </trkpt>
      <trkpt lat="42.866991" lon="0.205023">
        <ele>2586.016</ele>
        <time>2020-07-01T08:28:38Z</time>
      </trkpt>
      <trkpt lat="42.866988" lon="0.204900">
        <ele>2587.026</ele>
        <time>2020-07-01T08:29:02Z</time>
      </trkpt>
      <trkpt lat="42.867008" lon="0.204775">
        <ele>2590.034</ele>
        <time>2020-07-01T08:29:26Z</time>
      </trkpt>
      <trkpt lat="42.866959" lon="0.204658">
        <ele>2594.078</ele>
        <time>2020-07-01T08:29:44Z</time>
      </trkpt>
      <trkpt lat="42.866961" lon="0.204534">
        <ele>2593.035</ele>
        <time>2020-07-01T08:30:27Z</time>
      </trkpt>
      <trkpt lat="42.866981" lon="0.204412">
        <ele>2597.086</ele>
        <time>2020-07-01T08:30:42Z</time>
      </trkpt>
      <trkpt lat="42.866992" lon="0.204284">
        <ele>2597.014</ele>
        <time>2020-07-01T08:31:09Z</time>
      </trkpt>
      <trkpt lat="42.867000" lon="0.204162">
        <ele>2603.008</ele>
        <time>2020-07-01T08:31:23Z</time>
      </trkpt>
      <trkpt lat="42.866991" lon="0.204035">
        <ele>2603.088</ele>
        <time>2020-07-01T08:31:34Z</time>
      </trkpt>
      <trkpt lat="42.866953" lon="0.203922">
        <ele>2605.075</ele>
        <time>2020-07-01T08:31:48Z</time>
      </trkpt>
      <trkpt lat="42.866926" lon="0.203795">
        <ele>2611.083</ele>
        <time>2020-07-01T08:32:06Z</time>
      </trkpt>
      <trkpt lat="42.866881" lon="0.203687">
        <ele>2612.016</ele>
        <time>2020-07-01T08:32:17Z</time>
      </trkpt>
      <trkpt lat="42.866873" lon="0.203562">
        <ele>2618.063</ele>
        <time>2020-07-01T08:32:31Z</time>
      </trkpt>
      <trkpt lat="42.866841" lon="0.203441">
        <ele>2618.033</ele>
        <time>2020-07-01T08:32:56Z</time>
      </trkpt>
      <trkpt lat="42.866786" lon="0.203342">
        <ele>2622.031</ele>
        <time>2020-07-01T08:33:15Z</time>
      </trkpt>
      <trkpt lat="42.866786" lon="0.203210">
        <ele>2622.085</ele>
        <time>2020-07-01T08:33:47Z</time>
      </trkpt>
      <trkpt lat="42.866773" lon="0.203087">
        <ele>2622.043</ele>
        <time>2020-07-01T08:34:35Z</time>
      </trkpt>
      <trkpt lat="42.866832" lon="0.202994">
        <ele>2625.064</ele>
        <time>2020-07-01T08:35:13Z</time>
      </trkpt>
      <trkpt lat="42.866841" lon="0.202869">
        <ele>2626.010</ele>
        <time>2020-07-01T08:35:26Z</time>
      </trkpt>
      <trkpt lat="42.866864" lon="0.202748">
        <ele>2632.008</ele>
        <time>2020-07-01T08:35:39Z</time>
      </trkpt>
      <trkpt lat="42.866933" lon="0.202666">
        <ele>2634.059</ele>
        <time>2020-07-01T08:37:29Z</time>
      </trkpt>
      <trkpt lat="42.866948" lon="0.202541">
        <ele>2649.016</ele>
        <time>2020-07-01T08:38:03Z</time>
      </trkpt>
      <trkpt lat="42.867022" lon="0.202469">
        <ele>2665.074</ele>
        <time>2020-07-01T08:38:23Z</time>
      </trkpt>
      <trkpt lat="42.867005" lon="0.202338">
        <ele>2667.027</ele>
        <time>2020-07-01T08:39:09Z</time>
      </trkpt>
      <trkpt lat="42.866986" lon="0.202210">
        <ele>2669.094</ele>
        <time>2020-07-01T08:39:23Z</time>
      </trkpt>
      <trkpt lat="42.866940" lon="0.202102">
        <ele>2673.014</ele>
        <time>2020-07-01T08:39:38Z</time>
      </trkpt>
      <trkpt lat="42.866907" lon="0.201987">
        <ele>2677.042</ele>
        <time>2020-07-01T08:40:15Z</time>
      </trkpt>
      <trkpt lat="42.866826" lon="0.201922">
        <ele>2679.096</ele>
        <time>2020-07-01T08:40:28Z</time>
      </trkpt>
      <trkpt lat="42.866767" lon="0.201826">
        <ele>2680.052</ele>
        <time>2020-07-01T08:40:38Z</time>
      </trkpt>
      <trkpt lat="42.866856" lon="0.201804">
        <ele>2688.053</ele>
        <time>2020-07-01T08:40:58Z</time>
      </trkpt>
      <trkpt lat="42.866794" lon="0.201708">
        <ele>2691.008</ele>
        <time>2020-07-01T08:43:38Z</time>
      </trkpt>
      <trkpt lat="42.866705" lon="0.201670">
        <ele>2693.008</ele>
        <time>2020-07-01T08:43:51Z</time>
      </trkpt>
      <trkpt lat="42.866626" lon="0.201609">
        <ele>2698.030</ele>
        <time>2020-07-01T08:44:33Z</time>
      </trkpt>
      <trkpt lat="42.866579" lon="0.201503">
        <ele>2700.087</ele>
        <time>2020-07-01T08:44:42Z</time>
      </trkpt>
      <trkpt lat="42.866499" lon="0.201442">
        <ele>2698.065</ele>
        <time>2020-07-01T08:44:55Z</time>
      </trkpt>
      <trkpt lat="42.866485" lon="0.201317">
        <ele>2698.068</ele>
        <time>2020-07-01T08:45:20Z</time>
      </trkpt>
      <trkpt lat="42.866488" lon="0.201190">
        <ele>2715.095</ele>
        <time>2020-07-01T08:45:47Z</time>
      </trkpt>
      <trkpt lat="42.866431" lon="0.201054">
        <ele>2716.055</ele>
        <time>2020-07-01T08:45:58Z</time>
      </trkpt>
      <trkpt lat="42.866341" lon="0.201028">
        <ele>2716.013</ele>
        <time>2020-07-01T08:46:19Z</time>
      </trkpt>
      <trkpt lat="42.866261" lon="0.200966">
        <ele>2718.077</ele>
        <time>2020-07-01T08:46:41Z</time>
      </trkpt>
      <trkpt lat="42.866281" lon="0.200839">
        <ele>2719.046</ele>
        <time>2020-07-01T08:47:39Z</time>
      </trkpt>
      <trkpt lat="42.866273" lon="0.200709">
        <ele>2725.088</ele>
        <time>2020-07-01T08:49:33Z</time>
      </trkpt>
      <trkpt lat="42.866239" lon="0.200596">
        <ele>2731.016</ele>
        <time>2020-07-01T08:50:01Z</time>
      </trkpt>
      <trkpt lat="42.866173" lon="0.200488">
        <ele>2734.008</ele>
        <time>2020-07-01T08:51:35Z</time>
      </trkpt>
      <trkpt lat="42.866134" lon="0.200372">
        <ele>2743.059</ele>
        <time>2020-07-01T08:51:42Z</time>
      </trkpt>
      <trkpt lat="42.866128" lon="0.200250">
        <ele>2750.086</ele>
        <time>2020-07-01T08:52:26Z</time>
      </trkpt>
      <trkpt lat="42.866059" lon="0.200340">
        <ele>2763.034</ele>
        <time>2020-07-01T08:55:04Z</time>
      </trkpt>
      <trkpt lat="42.866005" lon="0.200441">
        <ele>2764.087</ele>
        <time>2020-07-01T08:55:21Z</time>
      </trkpt>
      <trkpt lat="42.865950" lon="0.200549">
        <ele>2767.044</ele>
        <time>2020-07-01T08:55:33Z</time>
      </trkpt>
      <trkpt lat="42.865899" lon="0.200668">
        <ele>2767.084</ele>
        <time>2020-07-01T08:55:47Z</time>
      </trkpt>
      <trkpt lat="42.865987" lon="0.200643">
        <ele>2767.062</ele>
        <time>2020-07-01T09:02:14Z</time>
      </trkpt>
      <trkpt lat="42.866037" lon="0.200522">
        <ele>2761.016</ele>
        <time>2020-07-01T09:02:41Z</time>
      </trkpt>
      <trkpt lat="42.865972" lon="0.200435">
        <ele>2757.089</ele>
        <time>2020-07-01T09:04:43Z</time>
      </trkpt>
      <trkpt lat="42.865960" lon="0.200309">
        <ele>2746.006</ele>
        <time>2020-07-01T09:05:24Z</time>
      </trkpt>
      <trkpt lat="42.865999" lon="0.200196">
        <ele>2732.026</ele>
        <time>2020-07-01T09:09:04Z</time>
      </trkpt>
      <trkpt lat="42.866064" lon="0.200111">
        <ele>2721.008</ele>
        <time>2020-07-01T09:11:18Z</time>
      </trkpt>
      <trkpt lat="42.866105" lon="0.199997">
        <ele>2724.043</ele>
        <time>2020-07-01T09:11:37Z</time>
      </trkpt>
      <trkpt lat="42.866186" lon="0.200057">
        <ele>2718.070</ele>
        <time>2020-07-01T09:12:09Z</time>
      </trkpt>
      <trkpt lat="42.866201" lon="0.200177">
        <ele>2727.028</ele>
        <time>2020-07-01T09:16:10Z</time>
      </trkpt>
      <trkpt lat="42.866290" lon="0.200203">
        <ele>2724.011</ele>
        <time>2020-07-01T09:17:04Z</time>
      </trkpt>
      <trkpt lat="42.866278" lon="0.200329">
        <ele>2714.038</ele>
        <time>2020-07-01T09:18:44Z</time>
      </trkpt>
      <trkpt lat="42.866304" lon="0.200450">
        <ele>2713.018</ele>
        <time>2020-07-01T09:19:03Z</time>
      </trkpt>
      <trkpt lat="42.866281" lon="0.200581">
        <ele>2713.096</ele>
        <time>2020-07-01T09:19:15Z</time>
      </trkpt>
      <trkpt lat="42.866293" lon="0.200712">
        <ele>2712.010</ele>
        <time>2020-07-01T09:19:39Z</time>
      </trkpt>
      <trkpt lat="42.866353" lon="0.200808">
        <ele>2710.085</ele>
        <time>2020-07-01T09:19:51Z</time>
      </trkpt>
      <trkpt lat="42.866405" lon="0.200912">
        <ele>2709.089</ele>
        <time>2020-07-01T09:20:04Z</time>
      </trkpt>
      <trkpt lat="42.866426" lon="0.201042">
        <ele>2709.017</ele>
        <time>2020-07-01T09:20:13Z</time>
      </trkpt>
      <trkpt lat="42.866487" lon="0.201143">
        <ele>2707.008</ele>
        <time>2020-07-01T09:20:25Z</time>
      </trkpt>
      <trkpt lat="42.866534" lon="0.201252">
        <ele>2701.033</ele>
        <time>2020-07-01T09:21:10Z</time>
      </trkpt>
      <trkpt lat="42.866551" lon="0.201381">
        <ele>2698.090</ele>
        <time>2020-07-01T09:21:43Z</time>
      </trkpt>
      <trkpt lat="42.866592" lon="0.201502">
        <ele>2697.038</ele>
        <time>2020-07-01T09:22:00Z</time>
      </trkpt>
      <trkpt lat="42.866655" lon="0.201590">
        <ele>2696.081</ele>
        <time>2020-07-01T09:22:11Z</time>
      </trkpt>
      <trkpt lat="42.866732" lon="0.201656">
        <ele>2691.038</ele>
        <time>2020-07-01T09:22:33Z</time>
      </trkpt>
      <trkpt lat="42.866813" lon="0.201727">
        <ele>2692.088</ele>
        <time>2020-07-01T09:22:42Z</time>
      </trkpt>
      <trkpt lat="42.866893" lon="0.201793">
        <ele>2692.086</ele>
        <time>2020-07-01T09:22:49Z</time>
      </trkpt>
      <trkpt lat="42.866980" lon="0.201842">
        <ele>2690.030</ele>
        <time>2020-07-01T09:23:14Z</time>
      </trkpt>
      <trkpt lat="42.867065" lon="0.201920">
        <ele>2689.019</ele>
        <time>2020-07-01T09:23:22Z</time>
      </trkpt>
      <trkpt lat="42.867153" lon="0.201958">
        <ele>2690.009</ele>
        <time>2020-07-01T09:23:32Z</time>
      </trkpt>
      <trkpt lat="42.867229" lon="0.202023">
        <ele>2685.019</ele>
        <time>2020-07-01T09:24:18Z</time>
      </trkpt>
      <trkpt lat="42.867202" lon="0.202152">
        <ele>2681.008</ele>
        <time>2020-07-01T09:25:55Z</time>
      </trkpt>
      <trkpt lat="42.867224" lon="0.202284">
        <ele>2679.036</ele>
        <time>2020-07-01T09:26:14Z</time>
      </trkpt>
      <trkpt lat="42.867240" lon="0.202411">
        <ele>2679.043</ele>
        <time>2020-07-01T09:26:32Z</time>
      </trkpt>
      <trkpt lat="42.867190" lon="0.202519">
        <ele>2672.021</ele>
        <time>2020-07-01T09:27:06Z</time>
      </trkpt>
      <trkpt lat="42.867172" lon="0.202644">
        <ele>2673.024</ele>
        <time>2020-07-01T09:27:19Z</time>
      </trkpt>
      <trkpt lat="42.867160" lon="0.202777">
        <ele>2663.091</ele>
        <time>2020-07-01T09:28:09Z</time>
      </trkpt>
      <trkpt lat="42.867101" lon="0.202878">
        <ele>2655.081</ele>
        <time>2020-07-01T09:28:25Z</time>
      </trkpt>
      <trkpt lat="42.867068" lon="0.203003">
        <ele>2654.039</ele>
        <time>2020-07-01T09:28:36Z</time>
      </trkpt>
      <trkpt lat="42.867043" lon="0.203125">
        <ele>2648.033</ele>
        <time>2020-07-01T09:29:02Z</time>
      </trkpt>
      <trkpt lat="42.867131" lon="0.203169">
        <ele>2652.042</ele>
        <time>2020-07-01T09:29:46Z</time>
      </trkpt>
      <trkpt lat="42.867164" lon="0.203289">
        <ele>2648.022</ele>
        <time>2020-07-01T09:30:04Z</time>
      </trkpt>
      <trkpt lat="42.867146" lon="0.203414">
        <ele>2646.014</ele>
        <time>2020-07-01T09:30:20Z</time>
      </trkpt>
      <trkpt lat="42.867148" lon="0.203541">
        <ele>2644.008</ele>
        <time>2020-07-01T09:30:37Z</time>
      </trkpt>
      <trkpt lat="42.867156" lon="0.203664">
        <ele>2640.079</ele>
        <time>2020-07-01T09:30:53Z</time>
      </trkpt>
      <trkpt lat="42.867206" lon="0.203776">
        <ele>2633.036</ele>
        <time>2020-07-01T09:31:14Z</time>
      </trkpt>
      <trkpt lat="42.867216" lon="0.203903">
        <ele>2631.074</ele>
        <time>2020-07-01T09:31:33Z</time>
      </trkpt>
      <trkpt lat="42.867167" lon="0.204024">
        <ele>2623.017</ele>
        <time>2020-07-01T09:31:54Z</time>
      </trkpt>
      <trkpt lat="42.867166" lon="0.204152">
        <ele>2623.014</ele>
        <time>2020-07-01T09:32:03Z</time>
      </trkpt>
      <trkpt lat="42.867143" lon="0.204277">
        <ele>2617.094</ele>
        <time>2020-07-01T09:32:17Z</time>
      </trkpt>
      <trkpt lat="42.867154" lon="0.204406">
        <ele>2622.022</ele>
        <time>2020-07-01T09:32:46Z</time>
      </trkpt>
      <trkpt lat="42.867166" lon="0.204531">
        <ele>2623.026</ele>
        <time>2020-07-01T09:32:58Z</time>
      </trkpt>
      <trkpt lat="42.867128" lon="0.204651">
        <ele>2608.025</ele>
        <time>2020-07-01T09:33:28Z</time>
      </trkpt>
      <trkpt lat="42.867073" lon="0.204760">
        <ele>2608.026</ele>
        <time>2020-07-01T09:33:59Z</time>
      </trkpt>
      <trkpt lat="42.866995" lon="0.204823">
        <ele>2598.008</ele>
        <time>2020-07-01T09:34:54Z</time>
      </trkpt>
      <trkpt lat="42.866976" lon="0.204943">
        <ele>2592.008</ele>
        <time>2020-07-01T09:35:39Z</time>
      </trkpt>
      <trkpt lat="42.866964" lon="0.205067">
        <ele>2585.037</ele>
        <time>2020-07-01T09:35:57Z</time>
      </trkpt>
      <trkpt lat="42.867002" lon="0.205195">
        <ele>2585.084</ele>
        <time>2020-07-01T09:36:26Z</time>
      </trkpt>
      <trkpt lat="42.867008" lon="0.205327">
        <ele>2580.012</ele>
        <time>2020-07-01T09:36:34Z</time>
      </trkpt>
      <trkpt lat="42.867032" lon="0.205467">
        <ele>2582.085</ele>
        <time>2020-07-01T09:36:42Z</time>
      </trkpt>
      <trkpt lat="42.867061" lon="0.205586">
        <ele>2579.032</ele>
        <time>2020-07-01T09:36:54Z</time>
      </trkpt>
      <trkpt lat="42.867128" lon="0.205685">
        <ele>2579.042</ele>
        <time>2020-07-01T09:37:10Z</time>
      </trkpt>
      <trkpt lat="42.867115" lon="0.205807">
        <ele>2571.050</ele>
        <time>2020-07-01T09:37:29Z</time>
      </trkpt>
      <trkpt lat="42.867167" lon="0.205908">
        <ele>2573.064</ele>
        <time>2020-07-01T09:37:41Z</time>
      </trkpt>
      <trkpt lat="42.867208" lon="0.205794">
        <ele>2563.042</ele>
        <time>2020-07-01T09:49:43Z</time>
      </trkpt>
      <trkpt lat="42.867254" lon="0.205689">
        <ele>2563.022</ele>
        <time>2020-07-01T09:50:01Z</time>
      </trkpt>
      <trkpt lat="42.867266" lon="0.205559">
        <ele>2564.014</ele>
        <time>2020-07-01T09:50:11Z</time>
      </trkpt>
      <trkpt lat="42.867275" lon="0.205434">
        <ele>2560.008</ele>
        <time>2020-07-01T09:51:02Z</time>
      </trkpt>
      <trkpt lat="42.867304" lon="0.205313">
        <ele>2560.059</ele>
        <time>2020-07-01T09:51:27Z</time>
      </trkpt>
      <trkpt lat="42.867339" lon="0.205185">
        <ele>2558.086</ele>
        <time>2020-07-01T09:51:37Z</time>
      </trkpt>
      <trkpt lat="42.867382" lon="0.205073">
        <ele>2560.074</ele>
        <time>2020-07-01T09:51:46Z</time>
      </trkpt>
      <trkpt lat="42.867421" lon="0.204950">
        <ele>2560.027</ele>
        <time>2020-07-01T09:52:00Z</time>
      </trkpt>
      <trkpt lat="42.867481" lon="0.204845">
        <ele>2561.094</ele>
        <time>2020-07-01T09:52:11Z</time>
      </trkpt>
      <trkpt lat="42.867560" lon="0.204774">
        <ele>2563.074</ele>
        <time>2020-07-01T09:52:21Z</time>
      </trkpt>
      <trkpt lat="42.867619" lon="0.204670">
        <ele>2562.062</ele>
        <time>2020-07-01T09:52:34Z</time>
      </trkpt>
      <trkpt lat="42.867688" lon="0.204590">
        <ele>2562.076</ele>
        <time>2020-07-01T09:52:44Z</time>
      </trkpt>
      <trkpt lat="42.867750" lon="0.204489">
        <ele>2561.061</ele>
        <time>2020-07-01T09:52:54Z</time>
      </trkpt>
      <trkpt lat="42.867799" lon="0.204380">
        <ele>2560.021</ele>
        <time>2020-07-01T09:53:07Z</time>
      </trkpt>
      <trkpt lat="42.867864" lon="0.204282">
        <ele>2561.013</ele>
        <time>2020-07-01T09:53:20Z</time>
      </trkpt>
      <trkpt lat="42.867921" lon="0.204182">
        <ele>2558.008</ele>
        <time>2020-07-01T09:53:34Z</time>
      </trkpt>
      <trkpt lat="42.867945" lon="0.204063">
        <ele>2559.091</ele>
        <time>2020-07-01T09:53:52Z</time>
      </trkpt>
      <trkpt lat="42.868028" lon="0.204004">
        <ele>2560.028</ele>
        <time>2020-07-01T09:54:13Z</time>
      </trkpt>
      <trkpt lat="42.868117" lon="0.203945">
        <ele>2560.066</ele>
        <time>2020-07-01T09:54:22Z</time>
      </trkpt>
      <trkpt lat="42.868195" lon="0.203877">
        <ele>2559.069</ele>
        <time>2020-07-01T09:54:31Z</time>
      </trkpt>
      <trkpt lat="42.868280" lon="0.203818">
        <ele>2560.066</ele>
        <time>2020-07-01T09:54:43Z</time>
      </trkpt>
      <trkpt lat="42.868368" lon="0.203771">
        <ele>2559.076</ele>
        <time>2020-07-01T09:54:55Z</time>
      </trkpt>
      <trkpt lat="42.868452" lon="0.203719">
        <ele>2554.024</ele>
        <time>2020-07-01T09:55:09Z</time>
      </trkpt>
      <trkpt lat="42.868441" lon="0.203594">
        <ele>2546.078</ele>
        <time>2020-07-01T09:55:20Z</time>
      </trkpt>
      <trkpt lat="42.868497" lon="0.203496">
        <ele>2545.016</ele>
        <time>2020-07-01T09:55:30Z</time>
      </trkpt>
      <trkpt lat="42.868588" lon="0.203456">
        <ele>2547.076</ele>
        <time>2020-07-01T09:55:39Z</time>
      </trkpt>
      <trkpt lat="42.868680" lon="0.203416">
        <ele>2549.013</ele>
        <time>2020-07-01T09:55:51Z</time>
      </trkpt>
      <trkpt lat="42.868750" lon="0.203329">
        <ele>2546.008</ele>
        <time>2020-07-01T09:56:10Z</time>
      </trkpt>
      <trkpt lat="42.868828" lon="0.203267">
        <ele>2545.076</ele>
        <time>2020-07-01T09:56:27Z</time>
      </trkpt>
      <trkpt lat="42.868912" lon="0.203217">
        <ele>2544.043</ele>
        <time>2020-07-01T09:56:39Z</time>
      </trkpt>
      <trkpt lat="42.868981" lon="0.203137">
        <ele>2543.081</ele>
        <time>2020-07-01T09:56:51Z</time>
      </trkpt>
      <trkpt lat="42.869046" lon="0.203042">
        <ele>2538.064</ele>
        <time>2020-07-01T09:57:07Z</time>
      </trkpt>
      <trkpt lat="42.869103" lon="0.202942">
        <ele>2538.071</ele>
        <time>2020-07-01T09:57:33Z</time>
      </trkpt>
      <trkpt lat="42.869175" lon="0.202855">
        <ele>2533.051</ele>
        <time>2020-07-01T09:57:45Z</time>
      </trkpt>
      <trkpt lat="42.869225" lon="0.202748">
        <ele>2531.029</ele>
        <time>2020-07-01T09:57:58Z</time>
      </trkpt>
      <trkpt lat="42.869300" lon="0.202672">
        <ele>2528.053</ele>
        <time>2020-07-01T09:58:10Z</time>
      </trkpt>
      <trkpt lat="42.869389" lon="0.202650">
        <ele>2536.037</ele>
        <time>2020-07-01T09:58:19Z</time>
      </trkpt>
      <trkpt lat="42.869468" lon="0.202585">
        <ele>2538.049</ele>
        <time>2020-07-01T09:58:34Z</time>
      </trkpt>
      <trkpt lat="42.869515" lon="0.202475">
        <ele>2535.013</ele>
        <time>2020-07-01T09:58:52Z</time>
      </trkpt>
      <trkpt lat="42.869600" lon="0.202426">
        <ele>2530.008</ele>
        <time>2020-07-01T09:59:05Z</time>
      </trkpt>
      <trkpt lat="42.869674" lon="0.202343">
        <ele>2522.028</ele>
        <time>2020-07-01T09:59:19Z</time>
      </trkpt>
      <trkpt lat="42.869749" lon="0.202270">
        <ele>2521.015</ele>
        <time>2020-07-01T09:59:29Z</time>
      </trkpt>
      <trkpt lat="42.869811" lon="0.202170">
        <ele>2518.083</ele>
        <time>2020-07-01T09:59:40Z</time>
      </trkpt>
      <trkpt lat="42.869881" lon="0.202084">
        <ele>2515.096</ele>
        <time>2020-07-01T09:59:50Z</time>
      </trkpt>
      <trkpt lat="42.869972" lon="0.202026">
        <ele>2515.093</ele>
        <time>2020-07-01T10:00:14Z</time>
      </trkpt>
      <trkpt lat="42.870069" lon="0.202012">
        <ele>2515.013</ele>
        <time>2020-07-01T10:00:25Z</time>
      </trkpt>
      <trkpt lat="42.870143" lon="0.201940">
        <ele>2516.061</ele>
        <time>2020-07-01T10:00:39Z</time>
      </trkpt>
      <trkpt lat="42.870230" lon="0.201888">
        <ele>2523.015</ele>
        <time>2020-07-01T10:01:04Z</time>
      </trkpt>
      <trkpt lat="42.870320" lon="0.201860">
        <ele>2522.025</ele>
        <time>2020-07-01T10:01:14Z</time>
      </trkpt>
      <trkpt lat="42.870412" lon="0.201825">
        <ele>2522.026</ele>
        <time>2020-07-01T10:01:26Z</time>
      </trkpt>
      <trkpt lat="42.870485" lon="0.201753">
        <ele>2522.008</ele>
        <time>2020-07-01T10:01:51Z</time>
      </trkpt>
      <trkpt lat="42.870561" lon="0.201682">
        <ele>2523.008</ele>
        <time>2020-07-01T10:02:34Z</time>
      </trkpt>
      <trkpt lat="42.870650" lon="0.201645">
        <ele>2524.067</ele>
        <time>2020-07-01T10:02:49Z</time>
      </trkpt>
      <trkpt lat="42.870730" lon="0.201584">
        <ele>2525.014</ele>
        <time>2020-07-01T10:03:14Z</time>
      </trkpt>
      <trkpt lat="42.870824" lon="0.201574">
        <ele>2528.022</ele>
        <time>2020-07-01T10:03:35Z</time>
      </trkpt>
      <trkpt lat="42.870908" lon="0.201511">
        <ele>2532.045</ele>
        <time>2020-07-01T10:04:21Z</time>
      </trkpt>
      <trkpt lat="42.870993" lon="0.201465">
        <ele>2534.052</ele>
        <time>2020-07-01T10:04:40Z</time>
      </trkpt>
      <trkpt lat="42.871080" lon="0.201434">
        <ele>2539.082</ele>
        <time>2020-07-01T10:05:03Z</time>
      </trkpt>
      <trkpt lat="42.871160" lon="0.201372">
        <ele>2541.040</ele>
        <time>2020-07-01T10:05:21Z</time>
      </trkpt>
      <trkpt lat="42.871172" lon="0.201243">
        <ele>2544.064</ele>
        <time>2020-07-01T10:06:02Z</time>
      </trkpt>
      <trkpt lat="42.871147" lon="0.201125">
        <ele>2548.099</ele>
        <time>2020-07-01T10:06:40Z</time>
      </trkpt>
      <trkpt lat="42.871181" lon="0.201007">
        <ele>2546.007</ele>
        <time>2020-07-01T10:07:34Z</time>
      </trkpt>
      <trkpt lat="42.871161" lon="0.200884">
        <ele>2537.027</ele>
        <time>2020-07-01T10:08:55Z</time>
      </trkpt>
      <trkpt lat="42.871177" lon="0.200761">
        <ele>2542.008</ele>
        <time>2020-07-01T10:09:13Z</time>
      </trkpt>
      <trkpt lat="42.871087" lon="0.200711">
        <ele>2541.024</ele>
        <time>2020-07-01T10:09:42Z</time>
      </trkpt>
      <trkpt lat="42.870990" lon="0.200682">
        <ele>2548.091</ele>
        <time>2020-07-01T10:09:53Z</time>
      </trkpt>
      <trkpt lat="42.871031" lon="0.200572">
        <ele>2539.079</ele>
        <time>2020-07-01T10:10:06Z</time>
      </trkpt>
      <trkpt lat="42.871104" lon="0.200496">
        <ele>2533.052</ele>
        <time>2020-07-01T10:10:19Z</time>
      </trkpt>
      <trkpt lat="42.871163" lon="0.200394">
        <ele>2532.079</ele>
        <time>2020-07-01T10:10:38Z</time>
      </trkpt>
      <trkpt lat="42.871072" lon="0.200395">
        <ele>2536.099</ele>
        <time>2020-07-01T10:10:49Z</time>
      </trkpt>
      <trkpt lat="42.870984" lon="0.200367">
        <ele>2528.087</ele>
        <time>2020-07-01T10:11:02Z</time>
      </trkpt>
      <trkpt lat="42.870980" lon="0.200243">
        <ele>2518.041</ele>
        <time>2020-07-01T10:11:23Z</time>
      </trkpt>
      <trkpt lat="42.871070" lon="0.200217">
        <ele>2508.092</ele>
        <time>2020-07-01T10:11:35Z</time>
      </trkpt>
      <trkpt lat="42.871119" lon="0.200097">
        <ele>2507.073</ele>
        <time>2020-07-01T10:11:53Z</time>
      </trkpt>
      <trkpt lat="42.871167" lon="0.199989">
        <ele>2501.020</ele>
        <time>2020-07-01T10:12:07Z</time>
      </trkpt>
      <trkpt lat="42.871077" lon="0.199934">
        <ele>2500.008</ele>
        <time>2020-07-01T10:12:29Z</time>
      </trkpt>
      <trkpt lat="42.871021" lon="0.199836">
        <ele>2494.034</ele>
        <time>2020-07-01T10:12:50Z</time>
      </trkpt>
      <trkpt lat="42.871080" lon="0.199738">
        <ele>2497.071</ele>
        <time>2020-07-01T10:13:03Z</time>
      </trkpt>
      <trkpt lat="42.870993" lon="0.199696">
        <ele>2501.039</ele>
        <time>2020-07-01T10:13:16Z</time>
      </trkpt>
      <trkpt lat="42.871068" lon="0.199620">
        <ele>2483.062</ele>
        <time>2020-07-01T10:13:32Z</time>
      </trkpt>
      <trkpt lat="42.870986" lon="0.199542">
        <ele>2488.049</ele>
        <time>2020-07-01T10:13:43Z</time>
      </trkpt>
      <trkpt lat="42.870919" lon="0.199452">
        <ele>2486.019</ele>
        <time>2020-07-01T10:13:54Z</time>
      </trkpt>
      <trkpt lat="42.870999" lon="0.199392">
        <ele>2477.037</ele>
        <time>2020-07-01T10:14:10Z</time>
      </trkpt>
      <trkpt lat="42.870980" lon="0.199268">
        <ele>2472.091</ele>
        <time>2020-07-01T10:14:49Z</time>
      </trkpt>
      <trkpt lat="42.870905" lon="0.199190">
        <ele>2474.083</ele>
        <time>2020-07-01T10:15:00Z</time>
      </trkpt>
      <trkpt lat="42.870847" lon="0.199096">
        <ele>2470.025</ele>
        <time>2020-07-01T10:15:12Z</time>
      </trkpt>
      <trkpt lat="42.870806" lon="0.198986">
        <ele>2467.017</ele>
        <time>2020-07-01T10:15:23Z</time>
      </trkpt>
      <trkpt lat="42.870838" lon="0.198865">
        <ele>2462.008</ele>
        <time>2020-07-01T10:15:33Z</time>
      </trkpt>
      <trkpt lat="42.870870" lon="0.198745">
        <ele>2460.073</ele>
        <time>2020-07-01T10:15:42Z</time>
      </trkpt>
      <trkpt lat="42.870805" lon="0.198652">
        <ele>2462.030</ele>
        <time>2020-07-01T10:15:50Z</time>
      </trkpt>
      <trkpt lat="42.870750" lon="0.198553">
        <ele>2456.038</ele>
        <time>2020-07-01T10:16:02Z</time>
      </trkpt>
      <trkpt lat="42.870688" lon="0.198456">
        <ele>2452.071</ele>
        <time>2020-07-01T10:16:14Z</time>
      </trkpt>
      <trkpt lat="42.870643" lon="0.198343">
        <ele>2454.088</ele>
        <time>2020-07-01T10:16:23Z</time>
      </trkpt>
      <trkpt lat="42.870607" lon="0.198222">
        <ele>2458.088</ele>
        <time>2020-07-01T10:16:32Z</time>
      </trkpt>
      <trkpt lat="42.870567" lon="0.198098">
        <ele>2461.066</ele>
        <time>2020-07-01T10:16:44Z</time>
      </trkpt>
      <trkpt lat="42.870588" lon="0.197976">
        <ele>2446.030</ele>
        <time>2020-07-01T10:17:42Z</time>
      </trkpt>
      <trkpt lat="42.870548" lon="0.197866">
        <ele>2444.058</ele>
        <time>2020-07-01T10:18:13Z</time>
      </trkpt>
      <trkpt lat="42.870471" lon="0.197788">
        <ele>2441.052</ele>
        <time>2020-07-01T10:18:52Z</time>
      </trkpt>
      <trkpt lat="42.870424" lon="0.197675">
        <ele>2436.017</ele>
        <time>2020-07-01T10:19:29Z</time>
      </trkpt>
      <trkpt lat="42.870369" lon="0.197558">
        <ele>2429.008</ele>
        <time>2020-07-01T10:19:42Z</time>
      </trkpt>
      <trkpt lat="42.870335" lon="0.197439">
        <ele>2426.090</ele>
        <time>2020-07-01T10:19:57Z</time>
      </trkpt>
      <trkpt lat="42.870282" lon="0.197337">
        <ele>2422.087</ele>
        <time>2020-07-01T10:20:08Z</time>
      </trkpt>
      <trkpt lat="42.870240" lon="0.197223">
        <ele>2422.095</ele>
        <time>2020-07-01T10:20:25Z</time>
      </trkpt>
      <trkpt lat="42.870184" lon="0.197120">
        <ele>2421.048</ele>
        <time>2020-07-01T10:20:33Z</time>
      </trkpt>
      <trkpt lat="42.870136" lon="0.197009">
        <ele>2421.065</ele>
        <time>2020-07-01T10:20:42Z</time>
      </trkpt>
      <trkpt lat="42.870116" lon="0.196887">
        <ele>2422.095</ele>
        <time>2020-07-01T10:20:51Z</time>
      </trkpt>
      <trkpt lat="42.870088" lon="0.196767">
        <ele>2424.043</ele>
        <time>2020-07-01T10:20:57Z</time>
      </trkpt>
      <trkpt lat="42.870038" lon="0.196656">
        <ele>2423.087</ele>
        <time>2020-07-01T10:21:08Z</time>
      </trkpt>
      <trkpt lat="42.870042" lon="0.196523">
        <ele>2418.094</ele>
        <time>2020-07-01T10:21:23Z</time>
      </trkpt>
      <trkpt lat="42.870020" lon="0.196403">
        <ele>2413.057</ele>
        <time>2020-07-01T10:21:33Z</time>
      </trkpt>
      <trkpt lat="42.870001" lon="0.196282">
        <ele>2410.022</ele>
        <time>2020-07-01T10:21:45Z</time>
      </trkpt>
      <trkpt lat="42.869937" lon="0.196192">
        <ele>2411.008</ele>
        <time>2020-07-01T10:21:54Z</time>
      </trkpt>
      <trkpt lat="42.869884" lon="0.196066">
        <ele>2415.044</ele>
        <time>2020-07-01T10:22:00Z</time>
      </trkpt>
      <trkpt lat="42.869846" lon="0.195936">
        <ele>2414.021</ele>
        <time>2020-07-01T10:22:06Z</time>
      </trkpt>
      <trkpt lat="42.869830" lon="0.195810">
        <ele>2411.089</ele>
        <time>2020-07-01T10:22:12Z</time>
      </trkpt>
      <trkpt lat="42.869859" lon="0.195683">
        <ele>2401.072</ele>
        <time>2020-07-01T10:22:24Z</time>
      </trkpt>
      <trkpt lat="42.869888" lon="0.195559">
        <ele>2399.089</ele>
        <time>2020-07-01T10:22:34Z</time>
      </trkpt>
      <trkpt lat="42.869845" lon="0.195450">
        <ele>2407.019</ele>
        <time>2020-07-01T10:22:51Z</time>
      </trkpt>
      <trkpt lat="42.869787" lon="0.195347">
        <ele>2407.067</ele>
        <time>2020-07-01T10:22:59Z</time>
      </trkpt>
      <trkpt lat="42.869755" lon="0.195223">
        <ele>2408.041</ele>
        <time>2020-07-01T10:23:08Z</time>
      </trkpt>
      <trkpt lat="42.869698" lon="0.195119">
        <ele>2406.098</ele>
        <time>2020-07-01T10:23:15Z</time>
      </trkpt>
      <trkpt lat="42.869646" lon="0.195014">
        <ele>2405.015</ele>
        <time>2020-07-01T10:23:23Z</time>
      </trkpt>
      <trkpt lat="42.869624" lon="0.194891">
        <ele>2402.026</ele>
        <time>2020-07-01T10:23:33Z</time>
      </trkpt>
      <trkpt lat="42.869626" lon="0.194756">
        <ele>2400.008</ele>
        <time>2020-07-01T10:23:46Z</time>
      </trkpt>
      <trkpt lat="42.869687" lon="0.194654">
        <ele>2401.034</ele>
        <time>2020-07-01T10:24:01Z</time>
      </trkpt>
      <trkpt lat="42.869685" lon="0.194531">
        <ele>2401.041</ele>
        <time>2020-07-01T10:24:16Z</time>
      </trkpt>
      <trkpt lat="42.869742" lon="0.194421">
        <ele>2398.069</ele>
        <time>2020-07-01T10:24:36Z</time>
      </trkpt>
      <trkpt lat="42.869792" lon="0.194307">
        <ele>2392.062</ele>
        <time>2020-07-01T10:25:01Z</time>
      </trkpt>
      <trkpt lat="42.869804" lon="0.194172">
        <ele>2388.029</ele>
        <time>2020-07-01T10:25:27Z</time>
      </trkpt>
      <trkpt lat="42.869842" lon="0.194057">
        <ele>2383.079</ele>
        <time>2020-07-01T10:25:36Z</time>
      </trkpt>
      <trkpt lat="42.869899" lon="0.193953">
        <ele>2382.097</ele>
        <time>2020-07-01T10:25:46Z</time>
      </trkpt>
      <trkpt lat="42.869929" lon="0.193835">
        <ele>2380.031</ele>
        <time>2020-07-01T10:25:56Z</time>
      </trkpt>
      <trkpt lat="42.869939" lon="0.193709">
        <ele>2377.094</ele>
        <time>2020-07-01T10:26:05Z</time>
      </trkpt>
      <trkpt lat="42.869951" lon="0.193586">
        <ele>2377.057</ele>
        <time>2020-07-01T10:26:19Z</time>
      </trkpt>
      <trkpt lat="42.869924" lon="0.193462">
        <ele>2377.022</ele>
        <time>2020-07-01T10:26:35Z</time>
      </trkpt>
      <trkpt lat="42.869840" lon="0.193390">
        <ele>2378.008</ele>
        <time>2020-07-01T10:26:43Z</time>
      </trkpt>
      <trkpt lat="42.869754" lon="0.193335">
        <ele>2378.094</ele>
        <time>2020-07-01T10:26:52Z</time>
      </trkpt>
      <trkpt lat="42.869696" lon="0.193218">
        <ele>2379.011</ele>
        <time>2020-07-01T10:27:01Z</time>
      </trkpt>
      <trkpt lat="42.869732" lon="0.193100">
        <ele>2380.089</ele>
        <time>2020-07-01T10:27:14Z</time>
      </trkpt>
      <trkpt lat="42.869784" lon="0.192994">
        <ele>2367.022</ele>
        <time>2020-07-01T10:27:26Z</time>
      </trkpt>
      <trkpt lat="42.869785" lon="0.192862">
        <ele>2367.049</ele>
        <time>2020-07-01T10:27:37Z</time>
      </trkpt>
      <trkpt lat="42.869809" lon="0.192738">
        <ele>2363.039</ele>
        <time>2020-07-01T10:27:48Z</time>
      </trkpt>
      <trkpt lat="42.869869" lon="0.192627">
        <ele>2361.097</ele>
        <time>2020-07-01T10:27:58Z</time>
      </trkpt>
      <trkpt lat="42.869913" lon="0.192515">
        <ele>2359.041</ele>
        <time>2020-07-01T10:28:07Z</time>
      </trkpt>
      <trkpt lat="42.869942" lon="0.192396">
        <ele>2356.014</ele>
        <time>2020-07-01T10:28:18Z</time>
      </trkpt>
      <trkpt lat="42.869959" lon="0.192275">
        <ele>2356.054</ele>
        <time>2020-07-01T10:28:31Z</time>
      </trkpt>
      <trkpt lat="42.869958" lon="0.192139">
        <ele>2362.009</ele>
        <time>2020-07-01T10:28:44Z</time>
      </trkpt>
      <trkpt lat="42.869905" lon="0.192030">
        <ele>2364.008</ele>
        <time>2020-07-01T10:28:54Z</time>
      </trkpt>
      <trkpt lat="42.869907" lon="0.191906">
        <ele>2363.076</ele>
        <time>2020-07-01T10:29:09Z</time>
      </trkpt>
      <trkpt lat="42.869911" lon="0.191780">
        <ele>2372.013</ele>
        <time>2020-07-01T10:29:21Z</time>
      </trkpt>
      <trkpt lat="42.869904" lon="0.191655">
        <ele>2374.021</ele>
        <time>2020-07-01T10:29:32Z</time>
      </trkpt>
      <trkpt lat="42.869877" lon="0.191535">
        <ele>2381.054</ele>
        <time>2020-07-01T10:29:44Z</time>
      </trkpt>
      <trkpt lat="42.869858" lon="0.191399">
        <ele>2381.061</ele>
        <time>2020-07-01T10:29:54Z</time>
      </trkpt>
      <trkpt lat="42.869894" lon="0.191283">
        <ele>2383.051</ele>
        <time>2020-07-01T10:30:13Z</time>
      </trkpt>
      <trkpt lat="42.869881" lon="0.191160">
        <ele>2384.059</ele>
        <time>2020-07-01T10:30:44Z</time>
      </trkpt>
      <trkpt lat="42.869843" lon="0.191036">
        <ele>2383.073</ele>
        <time>2020-07-01T10:30:56Z</time>
      </trkpt>
      <trkpt lat="42.869835" lon="0.190910">
        <ele>2382.071</ele>
        <time>2020-07-01T10:31:07Z</time>
      </trkpt>
      <trkpt lat="42.869763" lon="0.190820">
        <ele>2381.041</ele>
        <time>2020-07-01T10:31:18Z</time>
      </trkpt>
      <trkpt lat="42.869670" lon="0.190787">
        <ele>2378.015</ele>
        <time>2020-07-01T10:31:32Z</time>
      </trkpt>
      <trkpt lat="42.869602" lon="0.190707">
        <ele>2381.008</ele>
        <time>2020-07-01T10:31:41Z</time>
      </trkpt>
      <trkpt lat="42.869542" lon="0.190613">
        <ele>2385.092</ele>
        <time>2020-07-01T10:31:53Z</time>
      </trkpt>
      <trkpt lat="42.869516" lon="0.190487">
        <ele>2384.059</ele>
        <time>2020-07-01T10:32:05Z</time>
      </trkpt>
      <trkpt lat="42.869471" lon="0.190376">
        <ele>2382.087</ele>
        <time>2020-07-01T10:32:15Z</time>
      </trkpt>
      <trkpt lat="42.869428" lon="0.190261">
        <ele>2375.060</ele>
        <time>2020-07-01T10:32:27Z</time>
      </trkpt>
      <trkpt lat="42.869422" lon="0.190138">
        <ele>2369.047</ele>
        <time>2020-07-01T10:33:40Z</time>
      </trkpt>
      <trkpt lat="42.869355" lon="0.190055">
        <ele>2367.057</ele>
        <time>2020-07-01T10:34:25Z</time>
      </trkpt>
      <trkpt lat="42.869264" lon="0.189999">
        <ele>2361.055</ele>
        <time>2020-07-01T10:35:29Z</time>
      </trkpt>
      <trkpt lat="42.869174" lon="0.190003">
        <ele>2353.079</ele>
        <time>2020-07-01T10:36:11Z</time>
      </trkpt>
      <trkpt lat="42.869083" lon="0.189991">
        <ele>2346.084</ele>
        <time>2020-07-01T10:36:38Z</time>
      </trkpt>
      <trkpt lat="42.868992" lon="0.189972">
        <ele>2341.007</ele>
        <time>2020-07-01T10:36:59Z</time>
      </trkpt>
      <trkpt lat="42.868899" lon="0.189992">
        <ele>2337.017</ele>
        <time>2020-07-01T10:37:11Z</time>
      </trkpt>
      <trkpt lat="42.868808" lon="0.189999">
        <ele>2332.008</ele>
        <time>2020-07-01T10:37:25Z</time>
      </trkpt>
      <trkpt lat="42.868718" lon="0.190030">
        <ele>2330.053</ele>
        <time>2020-07-01T10:37:44Z</time>
      </trkpt>
      <trkpt lat="42.868661" lon="0.189930">
        <ele>2326.060</ele>
        <time>2020-07-01T10:38:10Z</time>
      </trkpt>
      <trkpt lat="42.868650" lon="0.189806">
        <ele>2323.068</ele>
        <time>2020-07-01T10:38:32Z</time>
      </trkpt>
      <trkpt lat="42.868577" lon="0.189728">
        <ele>2325.061</ele>
        <time>2020-07-01T10:39:01Z</time>
      </trkpt>
      <trkpt lat="42.868495" lon="0.189678">
        <ele>2317.088</ele>
        <time>2020-07-01T10:39:35Z</time>
      </trkpt>
      <trkpt lat="42.868402" lon="0.189701">
        <ele>2320.018</ele>
        <time>2020-07-01T10:40:08Z</time>
      </trkpt>
      <trkpt lat="42.868332" lon="0.189786">
        <ele>2313.026</ele>
        <time>2020-07-01T10:40:27Z</time>
      </trkpt>
      <trkpt lat="42.868242" lon="0.189810">
        <ele>2312.010</ele>
        <time>2020-07-01T10:40:51Z</time>
      </trkpt>
      <trkpt lat="42.868150" lon="0.189818">
        <ele>2310.038</ele>
        <time>2020-07-01T10:41:16Z</time>
      </trkpt>
      <trkpt lat="42.868061" lon="0.189840">
        <ele>2294.070</ele>
        <time>2020-07-01T10:42:07Z</time>
      </trkpt>
      <trkpt lat="42.867977" lon="0.189789">
        <ele>2287.017</ele>
        <time>2020-07-01T10:42:33Z</time>
      </trkpt>
      <trkpt lat="42.867924" lon="0.189691">
        <ele>2282.008</ele>
        <time>2020-07-01T10:42:53Z</time>
      </trkpt>
      <trkpt lat="42.867840" lon="0.189617">
        <ele>2286.048</ele>
        <time>2020-07-01T10:43:04Z</time>
      </trkpt>
      <trkpt lat="42.867755" lon="0.189560">
        <ele>2284.055</ele>
        <time>2020-07-01T10:43:15Z</time>
      </trkpt>
      <trkpt lat="42.867659" lon="0.189536">
        <ele>2286.013</ele>
        <time>2020-07-01T10:43:37Z</time>
      </trkpt>
      <trkpt lat="42.867571" lon="0.189502">
        <ele>2288.056</ele>
        <time>2020-07-01T10:43:56Z</time>
      </trkpt>
      <trkpt lat="42.867497" lon="0.189429">
        <ele>2285.093</ele>
        <time>2020-07-01T10:44:12Z</time>
      </trkpt>
      <trkpt lat="42.867404" lon="0.189408">
        <ele>2280.053</ele>
        <time>2020-07-01T10:44:37Z</time>
      </trkpt>
      <trkpt lat="42.867315" lon="0.189360">
        <ele>2282.071</ele>
        <time>2020-07-01T10:44:50Z</time>
      </trkpt>
      <trkpt lat="42.867227" lon="0.189304">
        <ele>2279.085</ele>
        <time>2020-07-01T10:45:07Z</time>
      </trkpt>
      <trkpt lat="42.867134" lon="0.189288">
        <ele>2276.026</ele>
        <time>2020-07-01T10:45:17Z</time>
      </trkpt>
      <trkpt lat="42.867057" lon="0.189219">
        <ele>2277.047</ele>
        <time>2020-07-01T10:45:40Z</time>
      </trkpt>
      <trkpt lat="42.866968" lon="0.189259">
        <ele>2279.011</ele>
        <time>2020-07-01T10:45:52Z</time>
      </trkpt>
      <trkpt lat="42.866877" lon="0.189261">
        <ele>2272.008</ele>
        <time>2020-07-01T10:46:17Z</time>
      </trkpt>
      <trkpt lat="42.866808" lon="0.189177">
        <ele>2273.097</ele>
        <time>2020-07-01T10:46:26Z</time>
      </trkpt>
      <trkpt lat="42.866712" lon="0.189150">
        <ele>2276.074</ele>
        <time>2020-07-01T10:46:34Z</time>
      </trkpt>
      <trkpt lat="42.866624" lon="0.189087">
        <ele>2272.072</ele>
        <time>2020-07-01T10:46:53Z</time>
      </trkpt>
      <trkpt lat="42.866585" lon="0.188973">
        <ele>2272.095</ele>
        <time>2020-07-01T10:47:05Z</time>
      </trkpt>
      <trkpt lat="42.866569" lon="0.188849">
        <ele>2270.072</ele>
        <time>2020-07-01T10:47:25Z</time>
      </trkpt>
      <trkpt lat="42.866507" lon="0.188757">
        <ele>2270.072</ele>
        <time>2020-07-01T10:47:42Z</time>
      </trkpt>
      <trkpt lat="42.866475" lon="0.188642">
        <ele>2269.060</ele>
        <time>2020-07-01T10:48:07Z</time>
      </trkpt>
      <trkpt lat="42.866416" lon="0.188549">
        <ele>2269.074</ele>
        <time>2020-07-01T10:48:15Z</time>
      </trkpt>
      <trkpt lat="42.866348" lon="0.188467">
        <ele>2264.062</ele>
        <time>2020-07-01T10:48:27Z</time>
      </trkpt>
      <trkpt lat="42.866285" lon="0.188363">
        <ele>2269.083</ele>
        <time>2020-07-01T10:48:39Z</time>
      </trkpt>
      <trkpt lat="42.866244" lon="0.188244">
        <ele>2274.011</ele>
        <time>2020-07-01T10:48:48Z</time>
      </trkpt>
      <trkpt lat="42.866205" lon="0.188126">
        <ele>2273.008</ele>
        <time>2020-07-01T10:48:58Z</time>
      </trkpt>
      <trkpt lat="42.866159" lon="0.188016">
        <ele>2271.071</ele>
        <time>2020-07-01T10:49:21Z</time>
      </trkpt>
      <trkpt lat="42.866137" lon="0.187896">
        <ele>2269.058</ele>
        <time>2020-07-01T10:49:37Z</time>
      </trkpt>
      <trkpt lat="42.866101" lon="0.187784">
        <ele>2265.086</ele>
        <time>2020-07-01T10:51:37Z</time>
      </trkpt>
      <trkpt lat="42.866155" lon="0.187673">
        <ele>2264.079</ele>
        <time>2020-07-01T10:51:59Z</time>
      </trkpt>
      <trkpt lat="42.866092" lon="0.187586">
        <ele>2264.036</ele>
        <time>2020-07-01T10:52:10Z</time>
      </trkpt>
      <trkpt lat="42.866006" lon="0.187534">
        <ele>2263.016</ele>
        <time>2020-07-01T10:52:21Z</time>
      </trkpt>
      <trkpt lat="42.865928" lon="0.187455">
        <ele>2258.094</ele>
        <time>2020-07-01T10:52:31Z</time>
      </trkpt>
      <trkpt lat="42.865846" lon="0.187400">
        <ele>2259.038</ele>
        <time>2020-07-01T10:52:44Z</time>
      </trkpt>
      <trkpt lat="42.865764" lon="0.187339">
        <ele>2264.051</ele>
        <time>2020-07-01T10:52:53Z</time>
      </trkpt>
      <trkpt lat="42.865720" lon="0.187232">
        <ele>2259.001</ele>
        <time>2020-07-01T10:53:13Z</time>
      </trkpt>
      <trkpt lat="42.865628" lon="0.187225">
        <ele>2255.011</ele>
        <time>2020-07-01T10:53:26Z</time>
      </trkpt>
      <trkpt lat="42.865545" lon="0.187171">
        <ele>2257.008</ele>
        <time>2020-07-01T10:54:01Z</time>
      </trkpt>
      <trkpt lat="42.865459" lon="0.187137">
        <ele>2252.030</ele>
        <time>2020-07-01T10:54:15Z</time>
      </trkpt>
      <trkpt lat="42.865378" lon="0.187195">
        <ele>2247.087</ele>
        <time>2020-07-01T10:54:29Z</time>
      </trkpt>
      <trkpt lat="42.865297" lon="0.187136">
        <ele>2247.025</ele>
        <time>2020-07-01T10:54:50Z</time>
      </trkpt>
      <trkpt lat="42.865203" lon="0.187100">
        <ele>2241.058</ele>
        <time>2020-07-01T10:55:19Z</time>
      </trkpt>
      <trkpt lat="42.865125" lon="0.187038">
        <ele>2240.025</ele>
        <time>2020-07-01T10:55:41Z</time>
      </trkpt>
      <trkpt lat="42.865052" lon="0.186959">
        <ele>2242.085</ele>
        <time>2020-07-01T10:55:59Z</time>
      </trkpt>
      <trkpt lat="42.864964" lon="0.186911">
        <ele>2232.053</ele>
        <time>2020-07-01T10:56:28Z</time>
      </trkpt>
      <trkpt lat="42.864874" lon="0.186925">
        <ele>2231.047</ele>
        <time>2020-07-01T10:56:43Z</time>
      </trkpt>
      <trkpt lat="42.864790" lon="0.186974">
        <ele>2230.063</ele>
        <time>2020-07-01T10:57:03Z</time>
      </trkpt>
      <trkpt lat="42.864694" lon="0.186956">
        <ele>2233.044</ele>
        <time>2020-07-01T10:57:30Z</time>
      </trkpt>
      <trkpt lat="42.864600" lon="0.186937">
        <ele>2224.018</ele>
        <time>2020-07-01T10:57:45Z</time>
      </trkpt>
      <trkpt lat="42.864504" lon="0.186964">
        <ele>2218.008</ele>
        <time>2020-07-01T10:58:22Z</time>
      </trkpt>
      <trkpt lat="42.864410" lon="0.186959">
        <ele>2216.051</ele>
        <time>2020-07-01T10:58:36Z</time>
      </trkpt>
      <trkpt lat="42.864330" lon="0.186880">
        <ele>2213.098</ele>
        <time>2020-07-01T10:58:47Z</time>
      </trkpt>
      <trkpt lat="42.864237" lon="0.186929">
        <ele>2214.026</ele>
        <time>2020-07-01T10:59:00Z</time>
      </trkpt>
      <trkpt lat="42.864148" lon="0.186959">
        <ele>2209.079</ele>
        <time>2020-07-01T10:59:12Z</time>
      </trkpt>
      <trkpt lat="42.864056" lon="0.186967">
        <ele>2210.016</ele>
        <time>2020-07-01T10:59:23Z</time>
      </trkpt>
      <trkpt lat="42.863967" lon="0.187006">
        <ele>2214.056</ele>
        <time>2020-07-01T10:59:37Z</time>
      </trkpt>
      <trkpt lat="42.863881" lon="0.186949">
        <ele>2212.074</ele>
        <time>2020-07-01T10:59:48Z</time>
      </trkpt>
      <trkpt lat="42.863786" lon="0.186950">
        <ele>2206.058</ele>
        <time>2020-07-01T11:00:02Z</time>
      </trkpt>
      <trkpt lat="42.863704" lon="0.187003">
        <ele>2205.057</ele>
        <time>2020-07-01T11:00:12Z</time>
      </trkpt>
      <trkpt lat="42.863621" lon="0.187058">
        <ele>2199.000</ele>
        <time>2020-07-01T11:00:26Z</time>
      </trkpt>
      <trkpt lat="42.863530" lon="0.187048">
        <ele>2201.020</ele>
        <time>2020-07-01T11:00:39Z</time>
      </trkpt>
      <trkpt lat="42.863456" lon="0.187120">
        <ele>2199.008</ele>
        <time>2020-07-01T11:00:49Z</time>
      </trkpt>
      <trkpt lat="42.863371" lon="0.187173">
        <ele>2194.090</ele>
        <time>2020-07-01T11:00:59Z</time>
      </trkpt>
      <trkpt lat="42.863300" lon="0.187254">
        <ele>2191.057</ele>
        <time>2020-07-01T11:01:13Z</time>
      </trkpt>
      <trkpt lat="42.863228" lon="0.187331">
        <ele>2191.095</ele>
        <time>2020-07-01T11:01:23Z</time>
      </trkpt>
      <trkpt lat="42.863141" lon="0.187289">
        <ele>2191.038</ele>
        <time>2020-07-01T11:01:33Z</time>
      </trkpt>
      <trkpt lat="42.863051" lon="0.187289">
        <ele>2191.015</ele>
        <time>2020-07-01T11:01:43Z</time>
      </trkpt>
      <trkpt lat="42.862959" lon="0.187274">
        <ele>2190.075</ele>
        <time>2020-07-01T11:01:55Z</time>
      </trkpt>
      <trkpt lat="42.862870" lon="0.187307">
        <ele>2190.033</ele>
        <time>2020-07-01T11:02:08Z</time>
      </trkpt>
      <trkpt lat="42.862779" lon="0.187341">
        <ele>2188.017</ele>
        <time>2020-07-01T11:02:26Z</time>
      </trkpt>
      <trkpt lat="42.862692" lon="0.187289">
        <ele>2186.059</ele>
        <time>2020-07-01T11:02:34Z</time>
      </trkpt>
      <trkpt lat="42.862602" lon="0.187316">
        <ele>2185.003</ele>
        <time>2020-07-01T11:02:45Z</time>
      </trkpt>
      <trkpt lat="42.862508" lon="0.187274">
        <ele>2184.023</ele>
        <time>2020-07-01T11:02:57Z</time>
      </trkpt>
      <trkpt lat="42.862413" lon="0.187325">
        <ele>2179.008</ele>
        <time>2020-07-01T11:03:06Z</time>
      </trkpt>
      <trkpt lat="42.862321" lon="0.187353">
        <ele>2178.010</ele>
        <time>2020-07-01T11:03:18Z</time>
      </trkpt>
      <trkpt lat="42.862236" lon="0.187311">
        <ele>2182.017</ele>
        <time>2020-07-01T11:03:26Z</time>
      </trkpt>
      <trkpt lat="42.862145" lon="0.187268">
        <ele>2179.065</ele>
        <time>2020-07-01T11:03:34Z</time>
      </trkpt>
      <trkpt lat="42.862050" lon="0.187240">
        <ele>2181.028</ele>
        <time>2020-07-01T11:03:42Z</time>
      </trkpt>
      <trkpt lat="42.861961" lon="0.187199">
        <ele>2180.025</ele>
        <time>2020-07-01T11:03:47Z</time>
      </trkpt>
      <trkpt lat="42.861868" lon="0.187209">
        <ele>2181.065</ele>
        <time>2020-07-01T11:03:57Z</time>
      </trkpt>
      <trkpt lat="42.861774" lon="0.187233">
        <ele>2181.043</ele>
        <time>2020-07-01T11:04:09Z</time>
      </trkpt>
      <trkpt lat="42.861684" lon="0.187245">
        <ele>2181.087</ele>
        <time>2020-07-01T11:04:18Z</time>
      </trkpt>
      <trkpt lat="42.861594" lon="0.187249">
        <ele>2180.046</ele>
        <time>2020-07-01T11:04:27Z</time>
      </trkpt>
      <trkpt lat="42.861499" lon="0.187287">
        <ele>2181.088</ele>
        <time>2020-07-01T11:04:36Z</time>
      </trkpt>
      <trkpt lat="42.861404" lon="0.187288">
        <ele>2178.016</ele>
        <time>2020-07-01T11:04:47Z</time>
      </trkpt>
      <trkpt lat="42.861319" lon="0.187222">
        <ele>2175.008</ele>
        <time>2020-07-01T11:05:01Z</time>
      </trkpt>
      <trkpt lat="42.861229" lon="0.187178">
        <ele>2175.059</ele>
        <time>2020-07-01T11:05:17Z</time>
      </trkpt>
      <trkpt lat="42.861184" lon="0.187057">
        <ele>2172.056</ele>
        <time>2020-07-01T11:05:28Z</time>
      </trkpt>
      <trkpt lat="42.861186" lon="0.186934">
        <ele>2171.044</ele>
        <time>2020-07-01T11:05:41Z</time>
      </trkpt>
      <trkpt lat="42.861169" lon="0.186810">
        <ele>2176.037</ele>
        <time>2020-07-01T11:05:52Z</time>
      </trkpt>
      <trkpt lat="42.861130" lon="0.186690">
        <ele>2168.054</ele>
        <time>2020-07-01T11:06:43Z</time>
      </trkpt>
      <trkpt lat="42.861210" lon="0.186619">
        <ele>2168.034</ele>
        <time>2020-07-01T11:07:08Z</time>
      </trkpt>
      <trkpt lat="42.861289" lon="0.186552">
        <ele>2170.032</ele>
        <time>2020-07-01T11:07:23Z</time>
      </trkpt>
      <trkpt lat="42.861253" lon="0.186440">
        <ele>2169.076</ele>
        <time>2020-07-01T11:07:45Z</time>
      </trkpt>
      <trkpt lat="42.861164" lon="0.186397">
        <ele>2167.092</ele>
        <time>2020-07-01T11:08:24Z</time>
      </trkpt>
      <trkpt lat="42.861157" lon="0.186274">
        <ele>2165.073</ele>
        <time>2020-07-01T11:09:04Z</time>
      </trkpt>
      <trkpt lat="42.861184" lon="0.186156">
        <ele>2166.020</ele>
        <time>2020-07-01T11:09:19Z</time>
      </trkpt>
      <trkpt lat="42.861143" lon="0.186046">
        <ele>2168.008</ele>
        <time>2020-07-01T11:09:31Z</time>
      </trkpt>
      <trkpt lat="42.861122" lon="0.185914">
        <ele>2174.044</ele>
        <time>2020-07-01T11:09:45Z</time>
      </trkpt>
      <trkpt lat="42.861089" lon="0.185798">
        <ele>2178.031</ele>
        <time>2020-07-01T11:09:55Z</time>
      </trkpt>
      <trkpt lat="42.861086" lon="0.185671">
        <ele>2171.079</ele>
        <time>2020-07-01T11:10:09Z</time>
      </trkpt>
      <trkpt lat="42.861013" lon="0.185588">
        <ele>2171.022</ele>
        <time>2020-07-01T11:10:18Z</time>
      </trkpt>
      <trkpt lat="42.860983" lon="0.185471">
        <ele>2169.079</ele>
        <time>2020-07-01T11:10:33Z</time>
      </trkpt>
      <trkpt lat="42.860982" lon="0.185341">
        <ele>2172.039</ele>
        <time>2020-07-01T11:10:58Z</time>
      </trkpt>
      <trkpt lat="42.860901" lon="0.185281">
        <ele>2172.077</ele>
        <time>2020-07-01T11:11:11Z</time>
      </trkpt>
      <trkpt lat="42.860844" lon="0.185182">
        <ele>2184.031</ele>
        <time>2020-07-01T11:11:47Z</time>
      </trkpt>
      <trkpt lat="42.860866" lon="0.185060">
        <ele>2178.075</ele>
        <time>2020-07-01T11:12:21Z</time>
      </trkpt>
      <trkpt lat="42.860836" lon="0.184939">
        <ele>2178.028</ele>
        <time>2020-07-01T11:12:51Z</time>
      </trkpt>
      <trkpt lat="42.860813" lon="0.184819">
        <ele>2177.020</ele>
        <time>2020-07-01T11:13:07Z</time>
      </trkpt>
      <trkpt lat="42.860822" lon="0.184697">
        <ele>2186.008</ele>
        <time>2020-07-01T11:13:24Z</time>
      </trkpt>
      <trkpt lat="42.860861" lon="0.184584">
        <ele>2188.032</ele>
        <time>2020-07-01T11:13:40Z</time>
      </trkpt>
      <trkpt lat="42.860925" lon="0.184496">
        <ele>2188.029</ele>
        <time>2020-07-01T11:13:53Z</time>
      </trkpt>
      <trkpt lat="42.860931" lon="0.184371">
        <ele>2187.087</ele>
        <time>2020-07-01T11:14:13Z</time>
      </trkpt>
      <trkpt lat="42.860971" lon="0.184255">
        <ele>2184.080</ele>
        <time>2020-07-01T11:14:28Z</time>
      </trkpt>
      <trkpt lat="42.861000" lon="0.184130">
        <ele>2187.017</ele>
        <time>2020-07-01T11:14:44Z</time>
      </trkpt>
      <trkpt lat="42.861064" lon="0.184034">
        <ele>2190.087</ele>
        <time>2020-07-01T11:14:58Z</time>
      </trkpt>
      <trkpt lat="42.861068" lon="0.183907">
        <ele>2190.085</ele>
        <time>2020-07-01T11:15:15Z</time>
      </trkpt>
      <trkpt lat="42.861116" lon="0.183796">
        <ele>2193.069</ele>
        <time>2020-07-01T11:15:29Z</time>
      </trkpt>
      <trkpt lat="42.861155" lon="0.183681">
        <ele>2195.081</ele>
        <time>2020-07-01T11:15:41Z</time>
      </trkpt>
      <trkpt lat="42.861133" lon="0.183562">
        <ele>2199.061</ele>
        <time>2020-07-01T11:16:00Z</time>
      </trkpt>
      <trkpt lat="42.861200" lon="0.183469">
        <ele>2201.017</ele>
        <time>2020-07-01T11:16:48Z</time>
      </trkpt>
      <trkpt lat="42.861236" lon="0.183352">
        <ele>2205.008</ele>
        <time>2020-07-01T11:17:02Z</time>
      </trkpt>
      <trkpt lat="42.861310" lon="0.183281">
        <ele>2204.093</ele>
        <time>2020-07-01T11:17:13Z</time>
      </trkpt>
      <trkpt lat="42.861316" lon="0.183155">
        <ele>2211.050</ele>
        <time>2020-07-01T11:17:26Z</time>
      </trkpt>
      <trkpt lat="42.861383" lon="0.183066">
        <ele>2212.058</ele>
        <time>2020-07-01T11:17:44Z</time>
      </trkpt>
      <trkpt lat="42.861328" lon="0.182963">
        <ele>2220.051</ele>
        <time>2020-07-01T11:18:10Z</time>
      </trkpt>
      <trkpt lat="42.861340" lon="0.182841">
        <ele>2215.058</ele>
        <time>2020-07-01T11:18:21Z</time>
      </trkpt>
      <trkpt lat="42.861362" lon="0.182720">
        <ele>2221.058</ele>
        <time>2020-07-01T11:18:44Z</time>
      </trkpt>
      <trkpt lat="42.861443" lon="0.182643">
        <ele>2218.086</ele>
        <time>2020-07-01T11:19:06Z</time>
      </trkpt>
      <trkpt lat="42.861488" lon="0.182533">
        <ele>2223.080</ele>
        <time>2020-07-01T11:19:20Z</time>
      </trkpt>
      <trkpt lat="42.861540" lon="0.182427">
        <ele>2226.014</ele>
        <time>2020-07-01T11:19:38Z</time>
      </trkpt>
      <trkpt lat="42.861525" lon="0.182305">
        <ele>2231.054</ele>
        <time>2020-07-01T11:21:37Z</time>
      </trkpt>
      <trkpt lat="42.861572" lon="0.182196">
        <ele>2239.009</ele>
        <time>2020-07-01T11:21:52Z</time>
      </trkpt>
      <trkpt lat="42.861603" lon="0.182074">
        <ele>2243.008</ele>
        <time>2020-07-01T11:22:12Z</time>
      </trkpt>
      <trkpt lat="42.861640" lon="0.181960">
        <ele>2243.016</ele>
        <time>2020-07-01T11:22:45Z</time>
      </trkpt>
      <trkpt lat="42.861642" lon="0.181835">
        <ele>2250.073</ele>
        <time>2020-07-01T11:22:59Z</time>
      </trkpt>
      <trkpt lat="42.861682" lon="0.181725">
        <ele>2247.061</ele>
        <time>2020-07-01T11:23:13Z</time>
      </trkpt>
      <trkpt lat="42.861768" lon="0.181678">
        <ele>2250.064</ele>
        <time>2020-07-01T11:23:28Z</time>
      </trkpt>
      <trkpt lat="42.861801" lon="0.181558">
        <ele>2250.091</ele>
        <time>2020-07-01T11:23:40Z</time>
      </trkpt>
      <trkpt lat="42.861851" lon="0.181454">
        <ele>2245.061</ele>
        <time>2020-07-01T11:23:53Z</time>
      </trkpt>
      <trkpt lat="42.861935" lon="0.181387">
        <ele>2240.029</ele>
        <time>2020-07-01T11:24:02Z</time>
      </trkpt>
      <trkpt lat="42.861994" lon="0.181293">
        <ele>2243.023</ele>
        <time>2020-07-01T11:24:13Z</time>
      </trkpt>
      <trkpt lat="42.862044" lon="0.181189">
        <ele>2242.018</ele>
        <time>2020-07-01T11:24:24Z</time>
      </trkpt>
      <trkpt lat="42.862092" lon="0.181083">
        <ele>2245.098</ele>
        <time>2020-07-01T11:24:37Z</time>
      </trkpt>
      <trkpt lat="42.862185" lon="0.181055">
        <ele>2247.017</ele>
        <time>2020-07-01T11:24:52Z</time>
      </trkpt>
      <trkpt lat="42.862148" lon="0.180943">
        <ele>2250.008</ele>
        <time>2020-07-01T11:25:16Z</time>
      </trkpt>
      <trkpt lat="42.862156" lon="0.180820">
        <ele>2253.046</ele>
        <time>2020-07-01T11:25:33Z</time>
      </trkpt>
      <trkpt lat="42.862094" lon="0.180726">
        <ele>2256.023</ele>
        <time>2020-07-01T11:26:20Z</time>
      </trkpt>
      <trkpt lat="42.862071" lon="0.180607">
        <ele>2260.091</ele>
        <time>2020-07-01T11:26:41Z</time>
      </trkpt>
      <trkpt lat="42.862087" lon="0.180486">
        <ele>2270.094</ele>
        <time>2020-07-01T11:27:06Z</time>
      </trkpt>
      <trkpt lat="42.862066" lon="0.180365">
        <ele>2272.041</ele>
        <time>2020-07-01T11:27:30Z</time>
      </trkpt>
      <trkpt lat="42.862031" lon="0.180249">
        <ele>2271.031</ele>
        <time>2020-07-01T11:27:47Z</time>
      </trkpt>
      <trkpt lat="42.862112" lon="0.180173">
        <ele>2272.059</ele>
        <time>2020-07-01T11:28:00Z</time>
      </trkpt>
      <trkpt lat="42.862155" lon="0.180060">
        <ele>2272.023</ele>
        <time>2020-07-01T11:28:13Z</time>
      </trkpt>
      <trkpt lat="42.862197" lon="0.179944">
        <ele>2270.099</ele>
        <time>2020-07-01T11:28:25Z</time>
      </trkpt>
      <trkpt lat="42.862210" lon="0.179818">
        <ele>2268.007</ele>
        <time>2020-07-01T11:28:33Z</time>
      </trkpt>
      <trkpt lat="42.862226" lon="0.179696">
        <ele>2269.027</ele>
        <time>2020-07-01T11:28:42Z</time>
      </trkpt>
      <trkpt lat="42.862230" lon="0.179568">
        <ele>2273.008</ele>
        <time>2020-07-01T11:28:54Z</time>
      </trkpt>
      <trkpt lat="42.862185" lon="0.179452">
        <ele>2270.044</ele>
        <time>2020-07-01T11:29:05Z</time>
      </trkpt>
      <trkpt lat="42.862159" lon="0.179321">
        <ele>2268.081</ele>
        <time>2020-07-01T11:29:17Z</time>
      </trkpt>
      <trkpt lat="42.862153" lon="0.179197">
        <ele>2266.059</ele>
        <time>2020-07-01T11:29:28Z</time>
      </trkpt>
      <trkpt lat="42.862192" lon="0.179083">
        <ele>2267.032</ele>
        <time>2020-07-01T11:29:38Z</time>
      </trkpt>
      <trkpt lat="42.862176" lon="0.178958">
        <ele>2267.069</ele>
        <time>2020-07-01T11:29:48Z</time>
      </trkpt>
      <trkpt lat="42.862176" lon="0.178827">
        <ele>2267.069</ele>
        <time>2020-07-01T11:29:58Z</time>
      </trkpt>
      <trkpt lat="42.862177" lon="0.178696">
        <ele>2273.067</ele>
        <time>2020-07-01T11:30:09Z</time>
      </trkpt>
      <trkpt lat="42.862141" lon="0.178578">
        <ele>2268.051</ele>
        <time>2020-07-01T11:30:19Z</time>
      </trkpt>
      <trkpt lat="42.862127" lon="0.178442">
        <ele>2270.013</ele>
        <time>2020-07-01T11:30:30Z</time>
      </trkpt>
      <trkpt lat="42.862136" lon="0.178313">
        <ele>2272.043</ele>
        <time>2020-07-01T11:30:40Z</time>
      </trkpt>
      <trkpt lat="42.862109" lon="0.178183">
        <ele>2276.007</ele>
        <time>2020-07-01T11:30:50Z</time>
      </trkpt>
      <trkpt lat="42.862087" lon="0.178063">
        <ele>2272.008</ele>
        <time>2020-07-01T11:30:59Z</time>
      </trkpt>
      <trkpt lat="42.862086" lon="0.177933">
        <ele>2273.036</ele>
        <time>2020-07-01T11:31:09Z</time>
      </trkpt>
      <trkpt lat="42.862063" lon="0.177802">
        <ele>2269.053</ele>
        <time>2020-07-01T11:31:19Z</time>
      </trkpt>
      <trkpt lat="42.862053" lon="0.177679">
        <ele>2267.041</ele>
        <time>2020-07-01T11:31:31Z</time>
      </trkpt>
      <trkpt lat="42.862059" lon="0.177554">
        <ele>2274.014</ele>
        <time>2020-07-01T11:31:43Z</time>
      </trkpt>
      <trkpt lat="42.862148" lon="0.177514">
        <ele>2273.071</ele>
        <time>2020-07-01T11:31:55Z</time>
      </trkpt>
      <trkpt lat="42.862224" lon="0.177447">
        <ele>2269.021</ele>
        <time>2020-07-01T11:32:11Z</time>
      </trkpt>
      <trkpt lat="42.862208" lon="0.177325">
        <ele>2269.099</ele>
        <time>2020-07-01T12:30:46Z</time>
      </trkpt>
      <trkpt lat="42.862117" lon="0.177317">
        <ele>2270.083</ele>
        <time>2020-07-01T12:31:23Z</time>
      </trkpt>
      <trkpt lat="42.862070" lon="0.177199">
        <ele>2275.013</ele>
        <time>2020-07-01T12:31:41Z</time>
      </trkpt>
      <trkpt lat="42.862019" lon="0.177096">
        <ele>2273.043</ele>
        <time>2020-07-01T12:31:53Z</time>
      </trkpt>
      <trkpt lat="42.861928" lon="0.177092">
        <ele>2275.007</ele>
        <time>2020-07-01T12:32:10Z</time>
      </trkpt>
      <trkpt lat="42.861886" lon="0.176979">
        <ele>2276.008</ele>
        <time>2020-07-01T12:32:20Z</time>
      </trkpt>
      <trkpt lat="42.861840" lon="0.176864">
        <ele>2278.036</ele>
        <time>2020-07-01T12:32:49Z</time>
      </trkpt>
      <trkpt lat="42.861794" lon="0.176752">
        <ele>2280.033</ele>
        <time>2020-07-01T12:33:03Z</time>
      </trkpt>
      <trkpt lat="42.861851" lon="0.176653">
        <ele>2282.041</ele>
        <time>2020-07-01T12:33:24Z</time>
      </trkpt>
      <trkpt lat="42.861839" lon="0.176520">
        <ele>2283.014</ele>
        <time>2020-07-01T12:33:37Z</time>
      </trkpt>
      <trkpt lat="42.861813" lon="0.176400">
        <ele>2286.071</ele>
        <time>2020-07-01T12:33:52Z</time>
      </trkpt>
      <trkpt lat="42.861856" lon="0.176274">
        <ele>2291.051</ele>
        <time>2020-07-01T12:34:03Z</time>
      </trkpt>
      <trkpt lat="42.861888" lon="0.176154">
        <ele>2289.039</ele>
        <time>2020-07-01T12:34:22Z</time>
      </trkpt>
      <trkpt lat="42.861940" lon="0.176049">
        <ele>2286.083</ele>
        <time>2020-07-01T12:34:35Z</time>
      </trkpt>
      <trkpt lat="42.861973" lon="0.175932">
        <ele>2288.091</ele>
        <time>2020-07-01T12:34:50Z</time>
      </trkpt>
      <trkpt lat="42.862034" lon="0.175834">
        <ele>2283.081</ele>
        <time>2020-07-01T12:35:12Z</time>
      </trkpt>
      <trkpt lat="42.861990" lon="0.175720">
        <ele>2280.019</ele>
        <time>2020-07-01T12:35:23Z</time>
      </trkpt>
      <trkpt lat="42.862015" lon="0.175598">
        <ele>2286.008</ele>
        <time>2020-07-01T12:35:35Z</time>
      </trkpt>
      <trkpt lat="42.861977" lon="0.175484">
        <ele>2287.094</ele>
        <time>2020-07-01T12:35:51Z</time>
      </trkpt>
      <trkpt lat="42.861948" lon="0.175365">
        <ele>2281.091</ele>
        <time>2020-07-01T12:36:03Z</time>
      </trkpt>
      <trkpt lat="42.861968" lon="0.175246">
        <ele>2281.029</ele>
        <time>2020-07-01T12:36:18Z</time>
      </trkpt>
      <trkpt lat="42.862016" lon="0.175142">
        <ele>2278.062</ele>
        <time>2020-07-01T12:36:30Z</time>
      </trkpt>
      <trkpt lat="42.862044" lon="0.175019">
        <ele>2276.039</ele>
        <time>2020-07-01T12:36:42Z</time>
      </trkpt>
      <trkpt lat="42.862114" lon="0.174930">
        <ele>2278.059</ele>
        <time>2020-07-01T12:36:56Z</time>
      </trkpt>
      <trkpt lat="42.862128" lon="0.174808">
        <ele>2280.097</ele>
        <time>2020-07-01T12:37:09Z</time>
      </trkpt>
      <trkpt lat="42.862097" lon="0.174686">
        <ele>2282.051</ele>
        <time>2020-07-01T12:37:20Z</time>
      </trkpt>
      <trkpt lat="42.862116" lon="0.174551">
        <ele>2287.053</ele>
        <time>2020-07-01T12:37:30Z</time>
      </trkpt>
      <trkpt lat="42.862165" lon="0.174446">
        <ele>2282.004</ele>
        <time>2020-07-01T12:37:39Z</time>
      </trkpt>
      <trkpt lat="42.862147" lon="0.174320">
        <ele>2289.014</ele>
        <time>2020-07-01T12:37:55Z</time>
      </trkpt>
      <trkpt lat="42.862131" lon="0.174195">
        <ele>2291.008</ele>
        <time>2020-07-01T12:38:15Z</time>
      </trkpt>
      <trkpt lat="42.862148" lon="0.174068">
        <ele>2294.090</ele>
        <time>2020-07-01T12:38:46Z</time>
      </trkpt>
      <trkpt lat="42.862115" lon="0.173953">
        <ele>2296.037</ele>
        <time>2020-07-01T12:39:11Z</time>
      </trkpt>
      <trkpt lat="42.862146" lon="0.173831">
        <ele>2300.015</ele>
        <time>2020-07-01T12:39:23Z</time>
      </trkpt>
      <trkpt lat="42.862138" lon="0.173702">
        <ele>2296.068</ele>
        <time>2020-07-01T12:39:49Z</time>
      </trkpt>
      <trkpt lat="42.862081" lon="0.173606">
        <ele>2299.055</ele>
        <time>2020-07-01T12:40:06Z</time>
      </trkpt>
      <trkpt lat="42.862074" lon="0.173476">
        <ele>2301.015</ele>
        <time>2020-07-01T12:40:23Z</time>
      </trkpt>
      <trkpt lat="42.862132" lon="0.173375">
        <ele>2310.073</ele>
        <time>2020-07-01T12:40:43Z</time>
      </trkpt>
      <trkpt lat="42.862131" lon="0.173245">
        <ele>2310.097</ele>
        <time>2020-07-01T12:41:04Z</time>
      </trkpt>
      <trkpt lat="42.862142" lon="0.173123">
        <ele>2313.026</ele>
        <time>2020-07-01T12:41:22Z</time>
      </trkpt>
      <trkpt lat="42.862150" lon="0.172998">
        <ele>2316.047</ele>
        <time>2020-07-01T12:41:43Z</time>
      </trkpt>
      <trkpt lat="42.862148" lon="0.172875">
        <ele>2315.011</ele>
        <time>2020-07-01T12:41:56Z</time>
      </trkpt>
      <trkpt lat="42.862128" lon="0.172752">
        <ele>2315.008</ele>
        <time>2020-07-01T12:42:11Z</time>
      </trkpt>
      <trkpt lat="42.862165" lon="0.172639">
        <ele>2314.037</ele>
        <time>2020-07-01T12:42:21Z</time>
      </trkpt>
      <trkpt lat="42.862196" lon="0.172523">
        <ele>2323.054</ele>
        <time>2020-07-01T12:42:45Z</time>
      </trkpt>
      <trkpt lat="42.862233" lon="0.172408">
        <ele>2330.022</ele>
        <time>2020-07-01T12:43:00Z</time>
      </trkpt>
      <trkpt lat="42.862210" lon="0.172286">
        <ele>2328.035</ele>
        <time>2020-07-01T12:43:32Z</time>
      </trkpt>
      <trkpt lat="42.862163" lon="0.172165">
        <ele>2332.032</ele>
        <time>2020-07-01T12:43:47Z</time>
      </trkpt>
      <trkpt lat="42.862141" lon="0.172046">
        <ele>2341.082</ele>
        <time>2020-07-01T12:44:10Z</time>
      </trkpt>
      <trkpt lat="42.862155" lon="0.171921">
        <ele>2341.010</ele>
        <time>2020-07-01T12:44:39Z</time>
      </trkpt>
      <trkpt lat="42.862128" lon="0.171804">
        <ele>2343.054</ele>
        <time>2020-07-01T12:45:07Z</time>
      </trkpt>
      <trkpt lat="42.862149" lon="0.171683">
        <ele>2344.053</ele>
        <time>2020-07-01T12:45:31Z</time>
      </trkpt>
      <trkpt lat="42.862163" lon="0.171552">
        <ele>2349.004</ele>
        <time>2020-07-01T12:45:49Z</time>
      </trkpt>
      <trkpt lat="42.862145" lon="0.171420">
        <ele>2349.014</ele>
        <time>2020-07-01T12:45:59Z</time>
      </trkpt>
      <trkpt lat="42.862131" lon="0.171297">
        <ele>2351.008</ele>
        <time>2020-07-01T12:46:10Z</time>
      </trkpt>
      <trkpt lat="42.862204" lon="0.171213">
        <ele>2352.050</ele>
        <time>2020-07-01T12:46:24Z</time>
      </trkpt>
      <trkpt lat="42.862246" lon="0.171099">
        <ele>2350.077</ele>
        <time>2020-07-01T12:46:37Z</time>
      </trkpt>
      <trkpt lat="42.862282" lon="0.170977">
        <ele>2349.025</ele>
        <time>2020-07-01T12:46:49Z</time>
      </trkpt>
      <trkpt lat="42.862274" lon="0.170850">
        <ele>2350.018</ele>
        <time>2020-07-01T12:47:02Z</time>
      </trkpt>
      <trkpt lat="42.862232" lon="0.170729">
        <ele>2350.025</ele>
        <time>2020-07-01T12:47:14Z</time>
      </trkpt>
      <trkpt lat="42.862254" lon="0.170599">
        <ele>2349.035</ele>
        <time>2020-07-01T12:47:26Z</time>
      </trkpt>
      <trkpt lat="42.862256" lon="0.170473">
        <ele>2349.063</ele>
        <time>2020-07-01T12:47:37Z</time>
      </trkpt>
      <trkpt lat="42.862277" lon="0.170350">
        <ele>2352.017</ele>
        <time>2020-07-01T12:47:49Z</time>
      </trkpt>
      <trkpt lat="42.862291" lon="0.170223">
        <ele>2349.025</ele>
        <time>2020-07-01T12:48:06Z</time>
      </trkpt>
      <trkpt lat="42.862276" lon="0.170094">
        <ele>2343.026</ele>
        <time>2020-07-01T12:48:17Z</time>
      </trkpt>
      <trkpt lat="42.862324" lon="0.169990">
        <ele>2347.008</ele>
        <time>2020-07-01T12:48:56Z</time>
      </trkpt>
      <trkpt lat="42.862319" lon="0.169863">
        <ele>2351.008</ele>
        <time>2020-07-01T12:49:09Z</time>
      </trkpt>
      <trkpt lat="42.862360" lon="0.169747">
        <ele>2345.067</ele>
        <time>2020-07-01T12:49:24Z</time>
      </trkpt>
      <trkpt lat="42.862441" lon="0.169667">
        <ele>2345.044</ele>
        <time>2020-07-01T12:49:34Z</time>
      </trkpt>
      <trkpt lat="42.862479" lon="0.169556">
        <ele>2344.042</ele>
        <time>2020-07-01T12:49:45Z</time>
      </trkpt>
      <trkpt lat="42.862497" lon="0.169424">
        <ele>2343.085</ele>
        <time>2020-07-01T12:49:56Z</time>
      </trkpt>
      <trkpt lat="42.862548" lon="0.169319">
        <ele>2346.012</ele>
        <time>2020-07-01T12:50:13Z</time>
      </trkpt>
      <trkpt lat="42.862600" lon="0.169206">
        <ele>2353.092</ele>
        <time>2020-07-01T12:50:30Z</time>
      </trkpt>
      <trkpt lat="42.862607" lon="0.169080">
        <ele>2347.080</ele>
        <time>2020-07-01T12:50:41Z</time>
      </trkpt>
      <trkpt lat="42.862600" lon="0.168955">
        <ele>2354.014</ele>
        <time>2020-07-01T12:50:57Z</time>
      </trkpt>
      <trkpt lat="42.862610" lon="0.168832">
        <ele>2354.032</ele>
        <time>2020-07-01T12:51:20Z</time>
      </trkpt>
      <trkpt lat="42.862560" lon="0.168726">
        <ele>2359.092</ele>
        <time>2020-07-01T12:51:34Z</time>
      </trkpt>
      <trkpt lat="42.862611" lon="0.168621">
        <ele>2365.011</ele>
        <time>2020-07-01T12:51:53Z</time>
      </trkpt>
      <trkpt lat="42.862700" lon="0.168591">
        <ele>2370.008</ele>
        <time>2020-07-01T12:52:22Z</time>
      </trkpt>
      <trkpt lat="42.862752" lon="0.168487">
        <ele>2371.098</ele>
        <time>2020-07-01T12:52:56Z</time>
      </trkpt>
      <trkpt lat="42.862827" lon="0.168409">
        <ele>2378.055</ele>
        <time>2020-07-01T12:53:36Z</time>
      </trkpt>
      <trkpt lat="42.862895" lon="0.168317">
        <ele>2381.013</ele>
        <time>2020-07-01T12:54:07Z</time>
      </trkpt>
      <trkpt lat="42.862873" lon="0.168197">
        <ele>2382.076</ele>
        <time>2020-07-01T12:54:23Z</time>
      </trkpt>
      <trkpt lat="42.862917" lon="0.168089">
        <ele>2384.063</ele>
        <time>2020-07-01T12:54:35Z</time>
      </trkpt>
      <trkpt lat="42.862911" lon="0.167965">
        <ele>2387.093</ele>
        <time>2020-07-01T12:54:51Z</time>
      </trkpt>
      <trkpt lat="42.862963" lon="0.167863">
        <ele>2390.091</ele>
        <time>2020-07-01T12:55:13Z</time>
      </trkpt>
      <trkpt lat="42.863028" lon="0.167769">
        <ele>2393.085</ele>
        <time>2020-07-01T12:55:29Z</time>
      </trkpt>
      <trkpt lat="42.863080" lon="0.167655">
        <ele>2392.062</ele>
        <time>2020-07-01T12:55:42Z</time>
      </trkpt>
      <trkpt lat="42.863069" lon="0.167531">
        <ele>2391.083</ele>
        <time>2020-07-01T12:55:55Z</time>
      </trkpt>
      <trkpt lat="42.862983" lon="0.167478">
        <ele>2391.011</ele>
        <time>2020-07-01T12:56:08Z</time>
      </trkpt>
      <trkpt lat="42.862958" lon="0.167355">
        <ele>2392.008</ele>
        <time>2020-07-01T12:56:25Z</time>
      </trkpt>
      <trkpt lat="42.862976" lon="0.167232">
        <ele>2399.021</ele>
        <time>2020-07-01T12:56:48Z</time>
      </trkpt>
      <trkpt lat="42.862922" lon="0.167130">
        <ele>2404.018</ele>
        <time>2020-07-01T12:57:14Z</time>
      </trkpt>
      <trkpt lat="42.862844" lon="0.167067">
        <ele>2401.046</ele>
        <time>2020-07-01T12:57:29Z</time>
      </trkpt>
      <trkpt lat="42.862761" lon="0.167115">
        <ele>2394.089</ele>
        <time>2020-07-01T12:57:51Z</time>
      </trkpt>
      <trkpt lat="42.862685" lon="0.167049">
        <ele>2398.096</ele>
        <time>2020-07-01T12:57:59Z</time>
      </trkpt>
      <trkpt lat="42.862605" lon="0.166990">
        <ele>2402.076</ele>
        <time>2020-07-01T12:58:30Z</time>
      </trkpt>
      <trkpt lat="42.862560" lon="0.166883">
        <ele>2407.094</ele>
        <time>2020-07-01T12:58:44Z</time>
      </trkpt>
      <trkpt lat="42.862498" lon="0.166793">
        <ele>2408.098</ele>
        <time>2020-07-01T12:58:59Z</time>
      </trkpt>
      <trkpt lat="42.862403" lon="0.166760">
        <ele>2403.034</ele>
        <time>2020-07-01T12:59:12Z</time>
      </trkpt>
      <trkpt lat="42.862312" lon="0.166750">
        <ele>2405.055</ele>
        <time>2020-07-01T12:59:29Z</time>
      </trkpt>
      <trkpt lat="42.862220" lon="0.166714">
        <ele>2412.010</ele>
        <time>2020-07-01T12:59:51Z</time>
      </trkpt>
      <trkpt lat="42.862134" lon="0.166668">
        <ele>2415.008</ele>
        <time>2020-07-01T13:00:15Z</time>
      </trkpt>
      <trkpt lat="42.862068" lon="0.166580">
        <ele>2418.048</ele>
        <time>2020-07-01T13:00:30Z</time>
      </trkpt>
      <trkpt lat="42.861997" lon="0.166503">
        <ele>2420.075</ele>
        <time>2020-07-01T13:00:46Z</time>
      </trkpt>
      <trkpt lat="42.861904" lon="0.166521">
        <ele>2424.023</ele>
        <time>2020-07-01T13:01:16Z</time>
      </trkpt>
      <trkpt lat="42.861852" lon="0.166623">
        <ele>2424.046</ele>
        <time>2020-07-01T13:01:40Z</time>
      </trkpt>
      <trkpt lat="42.861871" lon="0.166498">
        <ele>2423.013</ele>
        <time>2020-07-01T13:02:15Z</time>
      </trkpt>
      <trkpt lat="42.861805" lon="0.166414">
        <ele>2421.063</ele>
        <time>2020-07-01T13:02:33Z</time>
      </trkpt>
      <trkpt lat="42.861718" lon="0.166452">
        <ele>2424.041</ele>
        <time>2020-07-01T13:03:00Z</time>
      </trkpt>
      <trkpt lat="42.861622" lon="0.166434">
        <ele>2428.015</ele>
        <time>2020-07-01T13:03:15Z</time>
      </trkpt>
      <trkpt lat="42.861559" lon="0.166346">
        <ele>2425.025</ele>
        <time>2020-07-01T13:03:48Z</time>
      </trkpt>
      <trkpt lat="42.861490" lon="0.166427">
        <ele>2433.026</ele>
        <time>2020-07-01T13:04:07Z</time>
      </trkpt>
      <trkpt lat="42.861434" lon="0.166328">
        <ele>2434.008</ele>
        <time>2020-07-01T13:04:31Z</time>
      </trkpt>
      <trkpt lat="42.861355" lon="0.166264">
        <ele>2438.008</ele>
        <time>2020-07-01T13:05:08Z</time>
      </trkpt>
      <trkpt lat="42.861296" lon="0.166170">
        <ele>2440.057</ele>
        <time>2020-07-01T13:05:22Z</time>
      </trkpt>
      <trkpt lat="42.861256" lon="0.166054">
        <ele>2442.094</ele>
        <time>2020-07-01T13:05:35Z</time>
      </trkpt>
      <trkpt lat="42.861209" lon="0.165944">
        <ele>2445.072</ele>
        <time>2020-07-01T13:05:45Z</time>
      </trkpt>
      <trkpt lat="42.861155" lon="0.165842">
        <ele>2449.035</ele>
        <time>2020-07-01T13:06:00Z</time>
      </trkpt>
      <trkpt lat="42.861123" lon="0.165725">
        <ele>2458.072</ele>
        <time>2020-07-01T13:06:14Z</time>
      </trkpt>
      <trkpt lat="42.861081" lon="0.165605">
        <ele>2457.072</ele>
        <time>2020-07-01T13:06:29Z</time>
      </trkpt>
      <trkpt lat="42.861060" lon="0.165483">
        <ele>2460.050</ele>
        <time>2020-07-01T13:06:43Z</time>
      </trkpt>
      <trkpt lat="42.861087" lon="0.165364">
        <ele>2462.084</ele>
        <time>2020-07-01T13:07:01Z</time>
      </trkpt>
      <trkpt lat="42.861119" lon="0.165242">
        <ele>2464.041</ele>
        <time>2020-07-01T13:07:16Z</time>
      </trkpt>
      <trkpt lat="42.861165" lon="0.165114">
        <ele>2468.081</ele>
        <time>2020-07-01T13:07:35Z</time>
      </trkpt>
      <trkpt lat="42.861198" lon="0.164997">
        <ele>2467.009</ele>
        <time>2020-07-01T13:07:50Z</time>
      </trkpt>
      <trkpt lat="42.861218" lon="0.164870">
        <ele>2465.008</ele>
        <time>2020-07-01T13:08:13Z</time>
      </trkpt>
      <trkpt lat="42.861261" lon="0.164757">
        <ele>2468.099</ele>
        <time>2020-07-01T13:08:29Z</time>
      </trkpt>
      <trkpt lat="42.861276" lon="0.164635">
        <ele>2468.076</ele>
        <time>2020-07-01T13:08:49Z</time>
      </trkpt>
      <trkpt lat="42.861247" lon="0.164515">
        <ele>2474.084</ele>
        <time>2020-07-01T13:09:05Z</time>
      </trkpt>
      <trkpt lat="42.861229" lon="0.164391">
        <ele>2479.027</ele>
        <time>2020-07-01T13:09:18Z</time>
      </trkpt>
      <trkpt lat="42.861151" lon="0.164315">
        <ele>2477.054</ele>
        <time>2020-07-01T13:09:32Z</time>
      </trkpt>
      <trkpt lat="42.861070" lon="0.164246">
        <ele>2479.014</ele>
        <time>2020-07-01T13:09:43Z</time>
      </trkpt>
      <trkpt lat="42.861020" lon="0.164136">
        <ele>2475.022</ele>
        <time>2020-07-01T13:10:00Z</time>
      </trkpt>
      <trkpt lat="42.861040" lon="0.164009">
        <ele>2479.026</ele>
        <time>2020-07-01T13:10:17Z</time>
      </trkpt>
      <trkpt lat="42.861014" lon="0.163887">
        <ele>2484.059</ele>
        <time>2020-07-01T13:10:26Z</time>
      </trkpt>
      <trkpt lat="42.861021" lon="0.163756">
        <ele>2484.003</ele>
        <time>2020-07-01T13:10:40Z</time>
      </trkpt>
      <trkpt lat="42.861023" lon="0.163627">
        <ele>2480.023</ele>
        <time>2020-07-01T13:10:53Z</time>
      </trkpt>
      <trkpt lat="42.861035" lon="0.163503">
        <ele>2483.008</ele>
        <time>2020-07-01T13:11:07Z</time>
      </trkpt>
      <trkpt lat="42.861073" lon="0.163389">
        <ele>2490.020</ele>
        <time>2020-07-01T13:11:22Z</time>
      </trkpt>
      <trkpt lat="42.861106" lon="0.163269">
        <ele>2495.037</ele>
        <time>2020-07-01T13:11:39Z</time>
      </trkpt>
      <trkpt lat="42.861150" lon="0.163157">
        <ele>2490.035</ele>
        <time>2020-07-01T13:11:54Z</time>
      </trkpt>
      <trkpt lat="42.861183" lon="0.163042">
        <ele>2496.078</ele>
        <time>2020-07-01T13:12:08Z</time>
      </trkpt>
      <trkpt lat="42.861207" lon="0.162920">
        <ele>2501.065</ele>
        <time>2020-07-01T13:12:28Z</time>
      </trkpt>
      <trkpt lat="42.861261" lon="0.162810">
        <ele>2499.075</ele>
        <time>2020-07-01T13:12:42Z</time>
      </trkpt>
      <trkpt lat="42.861290" lon="0.162688">
        <ele>2501.093</ele>
        <time>2020-07-01T13:12:57Z</time>
      </trkpt>
      <trkpt lat="42.861313" lon="0.162564">
        <ele>2501.017</ele>
        <time>2020-07-01T13:13:10Z</time>
      </trkpt>
      <trkpt lat="42.861353" lon="0.162453">
        <ele>2501.089</ele>
        <time>2020-07-01T13:13:20Z</time>
      </trkpt>
      <trkpt lat="42.861402" lon="0.162341">
        <ele>2504.006</ele>
        <time>2020-07-01T13:13:31Z</time>
      </trkpt>
      <trkpt lat="42.861415" lon="0.162212">
        <ele>2502.026</ele>
        <time>2020-07-01T13:13:49Z</time>
      </trkpt>
      <trkpt lat="42.861443" lon="0.162095">
        <ele>2499.008</ele>
        <time>2020-07-01T13:14:00Z</time>
      </trkpt>
      <trkpt lat="42.861430" lon="0.161964">
        <ele>2501.023</ele>
        <time>2020-07-01T13:14:14Z</time>
      </trkpt>
      <trkpt lat="42.861412" lon="0.161836">
        <ele>2505.070</ele>
        <time>2020-07-01T13:14:27Z</time>
      </trkpt>
      <trkpt lat="42.861366" lon="0.161727">
        <ele>2505.048</ele>
        <time>2020-07-01T13:14:50Z</time>
      </trkpt>
      <trkpt lat="42.861288" lon="0.161661">
        <ele>2514.091</ele>
        <time>2020-07-01T13:15:00Z</time>
      </trkpt>
      <trkpt lat="42.861201" lon="0.161598">
        <ele>2515.068</ele>
        <time>2020-07-01T13:15:10Z</time>
      </trkpt>
      <trkpt lat="42.861127" lon="0.161525">
        <ele>2516.068</ele>
        <time>2020-07-01T13:15:22Z</time>
      </trkpt>
      <trkpt lat="42.861035" lon="0.161486">
        <ele>2517.026</ele>
        <time>2020-07-01T13:15:34Z</time>
      </trkpt>
      <trkpt lat="42.860935" lon="0.161466">
        <ele>2519.020</ele>
        <time>2020-07-01T13:15:45Z</time>
      </trkpt>
      <trkpt lat="42.860843" lon="0.161446">
        <ele>2517.061</ele>
        <time>2020-07-01T13:15:55Z</time>
      </trkpt>
      <trkpt lat="42.860751" lon="0.161431">
        <ele>2514.021</ele>
        <time>2020-07-01T13:16:04Z</time>
      </trkpt>
      <trkpt lat="42.860660" lon="0.161454">
        <ele>2512.013</ele>
        <time>2020-07-01T13:16:19Z</time>
      </trkpt>
      <trkpt lat="42.860565" lon="0.161468">
        <ele>2509.008</ele>
        <time>2020-07-01T13:16:31Z</time>
      </trkpt>
      <trkpt lat="42.860468" lon="0.161483">
        <ele>2512.051</ele>
        <time>2020-07-01T13:16:41Z</time>
      </trkpt>
      <trkpt lat="42.860373" lon="0.161519">
        <ele>2509.038</ele>
        <time>2020-07-01T13:16:54Z</time>
      </trkpt>
      <trkpt lat="42.860276" lon="0.161510">
        <ele>2511.036</ele>
        <time>2020-07-01T13:17:05Z</time>
      </trkpt>
      <trkpt lat="42.860179" lon="0.161546">
        <ele>2512.029</ele>
        <time>2020-07-01T13:17:13Z</time>
      </trkpt>
      <trkpt lat="42.860095" lon="0.161603">
        <ele>2516.026</ele>
        <time>2020-07-01T13:18:10Z</time>
      </trkpt>
      <trkpt lat="42.860019" lon="0.161676">
        <ele>2518.096</ele>
        <time>2020-07-01T13:18:20Z</time>
      </trkpt>
      <trkpt lat="42.859950" lon="0.161765">
        <ele>2513.084</ele>
        <time>2020-07-01T13:18:32Z</time>
      </trkpt>
      <trkpt lat="42.859869" lon="0.161819">
        <ele>2508.058</ele>
        <time>2020-07-01T13:18:44Z</time>
      </trkpt>
      <trkpt lat="42.859803" lon="0.161920">
        <ele>2511.035</ele>
        <time>2020-07-01T13:18:56Z</time>
      </trkpt>
      <trkpt lat="42.859728" lon="0.162000">
        <ele>2510.086</ele>
        <time>2020-07-01T13:19:03Z</time>
      </trkpt>
      <trkpt lat="42.859646" lon="0.162062">
        <ele>2508.014</ele>
        <time>2020-07-01T13:19:16Z</time>
      </trkpt>
      <trkpt lat="42.859557" lon="0.162119">
        <ele>2509.008</ele>
        <time>2020-07-01T13:19:32Z</time>
      </trkpt>
      <trkpt lat="42.859473" lon="0.162172">
        <ele>2513.028</ele>
        <time>2020-07-01T13:19:42Z</time>
      </trkpt>
      <trkpt lat="42.859390" lon="0.162240">
        <ele>2510.045</ele>
        <time>2020-07-01T13:19:54Z</time>
      </trkpt>
      <trkpt lat="42.859303" lon="0.162293">
        <ele>2506.073</ele>
        <time>2020-07-01T13:20:07Z</time>
      </trkpt>
      <trkpt lat="42.859229" lon="0.162364">
        <ele>2506.096</ele>
        <time>2020-07-01T13:20:19Z</time>
      </trkpt>
      <trkpt lat="42.859168" lon="0.162469">
        <ele>2506.063</ele>
        <time>2020-07-01T13:20:30Z</time>
      </trkpt>
      <trkpt lat="42.859134" lon="0.162599">
        <ele>2504.073</ele>
        <time>2020-07-01T13:20:57Z</time>
      </trkpt>
      <trkpt lat="42.859083" lon="0.162700">
        <ele>2501.031</ele>
        <time>2020-07-01T13:21:07Z</time>
      </trkpt>
      <trkpt lat="42.859059" lon="0.162828">
        <ele>2497.045</ele>
        <time>2020-07-01T13:21:22Z</time>
      </trkpt>
      <trkpt lat="42.858994" lon="0.162916">
        <ele>2499.021</ele>
        <time>2020-07-01T13:21:34Z</time>
      </trkpt>
      <trkpt lat="42.858950" lon="0.163032">
        <ele>2500.041</ele>
        <time>2020-07-01T13:21:46Z</time>
      </trkpt>
      <trkpt lat="42.858950" lon="0.163162">
        <ele>2494.005</ele>
        <time>2020-07-01T13:22:09Z</time>
      </trkpt>
      <trkpt lat="42.858919" lon="0.163281">
        <ele>2495.008</ele>
        <time>2020-07-01T13:22:22Z</time>
      </trkpt>
      <trkpt lat="42.858868" lon="0.163393">
        <ele>2493.047</ele>
        <time>2020-07-01T13:22:34Z</time>
      </trkpt>
      <trkpt lat="42.858815" lon="0.163494">
        <ele>2488.014</ele>
        <time>2020-07-01T13:22:51Z</time>
      </trkpt>
      <trkpt lat="42.858732" lon="0.163552">
        <ele>2486.062</ele>
        <time>2020-07-01T13:23:05Z</time>
      </trkpt>
      <trkpt lat="42.858646" lon="0.163514">
        <ele>2481.085</ele>
        <time>2020-07-01T13:23:18Z</time>
      </trkpt>
      <trkpt lat="42.858565" lon="0.163568">
        <ele>2475.022</ele>
        <time>2020-07-01T13:23:38Z</time>
      </trkpt>
      <trkpt lat="42.858481" lon="0.163508">
        <ele>2470.092</ele>
        <time>2020-07-01T13:24:00Z</time>
      </trkpt>
      <trkpt lat="42.858385" lon="0.163530">
        <ele>2473.080</ele>
        <time>2020-07-01T13:24:15Z</time>
      </trkpt>
      <trkpt lat="42.858291" lon="0.163539">
        <ele>2472.014</ele>
        <time>2020-07-01T13:24:24Z</time>
      </trkpt>
      <trkpt lat="42.858207" lon="0.163599">
        <ele>2468.078</ele>
        <time>2020-07-01T13:24:33Z</time>
      </trkpt>
      <trkpt lat="42.858115" lon="0.163588">
        <ele>2465.033</ele>
        <time>2020-07-01T13:24:58Z</time>
      </trkpt>
      <trkpt lat="42.858026" lon="0.163616">
        <ele>2462.026</ele>
        <time>2020-07-01T13:25:11Z</time>
      </trkpt>
      <trkpt lat="42.857992" lon="0.163497">
        <ele>2460.008</ele>
        <time>2020-07-01T13:25:25Z</time>
      </trkpt>
      <trkpt lat="42.857914" lon="0.163434">
        <ele>2455.012</ele>
        <time>2020-07-01T13:25:38Z</time>
      </trkpt>
      <trkpt lat="42.857831" lon="0.163375">
        <ele>2451.099</ele>
        <time>2020-07-01T13:25:55Z</time>
      </trkpt>
      <trkpt lat="42.857757" lon="0.163298">
        <ele>2450.057</ele>
        <time>2020-07-01T13:26:14Z</time>
      </trkpt>
      <trkpt lat="42.857672" lon="0.163257">
        <ele>2441.070</ele>
        <time>2020-07-01T13:26:25Z</time>
      </trkpt>
      <trkpt lat="42.857583" lon="0.163292">
        <ele>2439.087</ele>
        <time>2020-07-01T13:26:35Z</time>
      </trkpt>
      <trkpt lat="42.857494" lon="0.163315">
        <ele>2437.037</ele>
        <time>2020-07-01T13:26:45Z</time>
      </trkpt>
      <trkpt lat="42.857460" lon="0.163197">
        <ele>2436.085</ele>
        <time>2020-07-01T13:27:13Z</time>
      </trkpt>
      <trkpt lat="42.857377" lon="0.163135">
        <ele>2437.029</ele>
        <time>2020-07-01T13:27:29Z</time>
      </trkpt>
      <trkpt lat="42.857287" lon="0.163138">
        <ele>2434.097</ele>
        <time>2020-07-01T13:27:39Z</time>
      </trkpt>
      <trkpt lat="42.857196" lon="0.163119">
        <ele>2432.023</ele>
        <time>2020-07-01T13:27:54Z</time>
      </trkpt>
      <trkpt lat="42.857104" lon="0.163110">
        <ele>2433.025</ele>
        <time>2020-07-01T13:28:05Z</time>
      </trkpt>
      <trkpt lat="42.857010" lon="0.163067">
        <ele>2432.008</ele>
        <time>2020-07-01T13:28:15Z</time>
      </trkpt>
      <trkpt lat="42.856927" lon="0.163012">
        <ele>2429.094</ele>
        <time>2020-07-01T13:28:23Z</time>
      </trkpt>
      <trkpt lat="42.856846" lon="0.162939">
        <ele>2425.021</ele>
        <time>2020-07-01T13:28:42Z</time>
      </trkpt>
      <trkpt lat="42.856766" lon="0.162874">
        <ele>2426.019</ele>
        <time>2020-07-01T13:28:50Z</time>
      </trkpt>
      <trkpt lat="42.856667" lon="0.162873">
        <ele>2425.022</ele>
        <time>2020-07-01T13:29:01Z</time>
      </trkpt>
      <trkpt lat="42.856564" lon="0.162885">
        <ele>2428.029</ele>
        <time>2020-07-01T13:29:08Z</time>
      </trkpt>
      <trkpt lat="42.856470" lon="0.162883">
        <ele>2423.079</ele>
        <time>2020-07-01T13:29:20Z</time>
      </trkpt>
      <trkpt lat="42.856399" lon="0.162962">
        <ele>2423.087</ele>
        <time>2020-07-01T13:29:27Z</time>
      </trkpt>
      <trkpt lat="42.856312" lon="0.163015">
        <ele>2424.091</ele>
        <time>2020-07-01T13:29:38Z</time>
      </trkpt>
      <trkpt lat="42.856220" lon="0.162996">
        <ele>2424.083</ele>
        <time>2020-07-01T13:29:51Z</time>
      </trkpt>
      <trkpt lat="42.856129" lon="0.163039">
        <ele>2416.025</ele>
        <time>2020-07-01T13:30:11Z</time>
      </trkpt>
      <trkpt lat="42.856038" lon="0.163023">
        <ele>2416.017</ele>
        <time>2020-07-01T13:30:24Z</time>
      </trkpt>
      <trkpt lat="42.855948" lon="0.163025">
        <ele>2407.008</ele>
        <time>2020-07-01T13:30:37Z</time>
      </trkpt>
      <trkpt lat="42.855882" lon="0.162936">
        <ele>2404.043</ele>
        <time>2020-07-01T13:30:55Z</time>
      </trkpt>
      <trkpt lat="42.855782" lon="0.162931">
        <ele>2395.050</ele>
        <time>2020-07-01T13:31:07Z</time>
      </trkpt>
      <trkpt lat="42.855777" lon="0.162806">
        <ele>2398.028</ele>
        <time>2020-07-01T13:31:26Z</time>
      </trkpt>
      <trkpt lat="42.855822" lon="0.162698">
        <ele>2398.051</ele>
        <time>2020-07-01T13:31:35Z</time>
      </trkpt>
      <trkpt lat="42.855847" lon="0.162577">
        <ele>2398.038</ele>
        <time>2020-07-01T13:31:44Z</time>
      </trkpt>
      <trkpt lat="42.855858" lon="0.162454">
        <ele>2400.098</ele>
        <time>2020-07-01T13:31:54Z</time>
      </trkpt>
      <trkpt lat="42.855878" lon="0.162314">
        <ele>2407.066</ele>
        <time>2020-07-01T13:32:18Z</time>
      </trkpt>
      <trkpt lat="42.855852" lon="0.162187">
        <ele>2407.060</ele>
        <time>2020-07-01T13:32:30Z</time>
      </trkpt>
      <trkpt lat="42.855830" lon="0.162059">
        <ele>2405.067</ele>
        <time>2020-07-01T13:32:42Z</time>
      </trkpt>
      <trkpt lat="42.855773" lon="0.161955">
        <ele>2404.081</ele>
        <time>2020-07-01T13:32:52Z</time>
      </trkpt>
      <trkpt lat="42.855765" lon="0.161831">
        <ele>2404.019</ele>
        <time>2020-07-01T13:33:01Z</time>
      </trkpt>
      <trkpt lat="42.855772" lon="0.161703">
        <ele>2406.008</ele>
        <time>2020-07-01T13:33:11Z</time>
      </trkpt>
      <trkpt lat="42.855774" lon="0.161576">
        <ele>2406.031</ele>
        <time>2020-07-01T13:33:23Z</time>
      </trkpt>
      <trkpt lat="42.855822" lon="0.161468">
        <ele>2401.098</ele>
        <time>2020-07-01T13:33:35Z</time>
      </trkpt>
      <trkpt lat="42.855853" lon="0.161351">
        <ele>2398.056</ele>
        <time>2020-07-01T13:33:46Z</time>
      </trkpt>
      <trkpt lat="42.855856" lon="0.161227">
        <ele>2400.059</ele>
        <time>2020-07-01T13:33:55Z</time>
      </trkpt>
      <trkpt lat="42.855846" lon="0.161098">
        <ele>2399.076</ele>
        <time>2020-07-01T13:34:07Z</time>
      </trkpt>
      <trkpt lat="42.855806" lon="0.160979">
        <ele>2398.056</ele>
        <time>2020-07-01T13:34:22Z</time>
      </trkpt>
      <trkpt lat="42.855717" lon="0.160913">
        <ele>2392.054</ele>
        <time>2020-07-01T13:34:33Z</time>
      </trkpt>
      <trkpt lat="42.855656" lon="0.160821">
        <ele>2391.098</ele>
        <time>2020-07-01T13:34:43Z</time>
      </trkpt>
      <trkpt lat="42.855566" lon="0.160769">
        <ele>2391.079</ele>
        <time>2020-07-01T13:34:53Z</time>
      </trkpt>
      <trkpt lat="42.855468" lon="0.160754">
        <ele>2390.005</ele>
        <time>2020-07-01T13:35:08Z</time>
      </trkpt>
      <trkpt lat="42.855377" lon="0.160705">
        <ele>2392.025</ele>
        <time>2020-07-01T13:35:19Z</time>
      </trkpt>
      <trkpt lat="42.855284" lon="0.160668">
        <ele>2393.008</ele>
        <time>2020-07-01T13:35:29Z</time>
      </trkpt>
      <trkpt lat="42.855208" lon="0.160593">
        <ele>2392.072</ele>
        <time>2020-07-01T13:35:39Z</time>
      </trkpt>
      <trkpt lat="42.855131" lon="0.160530">
        <ele>2393.079</ele>
        <time>2020-07-01T13:35:53Z</time>
      </trkpt>
      <trkpt lat="42.855136" lon="0.160394">
        <ele>2392.087</ele>
        <time>2020-07-01T13:36:04Z</time>
      </trkpt>
      <trkpt lat="42.855132" lon="0.160265">
        <ele>2396.070</ele>
        <time>2020-07-01T13:36:19Z</time>
      </trkpt>
      <trkpt lat="42.855123" lon="0.160136">
        <ele>2399.077</ele>
        <time>2020-07-01T13:36:44Z</time>
      </trkpt>
      <trkpt lat="42.855130" lon="0.160005">
        <ele>2400.027</ele>
        <time>2020-07-01T13:37:01Z</time>
      </trkpt>
      <trkpt lat="42.855137" lon="0.159868">
        <ele>2402.055</ele>
        <time>2020-07-01T13:37:20Z</time>
      </trkpt>
      <trkpt lat="42.855205" lon="0.159783">
        <ele>2401.059</ele>
        <time>2020-07-01T13:37:32Z</time>
      </trkpt>
      <trkpt lat="42.855204" lon="0.159659">
        <ele>2401.019</ele>
        <time>2020-07-01T13:37:44Z</time>
      </trkpt>
      <trkpt lat="42.855201" lon="0.159533">
        <ele>2402.009</ele>
        <time>2020-07-01T13:37:55Z</time>
      </trkpt>
      <trkpt lat="42.855168" lon="0.159415">
        <ele>2403.019</ele>
        <time>2020-07-01T13:38:07Z</time>
      </trkpt>
      <trkpt lat="42.855116" lon="0.159296">
        <ele>2404.008</ele>
        <time>2020-07-01T13:38:23Z</time>
      </trkpt>
      <trkpt lat="42.855131" lon="0.159175">
        <ele>2400.016</ele>
        <time>2020-07-01T13:39:01Z</time>
      </trkpt>
      <trkpt lat="42.855119" lon="0.159045">
        <ele>2397.013</ele>
        <time>2020-07-01T13:39:11Z</time>
      </trkpt>
      <trkpt lat="42.855046" lon="0.158973">
        <ele>2397.011</ele>
        <time>2020-07-01T13:39:24Z</time>
      </trkpt>
      <trkpt lat="42.855008" lon="0.158861">
        <ele>2397.044</ele>
        <time>2020-07-01T13:39:50Z</time>
      </trkpt>
      <trkpt lat="42.854986" lon="0.158729">
        <ele>2396.071</ele>
        <time>2020-07-01T13:40:01Z</time>
      </trkpt>
      <trkpt lat="42.854927" lon="0.158635">
        <ele>2393.091</ele>
        <time>2020-07-01T13:40:18Z</time>
      </trkpt>
      <trkpt lat="42.854838" lon="0.158606">
        <ele>2398.049</ele>
        <time>2020-07-01T13:40:50Z</time>
      </trkpt>
      <trkpt lat="42.854754" lon="0.158550">
        <ele>2390.013</ele>
        <time>2020-07-01T13:42:16Z</time>
      </trkpt>
      <trkpt lat="42.854699" lon="0.158448">
        <ele>2392.095</ele>
        <time>2020-07-01T13:42:35Z</time>
      </trkpt>
      <trkpt lat="42.854611" lon="0.158404">
        <ele>2390.049</ele>
        <time>2020-07-01T13:42:48Z</time>
      </trkpt>
      <trkpt lat="42.854536" lon="0.158336">
        <ele>2392.023</ele>
        <time>2020-07-01T13:44:10Z</time>
      </trkpt>
      <trkpt lat="42.854453" lon="0.158281">
        <ele>2392.008</ele>
        <time>2020-07-01T13:46:32Z</time>
      </trkpt>
      <trkpt lat="42.854385" lon="0.158200">
        <ele>2390.024</ele>
        <time>2020-07-01T13:46:48Z</time>
      </trkpt>
      <trkpt lat="42.854287" lon="0.158195">
        <ele>2392.021</ele>
        <time>2020-07-01T13:47:26Z</time>
      </trkpt>
      <trkpt lat="42.854220" lon="0.158289">
        <ele>2387.099</ele>
        <time>2020-07-01T13:47:46Z</time>
      </trkpt>
      <trkpt lat="42.854131" lon="0.158330">
        <ele>2386.062</ele>
        <time>2020-07-01T13:48:00Z</time>
      </trkpt>
      <trkpt lat="42.854055" lon="0.158401">
        <ele>2382.019</ele>
        <time>2020-07-01T13:48:12Z</time>
      </trkpt>
      <trkpt lat="42.853971" lon="0.158452">
        <ele>2389.099</ele>
        <time>2020-07-01T14:04:33Z</time>
      </trkpt>
      <trkpt lat="42.853922" lon="0.158559">
        <ele>2392.037</ele>
        <time>2020-07-01T14:05:10Z</time>
      </trkpt>
      <trkpt lat="42.853889" lon="0.158681">
        <ele>2389.011</ele>
        <time>2020-07-01T14:05:29Z</time>
      </trkpt>
      <trkpt lat="42.853929" lon="0.158794">
        <ele>2384.087</ele>
        <time>2020-07-01T14:05:44Z</time>
      </trkpt>
      <trkpt lat="42.853896" lon="0.158916">
        <ele>2383.042</ele>
        <time>2020-07-01T14:05:57Z</time>
      </trkpt>
      <trkpt lat="42.853870" lon="0.159033">
        <ele>2382.026</ele>
        <time>2020-07-01T14:06:17Z</time>
      </trkpt>
      <trkpt lat="42.853854" lon="0.159157">
        <ele>2383.008</ele>
        <time>2020-07-01T14:06:27Z</time>
      </trkpt>
      <trkpt lat="42.853859" lon="0.159280">
        <ele>2381.033</ele>
        <time>2020-07-01T14:06:42Z</time>
      </trkpt>
      <trkpt lat="42.853914" lon="0.159181">
        <ele>2381.030</ele>
        <time>2020-07-01T16:08:32Z</time>
      </trkpt>
      <trkpt lat="42.853868" lon="0.159071">
        <ele>2383.018</ele>
        <time>2020-07-01T16:08:54Z</time>
      </trkpt>
      <trkpt lat="42.853919" lon="0.158970">
        <ele>2383.051</ele>
        <time>2020-07-01T16:09:06Z</time>
      </trkpt>
      <trkpt lat="42.853942" lon="0.158851">
        <ele>2396.088</ele>
        <time>2020-07-01T16:09:34Z</time>
      </trkpt>
      <trkpt lat="42.853981" lon="0.158734">
        <ele>2393.078</ele>
        <time>2020-07-01T16:09:49Z</time>
      </trkpt>
      <trkpt lat="42.853988" lon="0.158608">
        <ele>2393.026</ele>
        <time>2020-07-01T16:10:08Z</time>
      </trkpt>
      <trkpt lat="42.848121" lon="0.159036">
        <ele>2380.070</ele>
        <time>2020-07-01T16:25:11Z</time>
      </trkpt>
      <trkpt lat="42.848032" lon="0.159011">
        <ele>2382.092</ele>
        <time>2020-07-01T16:25:42Z</time>
      </trkpt>
      <trkpt lat="42.847944" lon="0.158977">
        <ele>2380.073</ele>
        <time>2020-07-01T16:26:11Z</time>
      </trkpt>
      <trkpt lat="42.847848" lon="0.158937">
        <ele>2382.020</ele>
        <time>2020-07-01T16:26:19Z</time>
      </trkpt>
      <trkpt lat="42.847755" lon="0.158979">
        <ele>2383.008</ele>
        <time>2020-07-01T16:26:28Z</time>
      </trkpt>
      <trkpt lat="42.847676" lon="0.159054">
        <ele>2381.044</ele>
        <time>2020-07-01T16:26:36Z</time>
      </trkpt>
      <trkpt lat="42.847613" lon="0.159150">
        <ele>2384.091</ele>
        <time>2020-07-01T16:26:47Z</time>
      </trkpt>
      <trkpt lat="42.847525" lon="0.159202">
        <ele>2384.099</ele>
        <time>2020-07-01T16:26:58Z</time>
      </trkpt>
      <trkpt lat="42.847442" lon="0.159251">
        <ele>2383.062</ele>
        <time>2020-07-01T16:27:09Z</time>
      </trkpt>
      <trkpt lat="42.847413" lon="0.159372">
        <ele>2378.079</ele>
        <time>2020-07-01T16:27:20Z</time>
      </trkpt>
      <trkpt lat="42.847329" lon="0.159444">
        <ele>2375.079</ele>
        <time>2020-07-01T16:27:29Z</time>
      </trkpt>
      <trkpt lat="42.847241" lon="0.159472">
        <ele>2377.067</ele>
        <time>2020-07-01T16:27:37Z</time>
      </trkpt>
      <trkpt lat="42.847156" lon="0.159520">
        <ele>2379.091</ele>
        <time>2020-07-01T16:27:46Z</time>
      </trkpt>
      <trkpt lat="42.847065" lon="0.159521">
        <ele>2376.048</ele>
        <time>2020-07-01T16:27:54Z</time>
      </trkpt>
      <trkpt lat="42.846981" lon="0.159571">
        <ele>2375.061</ele>
        <time>2020-07-01T16:28:04Z</time>
      </trkpt>
      <trkpt lat="42.846897" lon="0.159621">
        <ele>2376.017</ele>
        <time>2020-07-01T16:28:18Z</time>
      </trkpt>
      <trkpt lat="42.846814" lon="0.159549">
        <ele>2383.008</ele>
        <time>2020-07-01T16:28:45Z</time>
      </trkpt>
      <trkpt lat="42.846731" lon="0.159606">
        <ele>2383.069</ele>
        <time>2020-07-01T16:29:00Z</time>
      </trkpt>
      <trkpt lat="42.846638" lon="0.159621">
        <ele>2383.096</ele>
        <time>2020-07-01T16:29:13Z</time>
      </trkpt>
      <trkpt lat="42.846545" lon="0.159655">
        <ele>2389.014</ele>
        <time>2020-07-01T16:29:45Z</time>
      </trkpt>
      <trkpt lat="42.846451" lon="0.159643">
        <ele>2387.057</ele>
        <time>2020-07-01T16:29:55Z</time>
      </trkpt>
      <trkpt lat="42.846363" lon="0.159679">
        <ele>2386.044</ele>
        <time>2020-07-01T16:30:06Z</time>
      </trkpt>
      <trkpt lat="42.846269" lon="0.159701">
        <ele>2394.054</ele>
        <time>2020-07-01T16:30:21Z</time>
      </trkpt>
      <trkpt lat="42.846194" lon="0.159633">
        <ele>2395.072</ele>
        <time>2020-07-01T16:30:41Z</time>
      </trkpt>
      <trkpt lat="42.846101" lon="0.159635">
        <ele>2392.096</ele>
        <time>2020-07-01T16:30:54Z</time>
      </trkpt>
      <trkpt lat="42.846023" lon="0.159717">
        <ele>2390.083</ele>
        <time>2020-07-01T16:31:06Z</time>
      </trkpt>
      <trkpt lat="42.845933" lon="0.159714">
        <ele>2392.025</ele>
        <time>2020-07-01T16:31:26Z</time>
      </trkpt>
      <trkpt lat="42.845883" lon="0.159608">
        <ele>2401.017</ele>
        <time>2020-07-01T16:31:51Z</time>
      </trkpt>
      <trkpt lat="42.845805" lon="0.159669">
        <ele>2402.008</ele>
        <time>2020-07-01T16:32:11Z</time>
      </trkpt>
      <trkpt lat="42.845728" lon="0.159747">
        <ele>2399.043</ele>
        <time>2020-07-01T16:32:37Z</time>
      </trkpt>
      <trkpt lat="42.845675" lon="0.159863">
        <ele>2403.070</ele>
        <time>2020-07-01T16:32:51Z</time>
      </trkpt>
      <trkpt lat="42.845594" lon="0.159921">
        <ele>2408.068</ele>
        <time>2020-07-01T16:33:18Z</time>
      </trkpt>
      <trkpt lat="42.845501" lon="0.159957">
        <ele>2408.061</ele>
        <time>2020-07-01T16:33:30Z</time>
      </trkpt>
      <trkpt lat="42.845412" lon="0.160008">
        <ele>2407.098</ele>
        <time>2020-07-01T16:33:40Z</time>
      </trkpt>
      <trkpt lat="42.845332" lon="0.160075">
        <ele>2405.048</ele>
        <time>2020-07-01T16:33:50Z</time>
      </trkpt>
      <trkpt lat="42.845246" lon="0.160137">
        <ele>2412.096</ele>
        <time>2020-07-01T16:34:04Z</time>
      </trkpt>
      <trkpt lat="42.845167" lon="0.160196">
        <ele>2411.080</ele>
        <time>2020-07-01T16:34:17Z</time>
      </trkpt>
      <trkpt lat="42.845091" lon="0.160280">
        <ele>2411.027</ele>
        <time>2020-07-01T16:34:32Z</time>
      </trkpt>
      <trkpt lat="42.845000" lon="0.160326">
        <ele>2410.068</ele>
        <time>2020-07-01T16:34:44Z</time>
      </trkpt>
      <trkpt lat="42.844905" lon="0.160325">
        <ele>2413.014</ele>
        <time>2020-07-01T16:35:25Z</time>
      </trkpt>
      <trkpt lat="42.844816" lon="0.160348">
        <ele>2413.008</ele>
        <time>2020-07-01T16:35:37Z</time>
      </trkpt>
      <trkpt lat="42.844723" lon="0.160398">
        <ele>2415.027</ele>
        <time>2020-07-01T16:35:56Z</time>
      </trkpt>
      <trkpt lat="42.844634" lon="0.160436">
        <ele>2419.064</ele>
        <time>2020-07-01T16:36:13Z</time>
      </trkpt>
      <trkpt lat="42.844541" lon="0.160456">
        <ele>2426.062</ele>
        <time>2020-07-01T16:37:28Z</time>
      </trkpt>
      <trkpt lat="42.844499" lon="0.160348">
        <ele>2434.025</ele>
        <time>2020-07-01T16:37:47Z</time>
      </trkpt>
      <trkpt lat="42.844483" lon="0.160220">
        <ele>2429.032</ele>
        <time>2020-07-01T16:38:06Z</time>
      </trkpt>
      <trkpt lat="42.844392" lon="0.160226">
        <ele>2428.022</ele>
        <time>2020-07-01T16:38:19Z</time>
      </trkpt>
      <trkpt lat="42.844310" lon="0.160168">
        <ele>2435.080</ele>
        <time>2020-07-01T16:39:13Z</time>
      </trkpt>
      <trkpt lat="42.844220" lon="0.160148">
        <ele>2432.024</ele>
        <time>2020-07-01T16:39:26Z</time>
      </trkpt>
      <trkpt lat="42.844129" lon="0.160163">
        <ele>2431.068</ele>
        <time>2020-07-01T16:39:37Z</time>
      </trkpt>
      <trkpt lat="42.844044" lon="0.160209">
        <ele>2432.042</ele>
        <time>2020-07-01T16:39:58Z</time>
      </trkpt>
      <trkpt lat="42.843993" lon="0.160314">
        <ele>2426.026</ele>
        <time>2020-07-01T16:40:48Z</time>
      </trkpt>
      <trkpt lat="42.843928" lon="0.160220">
        <ele>2424.008</ele>
        <time>2020-07-01T16:41:07Z</time>
      </trkpt>
      <trkpt lat="42.843839" lon="0.160172">
        <ele>2420.091</ele>
        <time>2020-07-01T16:41:31Z</time>
      </trkpt>
      <trkpt lat="42.843761" lon="0.160108">
        <ele>2417.048</ele>
        <time>2020-07-01T16:42:06Z</time>
      </trkpt>
      <trkpt lat="42.843679" lon="0.160041">
        <ele>2416.026</ele>
        <time>2020-07-01T16:42:18Z</time>
      </trkpt>
      <trkpt lat="42.843594" lon="0.159993">
        <ele>2413.089</ele>
        <time>2020-07-01T16:42:31Z</time>
      </trkpt>
      <trkpt lat="42.843498" lon="0.160000">
        <ele>2408.016</ele>
        <time>2020-07-01T16:42:44Z</time>
      </trkpt>
      <trkpt lat="42.843404" lon="0.159989">
        <ele>2404.036</ele>
        <time>2020-07-01T16:43:16Z</time>
      </trkpt>
      <trkpt lat="42.843315" lon="0.160023">
        <ele>2402.044</ele>
        <time>2020-07-01T16:43:26Z</time>
      </trkpt>
      <trkpt lat="42.843301" lon="0.159895">
        <ele>2397.018</ele>
        <time>2020-07-01T16:43:54Z</time>
      </trkpt>
      <trkpt lat="42.843216" lon="0.159819">
        <ele>2395.046</ele>
        <time>2020-07-01T16:44:06Z</time>
      </trkpt>
      <trkpt lat="42.843141" lon="0.159746">
        <ele>2391.088</ele>
        <time>2020-07-01T16:45:12Z</time>
      </trkpt>
      <trkpt lat="42.843138" lon="0.159617">
        <ele>2382.016</ele>
        <time>2020-07-01T16:45:47Z</time>
      </trkpt>
      <trkpt lat="42.843163" lon="0.159468">
        <ele>2381.008</ele>
        <time>2020-07-01T16:45:57Z</time>
      </trkpt>
      <trkpt lat="42.843164" lon="0.159339">
        <ele>2383.019</ele>
        <time>2020-07-01T16:46:07Z</time>
      </trkpt>
      <trkpt lat="42.843174" lon="0.159208">
        <ele>2387.046</ele>
        <time>2020-07-01T16:46:18Z</time>
      </trkpt>
      <trkpt lat="42.843158" lon="0.159079">
        <ele>2383.044</ele>
        <time>2020-07-01T16:46:32Z</time>
      </trkpt>
      <trkpt lat="42.843074" lon="0.159016">
        <ele>2375.097</ele>
        <time>2020-07-01T16:48:58Z</time>
      </trkpt>
      <trkpt lat="42.842993" lon="0.159071">
        <ele>2373.074</ele>
        <time>2020-07-01T16:49:23Z</time>
      </trkpt>
      <trkpt lat="42.842942" lon="0.159173">
        <ele>2369.074</ele>
        <time>2020-07-01T16:49:45Z</time>
      </trkpt>
      <trkpt lat="42.842852" lon="0.159160">
        <ele>2367.012</ele>
        <time>2020-07-01T16:50:00Z</time>
      </trkpt>
      <trkpt lat="42.842847" lon="0.159282">
        <ele>2362.046</ele>
        <time>2020-07-01T16:50:21Z</time>
      </trkpt>
      <trkpt lat="42.842773" lon="0.159354">
        <ele>2361.025</ele>
        <time>2020-07-01T16:50:31Z</time>
      </trkpt>
      <trkpt lat="42.842716" lon="0.159248">
        <ele>2350.026</ele>
        <time>2020-07-01T16:51:04Z</time>
      </trkpt>
      <trkpt lat="42.842725" lon="0.159124">
        <ele>2346.008</ele>
        <time>2020-07-01T16:51:23Z</time>
      </trkpt>
      <trkpt lat="42.842664" lon="0.159034">
        <ele>2345.008</ele>
        <time>2020-07-01T16:52:07Z</time>
      </trkpt>
      <trkpt lat="42.842616" lon="0.158928">
        <ele>2339.097</ele>
        <time>2020-07-01T16:52:32Z</time>
      </trkpt>
      <trkpt lat="42.842563" lon="0.158818">
        <ele>2338.014</ele>
        <time>2020-07-01T16:52:49Z</time>
      </trkpt>
      <trkpt lat="42.842494" lon="0.158901">
        <ele>2334.082</ele>
        <time>2020-07-01T16:53:17Z</time>
      </trkpt>
      <trkpt lat="42.842446" lon="0.159009">
        <ele>2332.095</ele>
        <time>2020-07-01T16:53:29Z</time>
      </trkpt>
      <trkpt lat="42.842398" lon="0.158904">
        <ele>2327.082</ele>
        <time>2020-07-01T16:53:41Z</time>
      </trkpt>
      <trkpt lat="42.842313" lon="0.158854">
        <ele>2325.022</ele>
        <time>2020-07-01T16:54:00Z</time>
      </trkpt>
      <trkpt lat="42.842274" lon="0.158967">
        <ele>2324.070</ele>
        <time>2020-07-01T16:54:25Z</time>
      </trkpt>
      <trkpt lat="42.842190" lon="0.159034">
        <ele>2326.054</ele>
        <time>2020-07-01T16:54:38Z</time>
      </trkpt>
      <trkpt lat="42.842115" lon="0.158954">
        <ele>2323.062</ele>
        <time>2020-07-01T16:54:53Z</time>
      </trkpt>
      <trkpt lat="42.842027" lon="0.158999">
        <ele>2318.083</ele>
        <time>2020-07-01T16:55:25Z</time>
      </trkpt>
      <trkpt lat="42.841939" lon="0.159028">
        <ele>2315.011</ele>
        <time>2020-07-01T16:55:52Z</time>
      </trkpt>
      <trkpt lat="42.841850" lon="0.158966">
        <ele>2310.008</ele>
        <time>2020-07-01T16:56:07Z</time>
      </trkpt>
      <trkpt lat="42.841764" lon="0.158924">
        <ele>2309.081</ele>
        <time>2020-07-01T16:56:34Z</time>
      </trkpt>
      <trkpt lat="42.841679" lon="0.158981">
        <ele>2303.058</ele>
        <time>2020-07-01T16:57:04Z</time>
      </trkpt>
      <trkpt lat="42.841600" lon="0.159056">
        <ele>2302.016</ele>
        <time>2020-07-01T16:57:14Z</time>
      </trkpt>
      <trkpt lat="42.841562" lon="0.158941">
        <ele>2299.029</ele>
        <time>2020-07-01T16:57:29Z</time>
      </trkpt>
      <trkpt lat="42.841577" lon="0.158820">
        <ele>2298.066</ele>
        <time>2020-07-01T16:57:41Z</time>
      </trkpt>
      <trkpt lat="42.841565" lon="0.158698">
        <ele>2297.066</ele>
        <time>2020-07-01T16:57:55Z</time>
      </trkpt>
      <trkpt lat="42.841532" lon="0.158573">
        <ele>2297.064</ele>
        <time>2020-07-01T16:58:08Z</time>
      </trkpt>
      <trkpt lat="42.841468" lon="0.158485">
        <ele>2293.088</ele>
        <time>2020-07-01T16:58:29Z</time>
      </trkpt>
      <trkpt lat="42.841376" lon="0.158491">
        <ele>2290.064</ele>
        <time>2020-07-01T16:58:52Z</time>
      </trkpt>
      <trkpt lat="42.841288" lon="0.158451">
        <ele>2286.006</ele>
        <time>2020-07-01T16:59:08Z</time>
      </trkpt>
      <trkpt lat="42.841275" lon="0.158325">
        <ele>2283.016</ele>
        <time>2020-07-01T17:05:44Z</time>
      </trkpt>
      <trkpt lat="42.841241" lon="0.158206">
        <ele>2282.008</ele>
        <time>2020-07-01T17:05:54Z</time>
      </trkpt>
      <trkpt lat="42.841167" lon="0.158129">
        <ele>2279.051</ele>
        <time>2020-07-01T17:06:10Z</time>
      </trkpt>
      <trkpt lat="42.841073" lon="0.158164">
        <ele>2277.048</ele>
        <time>2020-07-01T17:06:21Z</time>
      </trkpt>
      <trkpt lat="42.840976" lon="0.158177">
        <ele>2272.036</ele>
        <time>2020-07-01T17:06:35Z</time>
      </trkpt>
      <trkpt lat="42.840894" lon="0.158234">
        <ele>2270.089</ele>
        <time>2020-07-01T17:06:45Z</time>
      </trkpt>
      <trkpt lat="42.840802" lon="0.158264">
        <ele>2264.016</ele>
        <time>2020-07-01T17:07:18Z</time>
      </trkpt>
      <trkpt lat="42.840720" lon="0.158211">
        <ele>2263.026</ele>
        <time>2020-07-01T17:07:28Z</time>
      </trkpt>
      <trkpt lat="42.840635" lon="0.158150">
        <ele>2260.094</ele>
        <time>2020-07-01T17:07:43Z</time>
      </trkpt>
      <trkpt lat="42.840541" lon="0.158106">
        <ele>2256.058</ele>
        <time>2020-07-01T17:08:00Z</time>
      </trkpt>
      <trkpt lat="42.840442" lon="0.158063">
        <ele>2253.064</ele>
        <time>2020-07-01T17:08:09Z</time>
      </trkpt>
      <trkpt lat="42.840367" lon="0.157978">
        <ele>2253.006</ele>
        <time>2020-07-01T17:08:19Z</time>
      </trkpt>
      <trkpt lat="42.840299" lon="0.157892">
        <ele>2253.016</ele>
        <time>2020-07-01T17:08:26Z</time>
      </trkpt>
      <trkpt lat="42.840204" lon="0.157829">
        <ele>2250.008</ele>
        <time>2020-07-01T17:08:36Z</time>
      </trkpt>
      <trkpt lat="42.840114" lon="0.157776">
        <ele>2252.091</ele>
        <time>2020-07-01T17:08:44Z</time>
      </trkpt>
      <trkpt lat="42.840022" lon="0.157736">
        <ele>2248.098</ele>
        <time>2020-07-01T17:08:53Z</time>
      </trkpt>
      <trkpt lat="42.839930" lon="0.157708">
        <ele>2244.056</ele>
        <time>2020-07-01T17:09:04Z</time>
      </trkpt>
      <trkpt lat="42.839897" lon="0.157588">
        <ele>2242.089</ele>
        <time>2020-07-01T17:09:26Z</time>
      </trkpt>
      <trkpt lat="42.839851" lon="0.157475">
        <ele>2243.046</ele>
        <time>2020-07-01T17:09:46Z</time>
      </trkpt>
      <trkpt lat="42.839769" lon="0.157414">
        <ele>2246.076</ele>
        <time>2020-07-01T17:09:59Z</time>
      </trkpt>
      <trkpt lat="42.839685" lon="0.157365">
        <ele>2242.044</ele>
        <time>2020-07-01T17:10:14Z</time>
      </trkpt>
      <trkpt lat="42.839593" lon="0.157343">
        <ele>2241.038</ele>
        <time>2020-07-01T17:10:23Z</time>
      </trkpt>
      <trkpt lat="42.839581" lon="0.157220">
        <ele>2245.072</ele>
        <time>2020-07-01T17:10:37Z</time>
      </trkpt>
      <trkpt lat="42.839584" lon="0.157346">
        <ele>2254.013</ele>
        <time>2020-07-01T17:12:19Z</time>
      </trkpt>
      <trkpt lat="42.839605" lon="0.157467">
        <ele>2250.014</ele>
        <time>2020-07-01T17:12:34Z</time>
      </trkpt>
      <trkpt lat="42.839602" lon="0.157600">
        <ele>2251.008</ele>
        <time>2020-07-01T17:12:44Z</time>
      </trkpt>
      <trkpt lat="42.839534" lon="0.157688">
        <ele>2249.082</ele>
        <time>2020-07-01T17:12:55Z</time>
      </trkpt>
      <trkpt lat="42.839457" lon="0.157617">
        <ele>2245.039</ele>
        <time>2020-07-01T17:13:05Z</time>
      </trkpt>
      <trkpt lat="42.839363" lon="0.157604">
        <ele>2241.097</ele>
        <time>2020-07-01T17:13:48Z</time>
      </trkpt>
      <trkpt lat="42.839299" lon="0.157518">
        <ele>2236.070</ele>
        <time>2020-07-01T17:14:28Z</time>
      </trkpt>
      <trkpt lat="42.839212" lon="0.157468">
        <ele>2239.077</ele>
        <time>2020-07-01T17:14:40Z</time>
      </trkpt>
      <trkpt lat="42.839121" lon="0.157467">
        <ele>2239.097</ele>
        <time>2020-07-01T17:14:57Z</time>
      </trkpt>
      <trkpt lat="42.839046" lon="0.157392">
        <ele>2237.015</ele>
        <time>2020-07-01T17:15:08Z</time>
      </trkpt>
      <trkpt lat="42.838988" lon="0.157294">
        <ele>2238.039</ele>
        <time>2020-07-01T17:15:18Z</time>
      </trkpt>
      <trkpt lat="42.838914" lon="0.157207">
        <ele>2244.059</ele>
        <time>2020-07-01T17:15:28Z</time>
      </trkpt>
      <trkpt lat="42.838873" lon="0.157097">
        <ele>2244.003</ele>
        <time>2020-07-01T17:15:37Z</time>
      </trkpt>
      <trkpt lat="42.838842" lon="0.156970">
        <ele>2245.023</ele>
        <time>2020-07-01T17:15:46Z</time>
      </trkpt>
      <trkpt lat="42.838847" lon="0.156831">
        <ele>2247.008</ele>
        <time>2020-07-01T17:15:55Z</time>
      </trkpt>
      <trkpt lat="42.838865" lon="0.156700">
        <ele>2244.040</ele>
        <time>2020-07-01T17:16:03Z</time>
      </trkpt>
      <trkpt lat="42.838909" lon="0.156589">
        <ele>2245.027</ele>
        <time>2020-07-01T17:16:12Z</time>
      </trkpt>
      <trkpt lat="42.838940" lon="0.156473">
        <ele>2247.055</ele>
        <time>2020-07-01T17:16:21Z</time>
      </trkpt>
      <trkpt lat="42.838988" lon="0.156363">
        <ele>2246.068</ele>
        <time>2020-07-01T17:16:33Z</time>
      </trkpt>
      <trkpt lat="42.838969" lon="0.156243">
        <ele>2242.045</ele>
        <time>2020-07-01T17:16:44Z</time>
      </trkpt>
      <trkpt lat="42.838903" lon="0.156151">
        <ele>2244.065</ele>
        <time>2020-07-01T17:16:55Z</time>
      </trkpt>
      <trkpt lat="42.838871" lon="0.156028">
        <ele>2249.013</ele>
        <time>2020-07-01T17:17:03Z</time>
      </trkpt>
      <trkpt lat="42.838868" lon="0.155900">
        <ele>2247.047</ele>
        <time>2020-07-01T17:17:11Z</time>
      </trkpt>
      <trkpt lat="42.838847" lon="0.155774">
        <ele>2245.025</ele>
        <time>2020-07-01T17:17:22Z</time>
      </trkpt>
      <trkpt lat="42.838825" lon="0.155642">
        <ele>2247.026</ele>
        <time>2020-07-01T17:17:30Z</time>
      </trkpt>
      <trkpt lat="42.838830" lon="0.155511">
        <ele>2245.008</ele>
        <time>2020-07-01T17:17:41Z</time>
      </trkpt>
      <trkpt lat="42.838823" lon="0.155381">
        <ele>2247.008</ele>
        <time>2020-07-01T17:17:52Z</time>
      </trkpt>
      <trkpt lat="42.838865" lon="0.155266">
        <ele>2247.077</ele>
        <time>2020-07-01T17:18:04Z</time>
      </trkpt>
      <trkpt lat="42.838836" lon="0.155149">
        <ele>2245.044</ele>
        <time>2020-07-01T17:18:18Z</time>
      </trkpt>
      <trkpt lat="42.838856" lon="0.155021">
        <ele>2246.042</ele>
        <time>2020-07-01T17:18:57Z</time>
      </trkpt>
      <trkpt lat="42.838871" lon="0.154896">
        <ele>2241.075</ele>
        <time>2020-07-01T17:19:05Z</time>
      </trkpt>
      <trkpt lat="42.838882" lon="0.154764">
        <ele>2243.052</ele>
        <time>2020-07-01T17:19:19Z</time>
      </trkpt>
      <trkpt lat="42.838926" lon="0.154644">
        <ele>2247.032</ele>
        <time>2020-07-01T17:19:30Z</time>
      </trkpt>
      <trkpt lat="42.838951" lon="0.154513">
        <ele>2252.060</ele>
        <time>2020-07-01T17:19:42Z</time>
      </trkpt>
      <trkpt lat="42.838973" lon="0.154386">
        <ele>2250.024</ele>
        <time>2020-07-01T17:19:50Z</time>
      </trkpt>
      <trkpt lat="42.838971" lon="0.154262">
        <ele>2247.014</ele>
        <time>2020-07-01T17:20:01Z</time>
      </trkpt>
      <trkpt lat="42.838964" lon="0.154125">
        <ele>2244.054</ele>
        <time>2020-07-01T17:20:12Z</time>
      </trkpt>
      <trkpt lat="42.838920" lon="0.154018">
        <ele>2247.009</ele>
        <time>2020-07-01T17:20:20Z</time>
      </trkpt>
      <trkpt lat="42.838899" lon="0.153889">
        <ele>2244.008</ele>
        <time>2020-07-01T17:20:31Z</time>
      </trkpt>
      <trkpt lat="42.838874" lon="0.153768">
        <ele>2239.046</ele>
        <time>2020-07-01T17:20:45Z</time>
      </trkpt>
      <trkpt lat="42.838844" lon="0.153638">
        <ele>2238.033</ele>
        <time>2020-07-01T17:20:54Z</time>
      </trkpt>
      <trkpt lat="42.838850" lon="0.153507">
        <ele>2240.031</ele>
        <time>2020-07-01T17:21:01Z</time>
      </trkpt>
      <trkpt lat="42.838854" lon="0.153375">
        <ele>2242.054</ele>
        <time>2020-07-01T17:21:10Z</time>
      </trkpt>
      <trkpt lat="42.838896" lon="0.153254">
        <ele>2244.091</ele>
        <time>2020-07-01T17:21:20Z</time>
      </trkpt>
      <trkpt lat="42.838911" lon="0.153130">
        <ele>2245.081</ele>
        <time>2020-07-01T17:21:30Z</time>
      </trkpt>
      <trkpt lat="42.838899" lon="0.153005">
        <ele>2244.049</ele>
        <time>2020-07-01T17:21:40Z</time>
      </trkpt>
      <trkpt lat="42.838896" lon="0.152866">
        <ele>2244.023</ele>
        <time>2020-07-01T17:21:48Z</time>
      </trkpt>
      <trkpt lat="42.838891" lon="0.152735">
        <ele>2243.046</ele>
        <time>2020-07-01T17:22:00Z</time>
      </trkpt>
      <trkpt lat="42.838901" lon="0.152600">
        <ele>2245.088</ele>
        <time>2020-07-01T17:22:10Z</time>
      </trkpt>
      <trkpt lat="42.838889" lon="0.152476">
        <ele>2248.016</ele>
        <time>2020-07-01T17:22:20Z</time>
      </trkpt>
      <trkpt lat="42.838914" lon="0.152354">
        <ele>2246.008</ele>
        <time>2020-07-01T17:22:29Z</time>
      </trkpt>
      <trkpt lat="42.838961" lon="0.152241">
        <ele>2248.049</ele>
        <time>2020-07-01T17:22:38Z</time>
      </trkpt>
      <trkpt lat="42.839012" lon="0.152127">
        <ele>2245.066</ele>
        <time>2020-07-01T17:22:47Z</time>
      </trkpt>
      <trkpt lat="42.839020" lon="0.152003">
        <ele>2245.064</ele>
        <time>2020-07-01T17:22:56Z</time>
      </trkpt>
      <trkpt lat="42.839068" lon="0.151897">
        <ele>2250.027</ele>
        <time>2020-07-01T17:23:05Z</time>
      </trkpt>
      <trkpt lat="42.839093" lon="0.151764">
        <ele>2247.024</ele>
        <time>2020-07-01T17:23:16Z</time>
      </trkpt>
      <trkpt lat="42.839095" lon="0.151635">
        <ele>2246.024</ele>
        <time>2020-07-01T17:23:25Z</time>
      </trkpt>
      <trkpt lat="42.839148" lon="0.151531">
        <ele>2247.012</ele>
        <time>2020-07-01T17:23:34Z</time>
      </trkpt>
      <trkpt lat="42.839176" lon="0.151411">
        <ele>2244.046</ele>
        <time>2020-07-01T17:23:42Z</time>
      </trkpt>
      <trkpt lat="42.839203" lon="0.151281">
        <ele>2242.068</ele>
        <time>2020-07-01T17:23:51Z</time>
      </trkpt>
      <trkpt lat="42.839230" lon="0.151156">
        <ele>2240.042</ele>
        <time>2020-07-01T17:24:03Z</time>
      </trkpt>
      <trkpt lat="42.839291" lon="0.151053">
        <ele>2240.026</ele>
        <time>2020-07-01T17:24:11Z</time>
      </trkpt>
      <trkpt lat="42.839336" lon="0.150939">
        <ele>2240.008</ele>
        <time>2020-07-01T17:24:20Z</time>
      </trkpt>
      <trkpt lat="42.839374" lon="0.150812">
        <ele>2241.071</ele>
        <time>2020-07-01T17:24:28Z</time>
      </trkpt>
      <trkpt lat="42.839383" lon="0.150686">
        <ele>2243.048</ele>
        <time>2020-07-01T17:24:35Z</time>
      </trkpt>
      <trkpt lat="42.839406" lon="0.150564">
        <ele>2240.026</ele>
        <time>2020-07-01T17:24:44Z</time>
      </trkpt>
      <trkpt lat="42.839398" lon="0.150431">
        <ele>2241.079</ele>
        <time>2020-07-01T17:24:56Z</time>
      </trkpt>
      <trkpt lat="42.839415" lon="0.150309">
        <ele>2245.016</ele>
        <time>2020-07-01T17:25:08Z</time>
      </trkpt>
      <trkpt lat="42.839411" lon="0.150187">
        <ele>2244.046</ele>
        <time>2020-07-01T17:25:38Z</time>
      </trkpt>
      <trkpt lat="42.839443" lon="0.150059">
        <ele>2245.084</ele>
        <time>2020-07-01T17:25:45Z</time>
      </trkpt>
      <trkpt lat="42.839514" lon="0.149972">
        <ele>2248.098</ele>
        <time>2020-07-01T17:25:55Z</time>
      </trkpt>
      <trkpt lat="42.839597" lon="0.149901">
        <ele>2245.029</ele>
        <time>2020-07-01T17:26:05Z</time>
      </trkpt>
      <trkpt lat="42.839665" lon="0.149809">
        <ele>2245.000</ele>
        <time>2020-07-01T17:26:14Z</time>
      </trkpt>
      <trkpt lat="42.839727" lon="0.149718">
        <ele>2242.020</ele>
        <time>2020-07-01T17:26:25Z</time>
      </trkpt>
      <trkpt lat="42.839771" lon="0.149599">
        <ele>2242.008</ele>
        <time>2020-07-01T17:26:43Z</time>
      </trkpt>
      <trkpt lat="42.839817" lon="0.149492">
        <ele>2240.087</ele>
        <time>2020-07-01T17:26:52Z</time>
      </trkpt>
      <trkpt lat="42.839892" lon="0.149401">
        <ele>2241.054</ele>
        <time>2020-07-01T17:27:02Z</time>
      </trkpt>
      <trkpt lat="42.839982" lon="0.149380">
        <ele>2246.092</ele>
        <time>2020-07-01T17:27:15Z</time>
      </trkpt>
      <trkpt lat="42.840074" lon="0.149368">
        <ele>2244.015</ele>
        <time>2020-07-01T17:27:24Z</time>
      </trkpt>
      <trkpt lat="42.840172" lon="0.149353">
        <ele>2247.092</ele>
        <time>2020-07-01T17:27:35Z</time>
      </trkpt>
      <trkpt lat="42.840269" lon="0.149333">
        <ele>2241.092</ele>
        <time>2020-07-01T17:27:47Z</time>
      </trkpt>
      <trkpt lat="42.840360" lon="0.149318">
        <ele>2243.050</ele>
        <time>2020-07-01T17:27:56Z</time>
      </trkpt>
      <trkpt lat="42.840441" lon="0.149374">
        <ele>2245.094</ele>
        <time>2020-07-01T17:28:05Z</time>
      </trkpt>
      <trkpt lat="42.840540" lon="0.149370">
        <ele>2240.066</ele>
        <time>2020-07-01T17:28:13Z</time>
      </trkpt>
      <trkpt lat="42.840635" lon="0.149363">
        <ele>2245.029</ele>
        <time>2020-07-01T17:28:22Z</time>
      </trkpt>
      <trkpt lat="42.840723" lon="0.149327">
        <ele>2242.021</ele>
        <time>2020-07-01T17:28:30Z</time>
      </trkpt>
      <trkpt lat="42.840816" lon="0.149314">
        <ele>2244.008</ele>
        <time>2020-07-01T17:28:39Z</time>
      </trkpt>
      <trkpt lat="42.840913" lon="0.149290">
        <ele>2245.021</ele>
        <time>2020-07-01T17:28:49Z</time>
      </trkpt>
      <trkpt lat="42.841005" lon="0.149276">
        <ele>2246.038</ele>
        <time>2020-07-01T17:28:59Z</time>
      </trkpt>
      <trkpt lat="42.841103" lon="0.149256">
        <ele>2247.056</ele>
        <time>2020-07-01T17:29:10Z</time>
      </trkpt>
      <trkpt lat="42.841190" lon="0.149316">
        <ele>2247.069</ele>
        <time>2020-07-01T17:29:20Z</time>
      </trkpt>
      <trkpt lat="42.841288" lon="0.149352">
        <ele>2246.066</ele>
        <time>2020-07-01T17:29:30Z</time>
      </trkpt>
      <trkpt lat="42.841379" lon="0.149401">
        <ele>2250.066</ele>
        <time>2020-07-01T17:29:40Z</time>
      </trkpt>
      <trkpt lat="42.841430" lon="0.149298">
        <ele>2251.034</ele>
        <time>2020-07-01T17:30:07Z</time>
      </trkpt>
      <trkpt lat="42.841479" lon="0.149194">
        <ele>2250.048</ele>
        <time>2020-07-01T17:30:29Z</time>
      </trkpt>
      <trkpt lat="42.841574" lon="0.149182">
        <ele>2255.032</ele>
        <time>2020-07-01T17:30:40Z</time>
      </trkpt>
      <trkpt lat="42.841639" lon="0.149089">
        <ele>2251.092</ele>
        <time>2020-07-01T17:30:51Z</time>
      </trkpt>
      <trkpt lat="42.841702" lon="0.149002">
        <ele>2251.011</ele>
        <time>2020-07-01T17:31:03Z</time>
      </trkpt>
      <trkpt lat="42.841785" lon="0.148942">
        <ele>2253.008</ele>
        <time>2020-07-01T17:31:17Z</time>
      </trkpt>
      <trkpt lat="42.841865" lon="0.148864">
        <ele>2250.028</ele>
        <time>2020-07-01T17:31:26Z</time>
      </trkpt>
      <trkpt lat="42.841943" lon="0.148795">
        <ele>2252.075</ele>
        <time>2020-07-01T17:31:38Z</time>
      </trkpt>
      <trkpt lat="42.842028" lon="0.148725">
        <ele>2254.073</ele>
        <time>2020-07-01T17:31:51Z</time>
      </trkpt>
      <trkpt lat="42.842079" lon="0.148615">
        <ele>2258.046</ele>
        <time>2020-07-01T17:32:02Z</time>
      </trkpt>
      <trkpt lat="42.842140" lon="0.148513">
        <ele>2254.013</ele>
        <time>2020-07-01T17:32:14Z</time>
      </trkpt>
      <trkpt lat="42.842202" lon="0.148417">
        <ele>2249.083</ele>
        <time>2020-07-01T17:32:29Z</time>
      </trkpt>
      <trkpt lat="42.842244" lon="0.148309">
        <ele>2249.021</ele>
        <time>2020-07-01T17:32:50Z</time>
      </trkpt>
      <trkpt lat="42.842255" lon="0.148172">
        <ele>2248.075</ele>
        <time>2020-07-01T17:33:00Z</time>
      </trkpt>
      <trkpt lat="42.842238" lon="0.148049">
        <ele>2249.059</ele>
        <time>2020-07-01T17:33:12Z</time>
      </trkpt>
      <trkpt lat="42.842250" lon="0.147922">
        <ele>2250.003</ele>
        <time>2020-07-01T17:33:32Z</time>
      </trkpt>
      <trkpt lat="42.842245" lon="0.147789">
        <ele>2252.023</ele>
        <time>2020-07-01T17:33:45Z</time>
      </trkpt>
      <trkpt lat="42.842246" lon="0.147654">
        <ele>2249.008</ele>
        <time>2020-07-01T17:33:59Z</time>
      </trkpt>
      <trkpt lat="42.842278" lon="0.147532">
        <ele>2250.010</ele>
        <time>2020-07-01T17:34:10Z</time>
      </trkpt>
      <trkpt lat="42.842299" lon="0.147403">
        <ele>2246.077</ele>
        <time>2020-07-01T17:34:22Z</time>
      </trkpt>
      <trkpt lat="42.842351" lon="0.147297">
        <ele>2247.045</ele>
        <time>2020-07-01T17:34:33Z</time>
      </trkpt>
      <trkpt lat="42.842393" lon="0.147182">
        <ele>2249.048</ele>
        <time>2020-07-01T17:34:42Z</time>
      </trkpt>
      <trkpt lat="42.842459" lon="0.147093">
        <ele>2242.065</ele>
        <time>2020-07-01T17:34:59Z</time>
      </trkpt>
      <trkpt lat="42.842518" lon="0.146996">
        <ele>2242.085</ele>
        <time>2020-07-01T17:35:11Z</time>
      </trkpt>
      <trkpt lat="42.842568" lon="0.146890">
        <ele>2240.053</ele>
        <time>2020-07-01T17:35:23Z</time>
      </trkpt>
      <trkpt lat="42.842625" lon="0.146789">
        <ele>2243.057</ele>
        <time>2020-07-01T17:35:33Z</time>
      </trkpt>
      <trkpt lat="42.842656" lon="0.146674">
        <ele>2241.088</ele>
        <time>2020-07-01T17:35:43Z</time>
      </trkpt>
      <trkpt lat="42.842651" lon="0.146545">
        <ele>2240.024</ele>
        <time>2020-07-01T17:35:53Z</time>
      </trkpt>
      <trkpt lat="42.842658" lon="0.146414">
        <ele>2242.026</ele>
        <time>2020-07-01T17:36:02Z</time>
      </trkpt>
      <trkpt lat="42.842656" lon="0.146287">
        <ele>2240.008</ele>
        <time>2020-07-01T17:36:14Z</time>
      </trkpt>
      <trkpt lat="42.842649" lon="0.146161">
        <ele>2242.083</ele>
        <time>2020-07-01T17:36:25Z</time>
      </trkpt>
      <trkpt lat="42.842626" lon="0.146033">
        <ele>2245.010</ele>
        <time>2020-07-01T17:36:34Z</time>
      </trkpt>
      <trkpt lat="42.842627" lon="0.145903">
        <ele>2245.068</ele>
        <time>2020-07-01T17:36:43Z</time>
      </trkpt>
      <trkpt lat="42.842610" lon="0.145781">
        <ele>2247.081</ele>
        <time>2020-07-01T17:36:52Z</time>
      </trkpt>
      <trkpt lat="42.842585" lon="0.145660">
        <ele>2241.038</ele>
        <time>2020-07-01T17:37:03Z</time>
      </trkpt>
      <trkpt lat="42.842517" lon="0.145571">
        <ele>2243.058</ele>
        <time>2020-07-01T17:37:16Z</time>
      </trkpt>
      <trkpt lat="42.842432" lon="0.145533">
        <ele>2242.016</ele>
        <time>2020-07-01T17:37:33Z</time>
      </trkpt>
      <trkpt lat="42.842350" lon="0.145466">
        <ele>2242.040</ele>
        <time>2020-07-01T17:37:46Z</time>
      </trkpt>
      <trkpt lat="42.842258" lon="0.145415">
        <ele>2242.024</ele>
        <time>2020-07-01T17:37:57Z</time>
      </trkpt>
      <trkpt lat="42.842173" lon="0.145367">
        <ele>2233.004</ele>
        <time>2020-07-01T17:38:10Z</time>
      </trkpt>
      <trkpt lat="42.842087" lon="0.145324">
        <ele>2232.014</ele>
        <time>2020-07-01T17:38:24Z</time>
      </trkpt>
      <trkpt lat="42.841997" lon="0.145306">
        <ele>2234.008</ele>
        <time>2020-07-01T17:38:33Z</time>
      </trkpt>
      <trkpt lat="42.841910" lon="0.145273">
        <ele>2236.077</ele>
        <time>2020-07-01T17:38:56Z</time>
      </trkpt>
      <trkpt lat="42.841817" lon="0.145254">
        <ele>2230.084</ele>
        <time>2020-07-01T17:39:10Z</time>
      </trkpt>
      <trkpt lat="42.841729" lon="0.145287">
        <ele>2227.042</ele>
        <time>2020-07-01T17:39:23Z</time>
      </trkpt>
      <trkpt lat="42.841629" lon="0.145269">
        <ele>2227.055</ele>
        <time>2020-07-01T17:39:32Z</time>
      </trkpt>
      <trkpt lat="42.841552" lon="0.145194">
        <ele>2225.052</ele>
        <time>2020-07-01T17:39:38Z</time>
      </trkpt>
      <trkpt lat="42.841466" lon="0.145127">
        <ele>2223.042</ele>
        <time>2020-07-01T17:39:46Z</time>
      </trkpt>
      <trkpt lat="42.841381" lon="0.145075">
        <ele>2224.080</ele>
        <time>2020-07-01T17:39:56Z</time>
      </trkpt>
      <trkpt lat="42.841322" lon="0.144966">
        <ele>2223.084</ele>
        <time>2020-07-01T17:40:11Z</time>
      </trkpt>
      <trkpt lat="42.841280" lon="0.144848">
        <ele>2223.079</ele>
        <time>2020-07-01T17:40:18Z</time>
      </trkpt>
      <trkpt lat="42.841277" lon="0.144725">
        <ele>2225.005</ele>
        <time>2020-07-01T17:40:29Z</time>
      </trkpt>
      <trkpt lat="42.841272" lon="0.144594">
        <ele>2222.025</ele>
        <time>2020-07-01T17:40:44Z</time>
      </trkpt>
      <trkpt lat="42.841274" lon="0.144467">
        <ele>2221.008</ele>
        <time>2020-07-01T17:40:58Z</time>
      </trkpt>
      <trkpt lat="42.841276" lon="0.144332">
        <ele>2222.032</ele>
        <time>2020-07-01T17:41:06Z</time>
      </trkpt>
      <trkpt lat="42.841277" lon="0.144208">
        <ele>2216.039</ele>
        <time>2020-07-01T17:41:15Z</time>
      </trkpt>
      <trkpt lat="42.841209" lon="0.144106">
        <ele>2216.027</ele>
        <time>2020-07-01T17:41:26Z</time>
      </trkpt>
      <trkpt lat="42.841137" lon="0.144021">
        <ele>2216.010</ele>
        <time>2020-07-01T17:41:38Z</time>
      </trkpt>
      <trkpt lat="42.841063" lon="0.143948">
        <ele>2218.047</ele>
        <time>2020-07-01T17:41:55Z</time>
      </trkpt>
      <trkpt lat="42.840986" lon="0.143876">
        <ele>2215.017</ele>
        <time>2020-07-01T17:42:04Z</time>
      </trkpt>
      <trkpt lat="42.840913" lon="0.143802">
        <ele>2213.055</ele>
        <time>2020-07-01T17:42:15Z</time>
      </trkpt>
      <trkpt lat="42.840819" lon="0.143812">
        <ele>2209.069</ele>
        <time>2020-07-01T17:42:26Z</time>
      </trkpt>
      <trkpt lat="42.840744" lon="0.143738">
        <ele>2209.078</ele>
        <time>2020-07-01T17:42:35Z</time>
      </trkpt>
      <trkpt lat="42.840660" lon="0.143688">
        <ele>2207.033</ele>
        <time>2020-07-01T17:42:46Z</time>
      </trkpt>
      <trkpt lat="42.840575" lon="0.143644">
        <ele>2209.026</ele>
        <time>2020-07-01T17:42:57Z</time>
      </trkpt>
    </trkseg>
  </trk>
</gpx>
